<?xml version="1.0" encoding="UTF-8" standalone="no" ?>
<gpx xmlns="http://www.topografix.com/GPX/1/1" xmlns:xsi="http://www.w3.org/2001/XMLSchema-instance" xsi:schemaLocation="http://www.topografix.com/GPX/1/1 http://www.topografix.com/GPX/1/1/gpx.xsd" version="1.1" creator="VisuGPX - https://www.visugpx.com">
  <metadata>
    <name>Lac des Rives et berges de la Lergue</name>
    <desc><![CDATA[Aller-retour à une jolie arche après le lac des Rives.

#enregistré #asptt-dimanche]]></desc>
  </metadata>
  <trk>
    <name><![CDATA[2026-03-29 09:20]]></name>
    <extensions>
      <line xmlns="http://www.topografix.com/GPX/gpx_style/0/2">
        <color>0000FF</color>
        <opacity>0.59</opacity>
        <width>6.0</width>
      </line>
    </extensions>
    <trkseg>
      <trkpt lat="43.86445" lon="3.3165">
        <ele>743.32</ele>
        <time>2026-03-29T07:20:57.046Z</time>
      </trkpt>
      <trkpt lat="43.86445" lon="3.31654">
        <ele>744.32</ele>
        <time>2026-03-29T07:21:02.062Z</time>
      </trkpt>
      <trkpt lat="43.86442" lon="3.31657">
        <ele>744.32</ele>
        <time>2026-03-29T07:21:07.089Z</time>
      </trkpt>
      <trkpt lat="43.8644" lon="3.3167">
        <ele>745.7</ele>
        <time>2026-03-29T07:21:13.064Z</time>
      </trkpt>
      <trkpt lat="43.86439" lon="3.31674">
        <ele>746.69</ele>
        <time>2026-03-29T07:21:18.065Z</time>
      </trkpt>
      <trkpt lat="43.86438" lon="3.3168">
        <ele>744.42</ele>
        <time>2026-03-29T07:21:23.439Z</time>
      </trkpt>
      <trkpt lat="43.86434" lon="3.31684">
        <ele>744.42</ele>
        <time>2026-03-29T07:21:29.029Z</time>
      </trkpt>
      <trkpt lat="43.86431" lon="3.31688">
        <ele>744.42</ele>
        <time>2026-03-29T07:21:34.393Z</time>
      </trkpt>
      <trkpt lat="43.86429" lon="3.31695">
        <ele>744.42</ele>
        <time>2026-03-29T07:21:39.675Z</time>
      </trkpt>
      <trkpt lat="43.86428" lon="3.31704">
        <ele>744.42</ele>
        <time>2026-03-29T07:21:44.858Z</time>
      </trkpt>
      <trkpt lat="43.86425" lon="3.31711">
        <ele>744.42</ele>
        <time>2026-03-29T07:21:50.388Z</time>
      </trkpt>
      <trkpt lat="43.86421" lon="3.31719">
        <ele>746.12</ele>
        <time>2026-03-29T07:21:56.024Z</time>
      </trkpt>
      <trkpt lat="43.86417" lon="3.31727">
        <ele>746.12</ele>
        <time>2026-03-29T07:22:01.056Z</time>
      </trkpt>
      <trkpt lat="43.86414" lon="3.31735">
        <ele>749.62</ele>
        <time>2026-03-29T07:22:06.198Z</time>
      </trkpt>
      <trkpt lat="43.86409" lon="3.31744">
        <ele>749.02</ele>
        <time>2026-03-29T07:22:11.660Z</time>
      </trkpt>
      <trkpt lat="43.86405" lon="3.31751">
        <ele>748.23</ele>
        <time>2026-03-29T07:22:16.700Z</time>
      </trkpt>
      <trkpt lat="43.86403" lon="3.31761">
        <ele>748.69</ele>
        <time>2026-03-29T07:22:21.859Z</time>
      </trkpt>
      <trkpt lat="43.864" lon="3.3177">
        <ele>748.72</ele>
        <time>2026-03-29T07:22:27.063Z</time>
      </trkpt>
      <trkpt lat="43.86395" lon="3.31776">
        <ele>748.72</ele>
        <time>2026-03-29T07:22:32.534Z</time>
      </trkpt>
      <trkpt lat="43.86389" lon="3.31782">
        <ele>748.32</ele>
        <time>2026-03-29T07:22:37.979Z</time>
      </trkpt>
      <trkpt lat="43.86388" lon="3.31786">
        <ele>748.22</ele>
        <time>2026-03-29T07:22:43.354Z</time>
      </trkpt>
      <trkpt lat="43.86386" lon="3.31783">
        <ele>748.79</ele>
        <time>2026-03-29T07:22:48.749Z</time>
      </trkpt>
      <trkpt lat="43.86385" lon="3.31774">
        <ele>748.06</ele>
        <time>2026-03-29T07:22:53.916Z</time>
      </trkpt>
      <trkpt lat="43.86383" lon="3.31767">
        <ele>748.22</ele>
        <time>2026-03-29T07:22:58.957Z</time>
      </trkpt>
      <trkpt lat="43.8638" lon="3.3176">
        <ele>746.58</ele>
        <time>2026-03-29T07:23:03.998Z</time>
      </trkpt>
      <trkpt lat="43.86378" lon="3.31753">
        <ele>751.77</ele>
        <time>2026-03-29T07:23:09.393Z</time>
      </trkpt>
      <trkpt lat="43.86374" lon="3.31746">
        <ele>752.83</ele>
        <time>2026-03-29T07:23:14.772Z</time>
      </trkpt>
      <trkpt lat="43.86369" lon="3.31741">
        <ele>751.12</ele>
        <time>2026-03-29T07:23:19.850Z</time>
      </trkpt>
      <trkpt lat="43.86363" lon="3.31734">
        <ele>747.41</ele>
        <time>2026-03-29T07:23:25.358Z</time>
      </trkpt>
      <trkpt lat="43.86358" lon="3.31727">
        <ele>746.5</ele>
        <time>2026-03-29T07:23:31.073Z</time>
      </trkpt>
      <trkpt lat="43.86352" lon="3.31719">
        <ele>745.9</ele>
        <time>2026-03-29T07:23:36.554Z</time>
      </trkpt>
      <trkpt lat="43.86347" lon="3.31712">
        <ele>745.12</ele>
        <time>2026-03-29T07:23:42.048Z</time>
      </trkpt>
      <trkpt lat="43.86341" lon="3.31705">
        <ele>744.82</ele>
        <time>2026-03-29T07:23:47.671Z</time>
      </trkpt>
      <trkpt lat="43.86334" lon="3.31698">
        <ele>744.83</ele>
        <time>2026-03-29T07:23:52.993Z</time>
      </trkpt>
      <trkpt lat="43.86329" lon="3.31691">
        <ele>745.92</ele>
        <time>2026-03-29T07:23:58.051Z</time>
      </trkpt>
      <trkpt lat="43.86325" lon="3.31685">
        <ele>745.92</ele>
        <time>2026-03-29T07:24:03.060Z</time>
      </trkpt>
      <trkpt lat="43.86319" lon="3.31684">
        <ele>745.92</ele>
        <time>2026-03-29T07:24:08.776Z</time>
      </trkpt>
      <trkpt lat="43.86312" lon="3.31682">
        <ele>745.62</ele>
        <time>2026-03-29T07:24:14.052Z</time>
      </trkpt>
      <trkpt lat="43.86305" lon="3.3168">
        <ele>745.62</ele>
        <time>2026-03-29T07:24:19.649Z</time>
      </trkpt>
      <trkpt lat="43.86298" lon="3.31677">
        <ele>745.62</ele>
        <time>2026-03-29T07:24:25.050Z</time>
      </trkpt>
      <trkpt lat="43.86294" lon="3.31673">
        <ele>745.62</ele>
        <time>2026-03-29T07:24:30.057Z</time>
      </trkpt>
      <trkpt lat="43.86289" lon="3.3167">
        <ele>745.07</ele>
        <time>2026-03-29T07:24:35.510Z</time>
      </trkpt>
      <trkpt lat="43.86285" lon="3.31666">
        <ele>745.4</ele>
        <time>2026-03-29T07:24:40.675Z</time>
      </trkpt>
      <trkpt lat="43.86279" lon="3.31663">
        <ele>745.64</ele>
        <time>2026-03-29T07:24:46.066Z</time>
      </trkpt>
      <trkpt lat="43.86271" lon="3.3166">
        <ele>745.82</ele>
        <time>2026-03-29T07:24:51.556Z</time>
      </trkpt>
      <trkpt lat="43.86265" lon="3.31657">
        <ele>746</ele>
        <time>2026-03-29T07:24:57.034Z</time>
      </trkpt>
      <trkpt lat="43.86259" lon="3.31653">
        <ele>745.65</ele>
        <time>2026-03-29T07:25:02.519Z</time>
      </trkpt>
      <trkpt lat="43.86253" lon="3.31648">
        <ele>745.76</ele>
        <time>2026-03-29T07:25:07.555Z</time>
      </trkpt>
      <trkpt lat="43.86247" lon="3.31643">
        <ele>745.84</ele>
        <time>2026-03-29T07:25:12.794Z</time>
      </trkpt>
      <trkpt lat="43.86241" lon="3.31639">
        <ele>745.85</ele>
        <time>2026-03-29T07:25:17.834Z</time>
      </trkpt>
      <trkpt lat="43.86237" lon="3.31633">
        <ele>745.37</ele>
        <time>2026-03-29T07:25:23.194Z</time>
      </trkpt>
      <trkpt lat="43.86237" lon="3.31625">
        <ele>744.2</ele>
        <time>2026-03-29T07:25:28.705Z</time>
      </trkpt>
      <trkpt lat="43.8624" lon="3.31617">
        <ele>743.44</ele>
        <time>2026-03-29T07:25:34.120Z</time>
      </trkpt>
      <trkpt lat="43.86242" lon="3.31608">
        <ele>745.52</ele>
        <time>2026-03-29T07:25:39.623Z</time>
      </trkpt>
      <trkpt lat="43.86244" lon="3.31598">
        <ele>745.52</ele>
        <time>2026-03-29T07:25:44.904Z</time>
      </trkpt>
      <trkpt lat="43.86244" lon="3.31587">
        <ele>743.8</ele>
        <time>2026-03-29T07:25:50.219Z</time>
      </trkpt>
      <trkpt lat="43.86245" lon="3.31577">
        <ele>742.43</ele>
        <time>2026-03-29T07:25:56.042Z</time>
      </trkpt>
      <trkpt lat="43.86247" lon="3.31567">
        <ele>746.58</ele>
        <time>2026-03-29T07:26:01.533Z</time>
      </trkpt>
      <trkpt lat="43.8625" lon="3.31557">
        <ele>745.56</ele>
        <time>2026-03-29T07:26:06.630Z</time>
      </trkpt>
      <trkpt lat="43.86252" lon="3.31544">
        <ele>744.25</ele>
        <time>2026-03-29T07:26:12.659Z</time>
      </trkpt>
      <trkpt lat="43.86252" lon="3.31534">
        <ele>742.33</ele>
        <time>2026-03-29T07:26:18.069Z</time>
      </trkpt>
      <trkpt lat="43.8625" lon="3.31524">
        <ele>742.22</ele>
        <time>2026-03-29T07:26:23.531Z</time>
      </trkpt>
      <trkpt lat="43.86244" lon="3.31516">
        <ele>742.22</ele>
        <time>2026-03-29T07:26:28.875Z</time>
      </trkpt>
      <trkpt lat="43.86238" lon="3.3151">
        <ele>742.22</ele>
        <time>2026-03-29T07:26:34.045Z</time>
      </trkpt>
      <trkpt lat="43.86236" lon="3.31504">
        <ele>741.32</ele>
        <time>2026-03-29T07:26:39.080Z</time>
      </trkpt>
      <trkpt lat="43.86227" lon="3.31504">
        <ele>741.41</ele>
        <time>2026-03-29T07:26:44.795Z</time>
      </trkpt>
      <trkpt lat="43.86219" lon="3.31501">
        <ele>741.32</ele>
        <time>2026-03-29T07:26:50.813Z</time>
      </trkpt>
      <trkpt lat="43.86211" lon="3.31495">
        <ele>741.47</ele>
        <time>2026-03-29T07:26:56.635Z</time>
      </trkpt>
      <trkpt lat="43.86207" lon="3.31491">
        <ele>739.12</ele>
        <time>2026-03-29T07:27:02.008Z</time>
      </trkpt>
      <trkpt lat="43.86207" lon="3.31479">
        <ele>738.84</ele>
        <time>2026-03-29T07:27:07.497Z</time>
      </trkpt>
      <trkpt lat="43.8621" lon="3.3147">
        <ele>741.37</ele>
        <time>2026-03-29T07:27:12.759Z</time>
      </trkpt>
      <trkpt lat="43.86214" lon="3.31459">
        <ele>741.47</ele>
        <time>2026-03-29T07:27:18.603Z</time>
      </trkpt>
      <trkpt lat="43.86216" lon="3.31448">
        <ele>741.52</ele>
        <time>2026-03-29T07:27:24.042Z</time>
      </trkpt>
      <trkpt lat="43.86216" lon="3.31437">
        <ele>739.5</ele>
        <time>2026-03-29T07:27:29.064Z</time>
      </trkpt>
      <trkpt lat="43.86214" lon="3.31427">
        <ele>738.88</ele>
        <time>2026-03-29T07:27:35.037Z</time>
      </trkpt>
      <trkpt lat="43.86215" lon="3.31418">
        <ele>738.73</ele>
        <time>2026-03-29T07:27:40.479Z</time>
      </trkpt>
      <trkpt lat="43.86215" lon="3.31408">
        <ele>738.38</ele>
        <time>2026-03-29T07:27:45.864Z</time>
      </trkpt>
      <trkpt lat="43.86216" lon="3.31398">
        <ele>738.17</ele>
        <time>2026-03-29T07:27:51.074Z</time>
      </trkpt>
      <trkpt lat="43.86218" lon="3.31387">
        <ele>738.25</ele>
        <time>2026-03-29T07:27:56.720Z</time>
      </trkpt>
      <trkpt lat="43.86221" lon="3.31379">
        <ele>736.29</ele>
        <time>2026-03-29T07:28:02.054Z</time>
      </trkpt>
      <trkpt lat="43.86223" lon="3.31369">
        <ele>735.92</ele>
        <time>2026-03-29T07:28:07.598Z</time>
      </trkpt>
      <trkpt lat="43.86223" lon="3.31359">
        <ele>735.92</ele>
        <time>2026-03-29T07:28:13.100Z</time>
      </trkpt>
      <trkpt lat="43.86219" lon="3.31351">
        <ele>735.92</ele>
        <time>2026-03-29T07:28:18.525Z</time>
      </trkpt>
      <trkpt lat="43.86214" lon="3.31345">
        <ele>735.92</ele>
        <time>2026-03-29T07:28:23.981Z</time>
      </trkpt>
      <trkpt lat="43.86209" lon="3.3134">
        <ele>735.92</ele>
        <time>2026-03-29T07:28:29.065Z</time>
      </trkpt>
      <trkpt lat="43.86204" lon="3.31332">
        <ele>735.92</ele>
        <time>2026-03-29T07:28:34.818Z</time>
      </trkpt>
      <trkpt lat="43.862" lon="3.31323">
        <ele>735.92</ele>
        <time>2026-03-29T07:28:40.089Z</time>
      </trkpt>
      <trkpt lat="43.86196" lon="3.31315">
        <ele>735.92</ele>
        <time>2026-03-29T07:28:45.724Z</time>
      </trkpt>
      <trkpt lat="43.8619" lon="3.3131">
        <ele>735.92</ele>
        <time>2026-03-29T07:28:51.023Z</time>
      </trkpt>
      <trkpt lat="43.86185" lon="3.31304">
        <ele>735.62</ele>
        <time>2026-03-29T07:28:56.095Z</time>
      </trkpt>
      <trkpt lat="43.86179" lon="3.31296">
        <ele>735.85</ele>
        <time>2026-03-29T07:29:02.023Z</time>
      </trkpt>
      <trkpt lat="43.86176" lon="3.31291">
        <ele>735.62</ele>
        <time>2026-03-29T07:29:07.059Z</time>
      </trkpt>
      <trkpt lat="43.86171" lon="3.31285">
        <ele>735.62</ele>
        <time>2026-03-29T07:29:12.079Z</time>
      </trkpt>
      <trkpt lat="43.86164" lon="3.31281">
        <ele>735.63</ele>
        <time>2026-03-29T07:29:17.618Z</time>
      </trkpt>
      <trkpt lat="43.86157" lon="3.31277">
        <ele>735.62</ele>
        <time>2026-03-29T07:29:23.052Z</time>
      </trkpt>
      <trkpt lat="43.8615" lon="3.31275">
        <ele>735.95</ele>
        <time>2026-03-29T07:29:28.642Z</time>
      </trkpt>
      <trkpt lat="43.86143" lon="3.31272">
        <ele>736.5</ele>
        <time>2026-03-29T07:29:33.724Z</time>
      </trkpt>
      <trkpt lat="43.86137" lon="3.3127">
        <ele>736.77</ele>
        <time>2026-03-29T07:29:39.061Z</time>
      </trkpt>
      <trkpt lat="43.86131" lon="3.31266">
        <ele>737.52</ele>
        <time>2026-03-29T07:29:44.178Z</time>
      </trkpt>
      <trkpt lat="43.86126" lon="3.3126">
        <ele>737.86</ele>
        <time>2026-03-29T07:29:49.397Z</time>
      </trkpt>
      <trkpt lat="43.86122" lon="3.31252">
        <ele>738.15</ele>
        <time>2026-03-29T07:29:54.836Z</time>
      </trkpt>
      <trkpt lat="43.86119" lon="3.31244">
        <ele>738.19</ele>
        <time>2026-03-29T07:30:00.401Z</time>
      </trkpt>
      <trkpt lat="43.86116" lon="3.31235">
        <ele>738.52</ele>
        <time>2026-03-29T07:30:05.843Z</time>
      </trkpt>
      <trkpt lat="43.86112" lon="3.31226">
        <ele>738.55</ele>
        <time>2026-03-29T07:30:11.060Z</time>
      </trkpt>
      <trkpt lat="43.86107" lon="3.31217">
        <ele>738.83</ele>
        <time>2026-03-29T07:30:16.836Z</time>
      </trkpt>
      <trkpt lat="43.86102" lon="3.3121">
        <ele>738.49</ele>
        <time>2026-03-29T07:30:22.055Z</time>
      </trkpt>
      <trkpt lat="43.86098" lon="3.31201">
        <ele>738.58</ele>
        <time>2026-03-29T07:30:27.904Z</time>
      </trkpt>
      <trkpt lat="43.86095" lon="3.31191">
        <ele>738.69</ele>
        <time>2026-03-29T07:30:33.426Z</time>
      </trkpt>
      <trkpt lat="43.86092" lon="3.31182">
        <ele>738.97</ele>
        <time>2026-03-29T07:30:39.043Z</time>
      </trkpt>
      <trkpt lat="43.86088" lon="3.31173">
        <ele>739.11</ele>
        <time>2026-03-29T07:30:44.641Z</time>
      </trkpt>
      <trkpt lat="43.86085" lon="3.31165">
        <ele>738.76</ele>
        <time>2026-03-29T07:30:50.091Z</time>
      </trkpt>
      <trkpt lat="43.86083" lon="3.31156">
        <ele>738.58</ele>
        <time>2026-03-29T07:30:55.183Z</time>
      </trkpt>
      <trkpt lat="43.8608" lon="3.31148">
        <ele>738.73</ele>
        <time>2026-03-29T07:31:00.784Z</time>
      </trkpt>
      <trkpt lat="43.86076" lon="3.3114">
        <ele>738.65</ele>
        <time>2026-03-29T07:31:06.099Z</time>
      </trkpt>
      <trkpt lat="43.86073" lon="3.31131">
        <ele>738.75</ele>
        <time>2026-03-29T07:31:11.743Z</time>
      </trkpt>
      <trkpt lat="43.86071" lon="3.31123">
        <ele>738.82</ele>
        <time>2026-03-29T07:31:17.317Z</time>
      </trkpt>
      <trkpt lat="43.86068" lon="3.31114">
        <ele>739.27</ele>
        <time>2026-03-29T07:31:22.818Z</time>
      </trkpt>
      <trkpt lat="43.86064" lon="3.31106">
        <ele>740.38</ele>
        <time>2026-03-29T07:31:28.357Z</time>
      </trkpt>
      <trkpt lat="43.8606" lon="3.31097">
        <ele>740.47</ele>
        <time>2026-03-29T07:31:33.943Z</time>
      </trkpt>
      <trkpt lat="43.86055" lon="3.3109">
        <ele>740.54</ele>
        <time>2026-03-29T07:31:39.070Z</time>
      </trkpt>
      <trkpt lat="43.8605" lon="3.31082">
        <ele>740.58</ele>
        <time>2026-03-29T07:31:44.977Z</time>
      </trkpt>
      <trkpt lat="43.86045" lon="3.31075">
        <ele>740.18</ele>
        <time>2026-03-29T07:31:50.463Z</time>
      </trkpt>
      <trkpt lat="43.86042" lon="3.31068">
        <ele>739.97</ele>
        <time>2026-03-29T07:31:56.060Z</time>
      </trkpt>
      <trkpt lat="43.86036" lon="3.31064">
        <ele>739.81</ele>
        <time>2026-03-29T07:32:01.078Z</time>
      </trkpt>
      <trkpt lat="43.86029" lon="3.31059">
        <ele>740.62</ele>
        <time>2026-03-29T07:32:06.880Z</time>
      </trkpt>
      <trkpt lat="43.86022" lon="3.31058">
        <ele>741.23</ele>
        <time>2026-03-29T07:32:12.365Z</time>
      </trkpt>
      <trkpt lat="43.86015" lon="3.31059">
        <ele>741.13</ele>
        <time>2026-03-29T07:32:17.841Z</time>
      </trkpt>
      <trkpt lat="43.86007" lon="3.31059">
        <ele>739.88</ele>
        <time>2026-03-29T07:32:23.331Z</time>
      </trkpt>
      <trkpt lat="43.86" lon="3.31059">
        <ele>739.25</ele>
        <time>2026-03-29T07:32:28.737Z</time>
      </trkpt>
      <trkpt lat="43.85992" lon="3.3106">
        <ele>737.92</ele>
        <time>2026-03-29T07:32:34.032Z</time>
      </trkpt>
      <trkpt lat="43.85987" lon="3.3106">
        <ele>737.72</ele>
        <time>2026-03-29T07:32:39.066Z</time>
      </trkpt>
      <trkpt lat="43.85978" lon="3.31063">
        <ele>737.28</ele>
        <time>2026-03-29T07:32:45.089Z</time>
      </trkpt>
      <trkpt lat="43.85971" lon="3.31064">
        <ele>735.83</ele>
        <time>2026-03-29T07:32:50.623Z</time>
      </trkpt>
      <trkpt lat="43.85964" lon="3.31064">
        <ele>735.27</ele>
        <time>2026-03-29T07:32:56.078Z</time>
      </trkpt>
      <trkpt lat="43.85958" lon="3.31061">
        <ele>734.07</ele>
        <time>2026-03-29T07:33:01.483Z</time>
      </trkpt>
      <trkpt lat="43.85952" lon="3.31055">
        <ele>733.66</ele>
        <time>2026-03-29T07:33:06.976Z</time>
      </trkpt>
      <trkpt lat="43.85948" lon="3.31045">
        <ele>732.78</ele>
        <time>2026-03-29T07:33:12.524Z</time>
      </trkpt>
      <trkpt lat="43.85947" lon="3.31035">
        <ele>731.61</ele>
        <time>2026-03-29T07:33:17.998Z</time>
      </trkpt>
      <trkpt lat="43.85949" lon="3.31026">
        <ele>731.87</ele>
        <time>2026-03-29T07:33:23.088Z</time>
      </trkpt>
      <trkpt lat="43.85951" lon="3.31016">
        <ele>731.99</ele>
        <time>2026-03-29T07:33:28.897Z</time>
      </trkpt>
      <trkpt lat="43.85952" lon="3.31005">
        <ele>732.48</ele>
        <time>2026-03-29T07:33:34.113Z</time>
      </trkpt>
      <trkpt lat="43.85952" lon="3.30994">
        <ele>733.03</ele>
        <time>2026-03-29T07:33:39.838Z</time>
      </trkpt>
      <trkpt lat="43.8595" lon="3.30984">
        <ele>733.81</ele>
        <time>2026-03-29T07:33:45.403Z</time>
      </trkpt>
      <trkpt lat="43.85952" lon="3.30978">
        <ele>733.54</ele>
        <time>2026-03-29T07:33:51.056Z</time>
      </trkpt>
      <trkpt lat="43.85955" lon="3.30974">
        <ele>733.62</ele>
        <time>2026-03-29T07:33:56.861Z</time>
      </trkpt>
      <trkpt lat="43.85955" lon="3.30969">
        <ele>733.53</ele>
        <time>2026-03-29T07:34:02.077Z</time>
      </trkpt>
      <trkpt lat="43.85954" lon="3.3097">
        <ele>732.61</ele>
        <time>2026-03-29T07:34:08.031Z</time>
      </trkpt>
      <trkpt lat="43.85955" lon="3.30969">
        <ele>731.82</ele>
        <time>2026-03-29T07:34:24.077Z</time>
      </trkpt>
      <trkpt lat="43.85956" lon="3.3097">
        <ele>732.11</ele>
        <time>2026-03-29T07:34:40.051Z</time>
      </trkpt>
      <trkpt lat="43.85955" lon="3.30971">
        <ele>730.44</ele>
        <time>2026-03-29T07:34:51.103Z</time>
      </trkpt>
      <trkpt lat="43.85954" lon="3.30972">
        <ele>731.89</ele>
        <time>2026-03-29T07:34:57.063Z</time>
      </trkpt>
      <trkpt lat="43.85953" lon="3.30973">
        <ele>731.34</ele>
        <time>2026-03-29T07:35:02.065Z</time>
      </trkpt>
      <trkpt lat="43.85954" lon="3.30973">
        <ele>730.83</ele>
        <time>2026-03-29T07:35:27.070Z</time>
      </trkpt>
      <trkpt lat="43.85955" lon="3.30972">
        <ele>730.01</ele>
        <time>2026-03-29T07:35:32.963Z</time>
      </trkpt>
      <trkpt lat="43.85957" lon="3.30973">
        <ele>733.85</ele>
        <time>2026-03-29T07:35:38.982Z</time>
      </trkpt>
      <trkpt lat="43.85957" lon="3.30971">
        <ele>732.27</ele>
        <time>2026-03-29T07:35:52.081Z</time>
      </trkpt>
      <trkpt lat="43.85961" lon="3.30964">
        <ele>732.37</ele>
        <time>2026-03-29T07:35:57.523Z</time>
      </trkpt>
      <trkpt lat="43.85968" lon="3.30958">
        <ele>732.81</ele>
        <time>2026-03-29T07:36:02.698Z</time>
      </trkpt>
      <trkpt lat="43.85974" lon="3.30955">
        <ele>733.08</ele>
        <time>2026-03-29T07:36:07.919Z</time>
      </trkpt>
      <trkpt lat="43.85981" lon="3.30955">
        <ele>732.91</ele>
        <time>2026-03-29T07:36:13.001Z</time>
      </trkpt>
      <trkpt lat="43.85986" lon="3.30956">
        <ele>733.93</ele>
        <time>2026-03-29T07:36:18.053Z</time>
      </trkpt>
      <trkpt lat="43.85992" lon="3.30958">
        <ele>735.46</ele>
        <time>2026-03-29T07:36:23.338Z</time>
      </trkpt>
      <trkpt lat="43.85999" lon="3.30958">
        <ele>736.91</ele>
        <time>2026-03-29T07:36:29.069Z</time>
      </trkpt>
      <trkpt lat="43.86005" lon="3.3096">
        <ele>736.2</ele>
        <time>2026-03-29T07:36:34.318Z</time>
      </trkpt>
      <trkpt lat="43.86012" lon="3.30963">
        <ele>735.95</ele>
        <time>2026-03-29T07:36:39.437Z</time>
      </trkpt>
      <trkpt lat="43.86017" lon="3.30965">
        <ele>735.73</ele>
        <time>2026-03-29T07:36:45.076Z</time>
      </trkpt>
      <trkpt lat="43.86023" lon="3.30967">
        <ele>735.85</ele>
        <time>2026-03-29T07:36:50.601Z</time>
      </trkpt>
      <trkpt lat="43.86029" lon="3.30969">
        <ele>737.42</ele>
        <time>2026-03-29T07:36:55.864Z</time>
      </trkpt>
      <trkpt lat="43.86035" lon="3.30972">
        <ele>738.71</ele>
        <time>2026-03-29T07:37:01.081Z</time>
      </trkpt>
      <trkpt lat="43.86041" lon="3.30973">
        <ele>739.04</ele>
        <time>2026-03-29T07:37:06.523Z</time>
      </trkpt>
      <trkpt lat="43.86046" lon="3.30975">
        <ele>739.71</ele>
        <time>2026-03-29T07:37:11.837Z</time>
      </trkpt>
      <trkpt lat="43.86053" lon="3.30976">
        <ele>741.14</ele>
        <time>2026-03-29T07:37:17.038Z</time>
      </trkpt>
      <trkpt lat="43.86061" lon="3.30977">
        <ele>741.84</ele>
        <time>2026-03-29T07:37:22.957Z</time>
      </trkpt>
      <trkpt lat="43.86067" lon="3.30978">
        <ele>742.27</ele>
        <time>2026-03-29T07:37:28.478Z</time>
      </trkpt>
      <trkpt lat="43.86074" lon="3.30976">
        <ele>741.7</ele>
        <time>2026-03-29T07:37:33.900Z</time>
      </trkpt>
      <trkpt lat="43.86077" lon="3.30968">
        <ele>740.37</ele>
        <time>2026-03-29T07:37:38.907Z</time>
      </trkpt>
      <trkpt lat="43.86079" lon="3.30962">
        <ele>739.77</ele>
        <time>2026-03-29T07:37:44.389Z</time>
      </trkpt>
      <trkpt lat="43.86079" lon="3.30954">
        <ele>739.54</ele>
        <time>2026-03-29T07:37:49.528Z</time>
      </trkpt>
      <trkpt lat="43.8608" lon="3.30948">
        <ele>739.49</ele>
        <time>2026-03-29T07:37:54.807Z</time>
      </trkpt>
      <trkpt lat="43.86079" lon="3.30944">
        <ele>739.12</ele>
        <time>2026-03-29T07:38:00.080Z</time>
      </trkpt>
      <trkpt lat="43.8608" lon="3.30945">
        <ele>737.65</ele>
        <time>2026-03-29T07:38:06.112Z</time>
      </trkpt>
      <trkpt lat="43.86081" lon="3.30945">
        <ele>737.81</ele>
        <time>2026-03-29T07:38:24.109Z</time>
      </trkpt>
      <trkpt lat="43.8608" lon="3.30943">
        <ele>738.29</ele>
        <time>2026-03-29T07:38:35.943Z</time>
      </trkpt>
      <trkpt lat="43.86077" lon="3.30935">
        <ele>739.03</ele>
        <time>2026-03-29T07:38:41.092Z</time>
      </trkpt>
      <trkpt lat="43.86075" lon="3.30925">
        <ele>739.9</ele>
        <time>2026-03-29T07:38:46.389Z</time>
      </trkpt>
      <trkpt lat="43.86073" lon="3.30916">
        <ele>740.07</ele>
        <time>2026-03-29T07:38:51.624Z</time>
      </trkpt>
      <trkpt lat="43.8607" lon="3.30912">
        <ele>740.83</ele>
        <time>2026-03-29T07:38:56.909Z</time>
      </trkpt>
      <trkpt lat="43.86069" lon="3.30903">
        <ele>742.15</ele>
        <time>2026-03-29T07:39:02.059Z</time>
      </trkpt>
      <trkpt lat="43.86069" lon="3.30894">
        <ele>742.27</ele>
        <time>2026-03-29T07:39:07.074Z</time>
      </trkpt>
      <trkpt lat="43.8607" lon="3.30885">
        <ele>741.93</ele>
        <time>2026-03-29T07:39:13.024Z</time>
      </trkpt>
      <trkpt lat="43.8607" lon="3.30877">
        <ele>742.07</ele>
        <time>2026-03-29T07:39:18.031Z</time>
      </trkpt>
      <trkpt lat="43.86069" lon="3.30869">
        <ele>741.85</ele>
        <time>2026-03-29T07:39:23.032Z</time>
      </trkpt>
      <trkpt lat="43.86068" lon="3.30862">
        <ele>742.07</ele>
        <time>2026-03-29T07:39:28.036Z</time>
      </trkpt>
      <trkpt lat="43.86067" lon="3.30856">
        <ele>742.91</ele>
        <time>2026-03-29T07:39:33.059Z</time>
      </trkpt>
      <trkpt lat="43.86063" lon="3.30848">
        <ele>743.36</ele>
        <time>2026-03-29T07:39:38.138Z</time>
      </trkpt>
      <trkpt lat="43.86061" lon="3.30841">
        <ele>742.83</ele>
        <time>2026-03-29T07:39:43.365Z</time>
      </trkpt>
      <trkpt lat="43.86059" lon="3.30833">
        <ele>742.3</ele>
        <time>2026-03-29T07:39:48.568Z</time>
      </trkpt>
      <trkpt lat="43.86057" lon="3.30826">
        <ele>742.96</ele>
        <time>2026-03-29T07:39:54.083Z</time>
      </trkpt>
      <trkpt lat="43.86057" lon="3.30818">
        <ele>745.05</ele>
        <time>2026-03-29T07:39:59.669Z</time>
      </trkpt>
      <trkpt lat="43.86055" lon="3.30809">
        <ele>745.25</ele>
        <time>2026-03-29T07:40:04.825Z</time>
      </trkpt>
      <trkpt lat="43.86053" lon="3.30801">
        <ele>743.9</ele>
        <time>2026-03-29T07:40:09.977Z</time>
      </trkpt>
      <trkpt lat="43.8605" lon="3.30793">
        <ele>744.09</ele>
        <time>2026-03-29T07:40:15.045Z</time>
      </trkpt>
      <trkpt lat="43.86048" lon="3.30787">
        <ele>742.71</ele>
        <time>2026-03-29T07:40:20.079Z</time>
      </trkpt>
      <trkpt lat="43.86044" lon="3.30779">
        <ele>741.72</ele>
        <time>2026-03-29T07:40:25.765Z</time>
      </trkpt>
      <trkpt lat="43.86042" lon="3.30771">
        <ele>745.33</ele>
        <time>2026-03-29T07:40:30.965Z</time>
      </trkpt>
      <trkpt lat="43.8604" lon="3.30763">
        <ele>744.95</ele>
        <time>2026-03-29T07:40:36.034Z</time>
      </trkpt>
      <trkpt lat="43.86037" lon="3.30755">
        <ele>743.71</ele>
        <time>2026-03-29T07:40:41.801Z</time>
      </trkpt>
      <trkpt lat="43.86035" lon="3.30749">
        <ele>743.11</ele>
        <time>2026-03-29T07:40:47.038Z</time>
      </trkpt>
      <trkpt lat="43.86032" lon="3.30742">
        <ele>745.28</ele>
        <time>2026-03-29T07:40:52.903Z</time>
      </trkpt>
      <trkpt lat="43.86028" lon="3.30737">
        <ele>743.33</ele>
        <time>2026-03-29T07:40:58.057Z</time>
      </trkpt>
      <trkpt lat="43.86023" lon="3.30728">
        <ele>743.14</ele>
        <time>2026-03-29T07:41:03.644Z</time>
      </trkpt>
      <trkpt lat="43.86016" lon="3.30723">
        <ele>744.51</ele>
        <time>2026-03-29T07:41:08.667Z</time>
      </trkpt>
      <trkpt lat="43.86012" lon="3.30718">
        <ele>744.33</ele>
        <time>2026-03-29T07:41:13.786Z</time>
      </trkpt>
      <trkpt lat="43.86005" lon="3.30713">
        <ele>744.65</ele>
        <time>2026-03-29T07:41:19.108Z</time>
      </trkpt>
      <trkpt lat="43.86" lon="3.30709">
        <ele>744.51</ele>
        <time>2026-03-29T07:41:24.764Z</time>
      </trkpt>
      <trkpt lat="43.85993" lon="3.30703">
        <ele>744.02</ele>
        <time>2026-03-29T07:41:30.086Z</time>
      </trkpt>
      <trkpt lat="43.85987" lon="3.30696">
        <ele>743.57</ele>
        <time>2026-03-29T07:41:35.724Z</time>
      </trkpt>
      <trkpt lat="43.85982" lon="3.30689">
        <ele>743.54</ele>
        <time>2026-03-29T07:41:40.808Z</time>
      </trkpt>
      <trkpt lat="43.85976" lon="3.30683">
        <ele>742.96</ele>
        <time>2026-03-29T07:41:46.087Z</time>
      </trkpt>
      <trkpt lat="43.8597" lon="3.3068">
        <ele>742.43</ele>
        <time>2026-03-29T07:41:51.422Z</time>
      </trkpt>
      <trkpt lat="43.85964" lon="3.30677">
        <ele>742.29</ele>
        <time>2026-03-29T07:41:56.890Z</time>
      </trkpt>
      <trkpt lat="43.85958" lon="3.30674">
        <ele>741.91</ele>
        <time>2026-03-29T07:42:02.090Z</time>
      </trkpt>
      <trkpt lat="43.85951" lon="3.3067">
        <ele>742.18</ele>
        <time>2026-03-29T07:42:07.485Z</time>
      </trkpt>
      <trkpt lat="43.85944" lon="3.30667">
        <ele>742.24</ele>
        <time>2026-03-29T07:42:12.807Z</time>
      </trkpt>
      <trkpt lat="43.85936" lon="3.30666">
        <ele>741.78</ele>
        <time>2026-03-29T07:42:18.088Z</time>
      </trkpt>
      <trkpt lat="43.85929" lon="3.30665">
        <ele>741.58</ele>
        <time>2026-03-29T07:42:23.543Z</time>
      </trkpt>
      <trkpt lat="43.85923" lon="3.30662">
        <ele>741.13</ele>
        <time>2026-03-29T07:42:29.079Z</time>
      </trkpt>
      <trkpt lat="43.85922" lon="3.3066">
        <ele>740.67</ele>
        <time>2026-03-29T07:42:34.091Z</time>
      </trkpt>
      <trkpt lat="43.85923" lon="3.3066">
        <ele>740.51</ele>
        <time>2026-03-29T07:42:39.957Z</time>
      </trkpt>
      <trkpt lat="43.85923" lon="3.30659">
        <ele>744.57</ele>
        <time>2026-03-29T07:42:56.039Z</time>
      </trkpt>
      <trkpt lat="43.85922" lon="3.30659">
        <ele>744.85</ele>
        <time>2026-03-29T07:43:02.040Z</time>
      </trkpt>
      <trkpt lat="43.85921" lon="3.30658">
        <ele>744.09</ele>
        <time>2026-03-29T07:43:10.071Z</time>
      </trkpt>
      <trkpt lat="43.85921" lon="3.30657">
        <ele>743.93</ele>
        <time>2026-03-29T07:43:17.064Z</time>
      </trkpt>
      <trkpt lat="43.85922" lon="3.30656">
        <ele>743.92</ele>
        <time>2026-03-29T07:43:25.056Z</time>
      </trkpt>
      <trkpt lat="43.85922" lon="3.30657">
        <ele>743.13</ele>
        <time>2026-03-29T07:43:58.110Z</time>
      </trkpt>
      <trkpt lat="43.85922" lon="3.30658">
        <ele>741.34</ele>
        <time>2026-03-29T07:44:04.072Z</time>
      </trkpt>
      <trkpt lat="43.85921" lon="3.30659">
        <ele>741.26</ele>
        <time>2026-03-29T07:44:11.103Z</time>
      </trkpt>
      <trkpt lat="43.8592" lon="3.30658">
        <ele>742.02</ele>
        <time>2026-03-29T07:44:24.074Z</time>
      </trkpt>
      <trkpt lat="43.85921" lon="3.30655">
        <ele>741.55</ele>
        <time>2026-03-29T07:44:29.575Z</time>
      </trkpt>
      <trkpt lat="43.85917" lon="3.3065">
        <ele>741.76</ele>
        <time>2026-03-29T07:44:35.086Z</time>
      </trkpt>
      <trkpt lat="43.85911" lon="3.30646">
        <ele>741.37</ele>
        <time>2026-03-29T07:44:41.030Z</time>
      </trkpt>
      <trkpt lat="43.85909" lon="3.30642">
        <ele>740.16</ele>
        <time>2026-03-29T07:44:46.043Z</time>
      </trkpt>
      <trkpt lat="43.85903" lon="3.30635">
        <ele>738.97</ele>
        <time>2026-03-29T07:44:52.051Z</time>
      </trkpt>
      <trkpt lat="43.85896" lon="3.30628">
        <ele>740.27</ele>
        <time>2026-03-29T07:44:58.034Z</time>
      </trkpt>
      <trkpt lat="43.85891" lon="3.30619">
        <ele>738.71</ele>
        <time>2026-03-29T07:45:03.592Z</time>
      </trkpt>
      <trkpt lat="43.85886" lon="3.30611">
        <ele>737.28</ele>
        <time>2026-03-29T07:45:09.028Z</time>
      </trkpt>
      <trkpt lat="43.85883" lon="3.30603">
        <ele>737.08</ele>
        <time>2026-03-29T07:45:14.350Z</time>
      </trkpt>
      <trkpt lat="43.85879" lon="3.30594">
        <ele>738.16</ele>
        <time>2026-03-29T07:45:20.052Z</time>
      </trkpt>
      <trkpt lat="43.85876" lon="3.30584">
        <ele>739.25</ele>
        <time>2026-03-29T07:45:26.035Z</time>
      </trkpt>
      <trkpt lat="43.85871" lon="3.30576">
        <ele>740.13</ele>
        <time>2026-03-29T07:45:31.670Z</time>
      </trkpt>
      <trkpt lat="43.85865" lon="3.30571">
        <ele>735.08</ele>
        <time>2026-03-29T07:45:37.029Z</time>
      </trkpt>
      <trkpt lat="43.85859" lon="3.30564">
        <ele>734.25</ele>
        <time>2026-03-29T07:45:42.214Z</time>
      </trkpt>
      <trkpt lat="43.85853" lon="3.30555">
        <ele>739</ele>
        <time>2026-03-29T07:45:48.051Z</time>
      </trkpt>
      <trkpt lat="43.8585" lon="3.3055">
        <ele>733.77</ele>
        <time>2026-03-29T07:45:53.064Z</time>
      </trkpt>
      <trkpt lat="43.85846" lon="3.30545">
        <ele>735.8</ele>
        <time>2026-03-29T07:45:59.056Z</time>
      </trkpt>
      <trkpt lat="43.85841" lon="3.30538">
        <ele>737.5</ele>
        <time>2026-03-29T07:46:04.994Z</time>
      </trkpt>
      <trkpt lat="43.85835" lon="3.30531">
        <ele>738.96</ele>
        <time>2026-03-29T07:46:10.555Z</time>
      </trkpt>
      <trkpt lat="43.8583" lon="3.30524">
        <ele>738.06</ele>
        <time>2026-03-29T07:46:16.035Z</time>
      </trkpt>
      <trkpt lat="43.85826" lon="3.30518">
        <ele>734.87</ele>
        <time>2026-03-29T07:46:21.066Z</time>
      </trkpt>
      <trkpt lat="43.85819" lon="3.30511">
        <ele>733.82</ele>
        <time>2026-03-29T07:46:26.940Z</time>
      </trkpt>
      <trkpt lat="43.85815" lon="3.30506">
        <ele>733</ele>
        <time>2026-03-29T07:46:32.045Z</time>
      </trkpt>
      <trkpt lat="43.85809" lon="3.30502">
        <ele>732.61</ele>
        <time>2026-03-29T07:46:37.268Z</time>
      </trkpt>
      <trkpt lat="43.85802" lon="3.30499">
        <ele>735</ele>
        <time>2026-03-29T07:46:42.570Z</time>
      </trkpt>
      <trkpt lat="43.85795" lon="3.30497">
        <ele>733.22</ele>
        <time>2026-03-29T07:46:47.784Z</time>
      </trkpt>
      <trkpt lat="43.85788" lon="3.30492">
        <ele>731.42</ele>
        <time>2026-03-29T07:46:52.886Z</time>
      </trkpt>
      <trkpt lat="43.85784" lon="3.30485">
        <ele>731.19</ele>
        <time>2026-03-29T07:46:58.047Z</time>
      </trkpt>
      <trkpt lat="43.85782" lon="3.30474">
        <ele>730.72</ele>
        <time>2026-03-29T07:47:03.081Z</time>
      </trkpt>
      <trkpt lat="43.85781" lon="3.30464">
        <ele>732.49</ele>
        <time>2026-03-29T07:47:08.646Z</time>
      </trkpt>
      <trkpt lat="43.85782" lon="3.30455">
        <ele>731.41</ele>
        <time>2026-03-29T07:47:13.749Z</time>
      </trkpt>
      <trkpt lat="43.8578" lon="3.30446">
        <ele>730.14</ele>
        <time>2026-03-29T07:47:19.058Z</time>
      </trkpt>
      <trkpt lat="43.85776" lon="3.30436">
        <ele>730.16</ele>
        <time>2026-03-29T07:47:24.921Z</time>
      </trkpt>
      <trkpt lat="43.85774" lon="3.30426">
        <ele>730.48</ele>
        <time>2026-03-29T07:47:30.045Z</time>
      </trkpt>
      <trkpt lat="43.85773" lon="3.30416">
        <ele>735.32</ele>
        <time>2026-03-29T07:47:35.642Z</time>
      </trkpt>
      <trkpt lat="43.85771" lon="3.30407">
        <ele>732.98</ele>
        <time>2026-03-29T07:47:41.052Z</time>
      </trkpt>
      <trkpt lat="43.8577" lon="3.30399">
        <ele>730.22</ele>
        <time>2026-03-29T07:47:46.267Z</time>
      </trkpt>
      <trkpt lat="43.8577" lon="3.3039">
        <ele>730.75</ele>
        <time>2026-03-29T07:47:52.063Z</time>
      </trkpt>
      <trkpt lat="43.85767" lon="3.30381">
        <ele>730.77</ele>
        <time>2026-03-29T07:47:57.303Z</time>
      </trkpt>
      <trkpt lat="43.85766" lon="3.3037">
        <ele>732.02</ele>
        <time>2026-03-29T07:48:02.903Z</time>
      </trkpt>
      <trkpt lat="43.85764" lon="3.30362">
        <ele>731.49</ele>
        <time>2026-03-29T07:48:08.022Z</time>
      </trkpt>
      <trkpt lat="43.85761" lon="3.30354">
        <ele>731.5</ele>
        <time>2026-03-29T07:48:13.515Z</time>
      </trkpt>
      <trkpt lat="43.85758" lon="3.30347">
        <ele>729.47</ele>
        <time>2026-03-29T07:48:18.601Z</time>
      </trkpt>
      <trkpt lat="43.85754" lon="3.30339">
        <ele>731.34</ele>
        <time>2026-03-29T07:48:23.658Z</time>
      </trkpt>
      <trkpt lat="43.85751" lon="3.30331">
        <ele>731.7</ele>
        <time>2026-03-29T07:48:29.000Z</time>
      </trkpt>
      <trkpt lat="43.85748" lon="3.30323">
        <ele>730.18</ele>
        <time>2026-03-29T07:48:34.039Z</time>
      </trkpt>
      <trkpt lat="43.85745" lon="3.30314">
        <ele>731.82</ele>
        <time>2026-03-29T07:48:39.063Z</time>
      </trkpt>
      <trkpt lat="43.85744" lon="3.30305">
        <ele>732.42</ele>
        <time>2026-03-29T07:48:45.092Z</time>
      </trkpt>
      <trkpt lat="43.85752" lon="3.30307">
        <ele>733.5</ele>
        <time>2026-03-29T07:48:50.760Z</time>
      </trkpt>
      <trkpt lat="43.85752" lon="3.30308">
        <ele>736.27</ele>
        <time>2026-03-29T07:48:57.033Z</time>
      </trkpt>
      <trkpt lat="43.85754" lon="3.30307">
        <ele>736.13</ele>
        <time>2026-03-29T07:49:02.038Z</time>
      </trkpt>
      <trkpt lat="43.85755" lon="3.30306">
        <ele>733.62</ele>
        <time>2026-03-29T07:49:17.060Z</time>
      </trkpt>
      <trkpt lat="43.85755" lon="3.30297">
        <ele>737.84</ele>
        <time>2026-03-29T07:49:22.091Z</time>
      </trkpt>
      <trkpt lat="43.85759" lon="3.30293">
        <ele>738.92</ele>
        <time>2026-03-29T07:49:27.103Z</time>
      </trkpt>
      <trkpt lat="43.85765" lon="3.30293">
        <ele>738.44</ele>
        <time>2026-03-29T07:49:32.758Z</time>
      </trkpt>
      <trkpt lat="43.85771" lon="3.30288">
        <ele>734.97</ele>
        <time>2026-03-29T07:49:38.050Z</time>
      </trkpt>
      <trkpt lat="43.85776" lon="3.30285">
        <ele>735.94</ele>
        <time>2026-03-29T07:49:43.069Z</time>
      </trkpt>
      <trkpt lat="43.85781" lon="3.30282">
        <ele>735.17</ele>
        <time>2026-03-29T07:49:49.052Z</time>
      </trkpt>
      <trkpt lat="43.85787" lon="3.30279">
        <ele>730.57</ele>
        <time>2026-03-29T07:49:54.196Z</time>
      </trkpt>
      <trkpt lat="43.85794" lon="3.30277">
        <ele>733.22</ele>
        <time>2026-03-29T07:49:59.815Z</time>
      </trkpt>
      <trkpt lat="43.85796" lon="3.30273">
        <ele>736.45</ele>
        <time>2026-03-29T07:50:05.046Z</time>
      </trkpt>
      <trkpt lat="43.85799" lon="3.30274">
        <ele>736.72</ele>
        <time>2026-03-29T07:50:10.068Z</time>
      </trkpt>
      <trkpt lat="43.858" lon="3.30273">
        <ele>735.15</ele>
        <time>2026-03-29T07:50:19.396Z</time>
      </trkpt>
      <trkpt lat="43.85809" lon="3.30271">
        <ele>734.09</ele>
        <time>2026-03-29T07:50:24.417Z</time>
      </trkpt>
      <trkpt lat="43.85814" lon="3.30266">
        <ele>733.65</ele>
        <time>2026-03-29T07:50:29.902Z</time>
      </trkpt>
      <trkpt lat="43.8582" lon="3.30258">
        <ele>729.84</ele>
        <time>2026-03-29T07:50:35.262Z</time>
      </trkpt>
      <trkpt lat="43.85825" lon="3.30253">
        <ele>731.89</ele>
        <time>2026-03-29T07:50:40.426Z</time>
      </trkpt>
      <trkpt lat="43.8583" lon="3.30246">
        <ele>733.16</ele>
        <time>2026-03-29T07:50:45.901Z</time>
      </trkpt>
      <trkpt lat="43.85837" lon="3.30241">
        <ele>732.64</ele>
        <time>2026-03-29T07:50:51.393Z</time>
      </trkpt>
      <trkpt lat="43.85842" lon="3.30235">
        <ele>734.15</ele>
        <time>2026-03-29T07:50:57.058Z</time>
      </trkpt>
      <trkpt lat="43.85847" lon="3.30228">
        <ele>731.88</ele>
        <time>2026-03-29T07:51:02.575Z</time>
      </trkpt>
      <trkpt lat="43.85851" lon="3.30221">
        <ele>729.68</ele>
        <time>2026-03-29T07:51:07.597Z</time>
      </trkpt>
      <trkpt lat="43.85856" lon="3.30214">
        <ele>729.57</ele>
        <time>2026-03-29T07:51:12.752Z</time>
      </trkpt>
      <trkpt lat="43.85861" lon="3.30209">
        <ele>730.78</ele>
        <time>2026-03-29T07:51:18.043Z</time>
      </trkpt>
      <trkpt lat="43.85867" lon="3.30204">
        <ele>732.05</ele>
        <time>2026-03-29T07:51:23.196Z</time>
      </trkpt>
      <trkpt lat="43.85872" lon="3.30199">
        <ele>729.79</ele>
        <time>2026-03-29T07:51:28.921Z</time>
      </trkpt>
      <trkpt lat="43.85875" lon="3.30191">
        <ele>730.36</ele>
        <time>2026-03-29T07:51:34.413Z</time>
      </trkpt>
      <trkpt lat="43.85881" lon="3.30189">
        <ele>729.95</ele>
        <time>2026-03-29T07:51:40.085Z</time>
      </trkpt>
      <trkpt lat="43.85882" lon="3.30185">
        <ele>729.94</ele>
        <time>2026-03-29T07:51:46.082Z</time>
      </trkpt>
      <trkpt lat="43.85883" lon="3.30183">
        <ele>730.74</ele>
        <time>2026-03-29T07:51:51.645Z</time>
      </trkpt>
      <trkpt lat="43.85889" lon="3.30179">
        <ele>730.19</ele>
        <time>2026-03-29T07:51:57.069Z</time>
      </trkpt>
      <trkpt lat="43.85892" lon="3.30177">
        <ele>729.06</ele>
        <time>2026-03-29T07:52:02.738Z</time>
      </trkpt>
      <trkpt lat="43.85893" lon="3.30176">
        <ele>730.67</ele>
        <time>2026-03-29T07:52:07.842Z</time>
      </trkpt>
      <trkpt lat="43.85897" lon="3.30173">
        <ele>731.51</ele>
        <time>2026-03-29T07:52:13.360Z</time>
      </trkpt>
      <trkpt lat="43.85901" lon="3.30168">
        <ele>730.13</ele>
        <time>2026-03-29T07:52:18.758Z</time>
      </trkpt>
      <trkpt lat="43.85906" lon="3.30162">
        <ele>730.57</ele>
        <time>2026-03-29T07:52:24.037Z</time>
      </trkpt>
      <trkpt lat="43.85912" lon="3.30157">
        <ele>730.11</ele>
        <time>2026-03-29T07:52:29.044Z</time>
      </trkpt>
      <trkpt lat="43.85916" lon="3.30151">
        <ele>729.18</ele>
        <time>2026-03-29T07:52:34.184Z</time>
      </trkpt>
      <trkpt lat="43.85921" lon="3.30146">
        <ele>730.32</ele>
        <time>2026-03-29T07:52:40.058Z</time>
      </trkpt>
      <trkpt lat="43.85927" lon="3.30142">
        <ele>731.18</ele>
        <time>2026-03-29T07:52:45.743Z</time>
      </trkpt>
      <trkpt lat="43.85931" lon="3.30138">
        <ele>732.37</ele>
        <time>2026-03-29T07:52:51.097Z</time>
      </trkpt>
      <trkpt lat="43.85932" lon="3.30136">
        <ele>731.74</ele>
        <time>2026-03-29T07:52:58.024Z</time>
      </trkpt>
      <trkpt lat="43.85937" lon="3.30132">
        <ele>731.37</ele>
        <time>2026-03-29T07:53:03.064Z</time>
      </trkpt>
      <trkpt lat="43.85942" lon="3.30127">
        <ele>731.74</ele>
        <time>2026-03-29T07:53:08.649Z</time>
      </trkpt>
      <trkpt lat="43.85948" lon="3.30127">
        <ele>731.64</ele>
        <time>2026-03-29T07:53:13.885Z</time>
      </trkpt>
      <trkpt lat="43.85954" lon="3.30128">
        <ele>731.27</ele>
        <time>2026-03-29T07:53:18.987Z</time>
      </trkpt>
      <trkpt lat="43.8596" lon="3.30127">
        <ele>730.84</ele>
        <time>2026-03-29T07:53:24.069Z</time>
      </trkpt>
      <trkpt lat="43.85967" lon="3.30126">
        <ele>731.48</ele>
        <time>2026-03-29T07:53:30.052Z</time>
      </trkpt>
      <trkpt lat="43.85972" lon="3.30128">
        <ele>729.93</ele>
        <time>2026-03-29T07:53:35.382Z</time>
      </trkpt>
      <trkpt lat="43.85979" lon="3.30127">
        <ele>729.51</ele>
        <time>2026-03-29T07:53:40.823Z</time>
      </trkpt>
      <trkpt lat="43.85987" lon="3.30127">
        <ele>729.79</ele>
        <time>2026-03-29T07:53:45.962Z</time>
      </trkpt>
      <trkpt lat="43.85994" lon="3.30123">
        <ele>728.81</ele>
        <time>2026-03-29T07:53:51.462Z</time>
      </trkpt>
      <trkpt lat="43.86" lon="3.30117">
        <ele>727.71</ele>
        <time>2026-03-29T07:53:56.902Z</time>
      </trkpt>
      <trkpt lat="43.86006" lon="3.30113">
        <ele>728.93</ele>
        <time>2026-03-29T07:54:01.925Z</time>
      </trkpt>
      <trkpt lat="43.86013" lon="3.30111">
        <ele>729.56</ele>
        <time>2026-03-29T07:54:07.239Z</time>
      </trkpt>
      <trkpt lat="43.8602" lon="3.3011">
        <ele>728</ele>
        <time>2026-03-29T07:54:12.244Z</time>
      </trkpt>
      <trkpt lat="43.86026" lon="3.30106">
        <ele>726.97</ele>
        <time>2026-03-29T07:54:17.399Z</time>
      </trkpt>
      <trkpt lat="43.86034" lon="3.30105">
        <ele>728.53</ele>
        <time>2026-03-29T07:54:22.998Z</time>
      </trkpt>
      <trkpt lat="43.86039" lon="3.30102">
        <ele>728.29</ele>
        <time>2026-03-29T07:54:28.065Z</time>
      </trkpt>
      <trkpt lat="43.86046" lon="3.30102">
        <ele>728.1</ele>
        <time>2026-03-29T07:54:33.085Z</time>
      </trkpt>
      <trkpt lat="43.86051" lon="3.30099">
        <ele>728.35</ele>
        <time>2026-03-29T07:54:38.482Z</time>
      </trkpt>
      <trkpt lat="43.86057" lon="3.30095">
        <ele>729.14</ele>
        <time>2026-03-29T07:54:43.620Z</time>
      </trkpt>
      <trkpt lat="43.86063" lon="3.30089">
        <ele>729.24</ele>
        <time>2026-03-29T07:54:49.042Z</time>
      </trkpt>
      <trkpt lat="43.86069" lon="3.30086">
        <ele>729.69</ele>
        <time>2026-03-29T07:54:54.623Z</time>
      </trkpt>
      <trkpt lat="43.86076" lon="3.30086">
        <ele>730.23</ele>
        <time>2026-03-29T07:55:00.042Z</time>
      </trkpt>
      <trkpt lat="43.86082" lon="3.30082">
        <ele>730.95</ele>
        <time>2026-03-29T07:55:05.532Z</time>
      </trkpt>
      <trkpt lat="43.86087" lon="3.30078">
        <ele>731.5</ele>
        <time>2026-03-29T07:55:10.767Z</time>
      </trkpt>
      <trkpt lat="43.86093" lon="3.30077">
        <ele>732.74</ele>
        <time>2026-03-29T07:55:15.887Z</time>
      </trkpt>
      <trkpt lat="43.86099" lon="3.30073">
        <ele>733.16</ele>
        <time>2026-03-29T07:55:21.327Z</time>
      </trkpt>
      <trkpt lat="43.86105" lon="3.30069">
        <ele>733.68</ele>
        <time>2026-03-29T07:55:26.625Z</time>
      </trkpt>
      <trkpt lat="43.86106" lon="3.30071">
        <ele>736.56</ele>
        <time>2026-03-29T07:55:33.091Z</time>
      </trkpt>
      <trkpt lat="43.86106" lon="3.30072">
        <ele>737.96</ele>
        <time>2026-03-29T07:55:38.944Z</time>
      </trkpt>
      <trkpt lat="43.8611" lon="3.30065">
        <ele>735.14</ele>
        <time>2026-03-29T07:55:43.985Z</time>
      </trkpt>
      <trkpt lat="43.86119" lon="3.30067">
        <ele>734.58</ele>
        <time>2026-03-29T07:55:49.407Z</time>
      </trkpt>
      <trkpt lat="43.86126" lon="3.30066">
        <ele>734.23</ele>
        <time>2026-03-29T07:55:54.430Z</time>
      </trkpt>
      <trkpt lat="43.86134" lon="3.30063">
        <ele>733.75</ele>
        <time>2026-03-29T07:56:00.054Z</time>
      </trkpt>
      <trkpt lat="43.86142" lon="3.30062">
        <ele>732.87</ele>
        <time>2026-03-29T07:56:05.984Z</time>
      </trkpt>
      <trkpt lat="43.86148" lon="3.30061">
        <ele>732.84</ele>
        <time>2026-03-29T07:56:11.024Z</time>
      </trkpt>
      <trkpt lat="43.86155" lon="3.3006">
        <ele>734.89</ele>
        <time>2026-03-29T07:56:16.470Z</time>
      </trkpt>
      <trkpt lat="43.86161" lon="3.30058">
        <ele>735.21</ele>
        <time>2026-03-29T07:56:21.591Z</time>
      </trkpt>
      <trkpt lat="43.86167" lon="3.3006">
        <ele>735.54</ele>
        <time>2026-03-29T07:56:26.632Z</time>
      </trkpt>
      <trkpt lat="43.86173" lon="3.30059">
        <ele>735.17</ele>
        <time>2026-03-29T07:56:32.077Z</time>
      </trkpt>
      <trkpt lat="43.86179" lon="3.30053">
        <ele>734.45</ele>
        <time>2026-03-29T07:56:37.370Z</time>
      </trkpt>
      <trkpt lat="43.86184" lon="3.30049">
        <ele>734.2</ele>
        <time>2026-03-29T07:56:43.016Z</time>
      </trkpt>
      <trkpt lat="43.86192" lon="3.30049">
        <ele>732.08</ele>
        <time>2026-03-29T07:56:48.535Z</time>
      </trkpt>
      <trkpt lat="43.86198" lon="3.30048">
        <ele>731.93</ele>
        <time>2026-03-29T07:56:54.078Z</time>
      </trkpt>
      <trkpt lat="43.86203" lon="3.30047">
        <ele>732.37</ele>
        <time>2026-03-29T07:56:59.832Z</time>
      </trkpt>
      <trkpt lat="43.86211" lon="3.30049">
        <ele>733.94</ele>
        <time>2026-03-29T07:57:05.255Z</time>
      </trkpt>
      <trkpt lat="43.86218" lon="3.30047">
        <ele>732.88</ele>
        <time>2026-03-29T07:57:10.552Z</time>
      </trkpt>
      <trkpt lat="43.86225" lon="3.30045">
        <ele>731.01</ele>
        <time>2026-03-29T07:57:16.063Z</time>
      </trkpt>
      <trkpt lat="43.86231" lon="3.3004">
        <ele>731.31</ele>
        <time>2026-03-29T07:57:21.414Z</time>
      </trkpt>
      <trkpt lat="43.86237" lon="3.30037">
        <ele>731.39</ele>
        <time>2026-03-29T07:57:26.516Z</time>
      </trkpt>
      <trkpt lat="43.86245" lon="3.30036">
        <ele>729.75</ele>
        <time>2026-03-29T07:57:32.072Z</time>
      </trkpt>
      <trkpt lat="43.86252" lon="3.30033">
        <ele>728.84</ele>
        <time>2026-03-29T07:57:38.054Z</time>
      </trkpt>
      <trkpt lat="43.86259" lon="3.30029">
        <ele>728.72</ele>
        <time>2026-03-29T07:57:43.556Z</time>
      </trkpt>
      <trkpt lat="43.86266" lon="3.30024">
        <ele>727.06</ele>
        <time>2026-03-29T07:57:49.047Z</time>
      </trkpt>
      <trkpt lat="43.86271" lon="3.30025">
        <ele>722.84</ele>
        <time>2026-03-29T07:57:54.063Z</time>
      </trkpt>
      <trkpt lat="43.86275" lon="3.30023">
        <ele>722.08</ele>
        <time>2026-03-29T07:57:59.511Z</time>
      </trkpt>
      <trkpt lat="43.8628" lon="3.30021">
        <ele>723.24</ele>
        <time>2026-03-29T07:58:05.044Z</time>
      </trkpt>
      <trkpt lat="43.86288" lon="3.3002">
        <ele>725.36</ele>
        <time>2026-03-29T07:58:10.086Z</time>
      </trkpt>
      <trkpt lat="43.86295" lon="3.30019">
        <ele>723.71</ele>
        <time>2026-03-29T07:58:15.936Z</time>
      </trkpt>
      <trkpt lat="43.86301" lon="3.30016">
        <ele>720.7</ele>
        <time>2026-03-29T07:58:21.336Z</time>
      </trkpt>
      <trkpt lat="43.86307" lon="3.30011">
        <ele>720.86</ele>
        <time>2026-03-29T07:58:27.114Z</time>
      </trkpt>
      <trkpt lat="43.86312" lon="3.30004">
        <ele>720.91</ele>
        <time>2026-03-29T07:58:32.593Z</time>
      </trkpt>
      <trkpt lat="43.86319" lon="3.29999">
        <ele>720.28</ele>
        <time>2026-03-29T07:58:38.074Z</time>
      </trkpt>
      <trkpt lat="43.86327" lon="3.3">
        <ele>720.67</ele>
        <time>2026-03-29T07:58:43.101Z</time>
      </trkpt>
      <trkpt lat="43.86335" lon="3.29999">
        <ele>720.3</ele>
        <time>2026-03-29T07:58:48.494Z</time>
      </trkpt>
      <trkpt lat="43.86342" lon="3.29996">
        <ele>720.12</ele>
        <time>2026-03-29T07:58:53.552Z</time>
      </trkpt>
      <trkpt lat="43.86349" lon="3.29995">
        <ele>719.28</ele>
        <time>2026-03-29T07:58:58.876Z</time>
      </trkpt>
      <trkpt lat="43.86356" lon="3.29997">
        <ele>718.5</ele>
        <time>2026-03-29T07:59:04.103Z</time>
      </trkpt>
      <trkpt lat="43.86361" lon="3.29998">
        <ele>719.39</ele>
        <time>2026-03-29T07:59:09.355Z</time>
      </trkpt>
      <trkpt lat="43.86358" lon="3.29991">
        <ele>721.17</ele>
        <time>2026-03-29T07:59:14.896Z</time>
      </trkpt>
      <trkpt lat="43.8636" lon="3.29985">
        <ele>721.41</ele>
        <time>2026-03-29T07:59:20.060Z</time>
      </trkpt>
      <trkpt lat="43.8636" lon="3.29983">
        <ele>719.04</ele>
        <time>2026-03-29T07:59:42.359Z</time>
      </trkpt>
      <trkpt lat="43.86361" lon="3.29973">
        <ele>718.06</ele>
        <time>2026-03-29T07:59:47.478Z</time>
      </trkpt>
      <trkpt lat="43.86358" lon="3.29963">
        <ele>719.06</ele>
        <time>2026-03-29T07:59:53.094Z</time>
      </trkpt>
      <trkpt lat="43.86358" lon="3.29956">
        <ele>718.37</ele>
        <time>2026-03-29T07:59:58.117Z</time>
      </trkpt>
      <trkpt lat="43.86358" lon="3.29948">
        <ele>718.16</ele>
        <time>2026-03-29T08:00:03.357Z</time>
      </trkpt>
      <trkpt lat="43.86358" lon="3.29939">
        <ele>719.22</ele>
        <time>2026-03-29T08:00:08.776Z</time>
      </trkpt>
      <trkpt lat="43.86359" lon="3.29929">
        <ele>719.23</ele>
        <time>2026-03-29T08:00:14.068Z</time>
      </trkpt>
      <trkpt lat="43.86361" lon="3.2992">
        <ele>718.97</ele>
        <time>2026-03-29T08:00:19.218Z</time>
      </trkpt>
      <trkpt lat="43.86361" lon="3.2991">
        <ele>719.05</ele>
        <time>2026-03-29T08:00:24.773Z</time>
      </trkpt>
      <trkpt lat="43.86361" lon="3.299">
        <ele>718.82</ele>
        <time>2026-03-29T08:00:29.841Z</time>
      </trkpt>
      <trkpt lat="43.8636" lon="3.29891">
        <ele>719.52</ele>
        <time>2026-03-29T08:00:35.015Z</time>
      </trkpt>
      <trkpt lat="43.86357" lon="3.29881">
        <ele>719.82</ele>
        <time>2026-03-29T08:00:40.090Z</time>
      </trkpt>
      <trkpt lat="43.86355" lon="3.29871">
        <ele>719.98</ele>
        <time>2026-03-29T08:00:45.519Z</time>
      </trkpt>
      <trkpt lat="43.86353" lon="3.29862">
        <ele>719.8</ele>
        <time>2026-03-29T08:00:50.754Z</time>
      </trkpt>
      <trkpt lat="43.8635" lon="3.29854">
        <ele>720.02</ele>
        <time>2026-03-29T08:00:56.254Z</time>
      </trkpt>
      <trkpt lat="43.86345" lon="3.29847">
        <ele>720.12</ele>
        <time>2026-03-29T08:01:01.276Z</time>
      </trkpt>
      <trkpt lat="43.86341" lon="3.29837">
        <ele>720.73</ele>
        <time>2026-03-29T08:01:06.912Z</time>
      </trkpt>
      <trkpt lat="43.86338" lon="3.29829">
        <ele>721.64</ele>
        <time>2026-03-29T08:01:11.917Z</time>
      </trkpt>
      <trkpt lat="43.86336" lon="3.29822">
        <ele>721.54</ele>
        <time>2026-03-29T08:01:17.097Z</time>
      </trkpt>
      <trkpt lat="43.86333" lon="3.29813">
        <ele>721.95</ele>
        <time>2026-03-29T08:01:22.796Z</time>
      </trkpt>
      <trkpt lat="43.8633" lon="3.29803">
        <ele>721.85</ele>
        <time>2026-03-29T08:01:28.093Z</time>
      </trkpt>
      <trkpt lat="43.86329" lon="3.29795">
        <ele>721.69</ele>
        <time>2026-03-29T08:01:33.175Z</time>
      </trkpt>
      <trkpt lat="43.86328" lon="3.29786">
        <ele>720.87</ele>
        <time>2026-03-29T08:01:38.714Z</time>
      </trkpt>
      <trkpt lat="43.86327" lon="3.29778">
        <ele>720.19</ele>
        <time>2026-03-29T08:01:43.862Z</time>
      </trkpt>
      <trkpt lat="43.86323" lon="3.29769">
        <ele>720.24</ele>
        <time>2026-03-29T08:01:49.108Z</time>
      </trkpt>
      <trkpt lat="43.86321" lon="3.29761">
        <ele>720.71</ele>
        <time>2026-03-29T08:01:54.375Z</time>
      </trkpt>
      <trkpt lat="43.86319" lon="3.29752">
        <ele>720.43</ele>
        <time>2026-03-29T08:01:59.398Z</time>
      </trkpt>
      <trkpt lat="43.86316" lon="3.29746">
        <ele>720.63</ele>
        <time>2026-03-29T08:02:04.855Z</time>
      </trkpt>
      <trkpt lat="43.86314" lon="3.29745">
        <ele>722.02</ele>
        <time>2026-03-29T08:02:10.102Z</time>
      </trkpt>
      <trkpt lat="43.86314" lon="3.29735">
        <ele>723.3</ele>
        <time>2026-03-29T08:02:15.759Z</time>
      </trkpt>
      <trkpt lat="43.86311" lon="3.29724">
        <ele>722.88</ele>
        <time>2026-03-29T08:02:21.337Z</time>
      </trkpt>
      <trkpt lat="43.86309" lon="3.29715">
        <ele>722.5</ele>
        <time>2026-03-29T08:02:26.852Z</time>
      </trkpt>
      <trkpt lat="43.86306" lon="3.29706">
        <ele>721.73</ele>
        <time>2026-03-29T08:02:32.346Z</time>
      </trkpt>
      <trkpt lat="43.86303" lon="3.29698">
        <ele>722.6</ele>
        <time>2026-03-29T08:02:37.660Z</time>
      </trkpt>
      <trkpt lat="43.86301" lon="3.29688">
        <ele>723.68</ele>
        <time>2026-03-29T08:02:43.103Z</time>
      </trkpt>
      <trkpt lat="43.86298" lon="3.29679">
        <ele>724.31</ele>
        <time>2026-03-29T08:02:48.106Z</time>
      </trkpt>
      <trkpt lat="43.86296" lon="3.2967">
        <ele>724.63</ele>
        <time>2026-03-29T08:02:53.552Z</time>
      </trkpt>
      <trkpt lat="43.86293" lon="3.29662">
        <ele>723.67</ele>
        <time>2026-03-29T08:02:58.717Z</time>
      </trkpt>
      <trkpt lat="43.86292" lon="3.29652">
        <ele>723.33</ele>
        <time>2026-03-29T08:03:04.121Z</time>
      </trkpt>
      <trkpt lat="43.86289" lon="3.29643">
        <ele>723.15</ele>
        <time>2026-03-29T08:03:09.400Z</time>
      </trkpt>
      <trkpt lat="43.86287" lon="3.29635">
        <ele>724.03</ele>
        <time>2026-03-29T08:03:14.538Z</time>
      </trkpt>
      <trkpt lat="43.86286" lon="3.29627">
        <ele>725.19</ele>
        <time>2026-03-29T08:03:19.677Z</time>
      </trkpt>
      <trkpt lat="43.86285" lon="3.29624">
        <ele>725.11</ele>
        <time>2026-03-29T08:03:24.920Z</time>
      </trkpt>
      <trkpt lat="43.86285" lon="3.29623">
        <ele>724.37</ele>
        <time>2026-03-29T08:03:32.998Z</time>
      </trkpt>
      <trkpt lat="43.86284" lon="3.2961">
        <ele>724.33</ele>
        <time>2026-03-29T08:03:38.500Z</time>
      </trkpt>
      <trkpt lat="43.86282" lon="3.29599">
        <ele>724.58</ele>
        <time>2026-03-29T08:03:43.992Z</time>
      </trkpt>
      <trkpt lat="43.86281" lon="3.29589">
        <ele>724.97</ele>
        <time>2026-03-29T08:03:49.013Z</time>
      </trkpt>
      <trkpt lat="43.86278" lon="3.29581">
        <ele>724.2</ele>
        <time>2026-03-29T08:03:54.118Z</time>
      </trkpt>
      <trkpt lat="43.86276" lon="3.29574">
        <ele>724.31</ele>
        <time>2026-03-29T08:03:59.520Z</time>
      </trkpt>
      <trkpt lat="43.86273" lon="3.29567">
        <ele>724.58</ele>
        <time>2026-03-29T08:04:05.095Z</time>
      </trkpt>
      <trkpt lat="43.86271" lon="3.29557">
        <ele>723.3</ele>
        <time>2026-03-29T08:04:10.238Z</time>
      </trkpt>
      <trkpt lat="43.86268" lon="3.29546">
        <ele>723.22</ele>
        <time>2026-03-29T08:04:15.903Z</time>
      </trkpt>
      <trkpt lat="43.86266" lon="3.29537">
        <ele>722.55</ele>
        <time>2026-03-29T08:04:20.915Z</time>
      </trkpt>
      <trkpt lat="43.86263" lon="3.29529">
        <ele>722.63</ele>
        <time>2026-03-29T08:04:26.516Z</time>
      </trkpt>
      <trkpt lat="43.86261" lon="3.2952">
        <ele>723.16</ele>
        <time>2026-03-29T08:04:32.096Z</time>
      </trkpt>
      <trkpt lat="43.8626" lon="3.29509">
        <ele>722.09</ele>
        <time>2026-03-29T08:04:37.854Z</time>
      </trkpt>
      <trkpt lat="43.8626" lon="3.295">
        <ele>723.35</ele>
        <time>2026-03-29T08:04:43.106Z</time>
      </trkpt>
      <trkpt lat="43.86261" lon="3.2949">
        <ele>723.39</ele>
        <time>2026-03-29T08:04:48.989Z</time>
      </trkpt>
      <trkpt lat="43.86261" lon="3.2948">
        <ele>723.47</ele>
        <time>2026-03-29T08:04:54.104Z</time>
      </trkpt>
      <trkpt lat="43.86261" lon="3.2947">
        <ele>723.1</ele>
        <time>2026-03-29T08:04:59.497Z</time>
      </trkpt>
      <trkpt lat="43.86258" lon="3.29462">
        <ele>723.64</ele>
        <time>2026-03-29T08:05:04.716Z</time>
      </trkpt>
      <trkpt lat="43.86256" lon="3.29452">
        <ele>723.73</ele>
        <time>2026-03-29T08:05:09.994Z</time>
      </trkpt>
      <trkpt lat="43.86254" lon="3.29443">
        <ele>724.5</ele>
        <time>2026-03-29T08:05:15.754Z</time>
      </trkpt>
      <trkpt lat="43.86252" lon="3.29434">
        <ele>724.08</ele>
        <time>2026-03-29T08:05:21.122Z</time>
      </trkpt>
      <trkpt lat="43.86249" lon="3.29426">
        <ele>724.54</ele>
        <time>2026-03-29T08:05:26.614Z</time>
      </trkpt>
      <trkpt lat="43.86245" lon="3.29418">
        <ele>724.26</ele>
        <time>2026-03-29T08:05:31.956Z</time>
      </trkpt>
      <trkpt lat="43.86239" lon="3.2941">
        <ele>724.05</ele>
        <time>2026-03-29T08:05:37.115Z</time>
      </trkpt>
      <trkpt lat="43.86236" lon="3.294">
        <ele>723.26</ele>
        <time>2026-03-29T08:05:42.935Z</time>
      </trkpt>
      <trkpt lat="43.86233" lon="3.29393">
        <ele>724.36</ele>
        <time>2026-03-29T08:05:48.105Z</time>
      </trkpt>
      <trkpt lat="43.86231" lon="3.29383">
        <ele>724.7</ele>
        <time>2026-03-29T08:05:54.095Z</time>
      </trkpt>
      <trkpt lat="43.86229" lon="3.29375">
        <ele>724.13</ele>
        <time>2026-03-29T08:05:59.128Z</time>
      </trkpt>
      <trkpt lat="43.86225" lon="3.29365">
        <ele>723.95</ele>
        <time>2026-03-29T08:06:04.816Z</time>
      </trkpt>
      <trkpt lat="43.86223" lon="3.29356">
        <ele>723.88</ele>
        <time>2026-03-29T08:06:10.065Z</time>
      </trkpt>
      <trkpt lat="43.8622" lon="3.29346">
        <ele>723.99</ele>
        <time>2026-03-29T08:06:15.633Z</time>
      </trkpt>
      <trkpt lat="43.86219" lon="3.29337">
        <ele>723.67</ele>
        <time>2026-03-29T08:06:20.733Z</time>
      </trkpt>
      <trkpt lat="43.86221" lon="3.29329">
        <ele>724.78</ele>
        <time>2026-03-29T08:06:26.860Z</time>
      </trkpt>
      <trkpt lat="43.86226" lon="3.29321">
        <ele>723.66</ele>
        <time>2026-03-29T08:06:32.163Z</time>
      </trkpt>
      <trkpt lat="43.86227" lon="3.29308">
        <ele>723.73</ele>
        <time>2026-03-29T08:06:37.543Z</time>
      </trkpt>
      <trkpt lat="43.86226" lon="3.29296">
        <ele>723.75</ele>
        <time>2026-03-29T08:06:42.928Z</time>
      </trkpt>
      <trkpt lat="43.86226" lon="3.29285">
        <ele>722.85</ele>
        <time>2026-03-29T08:06:48.327Z</time>
      </trkpt>
      <trkpt lat="43.86225" lon="3.29276">
        <ele>722.8</ele>
        <time>2026-03-29T08:06:53.703Z</time>
      </trkpt>
      <trkpt lat="43.86225" lon="3.29266">
        <ele>722.58</ele>
        <time>2026-03-29T08:06:59.116Z</time>
      </trkpt>
      <trkpt lat="43.86224" lon="3.29256">
        <ele>722.06</ele>
        <time>2026-03-29T08:07:04.865Z</time>
      </trkpt>
      <trkpt lat="43.86221" lon="3.29259">
        <ele>721.6</ele>
        <time>2026-03-29T08:07:10.101Z</time>
      </trkpt>
      <trkpt lat="43.86222" lon="3.29257">
        <ele>721.69</ele>
        <time>2026-03-29T08:07:15.124Z</time>
      </trkpt>
      <trkpt lat="43.86222" lon="3.29252">
        <ele>722.1</ele>
        <time>2026-03-29T08:07:20.384Z</time>
      </trkpt>
      <trkpt lat="43.86221" lon="3.29247">
        <ele>723.12</ele>
        <time>2026-03-29T08:07:26.067Z</time>
      </trkpt>
      <trkpt lat="43.86221" lon="3.2924">
        <ele>723.12</ele>
        <time>2026-03-29T08:07:31.104Z</time>
      </trkpt>
      <trkpt lat="43.86219" lon="3.29231">
        <ele>723.52</ele>
        <time>2026-03-29T08:07:36.945Z</time>
      </trkpt>
      <trkpt lat="43.86216" lon="3.29233">
        <ele>723.45</ele>
        <time>2026-03-29T08:07:42.132Z</time>
      </trkpt>
      <trkpt lat="43.86215" lon="3.29232">
        <ele>722.98</ele>
        <time>2026-03-29T08:07:48.087Z</time>
      </trkpt>
      <trkpt lat="43.86215" lon="3.29225">
        <ele>722.93</ele>
        <time>2026-03-29T08:07:53.448Z</time>
      </trkpt>
      <trkpt lat="43.86214" lon="3.29213">
        <ele>723.04</ele>
        <time>2026-03-29T08:07:58.745Z</time>
      </trkpt>
      <trkpt lat="43.86214" lon="3.29202">
        <ele>723.9</ele>
        <time>2026-03-29T08:08:04.146Z</time>
      </trkpt>
      <trkpt lat="43.86217" lon="3.29191">
        <ele>723.97</ele>
        <time>2026-03-29T08:08:10.086Z</time>
      </trkpt>
      <trkpt lat="43.86219" lon="3.2918">
        <ele>724.15</ele>
        <time>2026-03-29T08:08:15.543Z</time>
      </trkpt>
      <trkpt lat="43.8622" lon="3.2917">
        <ele>725.05</ele>
        <time>2026-03-29T08:08:20.983Z</time>
      </trkpt>
      <trkpt lat="43.86219" lon="3.2916">
        <ele>724.81</ele>
        <time>2026-03-29T08:08:26.095Z</time>
      </trkpt>
      <trkpt lat="43.86217" lon="3.2915">
        <ele>724.82</ele>
        <time>2026-03-29T08:08:32.057Z</time>
      </trkpt>
      <trkpt lat="43.86216" lon="3.29138">
        <ele>725.32</ele>
        <time>2026-03-29T08:08:37.604Z</time>
      </trkpt>
      <trkpt lat="43.8622" lon="3.2913">
        <ele>725.31</ele>
        <time>2026-03-29T08:08:43.043Z</time>
      </trkpt>
      <trkpt lat="43.86221" lon="3.29121">
        <ele>724.68</ele>
        <time>2026-03-29T08:08:48.565Z</time>
      </trkpt>
      <trkpt lat="43.86223" lon="3.2911">
        <ele>723.66</ele>
        <time>2026-03-29T08:08:54.124Z</time>
      </trkpt>
      <trkpt lat="43.86224" lon="3.291">
        <ele>723.7</ele>
        <time>2026-03-29T08:08:59.870Z</time>
      </trkpt>
      <trkpt lat="43.86224" lon="3.29092">
        <ele>723.58</ele>
        <time>2026-03-29T08:09:05.101Z</time>
      </trkpt>
      <trkpt lat="43.86223" lon="3.29084">
        <ele>723.78</ele>
        <time>2026-03-29T08:09:10.669Z</time>
      </trkpt>
      <trkpt lat="43.86223" lon="3.29074">
        <ele>725.98</ele>
        <time>2026-03-29T08:09:16.087Z</time>
      </trkpt>
      <trkpt lat="43.86226" lon="3.29066">
        <ele>726.9</ele>
        <time>2026-03-29T08:09:21.467Z</time>
      </trkpt>
      <trkpt lat="43.8623" lon="3.29059">
        <ele>724.79</ele>
        <time>2026-03-29T08:09:26.765Z</time>
      </trkpt>
      <trkpt lat="43.86232" lon="3.29051">
        <ele>723.94</ele>
        <time>2026-03-29T08:09:32.129Z</time>
      </trkpt>
      <trkpt lat="43.86232" lon="3.2904">
        <ele>723.77</ele>
        <time>2026-03-29T08:09:37.494Z</time>
      </trkpt>
      <trkpt lat="43.86231" lon="3.29032">
        <ele>723.95</ele>
        <time>2026-03-29T08:09:42.808Z</time>
      </trkpt>
      <trkpt lat="43.86231" lon="3.29022">
        <ele>724.14</ele>
        <time>2026-03-29T08:09:47.963Z</time>
      </trkpt>
      <trkpt lat="43.8623" lon="3.29014">
        <ele>725.11</ele>
        <time>2026-03-29T08:09:53.081Z</time>
      </trkpt>
      <trkpt lat="43.86231" lon="3.29006">
        <ele>723.72</ele>
        <time>2026-03-29T08:09:58.381Z</time>
      </trkpt>
      <trkpt lat="43.86231" lon="3.28997">
        <ele>723.33</ele>
        <time>2026-03-29T08:10:03.606Z</time>
      </trkpt>
      <trkpt lat="43.8623" lon="3.28988">
        <ele>723.38</ele>
        <time>2026-03-29T08:10:08.842Z</time>
      </trkpt>
      <trkpt lat="43.8623" lon="3.28979">
        <ele>724.73</ele>
        <time>2026-03-29T08:10:14.129Z</time>
      </trkpt>
      <trkpt lat="43.8623" lon="3.28969">
        <ele>726.21</ele>
        <time>2026-03-29T08:10:19.763Z</time>
      </trkpt>
      <trkpt lat="43.86229" lon="3.28958">
        <ele>726.6</ele>
        <time>2026-03-29T08:10:24.785Z</time>
      </trkpt>
      <trkpt lat="43.86228" lon="3.28949">
        <ele>726.16</ele>
        <time>2026-03-29T08:10:30.067Z</time>
      </trkpt>
      <trkpt lat="43.86226" lon="3.2894">
        <ele>726.05</ele>
        <time>2026-03-29T08:10:35.825Z</time>
      </trkpt>
      <trkpt lat="43.86223" lon="3.28931">
        <ele>725.47</ele>
        <time>2026-03-29T08:10:41.051Z</time>
      </trkpt>
      <trkpt lat="43.86224" lon="3.28922">
        <ele>725.82</ele>
        <time>2026-03-29T08:10:46.078Z</time>
      </trkpt>
      <trkpt lat="43.86223" lon="3.28914">
        <ele>725.37</ele>
        <time>2026-03-29T08:10:51.134Z</time>
      </trkpt>
      <trkpt lat="43.86222" lon="3.28906">
        <ele>725.19</ele>
        <time>2026-03-29T08:10:56.473Z</time>
      </trkpt>
      <trkpt lat="43.86223" lon="3.28898">
        <ele>725.76</ele>
        <time>2026-03-29T08:11:01.486Z</time>
      </trkpt>
      <trkpt lat="43.86225" lon="3.28889">
        <ele>725.65</ele>
        <time>2026-03-29T08:11:06.827Z</time>
      </trkpt>
      <trkpt lat="43.86227" lon="3.2888">
        <ele>725.77</ele>
        <time>2026-03-29T08:11:11.973Z</time>
      </trkpt>
      <trkpt lat="43.86228" lon="3.28872">
        <ele>726.41</ele>
        <time>2026-03-29T08:11:17.142Z</time>
      </trkpt>
      <trkpt lat="43.86231" lon="3.28864">
        <ele>727.07</ele>
        <time>2026-03-29T08:11:23.029Z</time>
      </trkpt>
      <trkpt lat="43.86232" lon="3.28854">
        <ele>726.83</ele>
        <time>2026-03-29T08:11:28.210Z</time>
      </trkpt>
      <trkpt lat="43.86232" lon="3.28846">
        <ele>726.9</ele>
        <time>2026-03-29T08:11:33.652Z</time>
      </trkpt>
      <trkpt lat="43.86232" lon="3.28843">
        <ele>724.83</ele>
        <time>2026-03-29T08:11:39.166Z</time>
      </trkpt>
      <trkpt lat="43.86231" lon="3.28843">
        <ele>725.57</ele>
        <time>2026-03-29T08:11:55.148Z</time>
      </trkpt>
      <trkpt lat="43.86231" lon="3.28842">
        <ele>723.75</ele>
        <time>2026-03-29T08:12:09.121Z</time>
      </trkpt>
      <trkpt lat="43.86232" lon="3.28842">
        <ele>724.02</ele>
        <time>2026-03-29T08:12:20.113Z</time>
      </trkpt>
      <trkpt lat="43.86232" lon="3.2884">
        <ele>725.26</ele>
        <time>2026-03-29T08:12:34.569Z</time>
      </trkpt>
      <trkpt lat="43.86232" lon="3.28829">
        <ele>726.09</ele>
        <time>2026-03-29T08:12:39.927Z</time>
      </trkpt>
      <trkpt lat="43.86233" lon="3.28821">
        <ele>726.54</ele>
        <time>2026-03-29T08:12:46.130Z</time>
      </trkpt>
      <trkpt lat="43.86232" lon="3.28816">
        <ele>726.79</ele>
        <time>2026-03-29T08:12:52.075Z</time>
      </trkpt>
      <trkpt lat="43.86233" lon="3.28816">
        <ele>726.86</ele>
        <time>2026-03-29T08:13:01.071Z</time>
      </trkpt>
      <trkpt lat="43.86234" lon="3.28817">
        <ele>726.65</ele>
        <time>2026-03-29T08:13:06.090Z</time>
      </trkpt>
      <trkpt lat="43.86239" lon="3.28815">
        <ele>725.16</ele>
        <time>2026-03-29T08:13:12.070Z</time>
      </trkpt>
      <trkpt lat="43.86235" lon="3.28813">
        <ele>724.21</ele>
        <time>2026-03-29T08:13:17.490Z</time>
      </trkpt>
      <trkpt lat="43.86233" lon="3.2881">
        <ele>727.63</ele>
        <time>2026-03-29T08:13:23.074Z</time>
      </trkpt>
      <trkpt lat="43.86232" lon="3.28807">
        <ele>728.01</ele>
        <time>2026-03-29T08:13:28.194Z</time>
      </trkpt>
      <trkpt lat="43.86231" lon="3.28801">
        <ele>724.81</ele>
        <time>2026-03-29T08:13:34.072Z</time>
      </trkpt>
      <trkpt lat="43.86232" lon="3.28795">
        <ele>726.64</ele>
        <time>2026-03-29T08:13:39.085Z</time>
      </trkpt>
      <trkpt lat="43.86232" lon="3.28789">
        <ele>725.03</ele>
        <time>2026-03-29T08:13:45.115Z</time>
      </trkpt>
      <trkpt lat="43.86231" lon="3.28781">
        <ele>723.17</ele>
        <time>2026-03-29T08:13:50.651Z</time>
      </trkpt>
      <trkpt lat="43.86231" lon="3.28772">
        <ele>724.26</ele>
        <time>2026-03-29T08:13:56.102Z</time>
      </trkpt>
      <trkpt lat="43.86231" lon="3.28766">
        <ele>727.49</ele>
        <time>2026-03-29T08:14:01.102Z</time>
      </trkpt>
      <trkpt lat="43.86231" lon="3.28767">
        <ele>730.39</ele>
        <time>2026-03-29T08:14:08.951Z</time>
      </trkpt>
      <trkpt lat="43.8623" lon="3.28765">
        <ele>729.34</ele>
        <time>2026-03-29T08:14:14.081Z</time>
      </trkpt>
      <trkpt lat="43.8623" lon="3.28764">
        <ele>726</ele>
        <time>2026-03-29T08:14:22.079Z</time>
      </trkpt>
      <trkpt lat="43.86231" lon="3.28765">
        <ele>726.96</ele>
        <time>2026-03-29T08:14:38.063Z</time>
      </trkpt>
      <trkpt lat="43.86231" lon="3.28766">
        <ele>725.42</ele>
        <time>2026-03-29T08:14:48.087Z</time>
      </trkpt>
      <trkpt lat="43.8623" lon="3.28766">
        <ele>724.36</ele>
        <time>2026-03-29T08:14:53.105Z</time>
      </trkpt>
      <trkpt lat="43.8623" lon="3.28764">
        <ele>726.42</ele>
        <time>2026-03-29T08:14:59.103Z</time>
      </trkpt>
      <trkpt lat="43.86231" lon="3.28765">
        <ele>726.01</ele>
        <time>2026-03-29T08:15:17.141Z</time>
      </trkpt>
      <trkpt lat="43.8623" lon="3.28766">
        <ele>727</ele>
        <time>2026-03-29T08:15:30.959Z</time>
      </trkpt>
      <trkpt lat="43.86231" lon="3.28765">
        <ele>725.65</ele>
        <time>2026-03-29T08:15:37.088Z</time>
      </trkpt>
      <trkpt lat="43.86231" lon="3.28764">
        <ele>725.25</ele>
        <time>2026-03-29T08:15:45.138Z</time>
      </trkpt>
      <trkpt lat="43.86232" lon="3.28763">
        <ele>725.86</ele>
        <time>2026-03-29T08:15:51.133Z</time>
      </trkpt>
      <trkpt lat="43.86231" lon="3.28764">
        <ele>726.47</ele>
        <time>2026-03-29T08:16:07.007Z</time>
      </trkpt>
      <trkpt lat="43.8623" lon="3.28764">
        <ele>727.94</ele>
        <time>2026-03-29T08:16:28.083Z</time>
      </trkpt>
      <trkpt lat="43.8623" lon="3.28766">
        <ele>726.95</ele>
        <time>2026-03-29T08:16:37.101Z</time>
      </trkpt>
      <trkpt lat="43.86229" lon="3.28766">
        <ele>728.24</ele>
        <time>2026-03-29T08:16:59.069Z</time>
      </trkpt>
      <trkpt lat="43.86228" lon="3.28766">
        <ele>727.82</ele>
        <time>2026-03-29T08:17:04.093Z</time>
      </trkpt>
      <trkpt lat="43.86228" lon="3.28765">
        <ele>726.97</ele>
        <time>2026-03-29T08:17:23.110Z</time>
      </trkpt>
      <trkpt lat="43.86227" lon="3.28763">
        <ele>727.86</ele>
        <time>2026-03-29T08:17:30.086Z</time>
      </trkpt>
      <trkpt lat="43.86226" lon="3.28763">
        <ele>727.11</ele>
        <time>2026-03-29T08:17:39.100Z</time>
      </trkpt>
      <trkpt lat="43.86227" lon="3.28762">
        <ele>727.37</ele>
        <time>2026-03-29T08:17:48.531Z</time>
      </trkpt>
      <trkpt lat="43.86227" lon="3.28761">
        <ele>727.95</ele>
        <time>2026-03-29T08:18:15.171Z</time>
      </trkpt>
      <trkpt lat="43.86226" lon="3.28755">
        <ele>728.62</ele>
        <time>2026-03-29T08:18:20.528Z</time>
      </trkpt>
      <trkpt lat="43.86224" lon="3.28747">
        <ele>728.71</ele>
        <time>2026-03-29T08:18:26.128Z</time>
      </trkpt>
      <trkpt lat="43.86221" lon="3.2874">
        <ele>729.16</ele>
        <time>2026-03-29T08:18:31.803Z</time>
      </trkpt>
      <trkpt lat="43.86219" lon="3.28732">
        <ele>730.01</ele>
        <time>2026-03-29T08:18:36.859Z</time>
      </trkpt>
      <trkpt lat="43.86214" lon="3.28726">
        <ele>729.81</ele>
        <time>2026-03-29T08:18:42.157Z</time>
      </trkpt>
      <trkpt lat="43.86211" lon="3.28722">
        <ele>728.94</ele>
        <time>2026-03-29T08:18:47.551Z</time>
      </trkpt>
      <trkpt lat="43.86208" lon="3.28715">
        <ele>728.66</ele>
        <time>2026-03-29T08:18:52.974Z</time>
      </trkpt>
      <trkpt lat="43.86208" lon="3.28709">
        <ele>727.89</ele>
        <time>2026-03-29T08:18:58.352Z</time>
      </trkpt>
      <trkpt lat="43.86208" lon="3.28707">
        <ele>727.43</ele>
        <time>2026-03-29T08:19:04.011Z</time>
      </trkpt>
      <trkpt lat="43.86204" lon="3.28697">
        <ele>727.78</ele>
        <time>2026-03-29T08:19:09.054Z</time>
      </trkpt>
      <trkpt lat="43.86202" lon="3.28687">
        <ele>728.89</ele>
        <time>2026-03-29T08:19:14.134Z</time>
      </trkpt>
      <trkpt lat="43.86201" lon="3.28679">
        <ele>728.67</ele>
        <time>2026-03-29T08:19:19.543Z</time>
      </trkpt>
      <trkpt lat="43.862" lon="3.28669">
        <ele>728.99</ele>
        <time>2026-03-29T08:19:25.139Z</time>
      </trkpt>
      <trkpt lat="43.86199" lon="3.28658">
        <ele>729.55</ele>
        <time>2026-03-29T08:19:31.074Z</time>
      </trkpt>
      <trkpt lat="43.86199" lon="3.2865">
        <ele>728.34</ele>
        <time>2026-03-29T08:19:36.900Z</time>
      </trkpt>
      <trkpt lat="43.862" lon="3.28643">
        <ele>729.02</ele>
        <time>2026-03-29T08:19:42.082Z</time>
      </trkpt>
      <trkpt lat="43.862" lon="3.28635">
        <ele>729.64</ele>
        <time>2026-03-29T08:19:47.100Z</time>
      </trkpt>
      <trkpt lat="43.86197" lon="3.28627">
        <ele>728.6</ele>
        <time>2026-03-29T08:19:52.128Z</time>
      </trkpt>
      <trkpt lat="43.86194" lon="3.28619">
        <ele>727.52</ele>
        <time>2026-03-29T08:19:57.442Z</time>
      </trkpt>
      <trkpt lat="43.86191" lon="3.28611">
        <ele>727.88</ele>
        <time>2026-03-29T08:20:02.806Z</time>
      </trkpt>
      <trkpt lat="43.86188" lon="3.28604">
        <ele>728.29</ele>
        <time>2026-03-29T08:20:07.888Z</time>
      </trkpt>
      <trkpt lat="43.86184" lon="3.28597">
        <ele>727.44</ele>
        <time>2026-03-29T08:20:13.104Z</time>
      </trkpt>
      <trkpt lat="43.8618" lon="3.28588">
        <ele>727.26</ele>
        <time>2026-03-29T08:20:18.580Z</time>
      </trkpt>
      <trkpt lat="43.86179" lon="3.2858">
        <ele>726.94</ele>
        <time>2026-03-29T08:20:23.905Z</time>
      </trkpt>
      <trkpt lat="43.86179" lon="3.28577">
        <ele>727.44</ele>
        <time>2026-03-29T08:20:29.115Z</time>
      </trkpt>
      <trkpt lat="43.8618" lon="3.28575">
        <ele>727.93</ele>
        <time>2026-03-29T08:20:36.122Z</time>
      </trkpt>
      <trkpt lat="43.8618" lon="3.28571">
        <ele>727.87</ele>
        <time>2026-03-29T08:20:42.127Z</time>
      </trkpt>
      <trkpt lat="43.8618" lon="3.2857">
        <ele>728.07</ele>
        <time>2026-03-29T08:20:53.025Z</time>
      </trkpt>
      <trkpt lat="43.8618" lon="3.28566">
        <ele>727.73</ele>
        <time>2026-03-29T08:20:58.483Z</time>
      </trkpt>
      <trkpt lat="43.86179" lon="3.28558">
        <ele>728.56</ele>
        <time>2026-03-29T08:21:03.584Z</time>
      </trkpt>
      <trkpt lat="43.8618" lon="3.28549">
        <ele>728.99</ele>
        <time>2026-03-29T08:21:08.704Z</time>
      </trkpt>
      <trkpt lat="43.8618" lon="3.2854">
        <ele>728.89</ele>
        <time>2026-03-29T08:21:13.966Z</time>
      </trkpt>
      <trkpt lat="43.8618" lon="3.28531">
        <ele>728.22</ele>
        <time>2026-03-29T08:21:19.105Z</time>
      </trkpt>
      <trkpt lat="43.86178" lon="3.28523">
        <ele>727.17</ele>
        <time>2026-03-29T08:21:24.123Z</time>
      </trkpt>
      <trkpt lat="43.8618" lon="3.28515">
        <ele>727.46</ele>
        <time>2026-03-29T08:21:29.442Z</time>
      </trkpt>
      <trkpt lat="43.86179" lon="3.28508">
        <ele>728.45</ele>
        <time>2026-03-29T08:21:34.882Z</time>
      </trkpt>
      <trkpt lat="43.86175" lon="3.28502">
        <ele>727.43</ele>
        <time>2026-03-29T08:21:40.066Z</time>
      </trkpt>
      <trkpt lat="43.86169" lon="3.28498">
        <ele>726.86</ele>
        <time>2026-03-29T08:21:45.619Z</time>
      </trkpt>
      <trkpt lat="43.86163" lon="3.28493">
        <ele>726.27</ele>
        <time>2026-03-29T08:21:50.722Z</time>
      </trkpt>
      <trkpt lat="43.86162" lon="3.28484">
        <ele>725.79</ele>
        <time>2026-03-29T08:21:55.841Z</time>
      </trkpt>
      <trkpt lat="43.8616" lon="3.28479">
        <ele>726.36</ele>
        <time>2026-03-29T08:22:01.104Z</time>
      </trkpt>
      <trkpt lat="43.86159" lon="3.28472">
        <ele>730.13</ele>
        <time>2026-03-29T08:22:07.096Z</time>
      </trkpt>
      <trkpt lat="43.86159" lon="3.28468">
        <ele>729.01</ele>
        <time>2026-03-29T08:22:12.605Z</time>
      </trkpt>
      <trkpt lat="43.86157" lon="3.28466">
        <ele>728.71</ele>
        <time>2026-03-29T08:22:18.099Z</time>
      </trkpt>
      <trkpt lat="43.86156" lon="3.28463">
        <ele>728.24</ele>
        <time>2026-03-29T08:22:23.100Z</time>
      </trkpt>
      <trkpt lat="43.86155" lon="3.28461">
        <ele>727.47</ele>
        <time>2026-03-29T08:22:29.181Z</time>
      </trkpt>
      <trkpt lat="43.86153" lon="3.28459">
        <ele>727.13</ele>
        <time>2026-03-29T08:22:34.258Z</time>
      </trkpt>
      <trkpt lat="43.86151" lon="3.28458">
        <ele>726.45</ele>
        <time>2026-03-29T08:22:40.136Z</time>
      </trkpt>
      <trkpt lat="43.86151" lon="3.28458">
        <ele>727.06</ele>
        <time>2026-03-29T08:22:47.047Z</time>
      </trkpt>
      <trkpt lat="43.86149" lon="3.28457">
        <ele>727.94</ele>
        <time>2026-03-29T08:22:52.128Z</time>
      </trkpt>
      <trkpt lat="43.86147" lon="3.28457">
        <ele>728.08</ele>
        <time>2026-03-29T08:22:58.108Z</time>
      </trkpt>
      <trkpt lat="43.86145" lon="3.28456">
        <ele>728.14</ele>
        <time>2026-03-29T08:23:04.121Z</time>
      </trkpt>
      <trkpt lat="43.86142" lon="3.28456">
        <ele>728.16</ele>
        <time>2026-03-29T08:23:09.981Z</time>
      </trkpt>
      <trkpt lat="43.86141" lon="3.28456">
        <ele>727.5</ele>
        <time>2026-03-29T08:23:15.079Z</time>
      </trkpt>
      <trkpt lat="43.8614" lon="3.28456">
        <ele>727.07</ele>
        <time>2026-03-29T08:23:20.099Z</time>
      </trkpt>
      <trkpt lat="43.86134" lon="3.28452">
        <ele>728.17</ele>
        <time>2026-03-29T08:23:25.104Z</time>
      </trkpt>
      <trkpt lat="43.8613" lon="3.28452">
        <ele>729.91</ele>
        <time>2026-03-29T08:23:31.162Z</time>
      </trkpt>
      <trkpt lat="43.86129" lon="3.28452">
        <ele>732.43</ele>
        <time>2026-03-29T08:23:36.769Z</time>
      </trkpt>
      <trkpt lat="43.86127" lon="3.28454">
        <ele>730.02</ele>
        <time>2026-03-29T08:23:42.106Z</time>
      </trkpt>
      <trkpt lat="43.86126" lon="3.28454">
        <ele>729.15</ele>
        <time>2026-03-29T08:23:47.108Z</time>
      </trkpt>
      <trkpt lat="43.86119" lon="3.28458">
        <ele>728.42</ele>
        <time>2026-03-29T08:23:52.930Z</time>
      </trkpt>
      <trkpt lat="43.86114" lon="3.28457">
        <ele>728.23</ele>
        <time>2026-03-29T08:23:58.119Z</time>
      </trkpt>
      <trkpt lat="43.86106" lon="3.28456">
        <ele>729.22</ele>
        <time>2026-03-29T08:24:04.074Z</time>
      </trkpt>
      <trkpt lat="43.861" lon="3.28458">
        <ele>729.11</ele>
        <time>2026-03-29T08:24:09.115Z</time>
      </trkpt>
      <trkpt lat="43.86093" lon="3.28457">
        <ele>730.47</ele>
        <time>2026-03-29T08:24:14.858Z</time>
      </trkpt>
      <trkpt lat="43.8609" lon="3.28449">
        <ele>732.05</ele>
        <time>2026-03-29T08:24:20.134Z</time>
      </trkpt>
      <trkpt lat="43.86092" lon="3.28445">
        <ele>734.79</ele>
        <time>2026-03-29T08:24:26.086Z</time>
      </trkpt>
      <trkpt lat="43.86094" lon="3.28439">
        <ele>735.15</ele>
        <time>2026-03-29T08:24:31.101Z</time>
      </trkpt>
      <trkpt lat="43.86096" lon="3.28432">
        <ele>734.31</ele>
        <time>2026-03-29T08:24:36.682Z</time>
      </trkpt>
      <trkpt lat="43.86097" lon="3.28423">
        <ele>734.19</ele>
        <time>2026-03-29T08:24:42.089Z</time>
      </trkpt>
      <trkpt lat="43.86098" lon="3.28415">
        <ele>733.52</ele>
        <time>2026-03-29T08:24:47.130Z</time>
      </trkpt>
      <trkpt lat="43.86096" lon="3.28408">
        <ele>734.66</ele>
        <time>2026-03-29T08:24:52.398Z</time>
      </trkpt>
      <trkpt lat="43.86095" lon="3.28401">
        <ele>735.61</ele>
        <time>2026-03-29T08:24:58.117Z</time>
      </trkpt>
      <trkpt lat="43.86097" lon="3.28396">
        <ele>735.64</ele>
        <time>2026-03-29T08:25:03.902Z</time>
      </trkpt>
      <trkpt lat="43.86098" lon="3.28389">
        <ele>735.14</ele>
        <time>2026-03-29T08:25:09.114Z</time>
      </trkpt>
      <trkpt lat="43.861" lon="3.28383">
        <ele>734.73</ele>
        <time>2026-03-29T08:25:14.145Z</time>
      </trkpt>
      <trkpt lat="43.86099" lon="3.28378">
        <ele>736.28</ele>
        <time>2026-03-29T08:25:20.150Z</time>
      </trkpt>
      <trkpt lat="43.86094" lon="3.28373">
        <ele>734.62</ele>
        <time>2026-03-29T08:25:26.121Z</time>
      </trkpt>
      <trkpt lat="43.86094" lon="3.28374">
        <ele>733.96</ele>
        <time>2026-03-29T08:25:33.601Z</time>
      </trkpt>
      <trkpt lat="43.86092" lon="3.2838">
        <ele>734.37</ele>
        <time>2026-03-29T08:25:39.124Z</time>
      </trkpt>
      <trkpt lat="43.8609" lon="3.28386">
        <ele>734.39</ele>
        <time>2026-03-29T08:25:44.125Z</time>
      </trkpt>
      <trkpt lat="43.86086" lon="3.28391">
        <ele>734.55</ele>
        <time>2026-03-29T08:25:49.131Z</time>
      </trkpt>
      <trkpt lat="43.86082" lon="3.28394">
        <ele>735.17</ele>
        <time>2026-03-29T08:25:54.141Z</time>
      </trkpt>
      <trkpt lat="43.86077" lon="3.28392">
        <ele>735.77</ele>
        <time>2026-03-29T08:25:59.538Z</time>
      </trkpt>
      <trkpt lat="43.86071" lon="3.2839">
        <ele>735.94</ele>
        <time>2026-03-29T08:26:04.978Z</time>
      </trkpt>
      <trkpt lat="43.86065" lon="3.2839">
        <ele>736.63</ele>
        <time>2026-03-29T08:26:10.534Z</time>
      </trkpt>
      <trkpt lat="43.86061" lon="3.28385">
        <ele>737.04</ele>
        <time>2026-03-29T08:26:16.098Z</time>
      </trkpt>
      <trkpt lat="43.8606" lon="3.28385">
        <ele>737.67</ele>
        <time>2026-03-29T08:26:22.125Z</time>
      </trkpt>
      <trkpt lat="43.86061" lon="3.28383">
        <ele>740.95</ele>
        <time>2026-03-29T08:26:33.806Z</time>
      </trkpt>
      <trkpt lat="43.86059" lon="3.28379">
        <ele>740.48</ele>
        <time>2026-03-29T08:26:39.098Z</time>
      </trkpt>
      <trkpt lat="43.86059" lon="3.28375">
        <ele>738.64</ele>
        <time>2026-03-29T08:26:44.131Z</time>
      </trkpt>
      <trkpt lat="43.86058" lon="3.28367">
        <ele>738.17</ele>
        <time>2026-03-29T08:26:50.092Z</time>
      </trkpt>
      <trkpt lat="43.86059" lon="3.28366">
        <ele>737.54</ele>
        <time>2026-03-29T08:26:56.044Z</time>
      </trkpt>
      <trkpt lat="43.86059" lon="3.28364">
        <ele>736.84</ele>
        <time>2026-03-29T08:27:01.105Z</time>
      </trkpt>
      <trkpt lat="43.86061" lon="3.28362">
        <ele>737.95</ele>
        <time>2026-03-29T08:27:06.129Z</time>
      </trkpt>
      <trkpt lat="43.86063" lon="3.28361">
        <ele>736.87</ele>
        <time>2026-03-29T08:27:12.100Z</time>
      </trkpt>
      <trkpt lat="43.86064" lon="3.2836">
        <ele>737.8</ele>
        <time>2026-03-29T08:27:17.144Z</time>
      </trkpt>
      <trkpt lat="43.86065" lon="3.28359">
        <ele>736.43</ele>
        <time>2026-03-29T08:27:32.098Z</time>
      </trkpt>
      <trkpt lat="43.8607" lon="3.28353">
        <ele>734.68</ele>
        <time>2026-03-29T08:27:37.282Z</time>
      </trkpt>
      <trkpt lat="43.86076" lon="3.28351">
        <ele>733.44</ele>
        <time>2026-03-29T08:27:42.756Z</time>
      </trkpt>
      <trkpt lat="43.86081" lon="3.28346">
        <ele>736.04</ele>
        <time>2026-03-29T08:27:47.842Z</time>
      </trkpt>
      <trkpt lat="43.86086" lon="3.28346">
        <ele>736.41</ele>
        <time>2026-03-29T08:27:53.111Z</time>
      </trkpt>
      <trkpt lat="43.86087" lon="3.28343">
        <ele>735.92</ele>
        <time>2026-03-29T08:27:58.978Z</time>
      </trkpt>
      <trkpt lat="43.86092" lon="3.28343">
        <ele>735.45</ele>
        <time>2026-03-29T08:28:03.991Z</time>
      </trkpt>
      <trkpt lat="43.86094" lon="3.28344">
        <ele>735.53</ele>
        <time>2026-03-29T08:28:09.014Z</time>
      </trkpt>
      <trkpt lat="43.86095" lon="3.28343">
        <ele>735.92</ele>
        <time>2026-03-29T08:28:17.005Z</time>
      </trkpt>
      <trkpt lat="43.86096" lon="3.28344">
        <ele>735.59</ele>
        <time>2026-03-29T08:28:22.125Z</time>
      </trkpt>
      <trkpt lat="43.86097" lon="3.28344">
        <ele>736.22</ele>
        <time>2026-03-29T08:28:29.284Z</time>
      </trkpt>
      <trkpt lat="43.86097" lon="3.28341">
        <ele>736.54</ele>
        <time>2026-03-29T08:28:34.803Z</time>
      </trkpt>
      <trkpt lat="43.86098" lon="3.28339">
        <ele>736.09</ele>
        <time>2026-03-29T08:28:39.923Z</time>
      </trkpt>
      <trkpt lat="43.86099" lon="3.28335">
        <ele>734.64</ele>
        <time>2026-03-29T08:28:45.058Z</time>
      </trkpt>
      <trkpt lat="43.86098" lon="3.28333">
        <ele>734.06</ele>
        <time>2026-03-29T08:28:50.072Z</time>
      </trkpt>
      <trkpt lat="43.86098" lon="3.28332">
        <ele>734.23</ele>
        <time>2026-03-29T08:28:56.617Z</time>
      </trkpt>
      <trkpt lat="43.86097" lon="3.28331">
        <ele>734.4</ele>
        <time>2026-03-29T08:29:06.645Z</time>
      </trkpt>
      <trkpt lat="43.86092" lon="3.28328">
        <ele>736.33</ele>
        <time>2026-03-29T08:29:11.657Z</time>
      </trkpt>
      <trkpt lat="43.86087" lon="3.28324">
        <ele>736.23</ele>
        <time>2026-03-29T08:29:17.002Z</time>
      </trkpt>
      <trkpt lat="43.86084" lon="3.28318">
        <ele>735.9</ele>
        <time>2026-03-29T08:29:22.072Z</time>
      </trkpt>
      <trkpt lat="43.86082" lon="3.28314">
        <ele>737.67</ele>
        <time>2026-03-29T08:29:27.085Z</time>
      </trkpt>
      <trkpt lat="43.86083" lon="3.28314">
        <ele>738.54</ele>
        <time>2026-03-29T08:29:40.633Z</time>
      </trkpt>
      <trkpt lat="43.86082" lon="3.28311">
        <ele>739.3</ele>
        <time>2026-03-29T08:29:46.072Z</time>
      </trkpt>
      <trkpt lat="43.86083" lon="3.28307">
        <ele>740.45</ele>
        <time>2026-03-29T08:29:51.915Z</time>
      </trkpt>
      <trkpt lat="43.86083" lon="3.28306">
        <ele>742.19</ele>
        <time>2026-03-29T08:30:19.992Z</time>
      </trkpt>
      <trkpt lat="43.86083" lon="3.28305">
        <ele>740.49</ele>
        <time>2026-03-29T08:30:47.123Z</time>
      </trkpt>
      <trkpt lat="43.86084" lon="3.28303">
        <ele>748.02</ele>
        <time>2026-03-29T08:30:53.058Z</time>
      </trkpt>
      <trkpt lat="43.86085" lon="3.28301">
        <ele>747.45</ele>
        <time>2026-03-29T08:30:58.071Z</time>
      </trkpt>
      <trkpt lat="43.86086" lon="3.283">
        <ele>744.84</ele>
        <time>2026-03-29T08:31:13.004Z</time>
      </trkpt>
      <trkpt lat="43.8609" lon="3.28298">
        <ele>745.71</ele>
        <time>2026-03-29T08:31:18.018Z</time>
      </trkpt>
      <trkpt lat="43.8609" lon="3.283">
        <ele>746.48</ele>
        <time>2026-03-29T08:31:23.032Z</time>
      </trkpt>
      <trkpt lat="43.86091" lon="3.283">
        <ele>743.26</ele>
        <time>2026-03-29T08:31:30.082Z</time>
      </trkpt>
      <trkpt lat="43.86097" lon="3.28296">
        <ele>743.73</ele>
        <time>2026-03-29T08:31:35.708Z</time>
      </trkpt>
      <trkpt lat="43.86098" lon="3.28297">
        <ele>746.56</ele>
        <time>2026-03-29T08:31:43.200Z</time>
      </trkpt>
      <trkpt lat="43.86099" lon="3.28295">
        <ele>745.92</ele>
        <time>2026-03-29T08:31:48.770Z</time>
      </trkpt>
      <trkpt lat="43.86105" lon="3.28287">
        <ele>745.23</ele>
        <time>2026-03-29T08:31:54.851Z</time>
      </trkpt>
      <trkpt lat="43.86107" lon="3.28284">
        <ele>745.2</ele>
        <time>2026-03-29T08:32:00.054Z</time>
      </trkpt>
      <trkpt lat="43.86108" lon="3.2828">
        <ele>746.19</ele>
        <time>2026-03-29T08:32:05.067Z</time>
      </trkpt>
      <trkpt lat="43.86106" lon="3.2828">
        <ele>746.73</ele>
        <time>2026-03-29T08:32:11.042Z</time>
      </trkpt>
      <trkpt lat="43.86106" lon="3.2828">
        <ele>746.28</ele>
        <time>2026-03-29T08:32:16.056Z</time>
      </trkpt>
      <trkpt lat="43.86105" lon="3.28281">
        <ele>745.54</ele>
        <time>2026-03-29T08:32:21.068Z</time>
      </trkpt>
      <trkpt lat="43.86103" lon="3.28283">
        <ele>744.8</ele>
        <time>2026-03-29T08:32:26.991Z</time>
      </trkpt>
      <trkpt lat="43.86101" lon="3.28285">
        <ele>744.3</ele>
        <time>2026-03-29T08:32:32.104Z</time>
      </trkpt>
      <trkpt lat="43.86105" lon="3.28293">
        <ele>745.95</ele>
        <time>2026-03-29T08:32:37.447Z</time>
      </trkpt>
      <trkpt lat="43.86096" lon="3.28293">
        <ele>747.16</ele>
        <time>2026-03-29T08:32:42.843Z</time>
      </trkpt>
      <trkpt lat="43.86095" lon="3.2829">
        <ele>745.11</ele>
        <time>2026-03-29T08:32:47.927Z</time>
      </trkpt>
      <trkpt lat="43.86095" lon="3.28289">
        <ele>743.85</ele>
        <time>2026-03-29T08:32:53.080Z</time>
      </trkpt>
      <trkpt lat="43.86096" lon="3.28288">
        <ele>743.51</ele>
        <time>2026-03-29T08:33:04.925Z</time>
      </trkpt>
      <trkpt lat="43.86097" lon="3.28282">
        <ele>742.32</ele>
        <time>2026-03-29T08:33:10.040Z</time>
      </trkpt>
      <trkpt lat="43.86096" lon="3.2828">
        <ele>741.84</ele>
        <time>2026-03-29T08:33:15.054Z</time>
      </trkpt>
      <trkpt lat="43.86095" lon="3.2828">
        <ele>742.68</ele>
        <time>2026-03-29T08:33:30.093Z</time>
      </trkpt>
      <trkpt lat="43.86095" lon="3.28282">
        <ele>741.01</ele>
        <time>2026-03-29T08:33:39.052Z</time>
      </trkpt>
      <trkpt lat="43.86094" lon="3.28287">
        <ele>740.38</ele>
        <time>2026-03-29T08:33:44.058Z</time>
      </trkpt>
      <trkpt lat="43.86093" lon="3.28293">
        <ele>740.5</ele>
        <time>2026-03-29T08:33:49.080Z</time>
      </trkpt>
      <trkpt lat="43.86092" lon="3.28292">
        <ele>740.41</ele>
        <time>2026-03-29T08:33:55.052Z</time>
      </trkpt>
      <trkpt lat="43.86092" lon="3.28293">
        <ele>741.61</ele>
        <time>2026-03-29T08:34:05.721Z</time>
      </trkpt>
      <trkpt lat="43.86095" lon="3.28302">
        <ele>741.56</ele>
        <time>2026-03-29T08:34:11.053Z</time>
      </trkpt>
      <trkpt lat="43.86095" lon="3.28303">
        <ele>741.84</ele>
        <time>2026-03-29T08:34:16.066Z</time>
      </trkpt>
      <trkpt lat="43.86095" lon="3.28305">
        <ele>741.92</ele>
        <time>2026-03-29T08:34:39.105Z</time>
      </trkpt>
      <trkpt lat="43.86095" lon="3.28304">
        <ele>741.68</ele>
        <time>2026-03-29T08:34:48.584Z</time>
      </trkpt>
      <trkpt lat="43.86096" lon="3.28302">
        <ele>741.62</ele>
        <time>2026-03-29T08:34:54.723Z</time>
      </trkpt>
      <trkpt lat="43.86095" lon="3.28299">
        <ele>741.32</ele>
        <time>2026-03-29T08:35:00.010Z</time>
      </trkpt>
      <trkpt lat="43.86088" lon="3.28298">
        <ele>741.7</ele>
        <time>2026-03-29T08:35:05.091Z</time>
      </trkpt>
      <trkpt lat="43.86084" lon="3.28298">
        <ele>741.15</ele>
        <time>2026-03-29T08:35:10.671Z</time>
      </trkpt>
      <trkpt lat="43.86083" lon="3.283">
        <ele>742.78</ele>
        <time>2026-03-29T08:35:15.775Z</time>
      </trkpt>
      <trkpt lat="43.86085" lon="3.28301">
        <ele>740.09</ele>
        <time>2026-03-29T08:35:21.040Z</time>
      </trkpt>
      <trkpt lat="43.86086" lon="3.28302">
        <ele>739.19</ele>
        <time>2026-03-29T08:35:35.122Z</time>
      </trkpt>
      <trkpt lat="43.86086" lon="3.28303">
        <ele>738.4</ele>
        <time>2026-03-29T08:35:41.092Z</time>
      </trkpt>
      <trkpt lat="43.86087" lon="3.28307">
        <ele>736.56</ele>
        <time>2026-03-29T08:35:47.065Z</time>
      </trkpt>
      <trkpt lat="43.86091" lon="3.28314">
        <ele>735.82</ele>
        <time>2026-03-29T08:35:52.078Z</time>
      </trkpt>
      <trkpt lat="43.86095" lon="3.28319">
        <ele>734.84</ele>
        <time>2026-03-29T08:35:57.155Z</time>
      </trkpt>
      <trkpt lat="43.86095" lon="3.28324">
        <ele>733.84</ele>
        <time>2026-03-29T08:36:03.082Z</time>
      </trkpt>
      <trkpt lat="43.86094" lon="3.28323">
        <ele>733.39</ele>
        <time>2026-03-29T08:36:08.987Z</time>
      </trkpt>
      <trkpt lat="43.86093" lon="3.28322">
        <ele>732.45</ele>
        <time>2026-03-29T08:36:14.068Z</time>
      </trkpt>
      <trkpt lat="43.86094" lon="3.28323">
        <ele>733.08</ele>
        <time>2026-03-29T08:36:26.443Z</time>
      </trkpt>
      <trkpt lat="43.86098" lon="3.28325">
        <ele>733.12</ele>
        <time>2026-03-29T08:36:32.093Z</time>
      </trkpt>
      <trkpt lat="43.861" lon="3.28326">
        <ele>733.56</ele>
        <time>2026-03-29T08:36:37.147Z</time>
      </trkpt>
      <trkpt lat="43.86104" lon="3.28329">
        <ele>732.68</ele>
        <time>2026-03-29T08:36:43.125Z</time>
      </trkpt>
      <trkpt lat="43.86103" lon="3.28329">
        <ele>730.69</ele>
        <time>2026-03-29T08:36:51.079Z</time>
      </trkpt>
      <trkpt lat="43.86104" lon="3.2833">
        <ele>731.04</ele>
        <time>2026-03-29T08:36:57.052Z</time>
      </trkpt>
      <trkpt lat="43.86106" lon="3.28332">
        <ele>731.15</ele>
        <time>2026-03-29T08:37:02.065Z</time>
      </trkpt>
      <trkpt lat="43.86108" lon="3.28333">
        <ele>730.44</ele>
        <time>2026-03-29T08:37:07.443Z</time>
      </trkpt>
      <trkpt lat="43.86115" lon="3.28335">
        <ele>730.26</ele>
        <time>2026-03-29T08:37:12.652Z</time>
      </trkpt>
      <trkpt lat="43.86111" lon="3.28335">
        <ele>730.75</ele>
        <time>2026-03-29T08:37:18.064Z</time>
      </trkpt>
      <trkpt lat="43.8611" lon="3.28333">
        <ele>730.31</ele>
        <time>2026-03-29T08:37:23.076Z</time>
      </trkpt>
      <trkpt lat="43.8611" lon="3.28335">
        <ele>728.67</ele>
        <time>2026-03-29T08:37:28.090Z</time>
      </trkpt>
      <trkpt lat="43.8611" lon="3.28335">
        <ele>729.71</ele>
        <time>2026-03-29T08:37:46.885Z</time>
      </trkpt>
      <trkpt lat="43.8611" lon="3.28335">
        <ele>729.77</ele>
        <time>2026-03-29T08:38:10.115Z</time>
      </trkpt>
      <trkpt lat="43.86111" lon="3.28335">
        <ele>731.53</ele>
        <time>2026-03-29T08:38:15.981Z</time>
      </trkpt>
      <trkpt lat="43.86111" lon="3.28336">
        <ele>730.51</ele>
        <time>2026-03-29T08:38:23.039Z</time>
      </trkpt>
      <trkpt lat="43.86111" lon="3.28337">
        <ele>729.85</ele>
        <time>2026-03-29T08:38:32.107Z</time>
      </trkpt>
      <trkpt lat="43.86116" lon="3.28338">
        <ele>729.77</ele>
        <time>2026-03-29T08:38:38.078Z</time>
      </trkpt>
      <trkpt lat="43.86124" lon="3.28338">
        <ele>730.33</ele>
        <time>2026-03-29T08:38:43.656Z</time>
      </trkpt>
      <trkpt lat="43.86129" lon="3.28335">
        <ele>731.09</ele>
        <time>2026-03-29T08:38:48.953Z</time>
      </trkpt>
      <trkpt lat="43.86131" lon="3.28332">
        <ele>728.31</ele>
        <time>2026-03-29T08:38:54.077Z</time>
      </trkpt>
      <trkpt lat="43.86134" lon="3.28329">
        <ele>727.79</ele>
        <time>2026-03-29T08:38:59.092Z</time>
      </trkpt>
      <trkpt lat="43.86135" lon="3.28322">
        <ele>728.95</ele>
        <time>2026-03-29T08:39:04.105Z</time>
      </trkpt>
      <trkpt lat="43.86134" lon="3.28321">
        <ele>729.76</ele>
        <time>2026-03-29T08:39:09.513Z</time>
      </trkpt>
      <trkpt lat="43.86139" lon="3.28319">
        <ele>727.24</ele>
        <time>2026-03-29T08:39:14.696Z</time>
      </trkpt>
      <trkpt lat="43.86144" lon="3.28314">
        <ele>725.95</ele>
        <time>2026-03-29T08:39:20.104Z</time>
      </trkpt>
      <trkpt lat="43.86143" lon="3.28313">
        <ele>727.5</ele>
        <time>2026-03-29T08:39:25.126Z</time>
      </trkpt>
      <trkpt lat="43.86145" lon="3.28314">
        <ele>728.44</ele>
        <time>2026-03-29T08:39:30.487Z</time>
      </trkpt>
      <trkpt lat="43.86152" lon="3.28309">
        <ele>728.37</ele>
        <time>2026-03-29T08:39:36.006Z</time>
      </trkpt>
      <trkpt lat="43.86158" lon="3.28309">
        <ele>728.74</ele>
        <time>2026-03-29T08:39:41.126Z</time>
      </trkpt>
      <trkpt lat="43.86165" lon="3.283">
        <ele>730.22</ele>
        <time>2026-03-29T08:39:46.676Z</time>
      </trkpt>
      <trkpt lat="43.86167" lon="3.28295">
        <ele>731.4</ele>
        <time>2026-03-29T08:39:51.779Z</time>
      </trkpt>
      <trkpt lat="43.8617" lon="3.28288">
        <ele>730.55</ele>
        <time>2026-03-29T08:39:57.282Z</time>
      </trkpt>
      <trkpt lat="43.86171" lon="3.28282">
        <ele>730.96</ele>
        <time>2026-03-29T08:40:02.579Z</time>
      </trkpt>
      <trkpt lat="43.86171" lon="3.28281">
        <ele>729.53</ele>
        <time>2026-03-29T08:40:08.996Z</time>
      </trkpt>
      <trkpt lat="43.86172" lon="3.2828">
        <ele>729.24</ele>
        <time>2026-03-29T08:40:18.032Z</time>
      </trkpt>
      <trkpt lat="43.86173" lon="3.28279">
        <ele>729.31</ele>
        <time>2026-03-29T08:40:28.342Z</time>
      </trkpt>
      <trkpt lat="43.86171" lon="3.28272">
        <ele>729.43</ele>
        <time>2026-03-29T08:40:33.662Z</time>
      </trkpt>
      <trkpt lat="43.8617" lon="3.28265">
        <ele>729.08</ele>
        <time>2026-03-29T08:40:38.756Z</time>
      </trkpt>
      <trkpt lat="43.86167" lon="3.28256">
        <ele>728.89</ele>
        <time>2026-03-29T08:40:44.062Z</time>
      </trkpt>
      <trkpt lat="43.86168" lon="3.28249">
        <ele>728.59</ele>
        <time>2026-03-29T08:40:49.985Z</time>
      </trkpt>
      <trkpt lat="43.86169" lon="3.28241">
        <ele>728.92</ele>
        <time>2026-03-29T08:40:55.538Z</time>
      </trkpt>
      <trkpt lat="43.86172" lon="3.28232">
        <ele>728.46</ele>
        <time>2026-03-29T08:41:00.639Z</time>
      </trkpt>
      <trkpt lat="43.86172" lon="3.28225">
        <ele>728.39</ele>
        <time>2026-03-29T08:41:05.955Z</time>
      </trkpt>
      <trkpt lat="43.86173" lon="3.28217">
        <ele>728.3</ele>
        <time>2026-03-29T08:41:11.902Z</time>
      </trkpt>
      <trkpt lat="43.86174" lon="3.2821">
        <ele>726.64</ele>
        <time>2026-03-29T08:41:17.044Z</time>
      </trkpt>
      <trkpt lat="43.86174" lon="3.28204">
        <ele>726.81</ele>
        <time>2026-03-29T08:41:22.095Z</time>
      </trkpt>
      <trkpt lat="43.86174" lon="3.28195">
        <ele>730.35</ele>
        <time>2026-03-29T08:41:28.030Z</time>
      </trkpt>
      <trkpt lat="43.86175" lon="3.28187">
        <ele>730.3</ele>
        <time>2026-03-29T08:41:33.043Z</time>
      </trkpt>
      <trkpt lat="43.86177" lon="3.28181">
        <ele>728.16</ele>
        <time>2026-03-29T08:41:38.112Z</time>
      </trkpt>
      <trkpt lat="43.86179" lon="3.28174">
        <ele>727.7</ele>
        <time>2026-03-29T08:41:43.335Z</time>
      </trkpt>
      <trkpt lat="43.86182" lon="3.28166">
        <ele>726.63</ele>
        <time>2026-03-29T08:41:48.719Z</time>
      </trkpt>
      <trkpt lat="43.86188" lon="3.28161">
        <ele>726.85</ele>
        <time>2026-03-29T08:41:53.756Z</time>
      </trkpt>
      <trkpt lat="43.8619" lon="3.28155">
        <ele>727.93</ele>
        <time>2026-03-29T08:41:59.033Z</time>
      </trkpt>
      <trkpt lat="43.86191" lon="3.28145">
        <ele>726.48</ele>
        <time>2026-03-29T08:42:04.894Z</time>
      </trkpt>
      <trkpt lat="43.86194" lon="3.28138">
        <ele>727.72</ele>
        <time>2026-03-29T08:42:10.132Z</time>
      </trkpt>
      <trkpt lat="43.86197" lon="3.28133">
        <ele>729.18</ele>
        <time>2026-03-29T08:42:15.134Z</time>
      </trkpt>
      <trkpt lat="43.86198" lon="3.28129">
        <ele>728.55</ele>
        <time>2026-03-29T08:42:21.036Z</time>
      </trkpt>
      <trkpt lat="43.86201" lon="3.28121">
        <ele>727.69</ele>
        <time>2026-03-29T08:42:26.136Z</time>
      </trkpt>
      <trkpt lat="43.86203" lon="3.28113">
        <ele>727.59</ele>
        <time>2026-03-29T08:42:31.375Z</time>
      </trkpt>
      <trkpt lat="43.86205" lon="3.28104">
        <ele>727.7</ele>
        <time>2026-03-29T08:42:36.529Z</time>
      </trkpt>
      <trkpt lat="43.86207" lon="3.28096">
        <ele>726.39</ele>
        <time>2026-03-29T08:42:42.142Z</time>
      </trkpt>
      <trkpt lat="43.86209" lon="3.28089">
        <ele>725.94</ele>
        <time>2026-03-29T08:42:47.535Z</time>
      </trkpt>
      <trkpt lat="43.86209" lon="3.2808">
        <ele>726.84</ele>
        <time>2026-03-29T08:42:52.682Z</time>
      </trkpt>
      <trkpt lat="43.86209" lon="3.28071">
        <ele>724.71</ele>
        <time>2026-03-29T08:42:58.014Z</time>
      </trkpt>
      <trkpt lat="43.86207" lon="3.28063">
        <ele>724.99</ele>
        <time>2026-03-29T08:43:03.088Z</time>
      </trkpt>
      <trkpt lat="43.86207" lon="3.28052">
        <ele>727.87</ele>
        <time>2026-03-29T08:43:08.142Z</time>
      </trkpt>
      <trkpt lat="43.86207" lon="3.28042">
        <ele>730.26</ele>
        <time>2026-03-29T08:43:13.676Z</time>
      </trkpt>
      <trkpt lat="43.86209" lon="3.28032">
        <ele>730.92</ele>
        <time>2026-03-29T08:43:19.111Z</time>
      </trkpt>
      <trkpt lat="43.86213" lon="3.28023">
        <ele>726.22</ele>
        <time>2026-03-29T08:43:24.824Z</time>
      </trkpt>
      <trkpt lat="43.86216" lon="3.28011">
        <ele>724.81</ele>
        <time>2026-03-29T08:43:30.121Z</time>
      </trkpt>
      <trkpt lat="43.86219" lon="3.28004">
        <ele>727.29</ele>
        <time>2026-03-29T08:43:35.514Z</time>
      </trkpt>
      <trkpt lat="43.86222" lon="3.27997">
        <ele>727.39</ele>
        <time>2026-03-29T08:43:40.745Z</time>
      </trkpt>
      <trkpt lat="43.86227" lon="3.27989">
        <ele>727.08</ele>
        <time>2026-03-29T08:43:46.183Z</time>
      </trkpt>
      <trkpt lat="43.86232" lon="3.27983">
        <ele>727.1</ele>
        <time>2026-03-29T08:43:51.405Z</time>
      </trkpt>
      <trkpt lat="43.86236" lon="3.27978">
        <ele>727.3</ele>
        <time>2026-03-29T08:43:56.620Z</time>
      </trkpt>
      <trkpt lat="43.86239" lon="3.27975">
        <ele>727.63</ele>
        <time>2026-03-29T08:44:01.918Z</time>
      </trkpt>
      <trkpt lat="43.86242" lon="3.2797">
        <ele>727.79</ele>
        <time>2026-03-29T08:44:07.558Z</time>
      </trkpt>
      <trkpt lat="43.86245" lon="3.27967">
        <ele>725.54</ele>
        <time>2026-03-29T08:44:13.122Z</time>
      </trkpt>
      <trkpt lat="43.86245" lon="3.27965">
        <ele>727.65</ele>
        <time>2026-03-29T08:44:26.123Z</time>
      </trkpt>
      <trkpt lat="43.86247" lon="3.27963">
        <ele>727.13</ele>
        <time>2026-03-29T08:44:32.102Z</time>
      </trkpt>
      <trkpt lat="43.86251" lon="3.2796">
        <ele>728.48</ele>
        <time>2026-03-29T08:44:37.167Z</time>
      </trkpt>
      <trkpt lat="43.86251" lon="3.27956">
        <ele>727.68</ele>
        <time>2026-03-29T08:44:42.169Z</time>
      </trkpt>
      <trkpt lat="43.86252" lon="3.27957">
        <ele>726.92</ele>
        <time>2026-03-29T08:44:47.948Z</time>
      </trkpt>
      <trkpt lat="43.86253" lon="3.27956">
        <ele>726.98</ele>
        <time>2026-03-29T08:44:55.196Z</time>
      </trkpt>
      <trkpt lat="43.86254" lon="3.27954">
        <ele>726.52</ele>
        <time>2026-03-29T08:45:00.698Z</time>
      </trkpt>
      <trkpt lat="43.86256" lon="3.27953">
        <ele>727.67</ele>
        <time>2026-03-29T08:45:06.134Z</time>
      </trkpt>
      <trkpt lat="43.86257" lon="3.27952">
        <ele>729.1</ele>
        <time>2026-03-29T08:45:12.152Z</time>
      </trkpt>
      <trkpt lat="43.86257" lon="3.2795">
        <ele>728.36</ele>
        <time>2026-03-29T08:45:41.701Z</time>
      </trkpt>
      <trkpt lat="43.86256" lon="3.27948">
        <ele>727</ele>
        <time>2026-03-29T08:45:47.146Z</time>
      </trkpt>
      <trkpt lat="43.8626" lon="3.27942">
        <ele>726.26</ele>
        <time>2026-03-29T08:45:52.719Z</time>
      </trkpt>
      <trkpt lat="43.86265" lon="3.27932">
        <ele>727.42</ele>
        <time>2026-03-29T08:45:58.172Z</time>
      </trkpt>
      <trkpt lat="43.86268" lon="3.2792">
        <ele>728.64</ele>
        <time>2026-03-29T08:46:04.058Z</time>
      </trkpt>
      <trkpt lat="43.86272" lon="3.2791">
        <ele>729.19</ele>
        <time>2026-03-29T08:46:10.041Z</time>
      </trkpt>
      <trkpt lat="43.86276" lon="3.27902">
        <ele>727.24</ele>
        <time>2026-03-29T08:46:15.723Z</time>
      </trkpt>
      <trkpt lat="43.8628" lon="3.27893">
        <ele>726.9</ele>
        <time>2026-03-29T08:46:21.403Z</time>
      </trkpt>
      <trkpt lat="43.86284" lon="3.27886">
        <ele>728.41</ele>
        <time>2026-03-29T08:46:26.442Z</time>
      </trkpt>
      <trkpt lat="43.86286" lon="3.27878">
        <ele>728.5</ele>
        <time>2026-03-29T08:46:31.480Z</time>
      </trkpt>
      <trkpt lat="43.8629" lon="3.27869">
        <ele>729.43</ele>
        <time>2026-03-29T08:46:36.698Z</time>
      </trkpt>
      <trkpt lat="43.86292" lon="3.27862">
        <ele>727.48</ele>
        <time>2026-03-29T08:46:41.820Z</time>
      </trkpt>
      <trkpt lat="43.86294" lon="3.27853">
        <ele>726.48</ele>
        <time>2026-03-29T08:46:47.359Z</time>
      </trkpt>
      <trkpt lat="43.86296" lon="3.27845">
        <ele>726.88</ele>
        <time>2026-03-29T08:46:52.781Z</time>
      </trkpt>
      <trkpt lat="43.86298" lon="3.27835">
        <ele>727.16</ele>
        <time>2026-03-29T08:46:57.917Z</time>
      </trkpt>
      <trkpt lat="43.86302" lon="3.27828">
        <ele>727.5</ele>
        <time>2026-03-29T08:47:03.168Z</time>
      </trkpt>
      <trkpt lat="43.86305" lon="3.2782">
        <ele>726.67</ele>
        <time>2026-03-29T08:47:08.780Z</time>
      </trkpt>
      <trkpt lat="43.86308" lon="3.27811">
        <ele>726.13</ele>
        <time>2026-03-29T08:47:14.192Z</time>
      </trkpt>
      <trkpt lat="43.86312" lon="3.27802">
        <ele>726.54</ele>
        <time>2026-03-29T08:47:19.739Z</time>
      </trkpt>
      <trkpt lat="43.86315" lon="3.27793">
        <ele>727.82</ele>
        <time>2026-03-29T08:47:25.001Z</time>
      </trkpt>
      <trkpt lat="43.86319" lon="3.27786">
        <ele>728.28</ele>
        <time>2026-03-29T08:47:30.157Z</time>
      </trkpt>
      <trkpt lat="43.86325" lon="3.2778">
        <ele>728.28</ele>
        <time>2026-03-29T08:47:36.120Z</time>
      </trkpt>
      <trkpt lat="43.86331" lon="3.27771">
        <ele>728.36</ele>
        <time>2026-03-29T08:47:41.379Z</time>
      </trkpt>
      <trkpt lat="43.86337" lon="3.27764">
        <ele>727.96</ele>
        <time>2026-03-29T08:47:46.663Z</time>
      </trkpt>
      <trkpt lat="43.86341" lon="3.27761">
        <ele>727.23</ele>
        <time>2026-03-29T08:47:51.943Z</time>
      </trkpt>
      <trkpt lat="43.86346" lon="3.27754">
        <ele>727.07</ele>
        <time>2026-03-29T08:47:57.062Z</time>
      </trkpt>
      <trkpt lat="43.86348" lon="3.27746">
        <ele>727.16</ele>
        <time>2026-03-29T08:48:02.101Z</time>
      </trkpt>
      <trkpt lat="43.86353" lon="3.27738">
        <ele>727.85</ele>
        <time>2026-03-29T08:48:07.173Z</time>
      </trkpt>
      <trkpt lat="43.86356" lon="3.2773">
        <ele>727.77</ele>
        <time>2026-03-29T08:48:12.918Z</time>
      </trkpt>
      <trkpt lat="43.86357" lon="3.27726">
        <ele>727.18</ele>
        <time>2026-03-29T08:48:17.983Z</time>
      </trkpt>
      <trkpt lat="43.8636" lon="3.2772">
        <ele>727.28</ele>
        <time>2026-03-29T08:48:23.112Z</time>
      </trkpt>
      <trkpt lat="43.86362" lon="3.27714">
        <ele>726.21</ele>
        <time>2026-03-29T08:48:28.125Z</time>
      </trkpt>
      <trkpt lat="43.86365" lon="3.27708">
        <ele>729.88</ele>
        <time>2026-03-29T08:48:33.140Z</time>
      </trkpt>
      <trkpt lat="43.86365" lon="3.27705">
        <ele>728.6</ele>
        <time>2026-03-29T08:48:38.163Z</time>
      </trkpt>
      <trkpt lat="43.86363" lon="3.27695">
        <ele>724.56</ele>
        <time>2026-03-29T08:48:43.814Z</time>
      </trkpt>
      <trkpt lat="43.86366" lon="3.27688">
        <ele>728.68</ele>
        <time>2026-03-29T08:48:49.189Z</time>
      </trkpt>
      <trkpt lat="43.86369" lon="3.27686">
        <ele>727.24</ele>
        <time>2026-03-29T08:48:54.569Z</time>
      </trkpt>
      <trkpt lat="43.86369" lon="3.27677">
        <ele>726.85</ele>
        <time>2026-03-29T08:48:59.594Z</time>
      </trkpt>
      <trkpt lat="43.86369" lon="3.27673">
        <ele>726.08</ele>
        <time>2026-03-29T08:49:05.187Z</time>
      </trkpt>
      <trkpt lat="43.8637" lon="3.27673">
        <ele>725.43</ele>
        <time>2026-03-29T08:49:15.894Z</time>
      </trkpt>
      <trkpt lat="43.86374" lon="3.27665">
        <ele>725.68</ele>
        <time>2026-03-29T08:49:21.092Z</time>
      </trkpt>
      <trkpt lat="43.86377" lon="3.27657">
        <ele>727.03</ele>
        <time>2026-03-29T08:49:26.114Z</time>
      </trkpt>
      <trkpt lat="43.86377" lon="3.27648">
        <ele>726.27</ele>
        <time>2026-03-29T08:49:31.570Z</time>
      </trkpt>
      <trkpt lat="43.86378" lon="3.2764">
        <ele>727.6</ele>
        <time>2026-03-29T08:49:37.186Z</time>
      </trkpt>
      <trkpt lat="43.86378" lon="3.27633">
        <ele>727.39</ele>
        <time>2026-03-29T08:49:42.566Z</time>
      </trkpt>
      <trkpt lat="43.86377" lon="3.27624">
        <ele>726.64</ele>
        <time>2026-03-29T08:49:48.184Z</time>
      </trkpt>
      <trkpt lat="43.86381" lon="3.27615">
        <ele>725.94</ele>
        <time>2026-03-29T08:49:53.481Z</time>
      </trkpt>
      <trkpt lat="43.86378" lon="3.27608">
        <ele>726.3</ele>
        <time>2026-03-29T08:49:59.157Z</time>
      </trkpt>
      <trkpt lat="43.86376" lon="3.27607">
        <ele>726.7</ele>
        <time>2026-03-29T08:50:05.151Z</time>
      </trkpt>
      <trkpt lat="43.86377" lon="3.27605">
        <ele>726.31</ele>
        <time>2026-03-29T08:50:12.151Z</time>
      </trkpt>
      <trkpt lat="43.86376" lon="3.27594">
        <ele>726.28</ele>
        <time>2026-03-29T08:50:17.184Z</time>
      </trkpt>
      <trkpt lat="43.86369" lon="3.27584">
        <ele>726.94</ele>
        <time>2026-03-29T08:50:22.194Z</time>
      </trkpt>
      <trkpt lat="43.86368" lon="3.27573">
        <ele>726.99</ele>
        <time>2026-03-29T08:50:27.664Z</time>
      </trkpt>
      <trkpt lat="43.86373" lon="3.27565">
        <ele>726.5</ele>
        <time>2026-03-29T08:50:33.145Z</time>
      </trkpt>
      <trkpt lat="43.86377" lon="3.27558">
        <ele>726.11</ele>
        <time>2026-03-29T08:50:38.159Z</time>
      </trkpt>
      <trkpt lat="43.86379" lon="3.27549">
        <ele>726.3</ele>
        <time>2026-03-29T08:50:43.619Z</time>
      </trkpt>
      <trkpt lat="43.86381" lon="3.27541">
        <ele>726.09</ele>
        <time>2026-03-29T08:50:49.137Z</time>
      </trkpt>
      <trkpt lat="43.86382" lon="3.27535">
        <ele>724.57</ele>
        <time>2026-03-29T08:50:54.182Z</time>
      </trkpt>
      <trkpt lat="43.86386" lon="3.2753">
        <ele>724.55</ele>
        <time>2026-03-29T08:50:59.626Z</time>
      </trkpt>
      <trkpt lat="43.86391" lon="3.27524">
        <ele>725.67</ele>
        <time>2026-03-29T08:51:04.665Z</time>
      </trkpt>
      <trkpt lat="43.86393" lon="3.27515">
        <ele>727.83</ele>
        <time>2026-03-29T08:51:09.803Z</time>
      </trkpt>
      <trkpt lat="43.86397" lon="3.27508">
        <ele>727.24</ele>
        <time>2026-03-29T08:51:15.480Z</time>
      </trkpt>
      <trkpt lat="43.86396" lon="3.275">
        <ele>727.09</ele>
        <time>2026-03-29T08:51:20.487Z</time>
      </trkpt>
      <trkpt lat="43.86396" lon="3.27493">
        <ele>728.05</ele>
        <time>2026-03-29T08:51:25.625Z</time>
      </trkpt>
      <trkpt lat="43.86401" lon="3.27486">
        <ele>728.46</ele>
        <time>2026-03-29T08:51:31.146Z</time>
      </trkpt>
      <trkpt lat="43.86404" lon="3.27482">
        <ele>728.18</ele>
        <time>2026-03-29T08:51:36.162Z</time>
      </trkpt>
      <trkpt lat="43.86407" lon="3.2748">
        <ele>729.17</ele>
        <time>2026-03-29T08:51:41.845Z</time>
      </trkpt>
      <trkpt lat="43.86408" lon="3.27479">
        <ele>729.22</ele>
        <time>2026-03-29T08:51:47.607Z</time>
      </trkpt>
      <trkpt lat="43.86408" lon="3.27467">
        <ele>728.42</ele>
        <time>2026-03-29T08:51:52.803Z</time>
      </trkpt>
      <trkpt lat="43.8641" lon="3.27457">
        <ele>729.27</ele>
        <time>2026-03-29T08:51:58.157Z</time>
      </trkpt>
      <trkpt lat="43.86411" lon="3.2745">
        <ele>728.61</ele>
        <time>2026-03-29T08:52:03.431Z</time>
      </trkpt>
      <trkpt lat="43.86409" lon="3.27447">
        <ele>727.45</ele>
        <time>2026-03-29T08:52:09.140Z</time>
      </trkpt>
      <trkpt lat="43.86411" lon="3.27448">
        <ele>727.35</ele>
        <time>2026-03-29T08:52:14.580Z</time>
      </trkpt>
      <trkpt lat="43.86411" lon="3.27447">
        <ele>727.58</ele>
        <time>2026-03-29T08:52:24.140Z</time>
      </trkpt>
      <trkpt lat="43.86412" lon="3.27447">
        <ele>728.01</ele>
        <time>2026-03-29T08:52:29.167Z</time>
      </trkpt>
      <trkpt lat="43.86418" lon="3.27436">
        <ele>727.94</ele>
        <time>2026-03-29T08:52:34.527Z</time>
      </trkpt>
      <trkpt lat="43.8642" lon="3.27425">
        <ele>727.4</ele>
        <time>2026-03-29T08:52:39.763Z</time>
      </trkpt>
      <trkpt lat="43.86419" lon="3.27414">
        <ele>728.4</ele>
        <time>2026-03-29T08:52:45.108Z</time>
      </trkpt>
      <trkpt lat="43.8642" lon="3.27404">
        <ele>728.8</ele>
        <time>2026-03-29T08:52:50.373Z</time>
      </trkpt>
      <trkpt lat="43.8642" lon="3.27393">
        <ele>731.18</ele>
        <time>2026-03-29T08:52:56.133Z</time>
      </trkpt>
      <trkpt lat="43.86424" lon="3.27388">
        <ele>728.32</ele>
        <time>2026-03-29T08:53:01.616Z</time>
      </trkpt>
      <trkpt lat="43.86423" lon="3.27375">
        <ele>727.95</ele>
        <time>2026-03-29T08:53:07.179Z</time>
      </trkpt>
      <trkpt lat="43.86424" lon="3.27363">
        <ele>728.34</ele>
        <time>2026-03-29T08:53:12.183Z</time>
      </trkpt>
      <trkpt lat="43.86424" lon="3.27352">
        <ele>727.92</ele>
        <time>2026-03-29T08:53:17.719Z</time>
      </trkpt>
      <trkpt lat="43.86425" lon="3.2734">
        <ele>728.94</ele>
        <time>2026-03-29T08:53:22.972Z</time>
      </trkpt>
      <trkpt lat="43.86424" lon="3.27329">
        <ele>729.32</ele>
        <time>2026-03-29T08:53:28.170Z</time>
      </trkpt>
      <trkpt lat="43.86425" lon="3.27319">
        <ele>728.79</ele>
        <time>2026-03-29T08:53:33.837Z</time>
      </trkpt>
      <trkpt lat="43.86426" lon="3.27309">
        <ele>728.64</ele>
        <time>2026-03-29T08:53:39.734Z</time>
      </trkpt>
      <trkpt lat="43.86427" lon="3.27298">
        <ele>728.16</ele>
        <time>2026-03-29T08:53:45.193Z</time>
      </trkpt>
      <trkpt lat="43.86427" lon="3.27287">
        <ele>728.66</ele>
        <time>2026-03-29T08:53:50.376Z</time>
      </trkpt>
      <trkpt lat="43.8643" lon="3.27279">
        <ele>728.37</ele>
        <time>2026-03-29T08:53:55.778Z</time>
      </trkpt>
      <trkpt lat="43.86431" lon="3.27281">
        <ele>727.61</ele>
        <time>2026-03-29T08:54:01.172Z</time>
      </trkpt>
      <trkpt lat="43.8643" lon="3.27281">
        <ele>726.94</ele>
        <time>2026-03-29T08:54:06.177Z</time>
      </trkpt>
      <trkpt lat="43.8643" lon="3.2728">
        <ele>726.57</ele>
        <time>2026-03-29T08:54:12.172Z</time>
      </trkpt>
      <trkpt lat="43.86431" lon="3.27279">
        <ele>726.54</ele>
        <time>2026-03-29T08:54:22.164Z</time>
      </trkpt>
      <trkpt lat="43.86432" lon="3.27278">
        <ele>726.79</ele>
        <time>2026-03-29T08:54:28.113Z</time>
      </trkpt>
      <trkpt lat="43.86434" lon="3.27267">
        <ele>727.03</ele>
        <time>2026-03-29T08:54:33.555Z</time>
      </trkpt>
      <trkpt lat="43.86437" lon="3.27256">
        <ele>727.56</ele>
        <time>2026-03-29T08:54:39.091Z</time>
      </trkpt>
      <trkpt lat="43.86438" lon="3.27245">
        <ele>727.79</ele>
        <time>2026-03-29T08:54:44.852Z</time>
      </trkpt>
      <trkpt lat="43.86441" lon="3.27235">
        <ele>728.05</ele>
        <time>2026-03-29T08:54:50.169Z</time>
      </trkpt>
      <trkpt lat="43.86444" lon="3.27226">
        <ele>727.85</ele>
        <time>2026-03-29T08:54:56.054Z</time>
      </trkpt>
      <trkpt lat="43.86448" lon="3.27219">
        <ele>728.13</ele>
        <time>2026-03-29T08:55:01.193Z</time>
      </trkpt>
      <trkpt lat="43.86454" lon="3.27208">
        <ele>727.79</ele>
        <time>2026-03-29T08:55:06.852Z</time>
      </trkpt>
      <trkpt lat="43.86459" lon="3.27197">
        <ele>727.84</ele>
        <time>2026-03-29T08:55:11.891Z</time>
      </trkpt>
      <trkpt lat="43.86462" lon="3.27186">
        <ele>727.64</ele>
        <time>2026-03-29T08:55:16.958Z</time>
      </trkpt>
      <trkpt lat="43.86463" lon="3.27177">
        <ele>727.86</ele>
        <time>2026-03-29T08:55:21.997Z</time>
      </trkpt>
      <trkpt lat="43.86463" lon="3.27167">
        <ele>727.72</ele>
        <time>2026-03-29T08:55:27.056Z</time>
      </trkpt>
      <trkpt lat="43.86466" lon="3.27158">
        <ele>728.07</ele>
        <time>2026-03-29T08:55:33.020Z</time>
      </trkpt>
      <trkpt lat="43.86467" lon="3.2715">
        <ele>726.27</ele>
        <time>2026-03-29T08:55:38.539Z</time>
      </trkpt>
      <trkpt lat="43.86468" lon="3.27141">
        <ele>727.87</ele>
        <time>2026-03-29T08:55:43.913Z</time>
      </trkpt>
      <trkpt lat="43.86469" lon="3.27133">
        <ele>728.61</ele>
        <time>2026-03-29T08:55:49.034Z</time>
      </trkpt>
      <trkpt lat="43.8647" lon="3.27132">
        <ele>728.49</ele>
        <time>2026-03-29T08:55:56.937Z</time>
      </trkpt>
      <trkpt lat="43.86467" lon="3.27125">
        <ele>728.55</ele>
        <time>2026-03-29T08:56:02.395Z</time>
      </trkpt>
      <trkpt lat="43.86462" lon="3.27121">
        <ele>728.38</ele>
        <time>2026-03-29T08:56:07.931Z</time>
      </trkpt>
      <trkpt lat="43.86457" lon="3.27118">
        <ele>728.34</ele>
        <time>2026-03-29T08:56:13.148Z</time>
      </trkpt>
      <trkpt lat="43.86453" lon="3.27117">
        <ele>728.81</ele>
        <time>2026-03-29T08:56:18.358Z</time>
      </trkpt>
      <trkpt lat="43.86447" lon="3.27114">
        <ele>729.28</ele>
        <time>2026-03-29T08:56:23.656Z</time>
      </trkpt>
      <trkpt lat="43.86442" lon="3.2711">
        <ele>728.28</ele>
        <time>2026-03-29T08:56:28.854Z</time>
      </trkpt>
      <trkpt lat="43.86438" lon="3.27105">
        <ele>727.11</ele>
        <time>2026-03-29T08:56:34.073Z</time>
      </trkpt>
      <trkpt lat="43.86433" lon="3.27101">
        <ele>725.4</ele>
        <time>2026-03-29T08:56:39.159Z</time>
      </trkpt>
      <trkpt lat="43.86427" lon="3.27096">
        <ele>728.36</ele>
        <time>2026-03-29T08:56:44.899Z</time>
      </trkpt>
      <trkpt lat="43.86421" lon="3.27092">
        <ele>728.3</ele>
        <time>2026-03-29T08:56:49.938Z</time>
      </trkpt>
      <trkpt lat="43.86412" lon="3.27091">
        <ele>727.29</ele>
        <time>2026-03-29T08:56:55.174Z</time>
      </trkpt>
      <trkpt lat="43.86407" lon="3.27087">
        <ele>726.54</ele>
        <time>2026-03-29T08:57:00.189Z</time>
      </trkpt>
      <trkpt lat="43.86402" lon="3.27083">
        <ele>726.52</ele>
        <time>2026-03-29T08:57:05.201Z</time>
      </trkpt>
      <trkpt lat="43.86397" lon="3.27079">
        <ele>726.78</ele>
        <time>2026-03-29T08:57:10.499Z</time>
      </trkpt>
      <trkpt lat="43.86392" lon="3.27074">
        <ele>726.95</ele>
        <time>2026-03-29T08:57:15.698Z</time>
      </trkpt>
      <trkpt lat="43.86386" lon="3.2707">
        <ele>726.31</ele>
        <time>2026-03-29T08:57:20.758Z</time>
      </trkpt>
      <trkpt lat="43.86381" lon="3.27067">
        <ele>726.42</ele>
        <time>2026-03-29T08:57:26.185Z</time>
      </trkpt>
      <trkpt lat="43.86376" lon="3.27064">
        <ele>726.66</ele>
        <time>2026-03-29T08:57:31.207Z</time>
      </trkpt>
      <trkpt lat="43.86369" lon="3.2706">
        <ele>726.41</ele>
        <time>2026-03-29T08:57:37.180Z</time>
      </trkpt>
      <trkpt lat="43.86364" lon="3.27055">
        <ele>726.02</ele>
        <time>2026-03-29T08:57:42.321Z</time>
      </trkpt>
      <trkpt lat="43.86358" lon="3.27053">
        <ele>725.51</ele>
        <time>2026-03-29T08:57:47.360Z</time>
      </trkpt>
      <trkpt lat="43.86353" lon="3.27052">
        <ele>725.92</ele>
        <time>2026-03-29T08:57:53.064Z</time>
      </trkpt>
      <trkpt lat="43.86348" lon="3.27049">
        <ele>726.15</ele>
        <time>2026-03-29T08:57:58.137Z</time>
      </trkpt>
      <trkpt lat="43.86346" lon="3.27047">
        <ele>725.01</ele>
        <time>2026-03-29T08:58:03.149Z</time>
      </trkpt>
      <trkpt lat="43.86346" lon="3.27045">
        <ele>726.24</ele>
        <time>2026-03-29T08:58:10.164Z</time>
      </trkpt>
      <trkpt lat="43.86342" lon="3.27043">
        <ele>727.34</ele>
        <time>2026-03-29T08:58:16.086Z</time>
      </trkpt>
      <trkpt lat="43.86337" lon="3.27039">
        <ele>725.68</ele>
        <time>2026-03-29T08:58:21.515Z</time>
      </trkpt>
      <trkpt lat="43.8633" lon="3.27034">
        <ele>726.14</ele>
        <time>2026-03-29T08:58:27.153Z</time>
      </trkpt>
      <trkpt lat="43.86326" lon="3.27028">
        <ele>724.17</ele>
        <time>2026-03-29T08:58:32.170Z</time>
      </trkpt>
      <trkpt lat="43.86318" lon="3.27025">
        <ele>723.97</ele>
        <time>2026-03-29T08:58:37.457Z</time>
      </trkpt>
      <trkpt lat="43.86312" lon="3.27021">
        <ele>725.79</ele>
        <time>2026-03-29T08:58:42.772Z</time>
      </trkpt>
      <trkpt lat="43.86307" lon="3.27021">
        <ele>725.98</ele>
        <time>2026-03-29T08:58:48.155Z</time>
      </trkpt>
      <trkpt lat="43.86302" lon="3.27017">
        <ele>725.1</ele>
        <time>2026-03-29T08:58:53.835Z</time>
      </trkpt>
      <trkpt lat="43.86296" lon="3.27011">
        <ele>724.48</ele>
        <time>2026-03-29T08:58:59.141Z</time>
      </trkpt>
      <trkpt lat="43.8629" lon="3.27006">
        <ele>726.35</ele>
        <time>2026-03-29T08:59:04.149Z</time>
      </trkpt>
      <trkpt lat="43.86285" lon="3.27003">
        <ele>725.56</ele>
        <time>2026-03-29T08:59:09.211Z</time>
      </trkpt>
      <trkpt lat="43.8628" lon="3.26999">
        <ele>724.68</ele>
        <time>2026-03-29T08:59:14.528Z</time>
      </trkpt>
      <trkpt lat="43.86275" lon="3.26994">
        <ele>724.44</ele>
        <time>2026-03-29T08:59:20.132Z</time>
      </trkpt>
      <trkpt lat="43.8627" lon="3.2699">
        <ele>724.73</ele>
        <time>2026-03-29T08:59:25.577Z</time>
      </trkpt>
      <trkpt lat="43.86263" lon="3.26989">
        <ele>724.27</ele>
        <time>2026-03-29T08:59:31.134Z</time>
      </trkpt>
      <trkpt lat="43.86257" lon="3.26985">
        <ele>722.4</ele>
        <time>2026-03-29T08:59:36.192Z</time>
      </trkpt>
      <trkpt lat="43.86252" lon="3.26982">
        <ele>724.52</ele>
        <time>2026-03-29T08:59:41.276Z</time>
      </trkpt>
      <trkpt lat="43.86247" lon="3.26977">
        <ele>724.59</ele>
        <time>2026-03-29T08:59:46.359Z</time>
      </trkpt>
      <trkpt lat="43.86242" lon="3.26974">
        <ele>724.59</ele>
        <time>2026-03-29T08:59:51.473Z</time>
      </trkpt>
      <trkpt lat="43.86236" lon="3.26971">
        <ele>723.89</ele>
        <time>2026-03-29T08:59:57.188Z</time>
      </trkpt>
      <trkpt lat="43.86231" lon="3.26968">
        <ele>724.14</ele>
        <time>2026-03-29T09:00:02.190Z</time>
      </trkpt>
      <trkpt lat="43.86228" lon="3.26965">
        <ele>724.01</ele>
        <time>2026-03-29T09:00:07.553Z</time>
      </trkpt>
      <trkpt lat="43.86222" lon="3.26961">
        <ele>723.53</ele>
        <time>2026-03-29T09:00:13.200Z</time>
      </trkpt>
      <trkpt lat="43.86216" lon="3.26957">
        <ele>727.88</ele>
        <time>2026-03-29T09:00:19.188Z</time>
      </trkpt>
      <trkpt lat="43.86211" lon="3.26952">
        <ele>727.68</ele>
        <time>2026-03-29T09:00:24.832Z</time>
      </trkpt>
      <trkpt lat="43.86205" lon="3.26949">
        <ele>725.04</ele>
        <time>2026-03-29T09:00:29.920Z</time>
      </trkpt>
      <trkpt lat="43.86199" lon="3.26945">
        <ele>724.9</ele>
        <time>2026-03-29T09:00:35.073Z</time>
      </trkpt>
      <trkpt lat="43.86193" lon="3.26939">
        <ele>727.73</ele>
        <time>2026-03-29T09:00:40.512Z</time>
      </trkpt>
      <trkpt lat="43.86187" lon="3.26936">
        <ele>727.42</ele>
        <time>2026-03-29T09:00:45.538Z</time>
      </trkpt>
      <trkpt lat="43.86181" lon="3.26934">
        <ele>726.17</ele>
        <time>2026-03-29T09:00:50.818Z</time>
      </trkpt>
      <trkpt lat="43.86176" lon="3.2693">
        <ele>724.79</ele>
        <time>2026-03-29T09:00:55.838Z</time>
      </trkpt>
      <trkpt lat="43.86171" lon="3.26923">
        <ele>727.4</ele>
        <time>2026-03-29T09:01:00.900Z</time>
      </trkpt>
      <trkpt lat="43.86167" lon="3.2692">
        <ele>727.59</ele>
        <time>2026-03-29T09:01:05.922Z</time>
      </trkpt>
      <trkpt lat="43.86162" lon="3.26916">
        <ele>726.22</ele>
        <time>2026-03-29T09:01:11.164Z</time>
      </trkpt>
      <trkpt lat="43.86155" lon="3.2691">
        <ele>726.01</ele>
        <time>2026-03-29T09:01:17.139Z</time>
      </trkpt>
      <trkpt lat="43.8615" lon="3.26908">
        <ele>725.6</ele>
        <time>2026-03-29T09:01:22.174Z</time>
      </trkpt>
      <trkpt lat="43.86142" lon="3.26904">
        <ele>725.31</ele>
        <time>2026-03-29T09:01:27.263Z</time>
      </trkpt>
      <trkpt lat="43.86136" lon="3.26901">
        <ele>725.11</ele>
        <time>2026-03-29T09:01:32.702Z</time>
      </trkpt>
      <trkpt lat="43.86129" lon="3.26899">
        <ele>725.09</ele>
        <time>2026-03-29T09:01:37.948Z</time>
      </trkpt>
      <trkpt lat="43.86123" lon="3.26896">
        <ele>726.01</ele>
        <time>2026-03-29T09:01:43.885Z</time>
      </trkpt>
      <trkpt lat="43.86117" lon="3.26891">
        <ele>726.27</ele>
        <time>2026-03-29T09:01:49.195Z</time>
      </trkpt>
      <trkpt lat="43.86111" lon="3.26887">
        <ele>725.99</ele>
        <time>2026-03-29T09:01:54.565Z</time>
      </trkpt>
      <trkpt lat="43.86105" lon="3.26883">
        <ele>726.73</ele>
        <time>2026-03-29T09:02:00.064Z</time>
      </trkpt>
      <trkpt lat="43.86097" lon="3.26881">
        <ele>727.08</ele>
        <time>2026-03-29T09:02:06.048Z</time>
      </trkpt>
      <trkpt lat="43.86091" lon="3.26878">
        <ele>727.32</ele>
        <time>2026-03-29T09:02:11.122Z</time>
      </trkpt>
      <trkpt lat="43.86086" lon="3.26875">
        <ele>726.93</ele>
        <time>2026-03-29T09:02:16.132Z</time>
      </trkpt>
      <trkpt lat="43.8608" lon="3.26874">
        <ele>725.71</ele>
        <time>2026-03-29T09:02:21.181Z</time>
      </trkpt>
      <trkpt lat="43.86073" lon="3.26868">
        <ele>725.18</ele>
        <time>2026-03-29T09:02:26.643Z</time>
      </trkpt>
      <trkpt lat="43.86069" lon="3.2686">
        <ele>724.14</ele>
        <time>2026-03-29T09:02:32.201Z</time>
      </trkpt>
      <trkpt lat="43.8607" lon="3.26853">
        <ele>723.48</ele>
        <time>2026-03-29T09:02:38.191Z</time>
      </trkpt>
      <trkpt lat="43.86069" lon="3.26854">
        <ele>724.12</ele>
        <time>2026-03-29T09:02:43.522Z</time>
      </trkpt>
      <trkpt lat="43.8607" lon="3.26855">
        <ele>724.38</ele>
        <time>2026-03-29T09:02:50.176Z</time>
      </trkpt>
      <trkpt lat="43.86075" lon="3.26854">
        <ele>722</ele>
        <time>2026-03-29T09:02:55.941Z</time>
      </trkpt>
      <trkpt lat="43.8608" lon="3.26847">
        <ele>720.94</ele>
        <time>2026-03-29T09:03:01.170Z</time>
      </trkpt>
      <trkpt lat="43.86083" lon="3.2684">
        <ele>721.8</ele>
        <time>2026-03-29T09:03:06.187Z</time>
      </trkpt>
      <trkpt lat="43.86087" lon="3.26833">
        <ele>722.35</ele>
        <time>2026-03-29T09:03:11.437Z</time>
      </trkpt>
      <trkpt lat="43.86093" lon="3.26827">
        <ele>722.47</ele>
        <time>2026-03-29T09:03:17.144Z</time>
      </trkpt>
      <trkpt lat="43.86097" lon="3.26823">
        <ele>722.25</ele>
        <time>2026-03-29T09:03:22.341Z</time>
      </trkpt>
      <trkpt lat="43.86103" lon="3.26819">
        <ele>721.93</ele>
        <time>2026-03-29T09:03:27.933Z</time>
      </trkpt>
      <trkpt lat="43.86107" lon="3.26814">
        <ele>722.47</ele>
        <time>2026-03-29T09:03:33.091Z</time>
      </trkpt>
      <trkpt lat="43.86109" lon="3.26809">
        <ele>724.41</ele>
        <time>2026-03-29T09:03:38.126Z</time>
      </trkpt>
      <trkpt lat="43.8611" lon="3.26806">
        <ele>723.77</ele>
        <time>2026-03-29T09:03:43.452Z</time>
      </trkpt>
      <trkpt lat="43.86114" lon="3.26802">
        <ele>723.02</ele>
        <time>2026-03-29T09:03:48.587Z</time>
      </trkpt>
      <trkpt lat="43.86119" lon="3.26796">
        <ele>721.6</ele>
        <time>2026-03-29T09:03:53.600Z</time>
      </trkpt>
      <trkpt lat="43.86118" lon="3.26785">
        <ele>720.89</ele>
        <time>2026-03-29T09:03:58.781Z</time>
      </trkpt>
      <trkpt lat="43.86124" lon="3.26774">
        <ele>721.07</ele>
        <time>2026-03-29T09:04:04.428Z</time>
      </trkpt>
      <trkpt lat="43.86124" lon="3.26765">
        <ele>722.1</ele>
        <time>2026-03-29T09:04:09.922Z</time>
      </trkpt>
      <trkpt lat="43.86125" lon="3.26764">
        <ele>722.63</ele>
        <time>2026-03-29T09:04:15.154Z</time>
      </trkpt>
      <trkpt lat="43.86126" lon="3.26765">
        <ele>722.64</ele>
        <time>2026-03-29T09:04:20.162Z</time>
      </trkpt>
      <trkpt lat="43.86127" lon="3.26765">
        <ele>724.07</ele>
        <time>2026-03-29T09:04:28.153Z</time>
      </trkpt>
      <trkpt lat="43.86128" lon="3.26764">
        <ele>723.83</ele>
        <time>2026-03-29T09:04:37.504Z</time>
      </trkpt>
      <trkpt lat="43.86131" lon="3.26762">
        <ele>723.88</ele>
        <time>2026-03-29T09:04:43.153Z</time>
      </trkpt>
      <trkpt lat="43.86132" lon="3.26761">
        <ele>725.76</ele>
        <time>2026-03-29T09:05:03.175Z</time>
      </trkpt>
      <trkpt lat="43.86132" lon="3.2676">
        <ele>726.21</ele>
        <time>2026-03-29T09:05:11.178Z</time>
      </trkpt>
      <trkpt lat="43.86133" lon="3.26759">
        <ele>725.55</ele>
        <time>2026-03-29T09:05:19.164Z</time>
      </trkpt>
      <trkpt lat="43.86133" lon="3.26761">
        <ele>725.54</ele>
        <time>2026-03-29T09:05:32.230Z</time>
      </trkpt>
      <trkpt lat="43.86133" lon="3.2676">
        <ele>724.63</ele>
        <time>2026-03-29T09:06:01.204Z</time>
      </trkpt>
      <trkpt lat="43.86132" lon="3.26756">
        <ele>726.53</ele>
        <time>2026-03-29T09:06:06.281Z</time>
      </trkpt>
      <trkpt lat="43.86131" lon="3.26756">
        <ele>726.38</ele>
        <time>2026-03-29T09:06:15.129Z</time>
      </trkpt>
      <trkpt lat="43.86131" lon="3.26755">
        <ele>726.95</ele>
        <time>2026-03-29T09:06:36.456Z</time>
      </trkpt>
      <trkpt lat="43.86131" lon="3.26756">
        <ele>726.41</ele>
        <time>2026-03-29T09:06:54.147Z</time>
      </trkpt>
      <trkpt lat="43.86131" lon="3.26757">
        <ele>726.68</ele>
        <time>2026-03-29T09:06:59.351Z</time>
      </trkpt>
      <trkpt lat="43.86132" lon="3.2676">
        <ele>727.36</ele>
        <time>2026-03-29T09:07:05.187Z</time>
      </trkpt>
      <trkpt lat="43.86128" lon="3.26767">
        <ele>724.25</ele>
        <time>2026-03-29T09:07:11.205Z</time>
      </trkpt>
      <trkpt lat="43.86119" lon="3.26783">
        <ele>723.16</ele>
        <time>2026-03-29T09:07:16.870Z</time>
      </trkpt>
      <trkpt lat="43.86118" lon="3.26803">
        <ele>721.96</ele>
        <time>2026-03-29T09:07:22.633Z</time>
      </trkpt>
      <trkpt lat="43.86118" lon="3.26815">
        <ele>722.13</ele>
        <time>2026-03-29T09:07:28.152Z</time>
      </trkpt>
      <trkpt lat="43.86116" lon="3.26821">
        <ele>722.11</ele>
        <time>2026-03-29T09:07:33.171Z</time>
      </trkpt>
      <trkpt lat="43.86114" lon="3.26827">
        <ele>722.61</ele>
        <time>2026-03-29T09:07:38.335Z</time>
      </trkpt>
      <trkpt lat="43.86116" lon="3.26831">
        <ele>722.43</ele>
        <time>2026-03-29T09:07:44.144Z</time>
      </trkpt>
      <trkpt lat="43.8612" lon="3.26833">
        <ele>720.97</ele>
        <time>2026-03-29T09:07:49.747Z</time>
      </trkpt>
      <trkpt lat="43.86125" lon="3.26835">
        <ele>723.74</ele>
        <time>2026-03-29T09:07:55.296Z</time>
      </trkpt>
      <trkpt lat="43.86131" lon="3.26837">
        <ele>722.91</ele>
        <time>2026-03-29T09:08:00.676Z</time>
      </trkpt>
      <trkpt lat="43.86138" lon="3.26837">
        <ele>722.79</ele>
        <time>2026-03-29T09:08:06.063Z</time>
      </trkpt>
      <trkpt lat="43.86144" lon="3.26837">
        <ele>721.81</ele>
        <time>2026-03-29T09:08:11.155Z</time>
      </trkpt>
      <trkpt lat="43.8615" lon="3.26833">
        <ele>721.33</ele>
        <time>2026-03-29T09:08:17.085Z</time>
      </trkpt>
      <trkpt lat="43.86157" lon="3.26834">
        <ele>720.79</ele>
        <time>2026-03-29T09:08:22.243Z</time>
      </trkpt>
      <trkpt lat="43.86167" lon="3.26829">
        <ele>720.61</ele>
        <time>2026-03-29T09:08:27.645Z</time>
      </trkpt>
      <trkpt lat="43.86171" lon="3.26827">
        <ele>721.57</ele>
        <time>2026-03-29T09:08:32.749Z</time>
      </trkpt>
      <trkpt lat="43.86174" lon="3.26824">
        <ele>721.83</ele>
        <time>2026-03-29T09:08:38.144Z</time>
      </trkpt>
      <trkpt lat="43.86179" lon="3.26822">
        <ele>721.94</ele>
        <time>2026-03-29T09:08:43.185Z</time>
      </trkpt>
      <trkpt lat="43.86184" lon="3.26818">
        <ele>721.64</ele>
        <time>2026-03-29T09:08:48.507Z</time>
      </trkpt>
      <trkpt lat="43.8619" lon="3.26814">
        <ele>721.35</ele>
        <time>2026-03-29T09:08:54.105Z</time>
      </trkpt>
      <trkpt lat="43.86195" lon="3.2681">
        <ele>721.7</ele>
        <time>2026-03-29T09:08:59.184Z</time>
      </trkpt>
      <trkpt lat="43.86202" lon="3.26808">
        <ele>721.5</ele>
        <time>2026-03-29T09:09:04.480Z</time>
      </trkpt>
      <trkpt lat="43.86207" lon="3.26802">
        <ele>721.57</ele>
        <time>2026-03-29T09:09:10.185Z</time>
      </trkpt>
      <trkpt lat="43.86211" lon="3.26794">
        <ele>722.2</ele>
        <time>2026-03-29T09:09:16.063Z</time>
      </trkpt>
      <trkpt lat="43.86214" lon="3.26789">
        <ele>721.68</ele>
        <time>2026-03-29T09:09:21.084Z</time>
      </trkpt>
      <trkpt lat="43.86219" lon="3.26784">
        <ele>721.17</ele>
        <time>2026-03-29T09:09:26.205Z</time>
      </trkpt>
      <trkpt lat="43.86222" lon="3.26776">
        <ele>721.01</ele>
        <time>2026-03-29T09:09:31.421Z</time>
      </trkpt>
      <trkpt lat="43.86219" lon="3.26768">
        <ele>721.38</ele>
        <time>2026-03-29T09:09:36.424Z</time>
      </trkpt>
      <trkpt lat="43.86215" lon="3.26761">
        <ele>722.77</ele>
        <time>2026-03-29T09:09:42.149Z</time>
      </trkpt>
      <trkpt lat="43.86211" lon="3.26755">
        <ele>721.77</ele>
        <time>2026-03-29T09:09:47.552Z</time>
      </trkpt>
      <trkpt lat="43.86208" lon="3.26751">
        <ele>722.5</ele>
        <time>2026-03-29T09:09:52.875Z</time>
      </trkpt>
      <trkpt lat="43.86209" lon="3.26749">
        <ele>722.8</ele>
        <time>2026-03-29T09:09:58.141Z</time>
      </trkpt>
      <trkpt lat="43.8621" lon="3.26747">
        <ele>720.8</ele>
        <time>2026-03-29T09:10:03.177Z</time>
      </trkpt>
      <trkpt lat="43.86211" lon="3.26747">
        <ele>720.53</ele>
        <time>2026-03-29T09:10:10.155Z</time>
      </trkpt>
      <trkpt lat="43.86212" lon="3.26742">
        <ele>719.73</ele>
        <time>2026-03-29T09:10:16.166Z</time>
      </trkpt>
      <trkpt lat="43.86211" lon="3.2674">
        <ele>720.39</ele>
        <time>2026-03-29T09:10:22.178Z</time>
      </trkpt>
      <trkpt lat="43.86211" lon="3.26738">
        <ele>722.06</ele>
        <time>2026-03-29T09:10:28.702Z</time>
      </trkpt>
      <trkpt lat="43.86213" lon="3.26729">
        <ele>722.85</ele>
        <time>2026-03-29T09:10:34.174Z</time>
      </trkpt>
      <trkpt lat="43.86214" lon="3.26719">
        <ele>722.02</ele>
        <time>2026-03-29T09:10:39.485Z</time>
      </trkpt>
      <trkpt lat="43.86211" lon="3.26712">
        <ele>723.19</ele>
        <time>2026-03-29T09:10:44.684Z</time>
      </trkpt>
      <trkpt lat="43.86206" lon="3.26711">
        <ele>723.72</ele>
        <time>2026-03-29T09:10:50.160Z</time>
      </trkpt>
      <trkpt lat="43.86204" lon="3.26708">
        <ele>722.61</ele>
        <time>2026-03-29T09:10:55.201Z</time>
      </trkpt>
      <trkpt lat="43.86205" lon="3.26709">
        <ele>722.41</ele>
        <time>2026-03-29T09:11:01.185Z</time>
      </trkpt>
      <trkpt lat="43.86205" lon="3.26707">
        <ele>722.29</ele>
        <time>2026-03-29T09:11:12.174Z</time>
      </trkpt>
      <trkpt lat="43.86206" lon="3.26705">
        <ele>722.02</ele>
        <time>2026-03-29T09:11:17.175Z</time>
      </trkpt>
      <trkpt lat="43.86206" lon="3.26704">
        <ele>722.07</ele>
        <time>2026-03-29T09:11:23.175Z</time>
      </trkpt>
      <trkpt lat="43.86206" lon="3.26703">
        <ele>722.51</ele>
        <time>2026-03-29T09:11:35.200Z</time>
      </trkpt>
      <trkpt lat="43.86206" lon="3.26701">
        <ele>721.69</ele>
        <time>2026-03-29T09:11:43.159Z</time>
      </trkpt>
      <trkpt lat="43.86205" lon="3.26701">
        <ele>722.44</ele>
        <time>2026-03-29T09:11:55.178Z</time>
      </trkpt>
      <trkpt lat="43.86205" lon="3.26703">
        <ele>721.62</ele>
        <time>2026-03-29T09:12:16.172Z</time>
      </trkpt>
      <trkpt lat="43.86206" lon="3.26703">
        <ele>722.02</ele>
        <time>2026-03-29T09:12:33.186Z</time>
      </trkpt>
      <trkpt lat="43.86208" lon="3.26703">
        <ele>721.72</ele>
        <time>2026-03-29T09:12:38.246Z</time>
      </trkpt>
      <trkpt lat="43.86209" lon="3.26702">
        <ele>721.5</ele>
        <time>2026-03-29T09:12:44.175Z</time>
      </trkpt>
      <trkpt lat="43.86209" lon="3.26701">
        <ele>721.04</ele>
        <time>2026-03-29T09:12:51.185Z</time>
      </trkpt>
      <trkpt lat="43.86208" lon="3.267">
        <ele>721.57</ele>
        <time>2026-03-29T09:12:56.871Z</time>
      </trkpt>
      <trkpt lat="43.86207" lon="3.267">
        <ele>720.82</ele>
        <time>2026-03-29T09:13:19.140Z</time>
      </trkpt>
      <trkpt lat="43.86207" lon="3.26701">
        <ele>721.24</ele>
        <time>2026-03-29T09:13:24.204Z</time>
      </trkpt>
      <trkpt lat="43.86207" lon="3.26706">
        <ele>721.79</ele>
        <time>2026-03-29T09:13:30.207Z</time>
      </trkpt>
      <trkpt lat="43.86209" lon="3.26708">
        <ele>721.7</ele>
        <time>2026-03-29T09:13:35.772Z</time>
      </trkpt>
      <trkpt lat="43.86214" lon="3.26707">
        <ele>721.28</ele>
        <time>2026-03-29T09:13:41.201Z</time>
      </trkpt>
      <trkpt lat="43.86221" lon="3.26703">
        <ele>721.62</ele>
        <time>2026-03-29T09:13:47.076Z</time>
      </trkpt>
      <trkpt lat="43.86224" lon="3.26701">
        <ele>723.14</ele>
        <time>2026-03-29T09:13:52.544Z</time>
      </trkpt>
      <trkpt lat="43.86224" lon="3.26697">
        <ele>724.44</ele>
        <time>2026-03-29T09:13:58.201Z</time>
      </trkpt>
      <trkpt lat="43.86223" lon="3.26698">
        <ele>725.43</ele>
        <time>2026-03-29T09:14:03.583Z</time>
      </trkpt>
      <trkpt lat="43.86225" lon="3.26696">
        <ele>728.6</ele>
        <time>2026-03-29T09:14:09.188Z</time>
      </trkpt>
      <trkpt lat="43.86228" lon="3.26695">
        <ele>728.52</ele>
        <time>2026-03-29T09:14:14.205Z</time>
      </trkpt>
      <trkpt lat="43.86232" lon="3.26696">
        <ele>729.3</ele>
        <time>2026-03-29T09:14:19.592Z</time>
      </trkpt>
      <trkpt lat="43.86236" lon="3.26696">
        <ele>730.46</ele>
        <time>2026-03-29T09:14:25.196Z</time>
      </trkpt>
      <trkpt lat="43.86235" lon="3.26696">
        <ele>729.71</ele>
        <time>2026-03-29T09:14:31.165Z</time>
      </trkpt>
      <trkpt lat="43.86235" lon="3.26697">
        <ele>729.37</ele>
        <time>2026-03-29T09:14:47.172Z</time>
      </trkpt>
      <trkpt lat="43.86234" lon="3.26698">
        <ele>730.47</ele>
        <time>2026-03-29T09:14:53.173Z</time>
      </trkpt>
      <trkpt lat="43.86234" lon="3.26697">
        <ele>729.79</ele>
        <time>2026-03-29T09:14:59.167Z</time>
      </trkpt>
      <trkpt lat="43.86235" lon="3.26697">
        <ele>729.83</ele>
        <time>2026-03-29T09:15:09.170Z</time>
      </trkpt>
      <trkpt lat="43.86236" lon="3.26698">
        <ele>730.6</ele>
        <time>2026-03-29T09:15:14.179Z</time>
      </trkpt>
      <trkpt lat="43.86236" lon="3.26697">
        <ele>729.96</ele>
        <time>2026-03-29T09:15:36.949Z</time>
      </trkpt>
      <trkpt lat="43.86235" lon="3.26697">
        <ele>729.69</ele>
        <time>2026-03-29T09:15:43.222Z</time>
      </trkpt>
      <trkpt lat="43.86235" lon="3.26698">
        <ele>730.04</ele>
        <time>2026-03-29T09:15:49.236Z</time>
      </trkpt>
      <trkpt lat="43.86235" lon="3.267">
        <ele>730.48</ele>
        <time>2026-03-29T09:15:55.224Z</time>
      </trkpt>
      <trkpt lat="43.86235" lon="3.26702">
        <ele>730.3</ele>
        <time>2026-03-29T09:16:01.191Z</time>
      </trkpt>
      <trkpt lat="43.86236" lon="3.267">
        <ele>728.65</ele>
        <time>2026-03-29T09:16:08.217Z</time>
      </trkpt>
      <trkpt lat="43.86236" lon="3.26699">
        <ele>728.33</ele>
        <time>2026-03-29T09:16:17.184Z</time>
      </trkpt>
      <trkpt lat="43.86237" lon="3.26698">
        <ele>727.93</ele>
        <time>2026-03-29T09:16:23.106Z</time>
      </trkpt>
      <trkpt lat="43.86238" lon="3.26698">
        <ele>728.65</ele>
        <time>2026-03-29T09:16:28.118Z</time>
      </trkpt>
      <trkpt lat="43.86239" lon="3.26697">
        <ele>729.59</ele>
        <time>2026-03-29T09:16:33.132Z</time>
      </trkpt>
      <trkpt lat="43.8624" lon="3.26697">
        <ele>727.89</ele>
        <time>2026-03-29T09:16:39.024Z</time>
      </trkpt>
      <trkpt lat="43.86239" lon="3.26697">
        <ele>728.75</ele>
        <time>2026-03-29T09:17:09.025Z</time>
      </trkpt>
      <trkpt lat="43.86238" lon="3.26698">
        <ele>728.93</ele>
        <time>2026-03-29T09:18:29.026Z</time>
      </trkpt>
      <trkpt lat="43.86237" lon="3.26697">
        <ele>727.69</ele>
        <time>2026-03-29T09:18:59.027Z</time>
      </trkpt>
      <trkpt lat="43.86236" lon="3.26698">
        <ele>726.5</ele>
        <time>2026-03-29T09:19:04.027Z</time>
      </trkpt>
      <trkpt lat="43.86235" lon="3.26697">
        <ele>728.15</ele>
        <time>2026-03-29T09:19:32.028Z</time>
      </trkpt>
      <trkpt lat="43.86234" lon="3.26697">
        <ele>727.38</ele>
        <time>2026-03-29T09:19:46.028Z</time>
      </trkpt>
      <trkpt lat="43.86231" lon="3.26692">
        <ele>725.75</ele>
        <time>2026-03-29T09:19:52.028Z</time>
      </trkpt>
      <trkpt lat="43.86231" lon="3.26691">
        <ele>726.64</ele>
        <time>2026-03-29T09:19:58.028Z</time>
      </trkpt>
      <trkpt lat="43.8623" lon="3.26692">
        <ele>725.18</ele>
        <time>2026-03-29T09:20:13.027Z</time>
      </trkpt>
      <trkpt lat="43.86229" lon="3.26693">
        <ele>724.04</ele>
        <time>2026-03-29T09:20:20.029Z</time>
      </trkpt>
      <trkpt lat="43.86227" lon="3.26696">
        <ele>724.54</ele>
        <time>2026-03-29T09:20:26.028Z</time>
      </trkpt>
      <trkpt lat="43.86225" lon="3.26697">
        <ele>722.24</ele>
        <time>2026-03-29T09:20:37.029Z</time>
      </trkpt>
      <trkpt lat="43.86224" lon="3.267">
        <ele>721.19</ele>
        <time>2026-03-29T09:20:42.029Z</time>
      </trkpt>
      <trkpt lat="43.86223" lon="3.26702">
        <ele>719.66</ele>
        <time>2026-03-29T09:21:21.032Z</time>
      </trkpt>
      <trkpt lat="43.86224" lon="3.267">
        <ele>719.86</ele>
        <time>2026-03-29T09:21:26.098Z</time>
      </trkpt>
      <trkpt lat="43.86224" lon="3.26702">
        <ele>719.87</ele>
        <time>2026-03-29T09:21:45.192Z</time>
      </trkpt>
      <trkpt lat="43.86223" lon="3.26702">
        <ele>719.85</ele>
        <time>2026-03-29T09:22:09.086Z</time>
      </trkpt>
      <trkpt lat="43.86224" lon="3.26702">
        <ele>722.17</ele>
        <time>2026-03-29T09:24:10.062Z</time>
      </trkpt>
      <trkpt lat="43.86224" lon="3.26703">
        <ele>722.36</ele>
        <time>2026-03-29T09:24:30.117Z</time>
      </trkpt>
      <trkpt lat="43.86223" lon="3.26703">
        <ele>720.38</ele>
        <time>2026-03-29T09:25:22.174Z</time>
      </trkpt>
      <trkpt lat="43.86223" lon="3.26702">
        <ele>721.52</ele>
        <time>2026-03-29T09:25:56.205Z</time>
      </trkpt>
      <trkpt lat="43.86222" lon="3.26701">
        <ele>721.52</ele>
        <time>2026-03-29T09:27:26.131Z</time>
      </trkpt>
      <trkpt lat="43.86223" lon="3.26702">
        <ele>723.14</ele>
        <time>2026-03-29T09:29:35.146Z</time>
      </trkpt>
      <trkpt lat="43.86221" lon="3.26707">
        <ele>723.9</ele>
        <time>2026-03-29T09:29:40.161Z</time>
      </trkpt>
      <trkpt lat="43.86222" lon="3.26705">
        <ele>723.17</ele>
        <time>2026-03-29T09:29:46.135Z</time>
      </trkpt>
      <trkpt lat="43.86223" lon="3.26704">
        <ele>723.28</ele>
        <time>2026-03-29T09:29:51.150Z</time>
      </trkpt>
      <trkpt lat="43.86223" lon="3.26703">
        <ele>723.56</ele>
        <time>2026-03-29T09:29:56.164Z</time>
      </trkpt>
      <trkpt lat="43.86223" lon="3.26702">
        <ele>723.16</ele>
        <time>2026-03-29T09:30:01.179Z</time>
      </trkpt>
      <trkpt lat="43.86224" lon="3.26701">
        <ele>723.34</ele>
        <time>2026-03-29T09:30:11.208Z</time>
      </trkpt>
      <trkpt lat="43.86225" lon="3.26699">
        <ele>722.78</ele>
        <time>2026-03-29T09:30:17.075Z</time>
      </trkpt>
      <trkpt lat="43.86226" lon="3.26698">
        <ele>722.51</ele>
        <time>2026-03-29T09:30:22.090Z</time>
      </trkpt>
      <trkpt lat="43.86227" lon="3.26698">
        <ele>722.72</ele>
        <time>2026-03-29T09:30:34.146Z</time>
      </trkpt>
      <trkpt lat="43.86227" lon="3.26699">
        <ele>723.74</ele>
        <time>2026-03-29T09:31:03.057Z</time>
      </trkpt>
      <trkpt lat="43.86226" lon="3.267">
        <ele>722.69</ele>
        <time>2026-03-29T09:31:16.074Z</time>
      </trkpt>
      <trkpt lat="43.86225" lon="3.267">
        <ele>720.76</ele>
        <time>2026-03-29T09:31:25.141Z</time>
      </trkpt>
      <trkpt lat="43.86224" lon="3.267">
        <ele>721.57</ele>
        <time>2026-03-29T09:31:40.077Z</time>
      </trkpt>
      <trkpt lat="43.86223" lon="3.267">
        <ele>721.5</ele>
        <time>2026-03-29T09:31:57.147Z</time>
      </trkpt>
      <trkpt lat="43.86224" lon="3.26701">
        <ele>721.88</ele>
        <time>2026-03-29T09:32:20.094Z</time>
      </trkpt>
      <trkpt lat="43.86223" lon="3.26703">
        <ele>720.53</ele>
        <time>2026-03-29T09:33:32.106Z</time>
      </trkpt>
      <trkpt lat="43.86223" lon="3.26704">
        <ele>720.69</ele>
        <time>2026-03-29T09:33:42.874Z</time>
      </trkpt>
      <trkpt lat="43.86223" lon="3.26708">
        <ele>724.07</ele>
        <time>2026-03-29T09:33:48.198Z</time>
      </trkpt>
      <trkpt lat="43.86221" lon="3.26714">
        <ele>723.75</ele>
        <time>2026-03-29T09:33:54.082Z</time>
      </trkpt>
      <trkpt lat="43.86217" lon="3.2672">
        <ele>722.89</ele>
        <time>2026-03-29T09:34:00.238Z</time>
      </trkpt>
      <trkpt lat="43.86215" lon="3.26724">
        <ele>722.22</ele>
        <time>2026-03-29T09:34:05.758Z</time>
      </trkpt>
      <trkpt lat="43.86215" lon="3.2673">
        <ele>721.64</ele>
        <time>2026-03-29T09:34:11.151Z</time>
      </trkpt>
      <trkpt lat="43.86217" lon="3.26734">
        <ele>721.41</ele>
        <time>2026-03-29T09:34:16.160Z</time>
      </trkpt>
      <trkpt lat="43.86221" lon="3.26739">
        <ele>722.17</ele>
        <time>2026-03-29T09:34:21.554Z</time>
      </trkpt>
      <trkpt lat="43.86223" lon="3.26745">
        <ele>722.61</ele>
        <time>2026-03-29T09:34:27.015Z</time>
      </trkpt>
      <trkpt lat="43.86222" lon="3.26753">
        <ele>721.47</ele>
        <time>2026-03-29T09:34:32.669Z</time>
      </trkpt>
      <trkpt lat="43.86221" lon="3.26761">
        <ele>721.45</ele>
        <time>2026-03-29T09:34:37.753Z</time>
      </trkpt>
      <trkpt lat="43.8622" lon="3.26769">
        <ele>721.81</ele>
        <time>2026-03-29T09:34:43.173Z</time>
      </trkpt>
      <trkpt lat="43.8622" lon="3.26778">
        <ele>722.16</ele>
        <time>2026-03-29T09:34:48.732Z</time>
      </trkpt>
      <trkpt lat="43.86215" lon="3.26788">
        <ele>722.74</ele>
        <time>2026-03-29T09:34:54.894Z</time>
      </trkpt>
      <trkpt lat="43.86212" lon="3.26795">
        <ele>722.52</ele>
        <time>2026-03-29T09:35:00.335Z</time>
      </trkpt>
      <trkpt lat="43.86208" lon="3.26801">
        <ele>722.09</ele>
        <time>2026-03-29T09:35:06.109Z</time>
      </trkpt>
      <trkpt lat="43.86205" lon="3.26806">
        <ele>722.49</ele>
        <time>2026-03-29T09:35:11.123Z</time>
      </trkpt>
      <trkpt lat="43.86201" lon="3.2681">
        <ele>722.26</ele>
        <time>2026-03-29T09:35:16.194Z</time>
      </trkpt>
      <trkpt lat="43.86196" lon="3.26813">
        <ele>722.25</ele>
        <time>2026-03-29T09:35:21.607Z</time>
      </trkpt>
      <trkpt lat="43.86191" lon="3.26817">
        <ele>722.25</ele>
        <time>2026-03-29T09:35:27.031Z</time>
      </trkpt>
      <trkpt lat="43.86187" lon="3.26817">
        <ele>720.98</ele>
        <time>2026-03-29T09:35:32.139Z</time>
      </trkpt>
      <trkpt lat="43.86187" lon="3.26819">
        <ele>721.03</ele>
        <time>2026-03-29T09:35:37.152Z</time>
      </trkpt>
      <trkpt lat="43.86186" lon="3.2682">
        <ele>721.31</ele>
        <time>2026-03-29T09:35:53.790Z</time>
      </trkpt>
      <trkpt lat="43.86179" lon="3.26816">
        <ele>723.58</ele>
        <time>2026-03-29T09:35:59.235Z</time>
      </trkpt>
      <trkpt lat="43.86177" lon="3.26811">
        <ele>722.73</ele>
        <time>2026-03-29T09:36:05.113Z</time>
      </trkpt>
      <trkpt lat="43.86178" lon="3.2681">
        <ele>722.79</ele>
        <time>2026-03-29T09:36:10.127Z</time>
      </trkpt>
      <trkpt lat="43.86176" lon="3.2681">
        <ele>721.4</ele>
        <time>2026-03-29T09:36:19.423Z</time>
      </trkpt>
      <trkpt lat="43.86168" lon="3.26811">
        <ele>720.34</ele>
        <time>2026-03-29T09:36:25.060Z</time>
      </trkpt>
      <trkpt lat="43.86167" lon="3.26825">
        <ele>720.48</ele>
        <time>2026-03-29T09:36:30.403Z</time>
      </trkpt>
      <trkpt lat="43.86163" lon="3.26833">
        <ele>721.7</ele>
        <time>2026-03-29T09:36:35.507Z</time>
      </trkpt>
      <trkpt lat="43.86157" lon="3.26838">
        <ele>721.45</ele>
        <time>2026-03-29T09:36:41.173Z</time>
      </trkpt>
      <trkpt lat="43.8615" lon="3.26835">
        <ele>721.72</ele>
        <time>2026-03-29T09:36:47.147Z</time>
      </trkpt>
      <trkpt lat="43.86152" lon="3.26835">
        <ele>722.76</ele>
        <time>2026-03-29T09:36:52.163Z</time>
      </trkpt>
      <trkpt lat="43.8615" lon="3.26835">
        <ele>722.44</ele>
        <time>2026-03-29T09:36:57.378Z</time>
      </trkpt>
      <trkpt lat="43.8614" lon="3.26835">
        <ele>722.08</ele>
        <time>2026-03-29T09:37:02.624Z</time>
      </trkpt>
      <trkpt lat="43.86131" lon="3.26839">
        <ele>721.18</ele>
        <time>2026-03-29T09:37:07.665Z</time>
      </trkpt>
      <trkpt lat="43.86122" lon="3.26839">
        <ele>721.26</ele>
        <time>2026-03-29T09:37:13.125Z</time>
      </trkpt>
      <trkpt lat="43.86116" lon="3.26831">
        <ele>720.95</ele>
        <time>2026-03-29T09:37:18.486Z</time>
      </trkpt>
      <trkpt lat="43.86113" lon="3.26823">
        <ele>720.41</ele>
        <time>2026-03-29T09:37:23.544Z</time>
      </trkpt>
      <trkpt lat="43.86117" lon="3.26809">
        <ele>720.18</ele>
        <time>2026-03-29T09:37:28.826Z</time>
      </trkpt>
      <trkpt lat="43.86119" lon="3.26793">
        <ele>720.68</ele>
        <time>2026-03-29T09:37:34.093Z</time>
      </trkpt>
      <trkpt lat="43.86122" lon="3.26775">
        <ele>721.05</ele>
        <time>2026-03-29T09:37:39.108Z</time>
      </trkpt>
      <trkpt lat="43.86121" lon="3.26762">
        <ele>722.91</ele>
        <time>2026-03-29T09:37:44.122Z</time>
      </trkpt>
      <trkpt lat="43.86115" lon="3.26764">
        <ele>723.56</ele>
        <time>2026-03-29T09:37:49.137Z</time>
      </trkpt>
      <trkpt lat="43.86116" lon="3.26764">
        <ele>721.63</ele>
        <time>2026-03-29T09:37:54.984Z</time>
      </trkpt>
      <trkpt lat="43.86113" lon="3.26765">
        <ele>722.82</ele>
        <time>2026-03-29T09:38:00.126Z</time>
      </trkpt>
      <trkpt lat="43.8611" lon="3.26761">
        <ele>724.21</ele>
        <time>2026-03-29T09:38:05.141Z</time>
      </trkpt>
      <trkpt lat="43.8611" lon="3.2676">
        <ele>725.14</ele>
        <time>2026-03-29T09:38:10.156Z</time>
      </trkpt>
      <trkpt lat="43.86107" lon="3.2677">
        <ele>726.35</ele>
        <time>2026-03-29T09:38:15.169Z</time>
      </trkpt>
      <trkpt lat="43.86104" lon="3.26792">
        <ele>725.76</ele>
        <time>2026-03-29T09:38:20.500Z</time>
      </trkpt>
      <trkpt lat="43.86098" lon="3.2681">
        <ele>724.7</ele>
        <time>2026-03-29T09:38:26.160Z</time>
      </trkpt>
      <trkpt lat="43.86097" lon="3.26823">
        <ele>724.73</ele>
        <time>2026-03-29T09:38:31.660Z</time>
      </trkpt>
      <trkpt lat="43.86091" lon="3.26835">
        <ele>724.61</ele>
        <time>2026-03-29T09:38:36.781Z</time>
      </trkpt>
      <trkpt lat="43.86084" lon="3.26846">
        <ele>724.18</ele>
        <time>2026-03-29T09:38:42.164Z</time>
      </trkpt>
      <trkpt lat="43.86076" lon="3.26855">
        <ele>723.69</ele>
        <time>2026-03-29T09:38:47.501Z</time>
      </trkpt>
      <trkpt lat="43.86068" lon="3.2686">
        <ele>723.47</ele>
        <time>2026-03-29T09:38:52.702Z</time>
      </trkpt>
      <trkpt lat="43.86062" lon="3.26853">
        <ele>724.13</ele>
        <time>2026-03-29T09:38:58.045Z</time>
      </trkpt>
      <trkpt lat="43.86053" lon="3.26851">
        <ele>724</ele>
        <time>2026-03-29T09:39:03.171Z</time>
      </trkpt>
      <trkpt lat="43.86048" lon="3.26851">
        <ele>725.66</ele>
        <time>2026-03-29T09:39:08.946Z</time>
      </trkpt>
      <trkpt lat="43.86048" lon="3.26849">
        <ele>724.92</ele>
        <time>2026-03-29T09:39:14.170Z</time>
      </trkpt>
      <trkpt lat="43.86049" lon="3.26851">
        <ele>724.08</ele>
        <time>2026-03-29T09:39:19.626Z</time>
      </trkpt>
      <trkpt lat="43.86048" lon="3.26851">
        <ele>724.62</ele>
        <time>2026-03-29T09:39:27.582Z</time>
      </trkpt>
      <trkpt lat="43.86046" lon="3.2685">
        <ele>724.19</ele>
        <time>2026-03-29T09:39:33.144Z</time>
      </trkpt>
      <trkpt lat="43.86044" lon="3.26849">
        <ele>723.55</ele>
        <time>2026-03-29T09:39:38.203Z</time>
      </trkpt>
      <trkpt lat="43.86041" lon="3.26846">
        <ele>723.09</ele>
        <time>2026-03-29T09:39:43.682Z</time>
      </trkpt>
      <trkpt lat="43.86031" lon="3.2684">
        <ele>723.26</ele>
        <time>2026-03-29T09:39:49.162Z</time>
      </trkpt>
      <trkpt lat="43.86024" lon="3.26837">
        <ele>724.26</ele>
        <time>2026-03-29T09:39:54.302Z</time>
      </trkpt>
      <trkpt lat="43.86017" lon="3.26833">
        <ele>723.67</ele>
        <time>2026-03-29T09:39:59.964Z</time>
      </trkpt>
      <trkpt lat="43.8601" lon="3.2683">
        <ele>723.56</ele>
        <time>2026-03-29T09:40:05.962Z</time>
      </trkpt>
      <trkpt lat="43.86004" lon="3.26824">
        <ele>723.84</ele>
        <time>2026-03-29T09:40:11.156Z</time>
      </trkpt>
      <trkpt lat="43.85997" lon="3.26819">
        <ele>723.29</ele>
        <time>2026-03-29T09:40:16.278Z</time>
      </trkpt>
      <trkpt lat="43.8599" lon="3.26814">
        <ele>722.69</ele>
        <time>2026-03-29T09:40:22.014Z</time>
      </trkpt>
      <trkpt lat="43.85985" lon="3.2681">
        <ele>721.99</ele>
        <time>2026-03-29T09:40:27.054Z</time>
      </trkpt>
      <trkpt lat="43.8598" lon="3.26807">
        <ele>722.28</ele>
        <time>2026-03-29T09:40:32.173Z</time>
      </trkpt>
      <trkpt lat="43.85975" lon="3.26805">
        <ele>724.01</ele>
        <time>2026-03-29T09:40:37.187Z</time>
      </trkpt>
      <trkpt lat="43.85969" lon="3.26802">
        <ele>725.11</ele>
        <time>2026-03-29T09:40:42.597Z</time>
      </trkpt>
      <trkpt lat="43.85964" lon="3.268">
        <ele>724.48</ele>
        <time>2026-03-29T09:40:47.876Z</time>
      </trkpt>
      <trkpt lat="43.85959" lon="3.26798">
        <ele>724.29</ele>
        <time>2026-03-29T09:40:53.087Z</time>
      </trkpt>
      <trkpt lat="43.85954" lon="3.26795">
        <ele>723.38</ele>
        <time>2026-03-29T09:40:58.106Z</time>
      </trkpt>
      <trkpt lat="43.85947" lon="3.26792">
        <ele>722.74</ele>
        <time>2026-03-29T09:41:04.067Z</time>
      </trkpt>
      <trkpt lat="43.85941" lon="3.26789">
        <ele>722.82</ele>
        <time>2026-03-29T09:41:09.266Z</time>
      </trkpt>
      <trkpt lat="43.85936" lon="3.26787">
        <ele>723.07</ele>
        <time>2026-03-29T09:41:14.748Z</time>
      </trkpt>
      <trkpt lat="43.8593" lon="3.26783">
        <ele>723.51</ele>
        <time>2026-03-29T09:41:20.051Z</time>
      </trkpt>
      <trkpt lat="43.85925" lon="3.2678">
        <ele>723.93</ele>
        <time>2026-03-29T09:41:25.125Z</time>
      </trkpt>
      <trkpt lat="43.85919" lon="3.26777">
        <ele>722.94</ele>
        <time>2026-03-29T09:41:30.308Z</time>
      </trkpt>
      <trkpt lat="43.85914" lon="3.26774">
        <ele>722.8</ele>
        <time>2026-03-29T09:41:35.385Z</time>
      </trkpt>
      <trkpt lat="43.85908" lon="3.26771">
        <ele>723.18</ele>
        <time>2026-03-29T09:41:41.190Z</time>
      </trkpt>
      <trkpt lat="43.85903" lon="3.26768">
        <ele>723.37</ele>
        <time>2026-03-29T09:41:46.284Z</time>
      </trkpt>
      <trkpt lat="43.85897" lon="3.26766">
        <ele>724.63</ele>
        <time>2026-03-29T09:41:51.832Z</time>
      </trkpt>
      <trkpt lat="43.8589" lon="3.26761">
        <ele>724.09</ele>
        <time>2026-03-29T09:41:58.204Z</time>
      </trkpt>
      <trkpt lat="43.85887" lon="3.26764">
        <ele>724.47</ele>
        <time>2026-03-29T09:42:03.788Z</time>
      </trkpt>
      <trkpt lat="43.85883" lon="3.26762">
        <ele>724.12</ele>
        <time>2026-03-29T09:42:09.085Z</time>
      </trkpt>
      <trkpt lat="43.85879" lon="3.26759">
        <ele>724.06</ele>
        <time>2026-03-29T09:42:15.053Z</time>
      </trkpt>
      <trkpt lat="43.85874" lon="3.26755">
        <ele>724.23</ele>
        <time>2026-03-29T09:42:20.072Z</time>
      </trkpt>
      <trkpt lat="43.85869" lon="3.26753">
        <ele>723.1</ele>
        <time>2026-03-29T09:42:25.086Z</time>
      </trkpt>
      <trkpt lat="43.85863" lon="3.26748">
        <ele>722.76</ele>
        <time>2026-03-29T09:42:30.389Z</time>
      </trkpt>
      <trkpt lat="43.85857" lon="3.26744">
        <ele>723.28</ele>
        <time>2026-03-29T09:42:35.542Z</time>
      </trkpt>
      <trkpt lat="43.85851" lon="3.26742">
        <ele>722.52</ele>
        <time>2026-03-29T09:42:40.937Z</time>
      </trkpt>
      <trkpt lat="43.85846" lon="3.2674">
        <ele>724.28</ele>
        <time>2026-03-29T09:42:46.157Z</time>
      </trkpt>
      <trkpt lat="43.85843" lon="3.26734">
        <ele>725.35</ele>
        <time>2026-03-29T09:42:51.198Z</time>
      </trkpt>
      <trkpt lat="43.85837" lon="3.26731">
        <ele>725.12</ele>
        <time>2026-03-29T09:42:56.416Z</time>
      </trkpt>
      <trkpt lat="43.85831" lon="3.26728">
        <ele>724.95</ele>
        <time>2026-03-29T09:43:02.140Z</time>
      </trkpt>
      <trkpt lat="43.85825" lon="3.26725">
        <ele>723.84</ele>
        <time>2026-03-29T09:43:07.601Z</time>
      </trkpt>
      <trkpt lat="43.85819" lon="3.26722">
        <ele>724.01</ele>
        <time>2026-03-29T09:43:13.059Z</time>
      </trkpt>
      <trkpt lat="43.85813" lon="3.2672">
        <ele>725.4</ele>
        <time>2026-03-29T09:43:18.099Z</time>
      </trkpt>
      <trkpt lat="43.85809" lon="3.26717">
        <ele>727</ele>
        <time>2026-03-29T09:43:23.156Z</time>
      </trkpt>
      <trkpt lat="43.85805" lon="3.26714">
        <ele>725.58</ele>
        <time>2026-03-29T09:43:28.644Z</time>
      </trkpt>
      <trkpt lat="43.85799" lon="3.26712">
        <ele>725.32</ele>
        <time>2026-03-29T09:43:33.896Z</time>
      </trkpt>
      <trkpt lat="43.85794" lon="3.26709">
        <ele>725.17</ele>
        <time>2026-03-29T09:43:39.157Z</time>
      </trkpt>
      <trkpt lat="43.85789" lon="3.26705">
        <ele>726.17</ele>
        <time>2026-03-29T09:43:44.654Z</time>
      </trkpt>
      <trkpt lat="43.85783" lon="3.26701">
        <ele>728.72</ele>
        <time>2026-03-29T09:43:49.857Z</time>
      </trkpt>
      <trkpt lat="43.85778" lon="3.26697">
        <ele>726.73</ele>
        <time>2026-03-29T09:43:55.159Z</time>
      </trkpt>
      <trkpt lat="43.85772" lon="3.26694">
        <ele>726.34</ele>
        <time>2026-03-29T09:44:00.736Z</time>
      </trkpt>
      <trkpt lat="43.85766" lon="3.26691">
        <ele>726.07</ele>
        <time>2026-03-29T09:44:06.113Z</time>
      </trkpt>
      <trkpt lat="43.85762" lon="3.26688">
        <ele>727.41</ele>
        <time>2026-03-29T09:44:11.170Z</time>
      </trkpt>
      <trkpt lat="43.85758" lon="3.26684">
        <ele>727.75</ele>
        <time>2026-03-29T09:44:16.696Z</time>
      </trkpt>
      <trkpt lat="43.85754" lon="3.26678">
        <ele>726.98</ele>
        <time>2026-03-29T09:44:22.159Z</time>
      </trkpt>
      <trkpt lat="43.85748" lon="3.26674">
        <ele>728.98</ele>
        <time>2026-03-29T09:44:27.173Z</time>
      </trkpt>
      <trkpt lat="43.85741" lon="3.26672">
        <ele>729.5</ele>
        <time>2026-03-29T09:44:32.537Z</time>
      </trkpt>
      <trkpt lat="43.85736" lon="3.26669">
        <ele>730.36</ele>
        <time>2026-03-29T09:44:38.160Z</time>
      </trkpt>
      <trkpt lat="43.85728" lon="3.26667">
        <ele>730.91</ele>
        <time>2026-03-29T09:44:44.157Z</time>
      </trkpt>
      <trkpt lat="43.8572" lon="3.26662">
        <ele>728.64</ele>
        <time>2026-03-29T09:44:49.729Z</time>
      </trkpt>
      <trkpt lat="43.85713" lon="3.26659">
        <ele>726.46</ele>
        <time>2026-03-29T09:44:54.795Z</time>
      </trkpt>
      <trkpt lat="43.85707" lon="3.26658">
        <ele>728.63</ele>
        <time>2026-03-29T09:44:59.857Z</time>
      </trkpt>
      <trkpt lat="43.85701" lon="3.26657">
        <ele>729.34</ele>
        <time>2026-03-29T09:45:04.870Z</time>
      </trkpt>
      <trkpt lat="43.85694" lon="3.26656">
        <ele>729.93</ele>
        <time>2026-03-29T09:45:10.165Z</time>
      </trkpt>
      <trkpt lat="43.85689" lon="3.26658">
        <ele>731.93</ele>
        <time>2026-03-29T09:45:15.179Z</time>
      </trkpt>
      <trkpt lat="43.85683" lon="3.26659">
        <ele>735.36</ele>
        <time>2026-03-29T09:45:20.660Z</time>
      </trkpt>
      <trkpt lat="43.85678" lon="3.26657">
        <ele>732.63</ele>
        <time>2026-03-29T09:45:25.975Z</time>
      </trkpt>
      <trkpt lat="43.8567" lon="3.26657">
        <ele>731.89</ele>
        <time>2026-03-29T09:45:31.180Z</time>
      </trkpt>
      <trkpt lat="43.85663" lon="3.26659">
        <ele>732.35</ele>
        <time>2026-03-29T09:45:36.375Z</time>
      </trkpt>
      <trkpt lat="43.85655" lon="3.26662">
        <ele>732.93</ele>
        <time>2026-03-29T09:45:41.675Z</time>
      </trkpt>
      <trkpt lat="43.85648" lon="3.26664">
        <ele>732.26</ele>
        <time>2026-03-29T09:45:46.714Z</time>
      </trkpt>
      <trkpt lat="43.85641" lon="3.26664">
        <ele>731.63</ele>
        <time>2026-03-29T09:45:52.111Z</time>
      </trkpt>
      <trkpt lat="43.85633" lon="3.26665">
        <ele>730.45</ele>
        <time>2026-03-29T09:45:57.320Z</time>
      </trkpt>
      <trkpt lat="43.85626" lon="3.26665">
        <ele>730.56</ele>
        <time>2026-03-29T09:46:02.672Z</time>
      </trkpt>
      <trkpt lat="43.85621" lon="3.26662">
        <ele>730.6</ele>
        <time>2026-03-29T09:46:07.774Z</time>
      </trkpt>
      <trkpt lat="43.85621" lon="3.26656">
        <ele>728.92</ele>
        <time>2026-03-29T09:46:13.105Z</time>
      </trkpt>
      <trkpt lat="43.8562" lon="3.26655">
        <ele>727.79</ele>
        <time>2026-03-29T09:46:18.119Z</time>
      </trkpt>
      <trkpt lat="43.85619" lon="3.26655">
        <ele>728.25</ele>
        <time>2026-03-29T09:46:23.132Z</time>
      </trkpt>
      <trkpt lat="43.85618" lon="3.26655">
        <ele>727.99</ele>
        <time>2026-03-29T09:46:31.133Z</time>
      </trkpt>
      <trkpt lat="43.85617" lon="3.26656">
        <ele>728.35</ele>
        <time>2026-03-29T09:46:41.161Z</time>
      </trkpt>
      <trkpt lat="43.85618" lon="3.26655">
        <ele>728.48</ele>
        <time>2026-03-29T09:46:46.197Z</time>
      </trkpt>
      <trkpt lat="43.85618" lon="3.26646">
        <ele>728.49</ele>
        <time>2026-03-29T09:46:51.204Z</time>
      </trkpt>
      <trkpt lat="43.85619" lon="3.26638">
        <ele>728.82</ele>
        <time>2026-03-29T09:46:56.214Z</time>
      </trkpt>
      <trkpt lat="43.85621" lon="3.26631">
        <ele>728.96</ele>
        <time>2026-03-29T09:47:01.248Z</time>
      </trkpt>
      <trkpt lat="43.85623" lon="3.26622">
        <ele>730.33</ele>
        <time>2026-03-29T09:47:06.915Z</time>
      </trkpt>
      <trkpt lat="43.85624" lon="3.26614">
        <ele>729.5</ele>
        <time>2026-03-29T09:47:13.157Z</time>
      </trkpt>
      <trkpt lat="43.85625" lon="3.26607">
        <ele>727.22</ele>
        <time>2026-03-29T09:47:18.229Z</time>
      </trkpt>
      <trkpt lat="43.85627" lon="3.26598">
        <ele>726.98</ele>
        <time>2026-03-29T09:47:24.108Z</time>
      </trkpt>
      <trkpt lat="43.85627" lon="3.2659">
        <ele>727.18</ele>
        <time>2026-03-29T09:47:29.177Z</time>
      </trkpt>
      <trkpt lat="43.85626" lon="3.26583">
        <ele>731.26</ele>
        <time>2026-03-29T09:47:34.246Z</time>
      </trkpt>
      <trkpt lat="43.85622" lon="3.26576">
        <ele>731.47</ele>
        <time>2026-03-29T09:47:39.247Z</time>
      </trkpt>
      <trkpt lat="43.85619" lon="3.26566">
        <ele>730.22</ele>
        <time>2026-03-29T09:47:45.075Z</time>
      </trkpt>
      <trkpt lat="43.85619" lon="3.26557">
        <ele>729.43</ele>
        <time>2026-03-29T09:47:50.493Z</time>
      </trkpt>
      <trkpt lat="43.85619" lon="3.26549">
        <ele>728.88</ele>
        <time>2026-03-29T09:47:55.756Z</time>
      </trkpt>
      <trkpt lat="43.85618" lon="3.26541">
        <ele>731.52</ele>
        <time>2026-03-29T09:48:01.209Z</time>
      </trkpt>
      <trkpt lat="43.85617" lon="3.26532">
        <ele>731.61</ele>
        <time>2026-03-29T09:48:06.788Z</time>
      </trkpt>
      <trkpt lat="43.85615" lon="3.26524">
        <ele>730.74</ele>
        <time>2026-03-29T09:48:11.890Z</time>
      </trkpt>
      <trkpt lat="43.8561" lon="3.26519">
        <ele>730.12</ele>
        <time>2026-03-29T09:48:16.931Z</time>
      </trkpt>
      <trkpt lat="43.85604" lon="3.26513">
        <ele>731.17</ele>
        <time>2026-03-29T09:48:22.248Z</time>
      </trkpt>
      <trkpt lat="43.85599" lon="3.26508">
        <ele>730.79</ele>
        <time>2026-03-29T09:48:27.617Z</time>
      </trkpt>
      <trkpt lat="43.85596" lon="3.26503">
        <ele>730.41</ele>
        <time>2026-03-29T09:48:32.809Z</time>
      </trkpt>
      <trkpt lat="43.85594" lon="3.26496">
        <ele>732.77</ele>
        <time>2026-03-29T09:48:38.217Z</time>
      </trkpt>
      <trkpt lat="43.85591" lon="3.26491">
        <ele>734.35</ele>
        <time>2026-03-29T09:48:43.245Z</time>
      </trkpt>
      <trkpt lat="43.8559" lon="3.26485">
        <ele>733.84</ele>
        <time>2026-03-29T09:48:48.253Z</time>
      </trkpt>
      <trkpt lat="43.85589" lon="3.26478">
        <ele>732.85</ele>
        <time>2026-03-29T09:48:53.577Z</time>
      </trkpt>
      <trkpt lat="43.85584" lon="3.26471">
        <ele>732.67</ele>
        <time>2026-03-29T09:48:59.211Z</time>
      </trkpt>
      <trkpt lat="43.85582" lon="3.26461">
        <ele>732.92</ele>
        <time>2026-03-29T09:49:05.112Z</time>
      </trkpt>
      <trkpt lat="43.85581" lon="3.26453">
        <ele>733.98</ele>
        <time>2026-03-29T09:49:10.260Z</time>
      </trkpt>
      <trkpt lat="43.85583" lon="3.26443">
        <ele>733.72</ele>
        <time>2026-03-29T09:49:16.255Z</time>
      </trkpt>
      <trkpt lat="43.8558" lon="3.26434">
        <ele>732.86</ele>
        <time>2026-03-29T09:49:21.851Z</time>
      </trkpt>
      <trkpt lat="43.85574" lon="3.26426">
        <ele>734.37</ele>
        <time>2026-03-29T09:49:27.179Z</time>
      </trkpt>
      <trkpt lat="43.85571" lon="3.26421">
        <ele>734.07</ele>
        <time>2026-03-29T09:49:32.222Z</time>
      </trkpt>
      <trkpt lat="43.8557" lon="3.26413">
        <ele>733.52</ele>
        <time>2026-03-29T09:49:37.735Z</time>
      </trkpt>
      <trkpt lat="43.85568" lon="3.26404">
        <ele>733.55</ele>
        <time>2026-03-29T09:49:43.017Z</time>
      </trkpt>
      <trkpt lat="43.85566" lon="3.26397">
        <ele>733.66</ele>
        <time>2026-03-29T09:49:48.174Z</time>
      </trkpt>
      <trkpt lat="43.85564" lon="3.26389">
        <ele>733.17</ele>
        <time>2026-03-29T09:49:53.243Z</time>
      </trkpt>
      <trkpt lat="43.8556" lon="3.26382">
        <ele>732.73</ele>
        <time>2026-03-29T09:49:59.213Z</time>
      </trkpt>
      <trkpt lat="43.85556" lon="3.26375">
        <ele>731.05</ele>
        <time>2026-03-29T09:50:04.972Z</time>
      </trkpt>
      <trkpt lat="43.85549" lon="3.2637">
        <ele>733.91</ele>
        <time>2026-03-29T09:50:10.395Z</time>
      </trkpt>
      <trkpt lat="43.85543" lon="3.26364">
        <ele>735.48</ele>
        <time>2026-03-29T09:50:15.481Z</time>
      </trkpt>
      <trkpt lat="43.85537" lon="3.2636">
        <ele>735.75</ele>
        <time>2026-03-29T09:50:21.160Z</time>
      </trkpt>
      <trkpt lat="43.85533" lon="3.26355">
        <ele>733.3</ele>
        <time>2026-03-29T09:50:26.193Z</time>
      </trkpt>
      <trkpt lat="43.85528" lon="3.26347">
        <ele>731.9</ele>
        <time>2026-03-29T09:50:31.324Z</time>
      </trkpt>
      <trkpt lat="43.85524" lon="3.2634">
        <ele>731.76</ele>
        <time>2026-03-29T09:50:36.637Z</time>
      </trkpt>
      <trkpt lat="43.85521" lon="3.26333">
        <ele>730.77</ele>
        <time>2026-03-29T09:50:42.077Z</time>
      </trkpt>
      <trkpt lat="43.85516" lon="3.26325">
        <ele>729.96</ele>
        <time>2026-03-29T09:50:47.273Z</time>
      </trkpt>
      <trkpt lat="43.85512" lon="3.26316">
        <ele>729.35</ele>
        <time>2026-03-29T09:50:52.920Z</time>
      </trkpt>
      <trkpt lat="43.85509" lon="3.26308">
        <ele>729.92</ele>
        <time>2026-03-29T09:50:58.299Z</time>
      </trkpt>
      <trkpt lat="43.85506" lon="3.26298">
        <ele>732.22</ele>
        <time>2026-03-29T09:51:04.220Z</time>
      </trkpt>
      <trkpt lat="43.85505" lon="3.26287">
        <ele>732.35</ele>
        <time>2026-03-29T09:51:09.740Z</time>
      </trkpt>
      <trkpt lat="43.85502" lon="3.26277">
        <ele>732.75</ele>
        <time>2026-03-29T09:51:14.778Z</time>
      </trkpt>
      <trkpt lat="43.85501" lon="3.2627">
        <ele>732.11</ele>
        <time>2026-03-29T09:51:20.210Z</time>
      </trkpt>
      <trkpt lat="43.85498" lon="3.26263">
        <ele>732</ele>
        <time>2026-03-29T09:51:25.220Z</time>
      </trkpt>
      <trkpt lat="43.85493" lon="3.26253">
        <ele>733.79</ele>
        <time>2026-03-29T09:51:31.215Z</time>
      </trkpt>
      <trkpt lat="43.85488" lon="3.26246">
        <ele>733.45</ele>
        <time>2026-03-29T09:51:36.972Z</time>
      </trkpt>
      <trkpt lat="43.85483" lon="3.26241">
        <ele>731.77</ele>
        <time>2026-03-29T09:51:42.203Z</time>
      </trkpt>
      <trkpt lat="43.85479" lon="3.26237">
        <ele>729.81</ele>
        <time>2026-03-29T09:51:47.206Z</time>
      </trkpt>
      <trkpt lat="43.85472" lon="3.26238">
        <ele>730.76</ele>
        <time>2026-03-29T09:51:52.601Z</time>
      </trkpt>
      <trkpt lat="43.85465" lon="3.26237">
        <ele>733.39</ele>
        <time>2026-03-29T09:51:57.722Z</time>
      </trkpt>
      <trkpt lat="43.85459" lon="3.26238">
        <ele>735.64</ele>
        <time>2026-03-29T09:52:03.161Z</time>
      </trkpt>
      <trkpt lat="43.85451" lon="3.26234">
        <ele>733.72</ele>
        <time>2026-03-29T09:52:09.213Z</time>
      </trkpt>
      <trkpt lat="43.85444" lon="3.2623">
        <ele>732.19</ele>
        <time>2026-03-29T09:52:14.238Z</time>
      </trkpt>
      <trkpt lat="43.85439" lon="3.2622">
        <ele>730.53</ele>
        <time>2026-03-29T09:52:19.919Z</time>
      </trkpt>
      <trkpt lat="43.85434" lon="3.26213">
        <ele>729.75</ele>
        <time>2026-03-29T09:52:25.218Z</time>
      </trkpt>
      <trkpt lat="43.85431" lon="3.26206">
        <ele>729.24</ele>
        <time>2026-03-29T09:52:30.250Z</time>
      </trkpt>
      <trkpt lat="43.85427" lon="3.26197">
        <ele>728.55</ele>
        <time>2026-03-29T09:52:35.328Z</time>
      </trkpt>
      <trkpt lat="43.85425" lon="3.26187">
        <ele>728.07</ele>
        <time>2026-03-29T09:52:40.638Z</time>
      </trkpt>
      <trkpt lat="43.85428" lon="3.26183">
        <ele>727.79</ele>
        <time>2026-03-29T09:52:45.882Z</time>
      </trkpt>
      <trkpt lat="43.85426" lon="3.26185">
        <ele>727.96</ele>
        <time>2026-03-29T09:52:51.223Z</time>
      </trkpt>
      <trkpt lat="43.85426" lon="3.26186">
        <ele>728.01</ele>
        <time>2026-03-29T09:52:58.219Z</time>
      </trkpt>
      <trkpt lat="43.85425" lon="3.26181">
        <ele>727.94</ele>
        <time>2026-03-29T09:53:03.246Z</time>
      </trkpt>
      <trkpt lat="43.85425" lon="3.26177">
        <ele>728.47</ele>
        <time>2026-03-29T09:53:09.214Z</time>
      </trkpt>
      <trkpt lat="43.85424" lon="3.26175">
        <ele>727.86</ele>
        <time>2026-03-29T09:53:14.247Z</time>
      </trkpt>
      <trkpt lat="43.85423" lon="3.26175">
        <ele>727.7</ele>
        <time>2026-03-29T09:53:19.274Z</time>
      </trkpt>
      <trkpt lat="43.85423" lon="3.26173">
        <ele>727.54</ele>
        <time>2026-03-29T09:53:27.097Z</time>
      </trkpt>
      <trkpt lat="43.85428" lon="3.26164">
        <ele>727.2</ele>
        <time>2026-03-29T09:53:32.813Z</time>
      </trkpt>
      <trkpt lat="43.85431" lon="3.26154">
        <ele>724.95</ele>
        <time>2026-03-29T09:53:38.241Z</time>
      </trkpt>
      <trkpt lat="43.85434" lon="3.26146">
        <ele>726.28</ele>
        <time>2026-03-29T09:53:43.514Z</time>
      </trkpt>
      <trkpt lat="43.85437" lon="3.26138">
        <ele>726.25</ele>
        <time>2026-03-29T09:53:48.981Z</time>
      </trkpt>
      <trkpt lat="43.85438" lon="3.2613">
        <ele>726.18</ele>
        <time>2026-03-29T09:53:54.221Z</time>
      </trkpt>
      <trkpt lat="43.85442" lon="3.26122">
        <ele>727.16</ele>
        <time>2026-03-29T09:53:59.640Z</time>
      </trkpt>
      <trkpt lat="43.85447" lon="3.26117">
        <ele>726.99</ele>
        <time>2026-03-29T09:54:04.778Z</time>
      </trkpt>
      <trkpt lat="43.85453" lon="3.26112">
        <ele>727.54</ele>
        <time>2026-03-29T09:54:10.255Z</time>
      </trkpt>
      <trkpt lat="43.85457" lon="3.26106">
        <ele>728.65</ele>
        <time>2026-03-29T09:54:15.496Z</time>
      </trkpt>
      <trkpt lat="43.85461" lon="3.26101">
        <ele>727.79</ele>
        <time>2026-03-29T09:54:20.759Z</time>
      </trkpt>
      <trkpt lat="43.85467" lon="3.26095">
        <ele>727.6</ele>
        <time>2026-03-29T09:54:26.083Z</time>
      </trkpt>
      <trkpt lat="43.85471" lon="3.26089">
        <ele>727.91</ele>
        <time>2026-03-29T09:54:31.227Z</time>
      </trkpt>
      <trkpt lat="43.85476" lon="3.26082">
        <ele>727.64</ele>
        <time>2026-03-29T09:54:36.262Z</time>
      </trkpt>
      <trkpt lat="43.85481" lon="3.26075">
        <ele>726.9</ele>
        <time>2026-03-29T09:54:41.815Z</time>
      </trkpt>
      <trkpt lat="43.85485" lon="3.26067">
        <ele>727.28</ele>
        <time>2026-03-29T09:54:47.218Z</time>
      </trkpt>
      <trkpt lat="43.85488" lon="3.26059">
        <ele>727.83</ele>
        <time>2026-03-29T09:54:52.979Z</time>
      </trkpt>
      <trkpt lat="43.8549" lon="3.26049">
        <ele>728.23</ele>
        <time>2026-03-29T09:54:58.247Z</time>
      </trkpt>
      <trkpt lat="43.85491" lon="3.2604">
        <ele>728.4</ele>
        <time>2026-03-29T09:55:03.699Z</time>
      </trkpt>
      <trkpt lat="43.85492" lon="3.26032">
        <ele>730.32</ele>
        <time>2026-03-29T09:55:08.979Z</time>
      </trkpt>
      <trkpt lat="43.85493" lon="3.26024">
        <ele>730.18</ele>
        <time>2026-03-29T09:55:14.236Z</time>
      </trkpt>
      <trkpt lat="43.85494" lon="3.26015">
        <ele>730.12</ele>
        <time>2026-03-29T09:55:19.894Z</time>
      </trkpt>
      <trkpt lat="43.85496" lon="3.26004">
        <ele>729.79</ele>
        <time>2026-03-29T09:55:25.225Z</time>
      </trkpt>
      <trkpt lat="43.85497" lon="3.25994">
        <ele>729.79</ele>
        <time>2026-03-29T09:55:30.677Z</time>
      </trkpt>
      <trkpt lat="43.85502" lon="3.25984">
        <ele>729</ele>
        <time>2026-03-29T09:55:36.117Z</time>
      </trkpt>
      <trkpt lat="43.85506" lon="3.25976">
        <ele>728.39</ele>
        <time>2026-03-29T09:55:41.220Z</time>
      </trkpt>
      <trkpt lat="43.8551" lon="3.25968">
        <ele>728.94</ele>
        <time>2026-03-29T09:55:47.059Z</time>
      </trkpt>
      <trkpt lat="43.85514" lon="3.25959">
        <ele>727.93</ele>
        <time>2026-03-29T09:55:52.258Z</time>
      </trkpt>
      <trkpt lat="43.85518" lon="3.2595">
        <ele>726.77</ele>
        <time>2026-03-29T09:55:57.778Z</time>
      </trkpt>
      <trkpt lat="43.85523" lon="3.25942">
        <ele>726.52</ele>
        <time>2026-03-29T09:56:03.119Z</time>
      </trkpt>
      <trkpt lat="43.85528" lon="3.25935">
        <ele>725.87</ele>
        <time>2026-03-29T09:56:08.231Z</time>
      </trkpt>
      <trkpt lat="43.85532" lon="3.25929">
        <ele>726.65</ele>
        <time>2026-03-29T09:56:13.983Z</time>
      </trkpt>
      <trkpt lat="43.85535" lon="3.25921">
        <ele>726.3</ele>
        <time>2026-03-29T09:56:19.777Z</time>
      </trkpt>
      <trkpt lat="43.85541" lon="3.25917">
        <ele>724.96</ele>
        <time>2026-03-29T09:56:24.815Z</time>
      </trkpt>
      <trkpt lat="43.85547" lon="3.25911">
        <ele>727.06</ele>
        <time>2026-03-29T09:56:30.094Z</time>
      </trkpt>
      <trkpt lat="43.85552" lon="3.25908">
        <ele>726</ele>
        <time>2026-03-29T09:56:35.180Z</time>
      </trkpt>
      <trkpt lat="43.85557" lon="3.25894">
        <ele>725.44</ele>
        <time>2026-03-29T09:56:41.020Z</time>
      </trkpt>
      <trkpt lat="43.85561" lon="3.25883">
        <ele>727.16</ele>
        <time>2026-03-29T09:56:46.243Z</time>
      </trkpt>
      <trkpt lat="43.85566" lon="3.25875">
        <ele>726.82</ele>
        <time>2026-03-29T09:56:51.696Z</time>
      </trkpt>
      <trkpt lat="43.8557" lon="3.25867">
        <ele>727.09</ele>
        <time>2026-03-29T09:56:57.056Z</time>
      </trkpt>
      <trkpt lat="43.85576" lon="3.2586">
        <ele>726.93</ele>
        <time>2026-03-29T09:57:02.239Z</time>
      </trkpt>
      <trkpt lat="43.85582" lon="3.25853">
        <ele>727.34</ele>
        <time>2026-03-29T09:57:07.883Z</time>
      </trkpt>
      <trkpt lat="43.85586" lon="3.25846">
        <ele>728.06</ele>
        <time>2026-03-29T09:57:13.250Z</time>
      </trkpt>
      <trkpt lat="43.85592" lon="3.25839">
        <ele>728.09</ele>
        <time>2026-03-29T09:57:18.858Z</time>
      </trkpt>
      <trkpt lat="43.85598" lon="3.25832">
        <ele>727.08</ele>
        <time>2026-03-29T09:57:24.217Z</time>
      </trkpt>
      <trkpt lat="43.85603" lon="3.25827">
        <ele>727.79</ele>
        <time>2026-03-29T09:57:29.254Z</time>
      </trkpt>
      <trkpt lat="43.85607" lon="3.25821">
        <ele>727.14</ele>
        <time>2026-03-29T09:57:34.270Z</time>
      </trkpt>
      <trkpt lat="43.85611" lon="3.25813">
        <ele>726.94</ele>
        <time>2026-03-29T09:57:39.658Z</time>
      </trkpt>
      <trkpt lat="43.85616" lon="3.25805">
        <ele>727.92</ele>
        <time>2026-03-29T09:57:45.097Z</time>
      </trkpt>
      <trkpt lat="43.8562" lon="3.25799">
        <ele>728.21</ele>
        <time>2026-03-29T09:57:50.476Z</time>
      </trkpt>
      <trkpt lat="43.85624" lon="3.25791">
        <ele>727.31</ele>
        <time>2026-03-29T09:57:55.497Z</time>
      </trkpt>
      <trkpt lat="43.85629" lon="3.25784">
        <ele>727.21</ele>
        <time>2026-03-29T09:58:00.823Z</time>
      </trkpt>
      <trkpt lat="43.85634" lon="3.25777">
        <ele>727.55</ele>
        <time>2026-03-29T09:58:06.137Z</time>
      </trkpt>
      <trkpt lat="43.8564" lon="3.2577">
        <ele>727.72</ele>
        <time>2026-03-29T09:58:11.247Z</time>
      </trkpt>
      <trkpt lat="43.85645" lon="3.25764">
        <ele>728.32</ele>
        <time>2026-03-29T09:58:16.998Z</time>
      </trkpt>
      <trkpt lat="43.8565" lon="3.25758">
        <ele>726.88</ele>
        <time>2026-03-29T09:58:22.438Z</time>
      </trkpt>
      <trkpt lat="43.85656" lon="3.25753">
        <ele>726.41</ele>
        <time>2026-03-29T09:58:27.754Z</time>
      </trkpt>
      <trkpt lat="43.85662" lon="3.25747">
        <ele>726.53</ele>
        <time>2026-03-29T09:58:33.078Z</time>
      </trkpt>
      <trkpt lat="43.85667" lon="3.25739">
        <ele>726.53</ele>
        <time>2026-03-29T09:58:38.579Z</time>
      </trkpt>
      <trkpt lat="43.85671" lon="3.25733">
        <ele>727.77</ele>
        <time>2026-03-29T09:58:43.843Z</time>
      </trkpt>
      <trkpt lat="43.85676" lon="3.25728">
        <ele>727.91</ele>
        <time>2026-03-29T09:58:48.900Z</time>
      </trkpt>
      <trkpt lat="43.85682" lon="3.25724">
        <ele>727.64</ele>
        <time>2026-03-29T09:58:53.924Z</time>
      </trkpt>
      <trkpt lat="43.85688" lon="3.25718">
        <ele>728.97</ele>
        <time>2026-03-29T09:58:59.274Z</time>
      </trkpt>
      <trkpt lat="43.85694" lon="3.25711">
        <ele>728.59</ele>
        <time>2026-03-29T09:59:04.774Z</time>
      </trkpt>
      <trkpt lat="43.85699" lon="3.25705">
        <ele>729.11</ele>
        <time>2026-03-29T09:59:10.240Z</time>
      </trkpt>
      <trkpt lat="43.85703" lon="3.25697">
        <ele>731.19</ele>
        <time>2026-03-29T09:59:15.440Z</time>
      </trkpt>
      <trkpt lat="43.85708" lon="3.2569">
        <ele>730.95</ele>
        <time>2026-03-29T09:59:20.978Z</time>
      </trkpt>
      <trkpt lat="43.85712" lon="3.25682">
        <ele>729.64</ele>
        <time>2026-03-29T09:59:26.264Z</time>
      </trkpt>
      <trkpt lat="43.85716" lon="3.25675">
        <ele>729.37</ele>
        <time>2026-03-29T09:59:32.000Z</time>
      </trkpt>
      <trkpt lat="43.8572" lon="3.25668">
        <ele>729.57</ele>
        <time>2026-03-29T09:59:37.251Z</time>
      </trkpt>
      <trkpt lat="43.85725" lon="3.25662">
        <ele>730.89</ele>
        <time>2026-03-29T09:59:42.254Z</time>
      </trkpt>
      <trkpt lat="43.85728" lon="3.25654">
        <ele>731.06</ele>
        <time>2026-03-29T09:59:47.873Z</time>
      </trkpt>
      <trkpt lat="43.85731" lon="3.25654">
        <ele>730.43</ele>
        <time>2026-03-29T09:59:53.184Z</time>
      </trkpt>
      <trkpt lat="43.85737" lon="3.25651">
        <ele>728.53</ele>
        <time>2026-03-29T09:59:58.399Z</time>
      </trkpt>
      <trkpt lat="43.85744" lon="3.25644">
        <ele>729.81</ele>
        <time>2026-03-29T10:00:04.036Z</time>
      </trkpt>
      <trkpt lat="43.8575" lon="3.25638">
        <ele>729.92</ele>
        <time>2026-03-29T10:00:09.054Z</time>
      </trkpt>
      <trkpt lat="43.85756" lon="3.25636">
        <ele>729.08</ele>
        <time>2026-03-29T10:00:14.400Z</time>
      </trkpt>
      <trkpt lat="43.85762" lon="3.25633">
        <ele>729.74</ele>
        <time>2026-03-29T10:00:19.542Z</time>
      </trkpt>
      <trkpt lat="43.85767" lon="3.25628">
        <ele>733.14</ele>
        <time>2026-03-29T10:00:24.860Z</time>
      </trkpt>
      <trkpt lat="43.85772" lon="3.25621">
        <ele>734</ele>
        <time>2026-03-29T10:00:30.175Z</time>
      </trkpt>
      <trkpt lat="43.85774" lon="3.25613">
        <ele>732.93</ele>
        <time>2026-03-29T10:00:35.375Z</time>
      </trkpt>
      <trkpt lat="43.85778" lon="3.25606">
        <ele>732.09</ele>
        <time>2026-03-29T10:00:40.495Z</time>
      </trkpt>
      <trkpt lat="43.85783" lon="3.25599">
        <ele>732.8</ele>
        <time>2026-03-29T10:00:46.061Z</time>
      </trkpt>
      <trkpt lat="43.8579" lon="3.25594">
        <ele>733.77</ele>
        <time>2026-03-29T10:00:51.517Z</time>
      </trkpt>
      <trkpt lat="43.85796" lon="3.25592">
        <ele>734.59</ele>
        <time>2026-03-29T10:00:56.939Z</time>
      </trkpt>
      <trkpt lat="43.85804" lon="3.2559">
        <ele>732.84</ele>
        <time>2026-03-29T10:01:02.396Z</time>
      </trkpt>
      <trkpt lat="43.8581" lon="3.2559">
        <ele>731.5</ele>
        <time>2026-03-29T10:01:07.676Z</time>
      </trkpt>
      <trkpt lat="43.85816" lon="3.25588">
        <ele>732.12</ele>
        <time>2026-03-29T10:01:13.195Z</time>
      </trkpt>
      <trkpt lat="43.85823" lon="3.25586">
        <ele>732.63</ele>
        <time>2026-03-29T10:01:18.253Z</time>
      </trkpt>
      <trkpt lat="43.85829" lon="3.25584">
        <ele>733.46</ele>
        <time>2026-03-29T10:01:23.279Z</time>
      </trkpt>
      <trkpt lat="43.85836" lon="3.25581">
        <ele>732.17</ele>
        <time>2026-03-29T10:01:28.600Z</time>
      </trkpt>
      <trkpt lat="43.85843" lon="3.25578">
        <ele>731.14</ele>
        <time>2026-03-29T10:01:33.915Z</time>
      </trkpt>
      <trkpt lat="43.85849" lon="3.25575">
        <ele>731.49</ele>
        <time>2026-03-29T10:01:38.938Z</time>
      </trkpt>
      <trkpt lat="43.85858" lon="3.25573">
        <ele>731.83</ele>
        <time>2026-03-29T10:01:44.232Z</time>
      </trkpt>
      <trkpt lat="43.85866" lon="3.25571">
        <ele>733.55</ele>
        <time>2026-03-29T10:01:50.056Z</time>
      </trkpt>
      <trkpt lat="43.85871" lon="3.25569">
        <ele>733.33</ele>
        <time>2026-03-29T10:01:55.158Z</time>
      </trkpt>
      <trkpt lat="43.85878" lon="3.25564">
        <ele>732.15</ele>
        <time>2026-03-29T10:02:00.979Z</time>
      </trkpt>
      <trkpt lat="43.85883" lon="3.25558">
        <ele>731.62</ele>
        <time>2026-03-29T10:02:06.293Z</time>
      </trkpt>
      <trkpt lat="43.85889" lon="3.25549">
        <ele>731.82</ele>
        <time>2026-03-29T10:02:12.149Z</time>
      </trkpt>
      <trkpt lat="43.85894" lon="3.25541">
        <ele>732.46</ele>
        <time>2026-03-29T10:02:17.162Z</time>
      </trkpt>
      <trkpt lat="43.85899" lon="3.25534">
        <ele>731.82</ele>
        <time>2026-03-29T10:02:22.838Z</time>
      </trkpt>
      <trkpt lat="43.85903" lon="3.25526">
        <ele>732.16</ele>
        <time>2026-03-29T10:02:28.134Z</time>
      </trkpt>
      <trkpt lat="43.85907" lon="3.25517">
        <ele>732.62</ele>
        <time>2026-03-29T10:02:33.476Z</time>
      </trkpt>
      <trkpt lat="43.85911" lon="3.25512">
        <ele>733.68</ele>
        <time>2026-03-29T10:02:38.773Z</time>
      </trkpt>
      <trkpt lat="43.85917" lon="3.25506">
        <ele>734.19</ele>
        <time>2026-03-29T10:02:44.080Z</time>
      </trkpt>
      <trkpt lat="43.85923" lon="3.255">
        <ele>734.12</ele>
        <time>2026-03-29T10:02:49.520Z</time>
      </trkpt>
      <trkpt lat="43.85927" lon="3.25496">
        <ele>734.07</ele>
        <time>2026-03-29T10:02:55.133Z</time>
      </trkpt>
      <trkpt lat="43.85934" lon="3.25494">
        <ele>734.74</ele>
        <time>2026-03-29T10:03:00.351Z</time>
      </trkpt>
      <trkpt lat="43.8594" lon="3.25494">
        <ele>733.99</ele>
        <time>2026-03-29T10:03:05.503Z</time>
      </trkpt>
      <trkpt lat="43.85948" lon="3.2549">
        <ele>735.67</ele>
        <time>2026-03-29T10:03:11.132Z</time>
      </trkpt>
      <trkpt lat="43.85953" lon="3.25488">
        <ele>736.44</ele>
        <time>2026-03-29T10:03:16.334Z</time>
      </trkpt>
      <trkpt lat="43.85955" lon="3.25494">
        <ele>735.75</ele>
        <time>2026-03-29T10:03:21.774Z</time>
      </trkpt>
      <trkpt lat="43.85954" lon="3.25493">
        <ele>734.69</ele>
        <time>2026-03-29T10:03:31.162Z</time>
      </trkpt>
      <trkpt lat="43.85955" lon="3.25495">
        <ele>738.49</ele>
        <time>2026-03-29T10:03:40.842Z</time>
      </trkpt>
      <trkpt lat="43.85958" lon="3.25499">
        <ele>736.05</ele>
        <time>2026-03-29T10:03:46.225Z</time>
      </trkpt>
      <trkpt lat="43.85965" lon="3.25507">
        <ele>735.75</ele>
        <time>2026-03-29T10:03:51.279Z</time>
      </trkpt>
      <trkpt lat="43.85971" lon="3.2552">
        <ele>735.12</ele>
        <time>2026-03-29T10:03:56.895Z</time>
      </trkpt>
      <trkpt lat="43.8597" lon="3.2553">
        <ele>736.32</ele>
        <time>2026-03-29T10:04:02.017Z</time>
      </trkpt>
      <trkpt lat="43.85968" lon="3.25534">
        <ele>735.88</ele>
        <time>2026-03-29T10:04:07.374Z</time>
      </trkpt>
      <trkpt lat="43.85969" lon="3.25529">
        <ele>734.55</ele>
        <time>2026-03-29T10:04:12.600Z</time>
      </trkpt>
      <trkpt lat="43.85968" lon="3.25524">
        <ele>733.9</ele>
        <time>2026-03-29T10:04:17.694Z</time>
      </trkpt>
      <trkpt lat="43.85967" lon="3.25518">
        <ele>735.24</ele>
        <time>2026-03-29T10:04:23.130Z</time>
      </trkpt>
      <trkpt lat="43.85968" lon="3.25518">
        <ele>735.99</ele>
        <time>2026-03-29T10:04:32.099Z</time>
      </trkpt>
      <trkpt lat="43.85969" lon="3.2552">
        <ele>735.26</ele>
        <time>2026-03-29T10:04:46.954Z</time>
      </trkpt>
      <trkpt lat="43.85968" lon="3.25528">
        <ele>734.72</ele>
        <time>2026-03-29T10:04:52.153Z</time>
      </trkpt>
      <trkpt lat="43.85962" lon="3.2554">
        <ele>734.97</ele>
        <time>2026-03-29T10:04:57.166Z</time>
      </trkpt>
      <trkpt lat="43.85959" lon="3.25539">
        <ele>736.27</ele>
        <time>2026-03-29T10:05:02.180Z</time>
      </trkpt>
      <trkpt lat="43.85959" lon="3.25541">
        <ele>735.86</ele>
        <time>2026-03-29T10:05:07.437Z</time>
      </trkpt>
      <trkpt lat="43.85956" lon="3.25544">
        <ele>734.36</ele>
        <time>2026-03-29T10:05:12.813Z</time>
      </trkpt>
      <trkpt lat="43.85949" lon="3.25548">
        <ele>733.42</ele>
        <time>2026-03-29T10:05:18.181Z</time>
      </trkpt>
      <trkpt lat="43.8595" lon="3.25552">
        <ele>734.13</ele>
        <time>2026-03-29T10:05:23.195Z</time>
      </trkpt>
      <trkpt lat="43.8595" lon="3.25554">
        <ele>734.05</ele>
        <time>2026-03-29T10:05:28.593Z</time>
      </trkpt>
      <trkpt lat="43.85954" lon="3.25561">
        <ele>733.69</ele>
        <time>2026-03-29T10:05:34.182Z</time>
      </trkpt>
      <trkpt lat="43.85956" lon="3.25561">
        <ele>734.39</ele>
        <time>2026-03-29T10:05:45.734Z</time>
      </trkpt>
      <trkpt lat="43.85961" lon="3.25553">
        <ele>734.02</ele>
        <time>2026-03-29T10:05:50.818Z</time>
      </trkpt>
      <trkpt lat="43.8596" lon="3.25548">
        <ele>734.35</ele>
        <time>2026-03-29T10:05:56.198Z</time>
      </trkpt>
      <trkpt lat="43.85963" lon="3.25541">
        <ele>735.24</ele>
        <time>2026-03-29T10:06:02.134Z</time>
      </trkpt>
      <trkpt lat="43.85965" lon="3.25536">
        <ele>735.96</ele>
        <time>2026-03-29T10:06:07.514Z</time>
      </trkpt>
      <trkpt lat="43.85964" lon="3.25533">
        <ele>736.88</ele>
        <time>2026-03-29T10:06:13.229Z</time>
      </trkpt>
      <trkpt lat="43.85964" lon="3.25531">
        <ele>736.65</ele>
        <time>2026-03-29T10:06:19.180Z</time>
      </trkpt>
      <trkpt lat="43.85963" lon="3.25532">
        <ele>736.77</ele>
        <time>2026-03-29T10:06:24.218Z</time>
      </trkpt>
      <trkpt lat="43.85961" lon="3.25532">
        <ele>736.76</ele>
        <time>2026-03-29T10:06:29.347Z</time>
      </trkpt>
      <trkpt lat="43.8596" lon="3.25531">
        <ele>736.07</ele>
        <time>2026-03-29T10:06:48.991Z</time>
      </trkpt>
      <trkpt lat="43.85959" lon="3.2553">
        <ele>736.52</ele>
        <time>2026-03-29T10:06:54.204Z</time>
      </trkpt>
      <trkpt lat="43.85958" lon="3.25529">
        <ele>736.27</ele>
        <time>2026-03-29T10:06:59.218Z</time>
      </trkpt>
      <trkpt lat="43.8596" lon="3.25528">
        <ele>735.35</ele>
        <time>2026-03-29T10:07:09.926Z</time>
      </trkpt>
      <trkpt lat="43.85965" lon="3.25534">
        <ele>735.84</ele>
        <time>2026-03-29T10:07:14.965Z</time>
      </trkpt>
      <trkpt lat="43.85963" lon="3.25535">
        <ele>738.68</ele>
        <time>2026-03-29T10:07:20.867Z</time>
      </trkpt>
      <trkpt lat="43.85966" lon="3.2554">
        <ele>740.28</ele>
        <time>2026-03-29T10:07:26.207Z</time>
      </trkpt>
      <trkpt lat="43.85966" lon="3.25537">
        <ele>740.44</ele>
        <time>2026-03-29T10:07:32.181Z</time>
      </trkpt>
      <trkpt lat="43.85966" lon="3.25536">
        <ele>740.32</ele>
        <time>2026-03-29T10:07:50.043Z</time>
      </trkpt>
      <trkpt lat="43.85965" lon="3.25535">
        <ele>740.2</ele>
        <time>2026-03-29T10:07:58.099Z</time>
      </trkpt>
      <trkpt lat="43.85965" lon="3.25533">
        <ele>740.36</ele>
        <time>2026-03-29T10:08:14.208Z</time>
      </trkpt>
      <trkpt lat="43.85966" lon="3.25534">
        <ele>740.52</ele>
        <time>2026-03-29T10:08:33.221Z</time>
      </trkpt>
      <trkpt lat="43.85967" lon="3.25534">
        <ele>739.87</ele>
        <time>2026-03-29T10:08:40.155Z</time>
      </trkpt>
      <trkpt lat="43.85969" lon="3.25534">
        <ele>740.17</ele>
        <time>2026-03-29T10:08:45.170Z</time>
      </trkpt>
      <trkpt lat="43.85968" lon="3.25531">
        <ele>739.56</ele>
        <time>2026-03-29T10:08:50.373Z</time>
      </trkpt>
      <trkpt lat="43.85975" lon="3.25529">
        <ele>737.64</ele>
        <time>2026-03-29T10:08:56.274Z</time>
      </trkpt>
      <trkpt lat="43.85978" lon="3.25538">
        <ele>736.42</ele>
        <time>2026-03-29T10:09:01.861Z</time>
      </trkpt>
      <trkpt lat="43.8598" lon="3.2554">
        <ele>735.63</ele>
        <time>2026-03-29T10:09:07.154Z</time>
      </trkpt>
      <trkpt lat="43.85979" lon="3.25541">
        <ele>735.19</ele>
        <time>2026-03-29T10:09:12.169Z</time>
      </trkpt>
      <trkpt lat="43.8598" lon="3.25542">
        <ele>736.17</ele>
        <time>2026-03-29T10:09:23.157Z</time>
      </trkpt>
      <trkpt lat="43.85981" lon="3.25542">
        <ele>734.64</ele>
        <time>2026-03-29T10:09:36.967Z</time>
      </trkpt>
      <trkpt lat="43.8598" lon="3.2554">
        <ele>734.71</ele>
        <time>2026-03-29T10:09:49.484Z</time>
      </trkpt>
      <trkpt lat="43.85971" lon="3.25538">
        <ele>734.56</ele>
        <time>2026-03-29T10:09:54.504Z</time>
      </trkpt>
      <trkpt lat="43.85968" lon="3.25538">
        <ele>734.35</ele>
        <time>2026-03-29T10:10:00.174Z</time>
      </trkpt>
      <trkpt lat="43.85969" lon="3.25537">
        <ele>734.42</ele>
        <time>2026-03-29T10:10:05.188Z</time>
      </trkpt>
      <trkpt lat="43.85969" lon="3.25535">
        <ele>735.08</ele>
        <time>2026-03-29T10:10:10.202Z</time>
      </trkpt>
      <trkpt lat="43.85969" lon="3.25533">
        <ele>734.45</ele>
        <time>2026-03-29T10:10:15.215Z</time>
      </trkpt>
      <trkpt lat="43.85969" lon="3.25532">
        <ele>734.59</ele>
        <time>2026-03-29T10:10:21.043Z</time>
      </trkpt>
      <trkpt lat="43.85966" lon="3.25528">
        <ele>734.68</ele>
        <time>2026-03-29T10:10:27.105Z</time>
      </trkpt>
      <trkpt lat="43.85966" lon="3.25526">
        <ele>734.9</ele>
        <time>2026-03-29T10:10:32.177Z</time>
      </trkpt>
      <trkpt lat="43.85966" lon="3.25525">
        <ele>734.73</ele>
        <time>2026-03-29T10:10:37.191Z</time>
      </trkpt>
      <trkpt lat="43.85966" lon="3.25527">
        <ele>735.72</ele>
        <time>2026-03-29T10:10:46.519Z</time>
      </trkpt>
      <trkpt lat="43.85971" lon="3.25538">
        <ele>736.22</ele>
        <time>2026-03-29T10:10:52.231Z</time>
      </trkpt>
      <trkpt lat="43.85971" lon="3.25536">
        <ele>734.7</ele>
        <time>2026-03-29T10:11:04.948Z</time>
      </trkpt>
      <trkpt lat="43.8597" lon="3.25535">
        <ele>735.93</ele>
        <time>2026-03-29T10:11:19.259Z</time>
      </trkpt>
      <trkpt lat="43.85968" lon="3.25537">
        <ele>741.17</ele>
        <time>2026-03-29T10:11:24.280Z</time>
      </trkpt>
      <trkpt lat="43.85969" lon="3.25535">
        <ele>740.58</ele>
        <time>2026-03-29T10:11:29.280Z</time>
      </trkpt>
      <trkpt lat="43.85969" lon="3.25536">
        <ele>740.48</ele>
        <time>2026-03-29T10:11:42.279Z</time>
      </trkpt>
      <trkpt lat="43.85969" lon="3.25537">
        <ele>738.82</ele>
        <time>2026-03-29T10:12:17.685Z</time>
      </trkpt>
      <trkpt lat="43.8597" lon="3.25537">
        <ele>735.69</ele>
        <time>2026-03-29T10:12:30.593Z</time>
      </trkpt>
      <trkpt lat="43.85979" lon="3.25542">
        <ele>735.02</ele>
        <time>2026-03-29T10:12:36.084Z</time>
      </trkpt>
      <trkpt lat="43.85981" lon="3.2554">
        <ele>735.02</ele>
        <time>2026-03-29T10:12:41.175Z</time>
      </trkpt>
      <trkpt lat="43.85981" lon="3.25543">
        <ele>735.02</ele>
        <time>2026-03-29T10:12:46.189Z</time>
      </trkpt>
      <trkpt lat="43.8598" lon="3.25543">
        <ele>733.97</ele>
        <time>2026-03-29T10:12:57.177Z</time>
      </trkpt>
      <trkpt lat="43.8598" lon="3.25544">
        <ele>733.69</ele>
        <time>2026-03-29T10:13:11.151Z</time>
      </trkpt>
      <trkpt lat="43.8598" lon="3.25544">
        <ele>733.07</ele>
        <time>2026-03-29T10:14:03.208Z</time>
      </trkpt>
      <trkpt lat="43.85981" lon="3.25543">
        <ele>734.17</ele>
        <time>2026-03-29T10:14:13.237Z</time>
      </trkpt>
      <trkpt lat="43.85982" lon="3.25542">
        <ele>734.98</ele>
        <time>2026-03-29T10:14:18.251Z</time>
      </trkpt>
      <trkpt lat="43.85983" lon="3.25542">
        <ele>732.69</ele>
        <time>2026-03-29T10:14:26.252Z</time>
      </trkpt>
      <trkpt lat="43.85984" lon="3.25541">
        <ele>733.19</ele>
        <time>2026-03-29T10:14:40.119Z</time>
      </trkpt>
      <trkpt lat="43.85984" lon="3.2554">
        <ele>734.16</ele>
        <time>2026-03-29T10:14:45.120Z</time>
      </trkpt>
      <trkpt lat="43.85985" lon="3.2554">
        <ele>735.8</ele>
        <time>2026-03-29T10:14:51.214Z</time>
      </trkpt>
      <trkpt lat="43.85986" lon="3.25539">
        <ele>737.85</ele>
        <time>2026-03-29T10:14:58.981Z</time>
      </trkpt>
      <trkpt lat="43.85987" lon="3.25538">
        <ele>735.19</ele>
        <time>2026-03-29T10:15:10.204Z</time>
      </trkpt>
      <trkpt lat="43.85986" lon="3.25537">
        <ele>740.56</ele>
        <time>2026-03-29T10:15:27.280Z</time>
      </trkpt>
      <trkpt lat="43.85985" lon="3.25537">
        <ele>733.93</ele>
        <time>2026-03-29T10:15:44.156Z</time>
      </trkpt>
      <trkpt lat="43.85981" lon="3.2554">
        <ele>733.96</ele>
        <time>2026-03-29T10:15:49.286Z</time>
      </trkpt>
      <trkpt lat="43.85978" lon="3.2555">
        <ele>734.06</ele>
        <time>2026-03-29T10:15:55.155Z</time>
      </trkpt>
      <trkpt lat="43.85979" lon="3.25564">
        <ele>734.16</ele>
        <time>2026-03-29T10:16:00.169Z</time>
      </trkpt>
      <trkpt lat="43.85977" lon="3.2557">
        <ele>734.75</ele>
        <time>2026-03-29T10:16:05.184Z</time>
      </trkpt>
      <trkpt lat="43.85978" lon="3.25563">
        <ele>736.87</ele>
        <time>2026-03-29T10:16:10.199Z</time>
      </trkpt>
      <trkpt lat="43.85981" lon="3.25557">
        <ele>736.56</ele>
        <time>2026-03-29T10:16:16.192Z</time>
      </trkpt>
      <trkpt lat="43.85981" lon="3.25554">
        <ele>735.78</ele>
        <time>2026-03-29T10:16:21.206Z</time>
      </trkpt>
      <trkpt lat="43.85982" lon="3.25552">
        <ele>735.8</ele>
        <time>2026-03-29T10:16:27.187Z</time>
      </trkpt>
      <trkpt lat="43.85981" lon="3.25551">
        <ele>735.38</ele>
        <time>2026-03-29T10:16:35.189Z</time>
      </trkpt>
      <trkpt lat="43.85981" lon="3.2555">
        <ele>735.88</ele>
        <time>2026-03-29T10:16:41.165Z</time>
      </trkpt>
      <trkpt lat="43.85981" lon="3.25548">
        <ele>735.21</ele>
        <time>2026-03-29T10:16:46.179Z</time>
      </trkpt>
      <trkpt lat="43.85981" lon="3.25546">
        <ele>735.34</ele>
        <time>2026-03-29T10:16:51.724Z</time>
      </trkpt>
      <trkpt lat="43.85982" lon="3.25545">
        <ele>735.05</ele>
        <time>2026-03-29T10:16:59.197Z</time>
      </trkpt>
      <trkpt lat="43.85982" lon="3.25544">
        <ele>734.37</ele>
        <time>2026-03-29T10:17:28.114Z</time>
      </trkpt>
      <trkpt lat="43.85982" lon="3.25542">
        <ele>734.47</ele>
        <time>2026-03-29T10:18:07.172Z</time>
      </trkpt>
      <trkpt lat="43.85982" lon="3.25541">
        <ele>735.46</ele>
        <time>2026-03-29T10:18:44.109Z</time>
      </trkpt>
      <trkpt lat="43.85982" lon="3.2554">
        <ele>735.64</ele>
        <time>2026-03-29T10:18:55.215Z</time>
      </trkpt>
      <trkpt lat="43.85981" lon="3.25539">
        <ele>736.01</ele>
        <time>2026-03-29T10:19:02.259Z</time>
      </trkpt>
      <trkpt lat="43.85981" lon="3.25538">
        <ele>736.59</ele>
        <time>2026-03-29T10:19:29.186Z</time>
      </trkpt>
      <trkpt lat="43.85982" lon="3.25537">
        <ele>737.36</ele>
        <time>2026-03-29T10:19:39.217Z</time>
      </trkpt>
      <trkpt lat="43.85983" lon="3.25537">
        <ele>736.35</ele>
        <time>2026-03-29T10:19:45.192Z</time>
      </trkpt>
      <trkpt lat="43.85984" lon="3.25537">
        <ele>736.88</ele>
        <time>2026-03-29T10:19:55.117Z</time>
      </trkpt>
      <trkpt lat="43.85984" lon="3.25538">
        <ele>738.05</ele>
        <time>2026-03-29T10:20:05.149Z</time>
      </trkpt>
      <trkpt lat="43.85984" lon="3.25537">
        <ele>738.34</ele>
        <time>2026-03-29T10:20:58.189Z</time>
      </trkpt>
      <trkpt lat="43.85983" lon="3.25536">
        <ele>737.59</ele>
        <time>2026-03-29T10:21:25.190Z</time>
      </trkpt>
      <trkpt lat="43.85984" lon="3.25537">
        <ele>737.56</ele>
        <time>2026-03-29T10:22:01.156Z</time>
      </trkpt>
      <trkpt lat="43.85984" lon="3.25538">
        <ele>736.55</ele>
        <time>2026-03-29T10:22:33.171Z</time>
      </trkpt>
      <trkpt lat="43.85983" lon="3.25539">
        <ele>736.53</ele>
        <time>2026-03-29T10:24:03.242Z</time>
      </trkpt>
      <trkpt lat="43.85984" lon="3.2554">
        <ele>736.94</ele>
        <time>2026-03-29T10:24:32.280Z</time>
      </trkpt>
      <trkpt lat="43.85984" lon="3.25538">
        <ele>735.35</ele>
        <time>2026-03-29T10:25:41.209Z</time>
      </trkpt>
      <trkpt lat="43.85983" lon="3.25539">
        <ele>736.08</ele>
        <time>2026-03-29T10:26:17.175Z</time>
      </trkpt>
      <trkpt lat="43.85983" lon="3.25541">
        <ele>736.32</ele>
        <time>2026-03-29T10:26:30.195Z</time>
      </trkpt>
      <trkpt lat="43.85983" lon="3.25542">
        <ele>735.94</ele>
        <time>2026-03-29T10:27:30.173Z</time>
      </trkpt>
      <trkpt lat="43.85983" lon="3.2554">
        <ele>735.83</ele>
        <time>2026-03-29T10:28:32.178Z</time>
      </trkpt>
      <trkpt lat="43.85984" lon="3.2554">
        <ele>737.23</ele>
        <time>2026-03-29T10:30:11.215Z</time>
      </trkpt>
      <trkpt lat="43.85985" lon="3.25539">
        <ele>737.09</ele>
        <time>2026-03-29T10:31:00.198Z</time>
      </trkpt>
      <trkpt lat="43.85985" lon="3.25538">
        <ele>736.59</ele>
        <time>2026-03-29T10:31:18.233Z</time>
      </trkpt>
      <trkpt lat="43.85984" lon="3.25539">
        <ele>737.46</ele>
        <time>2026-03-29T10:32:12.232Z</time>
      </trkpt>
      <trkpt lat="43.85984" lon="3.2554">
        <ele>738.07</ele>
        <time>2026-03-29T10:32:23.223Z</time>
      </trkpt>
      <trkpt lat="43.85984" lon="3.25541">
        <ele>737.19</ele>
        <time>2026-03-29T10:33:27.144Z</time>
      </trkpt>
      <trkpt lat="43.85985" lon="3.25542">
        <ele>739.93</ele>
        <time>2026-03-29T10:33:53.290Z</time>
      </trkpt>
      <trkpt lat="43.85985" lon="3.25543">
        <ele>735.76</ele>
        <time>2026-03-29T10:34:15.272Z</time>
      </trkpt>
      <trkpt lat="43.85985" lon="3.25545">
        <ele>735.45</ele>
        <time>2026-03-29T10:34:38.215Z</time>
      </trkpt>
      <trkpt lat="43.85986" lon="3.25544">
        <ele>737.2</ele>
        <time>2026-03-29T10:34:44.191Z</time>
      </trkpt>
      <trkpt lat="43.85987" lon="3.25544">
        <ele>737.72</ele>
        <time>2026-03-29T10:34:50.167Z</time>
      </trkpt>
      <trkpt lat="43.85987" lon="3.25542">
        <ele>739.43</ele>
        <time>2026-03-29T10:34:58.276Z</time>
      </trkpt>
      <trkpt lat="43.85986" lon="3.25542">
        <ele>739.27</ele>
        <time>2026-03-29T10:35:06.853Z</time>
      </trkpt>
      <trkpt lat="43.85984" lon="3.2554">
        <ele>737.23</ele>
        <time>2026-03-29T10:35:13.217Z</time>
      </trkpt>
      <trkpt lat="43.85982" lon="3.2554">
        <ele>735.52</ele>
        <time>2026-03-29T10:35:18.231Z</time>
      </trkpt>
      <trkpt lat="43.85982" lon="3.25539">
        <ele>735.33</ele>
        <time>2026-03-29T10:35:26.836Z</time>
      </trkpt>
      <trkpt lat="43.85982" lon="3.2554">
        <ele>737.25</ele>
        <time>2026-03-29T10:36:21.191Z</time>
      </trkpt>
      <trkpt lat="43.85982" lon="3.25539">
        <ele>736.72</ele>
        <time>2026-03-29T10:37:41.224Z</time>
      </trkpt>
      <trkpt lat="43.85983" lon="3.25539">
        <ele>737.11</ele>
        <time>2026-03-29T10:37:50.188Z</time>
      </trkpt>
      <trkpt lat="43.85982" lon="3.25539">
        <ele>735.4</ele>
        <time>2026-03-29T10:38:26.280Z</time>
      </trkpt>
      <trkpt lat="43.85981" lon="3.25539">
        <ele>736.11</ele>
        <time>2026-03-29T10:38:31.280Z</time>
      </trkpt>
      <trkpt lat="43.8598" lon="3.2554">
        <ele>738.05</ele>
        <time>2026-03-29T10:38:36.287Z</time>
      </trkpt>
      <trkpt lat="43.8598" lon="3.25542">
        <ele>737.14</ele>
        <time>2026-03-29T10:38:42.261Z</time>
      </trkpt>
      <trkpt lat="43.8598" lon="3.25543">
        <ele>735.85</ele>
        <time>2026-03-29T10:38:54.279Z</time>
      </trkpt>
      <trkpt lat="43.85981" lon="3.25542">
        <ele>735.65</ele>
        <time>2026-03-29T10:39:09.260Z</time>
      </trkpt>
      <trkpt lat="43.85981" lon="3.25541">
        <ele>735.62</ele>
        <time>2026-03-29T10:39:18.224Z</time>
      </trkpt>
      <trkpt lat="43.85982" lon="3.2554">
        <ele>735.82</ele>
        <time>2026-03-29T10:39:31.242Z</time>
      </trkpt>
      <trkpt lat="43.85983" lon="3.25539">
        <ele>736.87</ele>
        <time>2026-03-29T10:40:02.187Z</time>
      </trkpt>
      <trkpt lat="43.85984" lon="3.25539">
        <ele>735.84</ele>
        <time>2026-03-29T10:40:15.206Z</time>
      </trkpt>
      <trkpt lat="43.85983" lon="3.25538">
        <ele>735.75</ele>
        <time>2026-03-29T10:40:48.180Z</time>
      </trkpt>
      <trkpt lat="43.85982" lon="3.25538">
        <ele>735.16</ele>
        <time>2026-03-29T10:40:57.280Z</time>
      </trkpt>
      <trkpt lat="43.85981" lon="3.25538">
        <ele>737.79</ele>
        <time>2026-03-29T10:41:06.213Z</time>
      </trkpt>
      <trkpt lat="43.85982" lon="3.25539">
        <ele>734.83</ele>
        <time>2026-03-29T10:41:39.187Z</time>
      </trkpt>
      <trkpt lat="43.85983" lon="3.25539">
        <ele>734.91</ele>
        <time>2026-03-29T10:41:50.284Z</time>
      </trkpt>
      <trkpt lat="43.85984" lon="3.25539">
        <ele>734.59</ele>
        <time>2026-03-29T10:42:03.196Z</time>
      </trkpt>
      <trkpt lat="43.85983" lon="3.2554">
        <ele>734.25</ele>
        <time>2026-03-29T10:42:11.280Z</time>
      </trkpt>
      <trkpt lat="43.85983" lon="3.25542">
        <ele>734.24</ele>
        <time>2026-03-29T10:42:21.280Z</time>
      </trkpt>
      <trkpt lat="43.85984" lon="3.25542">
        <ele>733.61</ele>
        <time>2026-03-29T10:42:50.255Z</time>
      </trkpt>
      <trkpt lat="43.85984" lon="3.25541">
        <ele>733.03</ele>
        <time>2026-03-29T10:42:58.151Z</time>
      </trkpt>
      <trkpt lat="43.85985" lon="3.2554">
        <ele>735.13</ele>
        <time>2026-03-29T10:43:10.316Z</time>
      </trkpt>
      <trkpt lat="43.85986" lon="3.2554">
        <ele>734.78</ele>
        <time>2026-03-29T10:43:27.283Z</time>
      </trkpt>
      <trkpt lat="43.85987" lon="3.25539">
        <ele>735.02</ele>
        <time>2026-03-29T10:43:44.249Z</time>
      </trkpt>
      <trkpt lat="43.85986" lon="3.25538">
        <ele>734.54</ele>
        <time>2026-03-29T10:44:24.265Z</time>
      </trkpt>
      <trkpt lat="43.85986" lon="3.25537">
        <ele>735.45</ele>
        <time>2026-03-29T10:44:34.188Z</time>
      </trkpt>
      <trkpt lat="43.85985" lon="3.25536">
        <ele>734.93</ele>
        <time>2026-03-29T10:44:45.286Z</time>
      </trkpt>
      <trkpt lat="43.85985" lon="3.25536">
        <ele>734.71</ele>
        <time>2026-03-29T10:44:56.279Z</time>
      </trkpt>
      <trkpt lat="43.85984" lon="3.25536">
        <ele>734.29</ele>
        <time>2026-03-29T10:45:02.254Z</time>
      </trkpt>
      <trkpt lat="43.85983" lon="3.25537">
        <ele>734.58</ele>
        <time>2026-03-29T10:45:10.279Z</time>
      </trkpt>
      <trkpt lat="43.85984" lon="3.25538">
        <ele>730.36</ele>
        <time>2026-03-29T10:45:17.300Z</time>
      </trkpt>
      <trkpt lat="43.85984" lon="3.25539">
        <ele>737.17</ele>
        <time>2026-03-29T10:45:44.190Z</time>
      </trkpt>
      <trkpt lat="43.85984" lon="3.2554">
        <ele>736.73</ele>
        <time>2026-03-29T10:46:13.135Z</time>
      </trkpt>
      <trkpt lat="43.85983" lon="3.25541">
        <ele>736.05</ele>
        <time>2026-03-29T10:46:30.135Z</time>
      </trkpt>
      <trkpt lat="43.85982" lon="3.25542">
        <ele>733.71</ele>
        <time>2026-03-29T10:46:49.135Z</time>
      </trkpt>
      <trkpt lat="43.85982" lon="3.2554">
        <ele>734.54</ele>
        <time>2026-03-29T10:47:59.137Z</time>
      </trkpt>
      <trkpt lat="43.85982" lon="3.25538">
        <ele>738.76</ele>
        <time>2026-03-29T10:48:04.137Z</time>
      </trkpt>
      <trkpt lat="43.85982" lon="3.25539">
        <ele>735.93</ele>
        <time>2026-03-29T10:48:20.137Z</time>
      </trkpt>
      <trkpt lat="43.85983" lon="3.2554">
        <ele>734.43</ele>
        <time>2026-03-29T10:48:25.138Z</time>
      </trkpt>
      <trkpt lat="43.85984" lon="3.25541">
        <ele>733.19</ele>
        <time>2026-03-29T10:48:54.279Z</time>
      </trkpt>
      <trkpt lat="43.85985" lon="3.2554">
        <ele>734.34</ele>
        <time>2026-03-29T10:49:12.280Z</time>
      </trkpt>
      <trkpt lat="43.85985" lon="3.25539">
        <ele>731.99</ele>
        <time>2026-03-29T10:49:42.250Z</time>
      </trkpt>
      <trkpt lat="43.85986" lon="3.25539">
        <ele>731.91</ele>
        <time>2026-03-29T10:50:02.280Z</time>
      </trkpt>
      <trkpt lat="43.85985" lon="3.25539">
        <ele>731.32</ele>
        <time>2026-03-29T10:50:37.204Z</time>
      </trkpt>
      <trkpt lat="43.85985" lon="3.2554">
        <ele>731.68</ele>
        <time>2026-03-29T10:51:10.283Z</time>
      </trkpt>
      <trkpt lat="43.85985" lon="3.25539">
        <ele>732.05</ele>
        <time>2026-03-29T10:51:35.068Z</time>
      </trkpt>
      <trkpt lat="43.85985" lon="3.25523">
        <ele>733.95</ele>
        <time>2026-03-29T10:51:40.292Z</time>
      </trkpt>
      <trkpt lat="43.85992" lon="3.25519">
        <ele>733.76</ele>
        <time>2026-03-29T10:51:45.411Z</time>
      </trkpt>
      <trkpt lat="43.85999" lon="3.25524">
        <ele>732.49</ele>
        <time>2026-03-29T10:51:50.570Z</time>
      </trkpt>
      <trkpt lat="43.86003" lon="3.25532">
        <ele>733.29</ele>
        <time>2026-03-29T10:51:55.974Z</time>
      </trkpt>
      <trkpt lat="43.86007" lon="3.25537">
        <ele>732.99</ele>
        <time>2026-03-29T10:52:01.015Z</time>
      </trkpt>
      <trkpt lat="43.86004" lon="3.25544">
        <ele>732.36</ele>
        <time>2026-03-29T10:52:06.303Z</time>
      </trkpt>
      <trkpt lat="43.86003" lon="3.25545">
        <ele>729.31</ele>
        <time>2026-03-29T10:53:09.280Z</time>
      </trkpt>
      <trkpt lat="43.86004" lon="3.25543">
        <ele>730.62</ele>
        <time>2026-03-29T10:53:22.280Z</time>
      </trkpt>
      <trkpt lat="43.86005" lon="3.25542">
        <ele>730.26</ele>
        <time>2026-03-29T10:53:27.735Z</time>
      </trkpt>
      <trkpt lat="43.86003" lon="3.25537">
        <ele>730.21</ele>
        <time>2026-03-29T10:53:33.114Z</time>
      </trkpt>
      <trkpt lat="43.85998" lon="3.2553">
        <ele>730.39</ele>
        <time>2026-03-29T10:53:39.055Z</time>
      </trkpt>
      <trkpt lat="43.85996" lon="3.25527">
        <ele>730.75</ele>
        <time>2026-03-29T10:53:44.280Z</time>
      </trkpt>
      <trkpt lat="43.85995" lon="3.25529">
        <ele>731.76</ele>
        <time>2026-03-29T10:53:53.215Z</time>
      </trkpt>
      <trkpt lat="43.85991" lon="3.25534">
        <ele>736.33</ele>
        <time>2026-03-29T10:53:58.280Z</time>
      </trkpt>
      <trkpt lat="43.85988" lon="3.25539">
        <ele>735.26</ele>
        <time>2026-03-29T10:54:04.311Z</time>
      </trkpt>
      <trkpt lat="43.85987" lon="3.25539">
        <ele>733.74</ele>
        <time>2026-03-29T10:54:10.912Z</time>
      </trkpt>
      <trkpt lat="43.85986" lon="3.25539">
        <ele>730.41</ele>
        <time>2026-03-29T10:54:22.280Z</time>
      </trkpt>
      <trkpt lat="43.85985" lon="3.25539">
        <ele>728.9</ele>
        <time>2026-03-29T10:54:33.226Z</time>
      </trkpt>
      <trkpt lat="43.85984" lon="3.25539">
        <ele>729.52</ele>
        <time>2026-03-29T10:56:17.256Z</time>
      </trkpt>
      <trkpt lat="43.85985" lon="3.25541">
        <ele>730.73</ele>
        <time>2026-03-29T10:57:05.830Z</time>
      </trkpt>
      <trkpt lat="43.85991" lon="3.25547">
        <ele>731.53</ele>
        <time>2026-03-29T10:57:11.279Z</time>
      </trkpt>
      <trkpt lat="43.85992" lon="3.25548">
        <ele>732.43</ele>
        <time>2026-03-29T10:57:18.183Z</time>
      </trkpt>
      <trkpt lat="43.85993" lon="3.25549">
        <ele>732.55</ele>
        <time>2026-03-29T10:57:23.198Z</time>
      </trkpt>
      <trkpt lat="43.85992" lon="3.25549">
        <ele>732.17</ele>
        <time>2026-03-29T10:57:32.267Z</time>
      </trkpt>
      <trkpt lat="43.85987" lon="3.25548">
        <ele>731.34</ele>
        <time>2026-03-29T10:57:38.243Z</time>
      </trkpt>
      <trkpt lat="43.85984" lon="3.25548">
        <ele>732.42</ele>
        <time>2026-03-29T10:57:43.258Z</time>
      </trkpt>
      <trkpt lat="43.85984" lon="3.25553">
        <ele>733.03</ele>
        <time>2026-03-29T10:57:49.280Z</time>
      </trkpt>
      <trkpt lat="43.85986" lon="3.25559">
        <ele>733.28</ele>
        <time>2026-03-29T10:57:55.231Z</time>
      </trkpt>
      <trkpt lat="43.85987" lon="3.25557">
        <ele>733.46</ele>
        <time>2026-03-29T10:58:01.216Z</time>
      </trkpt>
      <trkpt lat="43.85988" lon="3.25556">
        <ele>733.17</ele>
        <time>2026-03-29T10:58:08.258Z</time>
      </trkpt>
      <trkpt lat="43.85988" lon="3.25552">
        <ele>731.09</ele>
        <time>2026-03-29T10:58:13.348Z</time>
      </trkpt>
      <trkpt lat="43.85986" lon="3.25546">
        <ele>732.95</ele>
        <time>2026-03-29T10:58:19.250Z</time>
      </trkpt>
      <trkpt lat="43.85988" lon="3.25543">
        <ele>734.39</ele>
        <time>2026-03-29T10:58:25.226Z</time>
      </trkpt>
      <trkpt lat="43.85987" lon="3.25542">
        <ele>732.75</ele>
        <time>2026-03-29T10:58:31.211Z</time>
      </trkpt>
      <trkpt lat="43.85982" lon="3.2554">
        <ele>732.49</ele>
        <time>2026-03-29T10:58:36.227Z</time>
      </trkpt>
      <trkpt lat="43.85978" lon="3.25541">
        <ele>732.51</ele>
        <time>2026-03-29T10:58:41.279Z</time>
      </trkpt>
      <trkpt lat="43.85979" lon="3.25541">
        <ele>731.76</ele>
        <time>2026-03-29T10:58:47.325Z</time>
      </trkpt>
      <trkpt lat="43.85981" lon="3.25545">
        <ele>731.02</ele>
        <time>2026-03-29T10:58:52.341Z</time>
      </trkpt>
      <trkpt lat="43.85985" lon="3.2555">
        <ele>731.56</ele>
        <time>2026-03-29T10:58:58.317Z</time>
      </trkpt>
      <trkpt lat="43.85986" lon="3.25556">
        <ele>730.38</ele>
        <time>2026-03-29T10:59:03.332Z</time>
      </trkpt>
      <trkpt lat="43.85983" lon="3.25554">
        <ele>730.87</ele>
        <time>2026-03-29T10:59:08.348Z</time>
      </trkpt>
      <trkpt lat="43.85984" lon="3.25576">
        <ele>731.99</ele>
        <time>2026-03-29T10:59:14.280Z</time>
      </trkpt>
      <trkpt lat="43.85989" lon="3.25575">
        <ele>731.79</ele>
        <time>2026-03-29T10:59:19.337Z</time>
      </trkpt>
      <trkpt lat="43.8599" lon="3.25574">
        <ele>731.76</ele>
        <time>2026-03-29T10:59:25.313Z</time>
      </trkpt>
      <trkpt lat="43.85989" lon="3.25571">
        <ele>731.85</ele>
        <time>2026-03-29T10:59:31.290Z</time>
      </trkpt>
      <trkpt lat="43.85988" lon="3.25562">
        <ele>731</ele>
        <time>2026-03-29T10:59:36.305Z</time>
      </trkpt>
      <trkpt lat="43.85987" lon="3.25557">
        <ele>730.43</ele>
        <time>2026-03-29T10:59:41.320Z</time>
      </trkpt>
      <trkpt lat="43.85986" lon="3.25553">
        <ele>730.69</ele>
        <time>2026-03-29T10:59:47.295Z</time>
      </trkpt>
      <trkpt lat="43.85986" lon="3.25552">
        <ele>731.41</ele>
        <time>2026-03-29T10:59:56.280Z</time>
      </trkpt>
      <trkpt lat="43.85986" lon="3.25551">
        <ele>730.64</ele>
        <time>2026-03-29T11:00:01.280Z</time>
      </trkpt>
      <trkpt lat="43.85985" lon="3.2555">
        <ele>730.08</ele>
        <time>2026-03-29T11:00:06.288Z</time>
      </trkpt>
      <trkpt lat="43.85985" lon="3.25548">
        <ele>731.67</ele>
        <time>2026-03-29T11:00:13.331Z</time>
      </trkpt>
      <trkpt lat="43.85985" lon="3.25547">
        <ele>729.95</ele>
        <time>2026-03-29T11:00:38.284Z</time>
      </trkpt>
      <trkpt lat="43.85984" lon="3.25546">
        <ele>731.52</ele>
        <time>2026-03-29T11:00:47.280Z</time>
      </trkpt>
      <trkpt lat="43.85983" lon="3.25545">
        <ele>731.51</ele>
        <time>2026-03-29T11:00:55.280Z</time>
      </trkpt>
      <trkpt lat="43.85982" lon="3.25545">
        <ele>730.9</ele>
        <time>2026-03-29T11:01:20.280Z</time>
      </trkpt>
      <trkpt lat="43.85981" lon="3.25544">
        <ele>730.12</ele>
        <time>2026-03-29T11:01:28.070Z</time>
      </trkpt>
      <trkpt lat="43.85974" lon="3.25542">
        <ele>733.37</ele>
        <time>2026-03-29T11:01:33.149Z</time>
      </trkpt>
      <trkpt lat="43.85971" lon="3.2554">
        <ele>733.89</ele>
        <time>2026-03-29T11:01:38.280Z</time>
      </trkpt>
      <trkpt lat="43.85968" lon="3.25538">
        <ele>739.69</ele>
        <time>2026-03-29T11:01:43.281Z</time>
      </trkpt>
      <trkpt lat="43.85967" lon="3.25539">
        <ele>736.62</ele>
        <time>2026-03-29T11:02:06.280Z</time>
      </trkpt>
      <trkpt lat="43.85966" lon="3.25538">
        <ele>737.54</ele>
        <time>2026-03-29T11:02:11.280Z</time>
      </trkpt>
      <trkpt lat="43.85966" lon="3.25539">
        <ele>736.32</ele>
        <time>2026-03-29T11:02:24.280Z</time>
      </trkpt>
      <trkpt lat="43.85966" lon="3.25541">
        <ele>735.08</ele>
        <time>2026-03-29T11:02:35.280Z</time>
      </trkpt>
      <trkpt lat="43.85967" lon="3.25541">
        <ele>735.18</ele>
        <time>2026-03-29T11:02:52.315Z</time>
      </trkpt>
      <trkpt lat="43.85967" lon="3.25542">
        <ele>734.87</ele>
        <time>2026-03-29T11:02:59.279Z</time>
      </trkpt>
      <trkpt lat="43.85966" lon="3.25544">
        <ele>735.06</ele>
        <time>2026-03-29T11:03:20.280Z</time>
      </trkpt>
      <trkpt lat="43.85965" lon="3.25546">
        <ele>734.74</ele>
        <time>2026-03-29T11:03:25.284Z</time>
      </trkpt>
      <trkpt lat="43.85964" lon="3.25547">
        <ele>733.43</ele>
        <time>2026-03-29T11:03:30.299Z</time>
      </trkpt>
      <trkpt lat="43.85962" lon="3.25546">
        <ele>733.95</ele>
        <time>2026-03-29T11:03:35.788Z</time>
      </trkpt>
      <trkpt lat="43.85961" lon="3.25545">
        <ele>734.55</ele>
        <time>2026-03-29T11:03:40.910Z</time>
      </trkpt>
      <trkpt lat="43.85959" lon="3.25545">
        <ele>739.24</ele>
        <time>2026-03-29T11:03:51.318Z</time>
      </trkpt>
      <trkpt lat="43.85959" lon="3.25541">
        <ele>735.4</ele>
        <time>2026-03-29T11:03:56.569Z</time>
      </trkpt>
      <trkpt lat="43.85961" lon="3.25538">
        <ele>733.14</ele>
        <time>2026-03-29T11:04:02.166Z</time>
      </trkpt>
      <trkpt lat="43.85961" lon="3.25536">
        <ele>734.75</ele>
        <time>2026-03-29T11:04:07.220Z</time>
      </trkpt>
      <trkpt lat="43.8596" lon="3.25534">
        <ele>735.34</ele>
        <time>2026-03-29T11:04:15.222Z</time>
      </trkpt>
      <trkpt lat="43.8596" lon="3.25533">
        <ele>732.79</ele>
        <time>2026-03-29T11:04:24.184Z</time>
      </trkpt>
      <trkpt lat="43.85961" lon="3.25532">
        <ele>734.16</ele>
        <time>2026-03-29T11:04:31.280Z</time>
      </trkpt>
      <trkpt lat="43.85961" lon="3.25531">
        <ele>734.6</ele>
        <time>2026-03-29T11:04:41.010Z</time>
      </trkpt>
      <trkpt lat="43.8596" lon="3.25529">
        <ele>733.67</ele>
        <time>2026-03-29T11:04:46.167Z</time>
      </trkpt>
      <trkpt lat="43.85962" lon="3.25525">
        <ele>731.62</ele>
        <time>2026-03-29T11:04:51.287Z</time>
      </trkpt>
      <trkpt lat="43.85962" lon="3.25523">
        <ele>731.85</ele>
        <time>2026-03-29T11:04:56.801Z</time>
      </trkpt>
      <trkpt lat="43.85963" lon="3.25523">
        <ele>732.41</ele>
        <time>2026-03-29T11:05:02.278Z</time>
      </trkpt>
      <trkpt lat="43.85964" lon="3.25523">
        <ele>733</ele>
        <time>2026-03-29T11:05:08.252Z</time>
      </trkpt>
      <trkpt lat="43.85967" lon="3.25527">
        <ele>733.11</ele>
        <time>2026-03-29T11:05:13.542Z</time>
      </trkpt>
      <trkpt lat="43.85967" lon="3.2553">
        <ele>732.04</ele>
        <time>2026-03-29T11:05:19.280Z</time>
      </trkpt>
      <trkpt lat="43.85967" lon="3.25532">
        <ele>730.54</ele>
        <time>2026-03-29T11:05:26.160Z</time>
      </trkpt>
      <trkpt lat="43.85971" lon="3.25534">
        <ele>731.64</ele>
        <time>2026-03-29T11:05:31.279Z</time>
      </trkpt>
      <trkpt lat="43.85969" lon="3.25532">
        <ele>732.46</ele>
        <time>2026-03-29T11:05:36.319Z</time>
      </trkpt>
      <trkpt lat="43.85968" lon="3.25534">
        <ele>732.1</ele>
        <time>2026-03-29T11:05:42.296Z</time>
      </trkpt>
      <trkpt lat="43.8597" lon="3.25538">
        <ele>730.03</ele>
        <time>2026-03-29T11:05:47.310Z</time>
      </trkpt>
      <trkpt lat="43.85971" lon="3.2554">
        <ele>729.91</ele>
        <time>2026-03-29T11:05:52.325Z</time>
      </trkpt>
      <trkpt lat="43.85973" lon="3.25542">
        <ele>729.74</ele>
        <time>2026-03-29T11:05:58.300Z</time>
      </trkpt>
      <trkpt lat="43.85972" lon="3.25543">
        <ele>731.07</ele>
        <time>2026-03-29T11:06:03.315Z</time>
      </trkpt>
      <trkpt lat="43.85971" lon="3.25541">
        <ele>730.88</ele>
        <time>2026-03-29T11:06:11.317Z</time>
      </trkpt>
      <trkpt lat="43.85972" lon="3.25541">
        <ele>729.88</ele>
        <time>2026-03-29T11:06:35.279Z</time>
      </trkpt>
      <trkpt lat="43.85973" lon="3.25541">
        <ele>730.02</ele>
        <time>2026-03-29T11:06:44.285Z</time>
      </trkpt>
      <trkpt lat="43.85974" lon="3.25539">
        <ele>729.54</ele>
        <time>2026-03-29T11:06:56.341Z</time>
      </trkpt>
      <trkpt lat="43.85974" lon="3.25538">
        <ele>731.09</ele>
        <time>2026-03-29T11:07:02.316Z</time>
      </trkpt>
      <trkpt lat="43.85974" lon="3.25537">
        <ele>730.83</ele>
        <time>2026-03-29T11:07:08.291Z</time>
      </trkpt>
      <trkpt lat="43.85973" lon="3.25535">
        <ele>731.22</ele>
        <time>2026-03-29T11:07:15.332Z</time>
      </trkpt>
      <trkpt lat="43.85973" lon="3.25534">
        <ele>729.69</ele>
        <time>2026-03-29T11:07:26.280Z</time>
      </trkpt>
      <trkpt lat="43.85972" lon="3.25533">
        <ele>730.96</ele>
        <time>2026-03-29T11:07:39.280Z</time>
      </trkpt>
      <trkpt lat="43.85972" lon="3.25532">
        <ele>730.71</ele>
        <time>2026-03-29T11:07:45.312Z</time>
      </trkpt>
      <trkpt lat="43.85972" lon="3.25531">
        <ele>730.07</ele>
        <time>2026-03-29T11:07:58.329Z</time>
      </trkpt>
      <trkpt lat="43.8597" lon="3.25529">
        <ele>730.44</ele>
        <time>2026-03-29T11:08:03.547Z</time>
      </trkpt>
      <trkpt lat="43.85969" lon="3.2552">
        <ele>732.31</ele>
        <time>2026-03-29T11:08:08.637Z</time>
      </trkpt>
      <trkpt lat="43.85966" lon="3.25509">
        <ele>732.5</ele>
        <time>2026-03-29T11:08:13.901Z</time>
      </trkpt>
      <trkpt lat="43.85962" lon="3.25503">
        <ele>731.43</ele>
        <time>2026-03-29T11:08:19.280Z</time>
      </trkpt>
      <trkpt lat="43.85958" lon="3.25497">
        <ele>731.84</ele>
        <time>2026-03-29T11:08:24.283Z</time>
      </trkpt>
      <trkpt lat="43.85957" lon="3.25494">
        <ele>733.91</ele>
        <time>2026-03-29T11:08:29.440Z</time>
      </trkpt>
      <trkpt lat="43.85955" lon="3.25495">
        <ele>733.9</ele>
        <time>2026-03-29T11:08:35.299Z</time>
      </trkpt>
      <trkpt lat="43.85955" lon="3.25495">
        <ele>732.99</ele>
        <time>2026-03-29T11:08:41.324Z</time>
      </trkpt>
      <trkpt lat="43.85955" lon="3.25494">
        <ele>732.15</ele>
        <time>2026-03-29T11:09:04.161Z</time>
      </trkpt>
      <trkpt lat="43.85955" lon="3.25493">
        <ele>731.66</ele>
        <time>2026-03-29T11:09:13.163Z</time>
      </trkpt>
      <trkpt lat="43.85954" lon="3.25493">
        <ele>731.39</ele>
        <time>2026-03-29T11:09:25.163Z</time>
      </trkpt>
      <trkpt lat="43.85952" lon="3.25492">
        <ele>732.21</ele>
        <time>2026-03-29T11:09:30.163Z</time>
      </trkpt>
      <trkpt lat="43.85946" lon="3.25493">
        <ele>733.07</ele>
        <time>2026-03-29T11:09:36.163Z</time>
      </trkpt>
      <trkpt lat="43.85942" lon="3.25493">
        <ele>732.31</ele>
        <time>2026-03-29T11:09:41.759Z</time>
      </trkpt>
      <trkpt lat="43.85938" lon="3.25494">
        <ele>731.62</ele>
        <time>2026-03-29T11:09:47.280Z</time>
      </trkpt>
      <trkpt lat="43.85931" lon="3.25496">
        <ele>731.91</ele>
        <time>2026-03-29T11:09:52.740Z</time>
      </trkpt>
      <trkpt lat="43.85924" lon="3.25498">
        <ele>732.13</ele>
        <time>2026-03-29T11:09:58.121Z</time>
      </trkpt>
      <trkpt lat="43.85919" lon="3.25502">
        <ele>731.22</ele>
        <time>2026-03-29T11:10:03.280Z</time>
      </trkpt>
      <trkpt lat="43.85914" lon="3.25506">
        <ele>732.06</ele>
        <time>2026-03-29T11:10:08.297Z</time>
      </trkpt>
      <trkpt lat="43.8591" lon="3.25513">
        <ele>731.02</ele>
        <time>2026-03-29T11:10:14.279Z</time>
      </trkpt>
      <trkpt lat="43.85909" lon="3.2552">
        <ele>731.62</ele>
        <time>2026-03-29T11:10:20.160Z</time>
      </trkpt>
      <trkpt lat="43.85904" lon="3.25526">
        <ele>728.2</ele>
        <time>2026-03-29T11:10:25.279Z</time>
      </trkpt>
      <trkpt lat="43.85899" lon="3.25531">
        <ele>729.82</ele>
        <time>2026-03-29T11:10:30.280Z</time>
      </trkpt>
      <trkpt lat="43.85895" lon="3.25534">
        <ele>729.76</ele>
        <time>2026-03-29T11:10:35.280Z</time>
      </trkpt>
      <trkpt lat="43.85891" lon="3.25543">
        <ele>728.8</ele>
        <time>2026-03-29T11:10:40.544Z</time>
      </trkpt>
      <trkpt lat="43.85887" lon="3.25551">
        <ele>731.86</ele>
        <time>2026-03-29T11:10:45.649Z</time>
      </trkpt>
      <trkpt lat="43.85883" lon="3.25557">
        <ele>730.41</ele>
        <time>2026-03-29T11:10:50.923Z</time>
      </trkpt>
      <trkpt lat="43.85878" lon="3.25561">
        <ele>731.02</ele>
        <time>2026-03-29T11:10:56.567Z</time>
      </trkpt>
      <trkpt lat="43.85875" lon="3.25561">
        <ele>730.8</ele>
        <time>2026-03-29T11:11:01.740Z</time>
      </trkpt>
      <trkpt lat="43.85872" lon="3.25563">
        <ele>731.77</ele>
        <time>2026-03-29T11:11:06.944Z</time>
      </trkpt>
      <trkpt lat="43.85868" lon="3.25564">
        <ele>731.21</ele>
        <time>2026-03-29T11:11:12.048Z</time>
      </trkpt>
      <trkpt lat="43.85864" lon="3.25564">
        <ele>729.85</ele>
        <time>2026-03-29T11:11:17.248Z</time>
      </trkpt>
      <trkpt lat="43.85859" lon="3.25566">
        <ele>731.42</ele>
        <time>2026-03-29T11:11:22.503Z</time>
      </trkpt>
      <trkpt lat="43.85853" lon="3.25567">
        <ele>732.13</ele>
        <time>2026-03-29T11:11:28.305Z</time>
      </trkpt>
      <trkpt lat="43.85847" lon="3.2557">
        <ele>730.51</ele>
        <time>2026-03-29T11:11:34.280Z</time>
      </trkpt>
      <trkpt lat="43.85847" lon="3.25571">
        <ele>727.21</ele>
        <time>2026-03-29T11:11:53.280Z</time>
      </trkpt>
      <trkpt lat="43.85846" lon="3.25572">
        <ele>728.79</ele>
        <time>2026-03-29T11:12:04.370Z</time>
      </trkpt>
      <trkpt lat="43.85841" lon="3.25575">
        <ele>731.25</ele>
        <time>2026-03-29T11:12:10.280Z</time>
      </trkpt>
      <trkpt lat="43.85834" lon="3.25579">
        <ele>729.76</ele>
        <time>2026-03-29T11:12:15.280Z</time>
      </trkpt>
      <trkpt lat="43.85831" lon="3.25579">
        <ele>728.76</ele>
        <time>2026-03-29T11:12:20.321Z</time>
      </trkpt>
      <trkpt lat="43.85824" lon="3.25579">
        <ele>729.29</ele>
        <time>2026-03-29T11:12:26.047Z</time>
      </trkpt>
      <trkpt lat="43.85814" lon="3.25585">
        <ele>732.33</ele>
        <time>2026-03-29T11:12:31.124Z</time>
      </trkpt>
      <trkpt lat="43.85805" lon="3.25591">
        <ele>732.64</ele>
        <time>2026-03-29T11:12:36.280Z</time>
      </trkpt>
      <trkpt lat="43.85798" lon="3.25594">
        <ele>731.68</ele>
        <time>2026-03-29T11:12:41.444Z</time>
      </trkpt>
      <trkpt lat="43.85792" lon="3.25595">
        <ele>729.08</ele>
        <time>2026-03-29T11:12:46.605Z</time>
      </trkpt>
      <trkpt lat="43.85787" lon="3.25596">
        <ele>729.9</ele>
        <time>2026-03-29T11:12:51.805Z</time>
      </trkpt>
      <trkpt lat="43.8578" lon="3.256">
        <ele>730.48</ele>
        <time>2026-03-29T11:12:57.085Z</time>
      </trkpt>
      <trkpt lat="43.85773" lon="3.25609">
        <ele>731.67</ele>
        <time>2026-03-29T11:13:02.320Z</time>
      </trkpt>
      <trkpt lat="43.85768" lon="3.25617">
        <ele>732.45</ele>
        <time>2026-03-29T11:13:07.586Z</time>
      </trkpt>
      <trkpt lat="43.85763" lon="3.25625">
        <ele>732.26</ele>
        <time>2026-03-29T11:13:12.627Z</time>
      </trkpt>
      <trkpt lat="43.85759" lon="3.25631">
        <ele>731.59</ele>
        <time>2026-03-29T11:13:17.908Z</time>
      </trkpt>
      <trkpt lat="43.85751" lon="3.25637">
        <ele>732.87</ele>
        <time>2026-03-29T11:13:23.882Z</time>
      </trkpt>
      <trkpt lat="43.85744" lon="3.25643">
        <ele>732.87</ele>
        <time>2026-03-29T11:13:28.968Z</time>
      </trkpt>
      <trkpt lat="43.85737" lon="3.25651">
        <ele>731.85</ele>
        <time>2026-03-29T11:13:34.307Z</time>
      </trkpt>
      <trkpt lat="43.8573" lon="3.25657">
        <ele>730.24</ele>
        <time>2026-03-29T11:13:39.322Z</time>
      </trkpt>
      <trkpt lat="43.85723" lon="3.25665">
        <ele>729.98</ele>
        <time>2026-03-29T11:13:45.245Z</time>
      </trkpt>
      <trkpt lat="43.85719" lon="3.25672">
        <ele>730.33</ele>
        <time>2026-03-29T11:13:50.373Z</time>
      </trkpt>
      <trkpt lat="43.85715" lon="3.25679">
        <ele>728.59</ele>
        <time>2026-03-29T11:13:55.808Z</time>
      </trkpt>
      <trkpt lat="43.85711" lon="3.25686">
        <ele>727.96</ele>
        <time>2026-03-29T11:14:00.903Z</time>
      </trkpt>
      <trkpt lat="43.85708" lon="3.25691">
        <ele>728.61</ele>
        <time>2026-03-29T11:14:06.264Z</time>
      </trkpt>
      <trkpt lat="43.85704" lon="3.25697">
        <ele>728.22</ele>
        <time>2026-03-29T11:14:11.642Z</time>
      </trkpt>
      <trkpt lat="43.85702" lon="3.25701">
        <ele>727.99</ele>
        <time>2026-03-29T11:14:16.746Z</time>
      </trkpt>
      <trkpt lat="43.85699" lon="3.25707">
        <ele>727.36</ele>
        <time>2026-03-29T11:14:21.928Z</time>
      </trkpt>
      <trkpt lat="43.85696" lon="3.25713">
        <ele>726.93</ele>
        <time>2026-03-29T11:14:27.068Z</time>
      </trkpt>
      <trkpt lat="43.85693" lon="3.25719">
        <ele>726.86</ele>
        <time>2026-03-29T11:14:32.188Z</time>
      </trkpt>
      <trkpt lat="43.85688" lon="3.25724">
        <ele>723.89</ele>
        <time>2026-03-29T11:14:37.605Z</time>
      </trkpt>
      <trkpt lat="43.85683" lon="3.25729">
        <ele>722.68</ele>
        <time>2026-03-29T11:14:43.177Z</time>
      </trkpt>
      <trkpt lat="43.85679" lon="3.25732">
        <ele>726.01</ele>
        <time>2026-03-29T11:14:48.315Z</time>
      </trkpt>
      <trkpt lat="43.85673" lon="3.25735">
        <ele>726.38</ele>
        <time>2026-03-29T11:14:53.850Z</time>
      </trkpt>
      <trkpt lat="43.85667" lon="3.25737">
        <ele>728.29</ele>
        <time>2026-03-29T11:14:58.989Z</time>
      </trkpt>
      <trkpt lat="43.85663" lon="3.25741">
        <ele>725.41</ele>
        <time>2026-03-29T11:15:04.065Z</time>
      </trkpt>
      <trkpt lat="43.85659" lon="3.25748">
        <ele>721.93</ele>
        <time>2026-03-29T11:15:09.505Z</time>
      </trkpt>
      <trkpt lat="43.85656" lon="3.25755">
        <ele>728.37</ele>
        <time>2026-03-29T11:15:15.293Z</time>
      </trkpt>
      <trkpt lat="43.85653" lon="3.25758">
        <ele>726.88</ele>
        <time>2026-03-29T11:15:20.308Z</time>
      </trkpt>
      <trkpt lat="43.85653" lon="3.25759">
        <ele>724.37</ele>
        <time>2026-03-29T11:15:42.984Z</time>
      </trkpt>
      <trkpt lat="43.85648" lon="3.25767">
        <ele>723.81</ele>
        <time>2026-03-29T11:15:48.028Z</time>
      </trkpt>
      <trkpt lat="43.85641" lon="3.25773">
        <ele>725.48</ele>
        <time>2026-03-29T11:15:53.280Z</time>
      </trkpt>
      <trkpt lat="43.85634" lon="3.2578">
        <ele>725.37</ele>
        <time>2026-03-29T11:15:58.970Z</time>
      </trkpt>
      <trkpt lat="43.85629" lon="3.25787">
        <ele>723.1</ele>
        <time>2026-03-29T11:16:04.401Z</time>
      </trkpt>
      <trkpt lat="43.85626" lon="3.25794">
        <ele>722.78</ele>
        <time>2026-03-29T11:16:09.810Z</time>
      </trkpt>
      <trkpt lat="43.85622" lon="3.25804">
        <ele>722.13</ele>
        <time>2026-03-29T11:16:15.255Z</time>
      </trkpt>
      <trkpt lat="43.85617" lon="3.25811">
        <ele>727.51</ele>
        <time>2026-03-29T11:16:20.388Z</time>
      </trkpt>
      <trkpt lat="43.85613" lon="3.25817">
        <ele>724.98</ele>
        <time>2026-03-29T11:16:25.608Z</time>
      </trkpt>
      <trkpt lat="43.85609" lon="3.25824">
        <ele>724.85</ele>
        <time>2026-03-29T11:16:30.906Z</time>
      </trkpt>
      <trkpt lat="43.85604" lon="3.25829">
        <ele>725.29</ele>
        <time>2026-03-29T11:16:36.304Z</time>
      </trkpt>
      <trkpt lat="43.85599" lon="3.25836">
        <ele>723.87</ele>
        <time>2026-03-29T11:16:42.084Z</time>
      </trkpt>
      <trkpt lat="43.85592" lon="3.25841">
        <ele>724.64</ele>
        <time>2026-03-29T11:16:48.068Z</time>
      </trkpt>
      <trkpt lat="43.85586" lon="3.25844">
        <ele>730.27</ele>
        <time>2026-03-29T11:16:53.545Z</time>
      </trkpt>
      <trkpt lat="43.85582" lon="3.25849">
        <ele>726.56</ele>
        <time>2026-03-29T11:16:58.923Z</time>
      </trkpt>
      <trkpt lat="43.85578" lon="3.25855">
        <ele>723.39</ele>
        <time>2026-03-29T11:17:04.437Z</time>
      </trkpt>
      <trkpt lat="43.85573" lon="3.25862">
        <ele>725.34</ele>
        <time>2026-03-29T11:17:09.853Z</time>
      </trkpt>
      <trkpt lat="43.85569" lon="3.25871">
        <ele>725.62</ele>
        <time>2026-03-29T11:17:15.324Z</time>
      </trkpt>
      <trkpt lat="43.85565" lon="3.25878">
        <ele>724.65</ele>
        <time>2026-03-29T11:17:20.691Z</time>
      </trkpt>
      <trkpt lat="43.85562" lon="3.25885">
        <ele>724.44</ele>
        <time>2026-03-29T11:17:25.849Z</time>
      </trkpt>
      <trkpt lat="43.85558" lon="3.25892">
        <ele>724.77</ele>
        <time>2026-03-29T11:17:31.007Z</time>
      </trkpt>
      <trkpt lat="43.85554" lon="3.25898">
        <ele>725.11</ele>
        <time>2026-03-29T11:17:36.280Z</time>
      </trkpt>
      <trkpt lat="43.85551" lon="3.25904">
        <ele>728.22</ele>
        <time>2026-03-29T11:17:41.590Z</time>
      </trkpt>
      <trkpt lat="43.85549" lon="3.25901">
        <ele>727.43</ele>
        <time>2026-03-29T11:17:47.280Z</time>
      </trkpt>
      <trkpt lat="43.85546" lon="3.25909">
        <ele>727.82</ele>
        <time>2026-03-29T11:17:52.448Z</time>
      </trkpt>
      <trkpt lat="43.8554" lon="3.25917">
        <ele>727.25</ele>
        <time>2026-03-29T11:17:58.280Z</time>
      </trkpt>
      <trkpt lat="43.85536" lon="3.25922">
        <ele>727.14</ele>
        <time>2026-03-29T11:18:03.430Z</time>
      </trkpt>
      <trkpt lat="43.8553" lon="3.25929">
        <ele>727.84</ele>
        <time>2026-03-29T11:18:08.695Z</time>
      </trkpt>
      <trkpt lat="43.85524" lon="3.25936">
        <ele>726.9</ele>
        <time>2026-03-29T11:18:14.327Z</time>
      </trkpt>
      <trkpt lat="43.85521" lon="3.25942">
        <ele>728.47</ele>
        <time>2026-03-29T11:18:19.873Z</time>
      </trkpt>
      <trkpt lat="43.85517" lon="3.25947">
        <ele>729.89</ele>
        <time>2026-03-29T11:18:25.075Z</time>
      </trkpt>
      <trkpt lat="43.85513" lon="3.25953">
        <ele>729.31</ele>
        <time>2026-03-29T11:18:30.280Z</time>
      </trkpt>
      <trkpt lat="43.8551" lon="3.25961">
        <ele>729.68</ele>
        <time>2026-03-29T11:18:35.595Z</time>
      </trkpt>
      <trkpt lat="43.85508" lon="3.2597">
        <ele>729.18</ele>
        <time>2026-03-29T11:18:41.153Z</time>
      </trkpt>
      <trkpt lat="43.85504" lon="3.25978">
        <ele>728.82</ele>
        <time>2026-03-29T11:18:46.213Z</time>
      </trkpt>
      <trkpt lat="43.85502" lon="3.25985">
        <ele>729.07</ele>
        <time>2026-03-29T11:18:51.395Z</time>
      </trkpt>
      <trkpt lat="43.855" lon="3.25992">
        <ele>728.71</ele>
        <time>2026-03-29T11:18:57.258Z</time>
      </trkpt>
      <trkpt lat="43.85498" lon="3.26">
        <ele>732.79</ele>
        <time>2026-03-29T11:19:02.262Z</time>
      </trkpt>
      <trkpt lat="43.85494" lon="3.26008">
        <ele>731.59</ele>
        <time>2026-03-29T11:19:07.875Z</time>
      </trkpt>
      <trkpt lat="43.85493" lon="3.26017">
        <ele>730.38</ele>
        <time>2026-03-29T11:19:13.576Z</time>
      </trkpt>
      <trkpt lat="43.85492" lon="3.26026">
        <ele>731.39</ele>
        <time>2026-03-29T11:19:18.841Z</time>
      </trkpt>
      <trkpt lat="43.85491" lon="3.26034">
        <ele>732.59</ele>
        <time>2026-03-29T11:19:23.934Z</time>
      </trkpt>
      <trkpt lat="43.85491" lon="3.26041">
        <ele>732.04</ele>
        <time>2026-03-29T11:19:28.977Z</time>
      </trkpt>
      <trkpt lat="43.85489" lon="3.26048">
        <ele>732.31</ele>
        <time>2026-03-29T11:19:34.419Z</time>
      </trkpt>
      <trkpt lat="43.85486" lon="3.26057">
        <ele>733.14</ele>
        <time>2026-03-29T11:19:39.881Z</time>
      </trkpt>
      <trkpt lat="43.85484" lon="3.26066">
        <ele>732.45</ele>
        <time>2026-03-29T11:19:45.057Z</time>
      </trkpt>
      <trkpt lat="43.85478" lon="3.26071">
        <ele>730.34</ele>
        <time>2026-03-29T11:19:50.281Z</time>
      </trkpt>
      <trkpt lat="43.85471" lon="3.26081">
        <ele>728.85</ele>
        <time>2026-03-29T11:19:56.260Z</time>
      </trkpt>
      <trkpt lat="43.85469" lon="3.26093">
        <ele>729.65</ele>
        <time>2026-03-29T11:20:01.324Z</time>
      </trkpt>
      <trkpt lat="43.8547" lon="3.26108">
        <ele>729.81</ele>
        <time>2026-03-29T11:20:07.338Z</time>
      </trkpt>
      <trkpt lat="43.85466" lon="3.26118">
        <ele>729.3</ele>
        <time>2026-03-29T11:20:12.368Z</time>
      </trkpt>
      <trkpt lat="43.85458" lon="3.26124">
        <ele>727.85</ele>
        <time>2026-03-29T11:20:17.574Z</time>
      </trkpt>
      <trkpt lat="43.85449" lon="3.26128">
        <ele>728.05</ele>
        <time>2026-03-29T11:20:22.794Z</time>
      </trkpt>
      <trkpt lat="43.85441" lon="3.26129">
        <ele>728.77</ele>
        <time>2026-03-29T11:20:28.356Z</time>
      </trkpt>
      <trkpt lat="43.85438" lon="3.26136">
        <ele>729.32</ele>
        <time>2026-03-29T11:20:33.999Z</time>
      </trkpt>
      <trkpt lat="43.85434" lon="3.26145">
        <ele>728.52</ele>
        <time>2026-03-29T11:20:39.480Z</time>
      </trkpt>
      <trkpt lat="43.85431" lon="3.26153">
        <ele>728.12</ele>
        <time>2026-03-29T11:20:45.128Z</time>
      </trkpt>
      <trkpt lat="43.85427" lon="3.26161">
        <ele>727.41</ele>
        <time>2026-03-29T11:20:50.280Z</time>
      </trkpt>
      <trkpt lat="43.85424" lon="3.26167">
        <ele>727.72</ele>
        <time>2026-03-29T11:20:56.076Z</time>
      </trkpt>
      <trkpt lat="43.8542" lon="3.26175">
        <ele>727.48</ele>
        <time>2026-03-29T11:21:01.561Z</time>
      </trkpt>
      <trkpt lat="43.85417" lon="3.26182">
        <ele>727.61</ele>
        <time>2026-03-29T11:21:06.941Z</time>
      </trkpt>
      <trkpt lat="43.85413" lon="3.26189">
        <ele>727.06</ele>
        <time>2026-03-29T11:21:12.023Z</time>
      </trkpt>
      <trkpt lat="43.85406" lon="3.26196">
        <ele>726.63</ele>
        <time>2026-03-29T11:21:17.280Z</time>
      </trkpt>
      <trkpt lat="43.854" lon="3.262">
        <ele>727.03</ele>
        <time>2026-03-29T11:21:23.341Z</time>
      </trkpt>
      <trkpt lat="43.85395" lon="3.26203">
        <ele>726.31</ele>
        <time>2026-03-29T11:21:28.348Z</time>
      </trkpt>
      <trkpt lat="43.85388" lon="3.26205">
        <ele>726.92</ele>
        <time>2026-03-29T11:21:34.280Z</time>
      </trkpt>
      <trkpt lat="43.85381" lon="3.26206">
        <ele>726.37</ele>
        <time>2026-03-29T11:21:39.280Z</time>
      </trkpt>
      <trkpt lat="43.85373" lon="3.26208">
        <ele>725.93</ele>
        <time>2026-03-29T11:21:44.998Z</time>
      </trkpt>
      <trkpt lat="43.85366" lon="3.26212">
        <ele>726.21</ele>
        <time>2026-03-29T11:21:50.356Z</time>
      </trkpt>
      <trkpt lat="43.8536" lon="3.26217">
        <ele>725.93</ele>
        <time>2026-03-29T11:21:56.058Z</time>
      </trkpt>
      <trkpt lat="43.85355" lon="3.26221">
        <ele>725.93</ele>
        <time>2026-03-29T11:22:01.134Z</time>
      </trkpt>
      <trkpt lat="43.85348" lon="3.26225">
        <ele>725.62</ele>
        <time>2026-03-29T11:22:06.494Z</time>
      </trkpt>
      <trkpt lat="43.85344" lon="3.26229">
        <ele>726.97</ele>
        <time>2026-03-29T11:22:12.193Z</time>
      </trkpt>
      <trkpt lat="43.85338" lon="3.26224">
        <ele>726.72</ele>
        <time>2026-03-29T11:22:17.221Z</time>
      </trkpt>
      <trkpt lat="43.85331" lon="3.26227">
        <ele>725.58</ele>
        <time>2026-03-29T11:22:22.371Z</time>
      </trkpt>
      <trkpt lat="43.85324" lon="3.26233">
        <ele>728.63</ele>
        <time>2026-03-29T11:22:28.341Z</time>
      </trkpt>
      <trkpt lat="43.85319" lon="3.2624">
        <ele>727.73</ele>
        <time>2026-03-29T11:22:33.362Z</time>
      </trkpt>
      <trkpt lat="43.85313" lon="3.26247">
        <ele>727.42</ele>
        <time>2026-03-29T11:22:38.780Z</time>
      </trkpt>
      <trkpt lat="43.85309" lon="3.26254">
        <ele>728.09</ele>
        <time>2026-03-29T11:22:44.351Z</time>
      </trkpt>
      <trkpt lat="43.85307" lon="3.26259">
        <ele>727.61</ele>
        <time>2026-03-29T11:22:49.652Z</time>
      </trkpt>
      <trkpt lat="43.85301" lon="3.26261">
        <ele>727.03</ele>
        <time>2026-03-29T11:22:54.819Z</time>
      </trkpt>
      <trkpt lat="43.85296" lon="3.26263">
        <ele>726.24</ele>
        <time>2026-03-29T11:23:00.075Z</time>
      </trkpt>
      <trkpt lat="43.85297" lon="3.26264">
        <ele>727.11</ele>
        <time>2026-03-29T11:23:06.341Z</time>
      </trkpt>
      <trkpt lat="43.85296" lon="3.26263">
        <ele>726.88</ele>
        <time>2026-03-29T11:23:20.359Z</time>
      </trkpt>
      <trkpt lat="43.85295" lon="3.26264">
        <ele>727.52</ele>
        <time>2026-03-29T11:23:27.112Z</time>
      </trkpt>
      <trkpt lat="43.85294" lon="3.26264">
        <ele>731.36</ele>
        <time>2026-03-29T11:23:33.317Z</time>
      </trkpt>
      <trkpt lat="43.85294" lon="3.26266">
        <ele>730.05</ele>
        <time>2026-03-29T11:23:39.742Z</time>
      </trkpt>
      <trkpt lat="43.85289" lon="3.26271">
        <ele>725.48</ele>
        <time>2026-03-29T11:23:45.092Z</time>
      </trkpt>
      <trkpt lat="43.85285" lon="3.26276">
        <ele>728.84</ele>
        <time>2026-03-29T11:23:50.323Z</time>
      </trkpt>
      <trkpt lat="43.85281" lon="3.2628">
        <ele>728.68</ele>
        <time>2026-03-29T11:23:55.341Z</time>
      </trkpt>
      <trkpt lat="43.85275" lon="3.26282">
        <ele>728.03</ele>
        <time>2026-03-29T11:24:00.698Z</time>
      </trkpt>
      <trkpt lat="43.85269" lon="3.26282">
        <ele>728.02</ele>
        <time>2026-03-29T11:24:06.097Z</time>
      </trkpt>
      <trkpt lat="43.85262" lon="3.26282">
        <ele>728.92</ele>
        <time>2026-03-29T11:24:11.337Z</time>
      </trkpt>
      <trkpt lat="43.85255" lon="3.2629">
        <ele>728.61</ele>
        <time>2026-03-29T11:24:17.097Z</time>
      </trkpt>
      <trkpt lat="43.85248" lon="3.26294">
        <ele>729.46</ele>
        <time>2026-03-29T11:24:22.359Z</time>
      </trkpt>
      <trkpt lat="43.85243" lon="3.26302">
        <ele>728.87</ele>
        <time>2026-03-29T11:24:28.140Z</time>
      </trkpt>
      <trkpt lat="43.85238" lon="3.2631">
        <ele>728.19</ele>
        <time>2026-03-29T11:24:33.350Z</time>
      </trkpt>
      <trkpt lat="43.85232" lon="3.26314">
        <ele>728.55</ele>
        <time>2026-03-29T11:24:38.837Z</time>
      </trkpt>
      <trkpt lat="43.85226" lon="3.26316">
        <ele>729.02</ele>
        <time>2026-03-29T11:24:44.216Z</time>
      </trkpt>
      <trkpt lat="43.85219" lon="3.26322">
        <ele>727.65</ele>
        <time>2026-03-29T11:24:49.326Z</time>
      </trkpt>
      <trkpt lat="43.85213" lon="3.26327">
        <ele>728.08</ele>
        <time>2026-03-29T11:24:54.975Z</time>
      </trkpt>
      <trkpt lat="43.85206" lon="3.2633">
        <ele>730.75</ele>
        <time>2026-03-29T11:25:00.354Z</time>
      </trkpt>
      <trkpt lat="43.85199" lon="3.26331">
        <ele>730.73</ele>
        <time>2026-03-29T11:25:05.874Z</time>
      </trkpt>
      <trkpt lat="43.85192" lon="3.26333">
        <ele>730.34</ele>
        <time>2026-03-29T11:25:11.356Z</time>
      </trkpt>
      <trkpt lat="43.85186" lon="3.26334">
        <ele>730.05</ele>
        <time>2026-03-29T11:25:16.373Z</time>
      </trkpt>
      <trkpt lat="43.85178" lon="3.26338">
        <ele>730.41</ele>
        <time>2026-03-29T11:25:22.122Z</time>
      </trkpt>
      <trkpt lat="43.85171" lon="3.2634">
        <ele>730.38</ele>
        <time>2026-03-29T11:25:27.581Z</time>
      </trkpt>
      <trkpt lat="43.85164" lon="3.26339">
        <ele>730.77</ele>
        <time>2026-03-29T11:25:32.863Z</time>
      </trkpt>
      <trkpt lat="43.85157" lon="3.26341">
        <ele>730.79</ele>
        <time>2026-03-29T11:25:38.117Z</time>
      </trkpt>
      <trkpt lat="43.8515" lon="3.26343">
        <ele>731.35</ele>
        <time>2026-03-29T11:25:43.381Z</time>
      </trkpt>
      <trkpt lat="43.85142" lon="3.26346">
        <ele>730.96</ele>
        <time>2026-03-29T11:25:48.474Z</time>
      </trkpt>
      <trkpt lat="43.85137" lon="3.2635">
        <ele>731.45</ele>
        <time>2026-03-29T11:25:53.835Z</time>
      </trkpt>
      <trkpt lat="43.85131" lon="3.26356">
        <ele>732.38</ele>
        <time>2026-03-29T11:25:59.136Z</time>
      </trkpt>
      <trkpt lat="43.85124" lon="3.26362">
        <ele>731.5</ele>
        <time>2026-03-29T11:26:04.362Z</time>
      </trkpt>
      <trkpt lat="43.85118" lon="3.26367">
        <ele>730.97</ele>
        <time>2026-03-29T11:26:09.637Z</time>
      </trkpt>
      <trkpt lat="43.85114" lon="3.26373">
        <ele>730.74</ele>
        <time>2026-03-29T11:26:14.822Z</time>
      </trkpt>
      <trkpt lat="43.85109" lon="3.2638">
        <ele>730.45</ele>
        <time>2026-03-29T11:26:20.139Z</time>
      </trkpt>
      <trkpt lat="43.85105" lon="3.26389">
        <ele>730.24</ele>
        <time>2026-03-29T11:26:25.359Z</time>
      </trkpt>
      <trkpt lat="43.851" lon="3.26394">
        <ele>730.21</ele>
        <time>2026-03-29T11:26:31.039Z</time>
      </trkpt>
      <trkpt lat="43.85093" lon="3.26397">
        <ele>729.65</ele>
        <time>2026-03-29T11:26:36.721Z</time>
      </trkpt>
      <trkpt lat="43.85086" lon="3.264">
        <ele>730.32</ele>
        <time>2026-03-29T11:26:42.294Z</time>
      </trkpt>
      <trkpt lat="43.85081" lon="3.26402">
        <ele>731.05</ele>
        <time>2026-03-29T11:26:47.301Z</time>
      </trkpt>
      <trkpt lat="43.85074" lon="3.26402">
        <ele>731.44</ele>
        <time>2026-03-29T11:26:52.353Z</time>
      </trkpt>
      <trkpt lat="43.85068" lon="3.26403">
        <ele>731.65</ele>
        <time>2026-03-29T11:26:58.221Z</time>
      </trkpt>
      <trkpt lat="43.85062" lon="3.26405">
        <ele>731.8</ele>
        <time>2026-03-29T11:27:04.020Z</time>
      </trkpt>
      <trkpt lat="43.85056" lon="3.26408">
        <ele>731.96</ele>
        <time>2026-03-29T11:27:09.299Z</time>
      </trkpt>
      <trkpt lat="43.85052" lon="3.26409">
        <ele>732.14</ele>
        <time>2026-03-29T11:27:14.742Z</time>
      </trkpt>
      <trkpt lat="43.85051" lon="3.26412">
        <ele>731.3</ele>
        <time>2026-03-29T11:27:20.361Z</time>
      </trkpt>
      <trkpt lat="43.85052" lon="3.26412">
        <ele>729.47</ele>
        <time>2026-03-29T11:27:35.336Z</time>
      </trkpt>
      <trkpt lat="43.85053" lon="3.26412">
        <ele>733.78</ele>
        <time>2026-03-29T11:27:42.360Z</time>
      </trkpt>
      <trkpt lat="43.85053" lon="3.26413">
        <ele>733.51</ele>
        <time>2026-03-29T11:27:49.336Z</time>
      </trkpt>
      <trkpt lat="43.85053" lon="3.26417">
        <ele>733.01</ele>
        <time>2026-03-29T11:27:54.778Z</time>
      </trkpt>
      <trkpt lat="43.85053" lon="3.26421">
        <ele>732.56</ele>
        <time>2026-03-29T11:28:00.339Z</time>
      </trkpt>
      <trkpt lat="43.85053" lon="3.26422">
        <ele>732.43</ele>
        <time>2026-03-29T11:28:06.319Z</time>
      </trkpt>
      <trkpt lat="43.85054" lon="3.2642">
        <ele>732.5</ele>
        <time>2026-03-29T11:28:12.327Z</time>
      </trkpt>
      <trkpt lat="43.85056" lon="3.26418">
        <ele>733.12</ele>
        <time>2026-03-29T11:28:17.348Z</time>
      </trkpt>
      <trkpt lat="43.85058" lon="3.26415">
        <ele>732.37</ele>
        <time>2026-03-29T11:28:22.597Z</time>
      </trkpt>
      <trkpt lat="43.8505" lon="3.26417">
        <ele>732.84</ele>
        <time>2026-03-29T11:28:27.656Z</time>
      </trkpt>
      <trkpt lat="43.85045" lon="3.26419">
        <ele>733.4</ele>
        <time>2026-03-29T11:28:33.331Z</time>
      </trkpt>
      <trkpt lat="43.85045" lon="3.26416">
        <ele>735.28</ele>
        <time>2026-03-29T11:28:38.341Z</time>
      </trkpt>
      <trkpt lat="43.85045" lon="3.26414">
        <ele>733.01</ele>
        <time>2026-03-29T11:28:44.280Z</time>
      </trkpt>
      <trkpt lat="43.85045" lon="3.26412">
        <ele>733.34</ele>
        <time>2026-03-29T11:28:49.334Z</time>
      </trkpt>
      <trkpt lat="43.85045" lon="3.26411">
        <ele>733.52</ele>
        <time>2026-03-29T11:28:55.309Z</time>
      </trkpt>
      <trkpt lat="43.85045" lon="3.26409">
        <ele>734.42</ele>
        <time>2026-03-29T11:29:00.318Z</time>
      </trkpt>
      <trkpt lat="43.85044" lon="3.26408">
        <ele>734.83</ele>
        <time>2026-03-29T11:29:07.332Z</time>
      </trkpt>
      <trkpt lat="43.85045" lon="3.26407">
        <ele>737.16</ele>
        <time>2026-03-29T11:29:17.318Z</time>
      </trkpt>
      <trkpt lat="43.85044" lon="3.26409">
        <ele>735.46</ele>
        <time>2026-03-29T11:29:29.319Z</time>
      </trkpt>
      <trkpt lat="43.8504" lon="3.26413">
        <ele>733.95</ele>
        <time>2026-03-29T11:29:34.360Z</time>
      </trkpt>
      <trkpt lat="43.85037" lon="3.26416">
        <ele>734.79</ele>
        <time>2026-03-29T11:29:40.087Z</time>
      </trkpt>
      <trkpt lat="43.85036" lon="3.26416">
        <ele>735.06</ele>
        <time>2026-03-29T11:29:48.356Z</time>
      </trkpt>
      <trkpt lat="43.85035" lon="3.26416">
        <ele>735.15</ele>
        <time>2026-03-29T11:29:57.334Z</time>
      </trkpt>
      <trkpt lat="43.85035" lon="3.26414">
        <ele>735.55</ele>
        <time>2026-03-29T11:30:03.350Z</time>
      </trkpt>
      <trkpt lat="43.85035" lon="3.26413">
        <ele>734.76</ele>
        <time>2026-03-29T11:30:11.330Z</time>
      </trkpt>
      <trkpt lat="43.85034" lon="3.26412">
        <ele>733.49</ele>
        <time>2026-03-29T11:30:18.328Z</time>
      </trkpt>
      <trkpt lat="43.85033" lon="3.2641">
        <ele>734.04</ele>
        <time>2026-03-29T11:30:23.354Z</time>
      </trkpt>
      <trkpt lat="43.85032" lon="3.26412">
        <ele>734.37</ele>
        <time>2026-03-29T11:30:31.327Z</time>
      </trkpt>
      <trkpt lat="43.85033" lon="3.26412">
        <ele>733</ele>
        <time>2026-03-29T11:30:41.898Z</time>
      </trkpt>
      <trkpt lat="43.85027" lon="3.26419">
        <ele>734.19</ele>
        <time>2026-03-29T11:30:46.961Z</time>
      </trkpt>
      <trkpt lat="43.85022" lon="3.26424">
        <ele>734.06</ele>
        <time>2026-03-29T11:30:52.322Z</time>
      </trkpt>
      <trkpt lat="43.85016" lon="3.26427">
        <ele>734.14</ele>
        <time>2026-03-29T11:30:57.335Z</time>
      </trkpt>
      <trkpt lat="43.85009" lon="3.26428">
        <ele>735.79</ele>
        <time>2026-03-29T11:31:03.294Z</time>
      </trkpt>
      <trkpt lat="43.85001" lon="3.26431">
        <ele>737.09</ele>
        <time>2026-03-29T11:31:09.297Z</time>
      </trkpt>
      <trkpt lat="43.84994" lon="3.26436">
        <ele>736.69</ele>
        <time>2026-03-29T11:31:14.738Z</time>
      </trkpt>
      <trkpt lat="43.84987" lon="3.26436">
        <ele>735.53</ele>
        <time>2026-03-29T11:31:20.363Z</time>
      </trkpt>
      <trkpt lat="43.84974" lon="3.26442">
        <ele>735.04</ele>
        <time>2026-03-29T11:31:26.141Z</time>
      </trkpt>
      <trkpt lat="43.84962" lon="3.26462">
        <ele>735.43</ele>
        <time>2026-03-29T11:31:31.339Z</time>
      </trkpt>
      <trkpt lat="43.84952" lon="3.26479">
        <ele>733.68</ele>
        <time>2026-03-29T11:31:36.378Z</time>
      </trkpt>
      <trkpt lat="43.8494" lon="3.26494">
        <ele>733.52</ele>
        <time>2026-03-29T11:31:41.896Z</time>
      </trkpt>
      <trkpt lat="43.84929" lon="3.26501">
        <ele>735.16</ele>
        <time>2026-03-29T11:31:46.902Z</time>
      </trkpt>
      <trkpt lat="43.84921" lon="3.26504">
        <ele>735.16</ele>
        <time>2026-03-29T11:31:52.220Z</time>
      </trkpt>
      <trkpt lat="43.84911" lon="3.26506">
        <ele>735.57</ele>
        <time>2026-03-29T11:31:58.061Z</time>
      </trkpt>
      <trkpt lat="43.84901" lon="3.2651">
        <ele>735.33</ele>
        <time>2026-03-29T11:32:03.986Z</time>
      </trkpt>
      <trkpt lat="43.84891" lon="3.26514">
        <ele>734.34</ele>
        <time>2026-03-29T11:32:10.001Z</time>
      </trkpt>
      <trkpt lat="43.84883" lon="3.26517">
        <ele>734.93</ele>
        <time>2026-03-29T11:32:15.098Z</time>
      </trkpt>
      <trkpt lat="43.84875" lon="3.2652">
        <ele>735.28</ele>
        <time>2026-03-29T11:32:20.363Z</time>
      </trkpt>
      <trkpt lat="43.84869" lon="3.26522">
        <ele>737.38</ele>
        <time>2026-03-29T11:32:25.377Z</time>
      </trkpt>
      <trkpt lat="43.84863" lon="3.26524">
        <ele>737.67</ele>
        <time>2026-03-29T11:32:30.389Z</time>
      </trkpt>
      <trkpt lat="43.84857" lon="3.26526">
        <ele>737.96</ele>
        <time>2026-03-29T11:32:35.680Z</time>
      </trkpt>
      <trkpt lat="43.8485" lon="3.2653">
        <ele>736.57</ele>
        <time>2026-03-29T11:32:41.396Z</time>
      </trkpt>
      <trkpt lat="43.84843" lon="3.26535">
        <ele>737.31</ele>
        <time>2026-03-29T11:32:47.282Z</time>
      </trkpt>
      <trkpt lat="43.84836" lon="3.26537">
        <ele>738.91</ele>
        <time>2026-03-29T11:32:52.522Z</time>
      </trkpt>
      <trkpt lat="43.84829" lon="3.2654">
        <ele>738.26</ele>
        <time>2026-03-29T11:32:57.901Z</time>
      </trkpt>
      <trkpt lat="43.84824" lon="3.26544">
        <ele>739.24</ele>
        <time>2026-03-29T11:33:03.367Z</time>
      </trkpt>
      <trkpt lat="43.84818" lon="3.26546">
        <ele>738.83</ele>
        <time>2026-03-29T11:33:08.542Z</time>
      </trkpt>
      <trkpt lat="43.84811" lon="3.26548">
        <ele>740.63</ele>
        <time>2026-03-29T11:33:13.860Z</time>
      </trkpt>
      <trkpt lat="43.84805" lon="3.26553">
        <ele>740.63</ele>
        <time>2026-03-29T11:33:19.219Z</time>
      </trkpt>
      <trkpt lat="43.84801" lon="3.2656">
        <ele>742.45</ele>
        <time>2026-03-29T11:33:24.556Z</time>
      </trkpt>
      <trkpt lat="43.84797" lon="3.26561">
        <ele>741.25</ele>
        <time>2026-03-29T11:33:30.387Z</time>
      </trkpt>
      <trkpt lat="43.84796" lon="3.26564">
        <ele>740.19</ele>
        <time>2026-03-29T11:33:36.361Z</time>
      </trkpt>
      <trkpt lat="43.84788" lon="3.2657">
        <ele>741.18</ele>
        <time>2026-03-29T11:33:41.394Z</time>
      </trkpt>
      <trkpt lat="43.8478" lon="3.26573">
        <ele>743.16</ele>
        <time>2026-03-29T11:33:46.399Z</time>
      </trkpt>
      <trkpt lat="43.84772" lon="3.26579">
        <ele>745.33</ele>
        <time>2026-03-29T11:33:52.358Z</time>
      </trkpt>
      <trkpt lat="43.84765" lon="3.2658">
        <ele>745.24</ele>
        <time>2026-03-29T11:33:57.362Z</time>
      </trkpt>
      <trkpt lat="43.8476" lon="3.26584">
        <ele>745.39</ele>
        <time>2026-03-29T11:34:02.557Z</time>
      </trkpt>
      <trkpt lat="43.84754" lon="3.26589">
        <ele>745.72</ele>
        <time>2026-03-29T11:34:07.723Z</time>
      </trkpt>
      <trkpt lat="43.84749" lon="3.26594">
        <ele>747.58</ele>
        <time>2026-03-29T11:34:13.265Z</time>
      </trkpt>
      <trkpt lat="43.84742" lon="3.26599">
        <ele>749.13</ele>
        <time>2026-03-29T11:34:18.359Z</time>
      </trkpt>
      <trkpt lat="43.84736" lon="3.26605">
        <ele>749.99</ele>
        <time>2026-03-29T11:34:23.700Z</time>
      </trkpt>
      <trkpt lat="43.84731" lon="3.26611">
        <ele>750.44</ele>
        <time>2026-03-29T11:34:28.902Z</time>
      </trkpt>
      <trkpt lat="43.84725" lon="3.26618">
        <ele>750</ele>
        <time>2026-03-29T11:34:34.118Z</time>
      </trkpt>
      <trkpt lat="43.84718" lon="3.26623">
        <ele>749.65</ele>
        <time>2026-03-29T11:34:39.328Z</time>
      </trkpt>
      <trkpt lat="43.84712" lon="3.26627">
        <ele>750.78</ele>
        <time>2026-03-29T11:34:44.375Z</time>
      </trkpt>
      <trkpt lat="43.84704" lon="3.2663">
        <ele>751.95</ele>
        <time>2026-03-29T11:34:49.581Z</time>
      </trkpt>
      <trkpt lat="43.84697" lon="3.26633">
        <ele>752.42</ele>
        <time>2026-03-29T11:34:55.024Z</time>
      </trkpt>
      <trkpt lat="43.8469" lon="3.26634">
        <ele>751.37</ele>
        <time>2026-03-29T11:35:00.378Z</time>
      </trkpt>
      <trkpt lat="43.84683" lon="3.26633">
        <ele>749.96</ele>
        <time>2026-03-29T11:35:05.899Z</time>
      </trkpt>
      <trkpt lat="43.84675" lon="3.26628">
        <ele>749.64</ele>
        <time>2026-03-29T11:35:11.381Z</time>
      </trkpt>
      <trkpt lat="43.84669" lon="3.26625">
        <ele>749.08</ele>
        <time>2026-03-29T11:35:17.386Z</time>
      </trkpt>
      <trkpt lat="43.84663" lon="3.26626">
        <ele>751.07</ele>
        <time>2026-03-29T11:35:22.718Z</time>
      </trkpt>
      <trkpt lat="43.84655" lon="3.26626">
        <ele>752.68</ele>
        <time>2026-03-29T11:35:28.258Z</time>
      </trkpt>
      <trkpt lat="43.84648" lon="3.26625">
        <ele>750.37</ele>
        <time>2026-03-29T11:35:33.387Z</time>
      </trkpt>
      <trkpt lat="43.84642" lon="3.26624">
        <ele>750.34</ele>
        <time>2026-03-29T11:35:38.759Z</time>
      </trkpt>
      <trkpt lat="43.84636" lon="3.26628">
        <ele>751.31</ele>
        <time>2026-03-29T11:35:43.961Z</time>
      </trkpt>
      <trkpt lat="43.84631" lon="3.26633">
        <ele>753.08</ele>
        <time>2026-03-29T11:35:49.331Z</time>
      </trkpt>
      <trkpt lat="43.84626" lon="3.2664">
        <ele>753.35</ele>
        <time>2026-03-29T11:35:54.375Z</time>
      </trkpt>
      <trkpt lat="43.84621" lon="3.26644">
        <ele>754.55</ele>
        <time>2026-03-29T11:36:00.142Z</time>
      </trkpt>
      <trkpt lat="43.84615" lon="3.26648">
        <ele>753.42</ele>
        <time>2026-03-29T11:36:05.363Z</time>
      </trkpt>
      <trkpt lat="43.84608" lon="3.26652">
        <ele>754.19</ele>
        <time>2026-03-29T11:36:11.360Z</time>
      </trkpt>
      <trkpt lat="43.84601" lon="3.26657">
        <ele>754.76</ele>
        <time>2026-03-29T11:36:17.161Z</time>
      </trkpt>
      <trkpt lat="43.84596" lon="3.2666">
        <ele>754.55</ele>
        <time>2026-03-29T11:36:22.369Z</time>
      </trkpt>
      <trkpt lat="43.84591" lon="3.26665">
        <ele>754.3</ele>
        <time>2026-03-29T11:36:27.660Z</time>
      </trkpt>
      <trkpt lat="43.84586" lon="3.2667">
        <ele>753.15</ele>
        <time>2026-03-29T11:36:32.816Z</time>
      </trkpt>
      <trkpt lat="43.8458" lon="3.26672">
        <ele>753.61</ele>
        <time>2026-03-29T11:36:38.379Z</time>
      </trkpt>
      <trkpt lat="43.84575" lon="3.26676">
        <ele>755</ele>
        <time>2026-03-29T11:36:43.955Z</time>
      </trkpt>
      <trkpt lat="43.84569" lon="3.26682">
        <ele>753.05</ele>
        <time>2026-03-29T11:36:49.374Z</time>
      </trkpt>
      <trkpt lat="43.84565" lon="3.26689">
        <ele>755.67</ele>
        <time>2026-03-29T11:36:54.919Z</time>
      </trkpt>
      <trkpt lat="43.84558" lon="3.26695">
        <ele>756.38</ele>
        <time>2026-03-29T11:37:00.156Z</time>
      </trkpt>
      <trkpt lat="43.84552" lon="3.26696">
        <ele>754.62</ele>
        <time>2026-03-29T11:37:05.360Z</time>
      </trkpt>
      <trkpt lat="43.84544" lon="3.26695">
        <ele>753.11</ele>
        <time>2026-03-29T11:37:10.975Z</time>
      </trkpt>
      <trkpt lat="43.84538" lon="3.267">
        <ele>754.97</ele>
        <time>2026-03-29T11:37:16.353Z</time>
      </trkpt>
      <trkpt lat="43.84533" lon="3.26704">
        <ele>754.72</ele>
        <time>2026-03-29T11:37:21.780Z</time>
      </trkpt>
      <trkpt lat="43.84527" lon="3.26706">
        <ele>753.24</ele>
        <time>2026-03-29T11:37:27.220Z</time>
      </trkpt>
      <trkpt lat="43.84521" lon="3.26708">
        <ele>753.5</ele>
        <time>2026-03-29T11:37:32.363Z</time>
      </trkpt>
      <trkpt lat="43.84514" lon="3.2671">
        <ele>753.45</ele>
        <time>2026-03-29T11:37:37.480Z</time>
      </trkpt>
      <trkpt lat="43.84509" lon="3.26716">
        <ele>753.52</ele>
        <time>2026-03-29T11:37:42.919Z</time>
      </trkpt>
      <trkpt lat="43.84504" lon="3.26722">
        <ele>753.7</ele>
        <time>2026-03-29T11:37:48.441Z</time>
      </trkpt>
      <trkpt lat="43.84497" lon="3.26724">
        <ele>752.73</ele>
        <time>2026-03-29T11:37:53.601Z</time>
      </trkpt>
      <trkpt lat="43.84489" lon="3.26726">
        <ele>753.37</ele>
        <time>2026-03-29T11:37:58.981Z</time>
      </trkpt>
      <trkpt lat="43.84483" lon="3.26729">
        <ele>753.05</ele>
        <time>2026-03-29T11:38:04.372Z</time>
      </trkpt>
      <trkpt lat="43.84478" lon="3.26736">
        <ele>753.52</ele>
        <time>2026-03-29T11:38:09.861Z</time>
      </trkpt>
      <trkpt lat="43.84472" lon="3.26739">
        <ele>754.27</ele>
        <time>2026-03-29T11:38:15.279Z</time>
      </trkpt>
      <trkpt lat="43.84465" lon="3.26741">
        <ele>753.82</ele>
        <time>2026-03-29T11:38:20.280Z</time>
      </trkpt>
      <trkpt lat="43.8446" lon="3.26747">
        <ele>754.34</ele>
        <time>2026-03-29T11:38:25.498Z</time>
      </trkpt>
      <trkpt lat="43.84455" lon="3.26753">
        <ele>753.55</ele>
        <time>2026-03-29T11:38:30.909Z</time>
      </trkpt>
      <trkpt lat="43.84449" lon="3.26756">
        <ele>751.71</ele>
        <time>2026-03-29T11:38:36.277Z</time>
      </trkpt>
      <trkpt lat="43.84443" lon="3.26758">
        <ele>754.09</ele>
        <time>2026-03-29T11:38:41.341Z</time>
      </trkpt>
      <trkpt lat="43.84435" lon="3.26754">
        <ele>754.13</ele>
        <time>2026-03-29T11:38:46.766Z</time>
      </trkpt>
      <trkpt lat="43.8443" lon="3.26747">
        <ele>752.59</ele>
        <time>2026-03-29T11:38:52.211Z</time>
      </trkpt>
      <trkpt lat="43.84426" lon="3.26736">
        <ele>752.67</ele>
        <time>2026-03-29T11:38:57.301Z</time>
      </trkpt>
      <trkpt lat="43.8442" lon="3.26728">
        <ele>753.24</ele>
        <time>2026-03-29T11:39:02.315Z</time>
      </trkpt>
      <trkpt lat="43.84415" lon="3.26722">
        <ele>752.61</ele>
        <time>2026-03-29T11:39:07.509Z</time>
      </trkpt>
      <trkpt lat="43.84409" lon="3.26716">
        <ele>750.77</ele>
        <time>2026-03-29T11:39:12.890Z</time>
      </trkpt>
      <trkpt lat="43.84404" lon="3.26711">
        <ele>752.06</ele>
        <time>2026-03-29T11:39:18.110Z</time>
      </trkpt>
      <trkpt lat="43.84397" lon="3.2671">
        <ele>750.6</ele>
        <time>2026-03-29T11:39:23.252Z</time>
      </trkpt>
      <trkpt lat="43.8439" lon="3.26708">
        <ele>750.64</ele>
        <time>2026-03-29T11:39:28.591Z</time>
      </trkpt>
      <trkpt lat="43.84384" lon="3.26708">
        <ele>752.73</ele>
        <time>2026-03-29T11:39:34.086Z</time>
      </trkpt>
      <trkpt lat="43.84378" lon="3.26706">
        <ele>752.8</ele>
        <time>2026-03-29T11:39:39.546Z</time>
      </trkpt>
      <trkpt lat="43.84372" lon="3.26707">
        <ele>751.48</ele>
        <time>2026-03-29T11:39:44.556Z</time>
      </trkpt>
      <trkpt lat="43.84366" lon="3.26706">
        <ele>750.21</ele>
        <time>2026-03-29T11:39:49.868Z</time>
      </trkpt>
      <trkpt lat="43.84361" lon="3.267">
        <ele>749.39</ele>
        <time>2026-03-29T11:39:55.168Z</time>
      </trkpt>
      <trkpt lat="43.84351" lon="3.267">
        <ele>748.73</ele>
        <time>2026-03-29T11:40:00.280Z</time>
      </trkpt>
      <trkpt lat="43.84342" lon="3.26705">
        <ele>750.85</ele>
        <time>2026-03-29T11:40:05.831Z</time>
      </trkpt>
      <trkpt lat="43.84337" lon="3.26714">
        <ele>751.01</ele>
        <time>2026-03-29T11:40:11.093Z</time>
      </trkpt>
      <trkpt lat="43.84334" lon="3.26725">
        <ele>750.52</ele>
        <time>2026-03-29T11:40:16.598Z</time>
      </trkpt>
      <trkpt lat="43.8433" lon="3.26733">
        <ele>749.15</ele>
        <time>2026-03-29T11:40:21.897Z</time>
      </trkpt>
      <trkpt lat="43.84328" lon="3.26742">
        <ele>749.03</ele>
        <time>2026-03-29T11:40:27.250Z</time>
      </trkpt>
      <trkpt lat="43.84324" lon="3.26749">
        <ele>748.7</ele>
        <time>2026-03-29T11:40:32.612Z</time>
      </trkpt>
      <trkpt lat="43.84319" lon="3.26755">
        <ele>750.14</ele>
        <time>2026-03-29T11:40:37.955Z</time>
      </trkpt>
      <trkpt lat="43.84315" lon="3.26763">
        <ele>751.03</ele>
        <time>2026-03-29T11:40:43.279Z</time>
      </trkpt>
      <trkpt lat="43.84313" lon="3.2677">
        <ele>750.42</ele>
        <time>2026-03-29T11:40:48.329Z</time>
      </trkpt>
      <trkpt lat="43.8431" lon="3.26779">
        <ele>750.12</ele>
        <time>2026-03-29T11:40:53.674Z</time>
      </trkpt>
      <trkpt lat="43.84307" lon="3.26786">
        <ele>750.17</ele>
        <time>2026-03-29T11:40:59.230Z</time>
      </trkpt>
      <trkpt lat="43.84301" lon="3.26791">
        <ele>749.95</ele>
        <time>2026-03-29T11:41:04.876Z</time>
      </trkpt>
      <trkpt lat="43.84294" lon="3.26791">
        <ele>752.98</ele>
        <time>2026-03-29T11:41:09.910Z</time>
      </trkpt>
      <trkpt lat="43.84288" lon="3.2679">
        <ele>754.42</ele>
        <time>2026-03-29T11:41:15.289Z</time>
      </trkpt>
      <trkpt lat="43.84283" lon="3.26791">
        <ele>753.09</ele>
        <time>2026-03-29T11:41:20.336Z</time>
      </trkpt>
      <trkpt lat="43.84278" lon="3.26791">
        <ele>753.15</ele>
        <time>2026-03-29T11:41:25.495Z</time>
      </trkpt>
      <trkpt lat="43.84274" lon="3.2679">
        <ele>755.09</ele>
        <time>2026-03-29T11:41:30.637Z</time>
      </trkpt>
      <trkpt lat="43.84269" lon="3.26792">
        <ele>760.28</ele>
        <time>2026-03-29T11:41:35.811Z</time>
      </trkpt>
      <trkpt lat="43.84264" lon="3.26795">
        <ele>757.84</ele>
        <time>2026-03-29T11:41:41.280Z</time>
      </trkpt>
      <trkpt lat="43.84259" lon="3.26798">
        <ele>757.95</ele>
        <time>2026-03-29T11:41:46.328Z</time>
      </trkpt>
      <trkpt lat="43.84255" lon="3.26802">
        <ele>758.53</ele>
        <time>2026-03-29T11:41:51.352Z</time>
      </trkpt>
      <trkpt lat="43.84249" lon="3.26806">
        <ele>758.68</ele>
        <time>2026-03-29T11:41:56.858Z</time>
      </trkpt>
      <trkpt lat="43.84243" lon="3.26809">
        <ele>760.44</ele>
        <time>2026-03-29T11:42:02.290Z</time>
      </trkpt>
      <trkpt lat="43.84238" lon="3.26812">
        <ele>761.08</ele>
        <time>2026-03-29T11:42:07.346Z</time>
      </trkpt>
      <trkpt lat="43.84233" lon="3.26814">
        <ele>761.49</ele>
        <time>2026-03-29T11:42:12.533Z</time>
      </trkpt>
      <trkpt lat="43.8423" lon="3.26814">
        <ele>760.37</ele>
        <time>2026-03-29T11:42:17.832Z</time>
      </trkpt>
      <trkpt lat="43.84225" lon="3.26814">
        <ele>760.5</ele>
        <time>2026-03-29T11:42:23.280Z</time>
      </trkpt>
      <trkpt lat="43.84221" lon="3.26813">
        <ele>761.39</ele>
        <time>2026-03-29T11:42:28.280Z</time>
      </trkpt>
      <trkpt lat="43.84219" lon="3.26807">
        <ele>762.06</ele>
        <time>2026-03-29T11:42:33.571Z</time>
      </trkpt>
      <trkpt lat="43.84214" lon="3.268">
        <ele>764.19</ele>
        <time>2026-03-29T11:42:38.769Z</time>
      </trkpt>
      <trkpt lat="43.84214" lon="3.26794">
        <ele>764.57</ele>
        <time>2026-03-29T11:42:44.275Z</time>
      </trkpt>
      <trkpt lat="43.84209" lon="3.26789">
        <ele>762.91</ele>
        <time>2026-03-29T11:42:50.156Z</time>
      </trkpt>
      <trkpt lat="43.84206" lon="3.26783">
        <ele>762.48</ele>
        <time>2026-03-29T11:42:55.214Z</time>
      </trkpt>
      <trkpt lat="43.84202" lon="3.2678">
        <ele>762.94</ele>
        <time>2026-03-29T11:43:00.475Z</time>
      </trkpt>
      <trkpt lat="43.84198" lon="3.26781">
        <ele>762.43</ele>
        <time>2026-03-29T11:43:05.954Z</time>
      </trkpt>
      <trkpt lat="43.84195" lon="3.26773">
        <ele>763.52</ele>
        <time>2026-03-29T11:43:11.190Z</time>
      </trkpt>
      <trkpt lat="43.84191" lon="3.26766">
        <ele>762.23</ele>
        <time>2026-03-29T11:43:16.280Z</time>
      </trkpt>
      <trkpt lat="43.84183" lon="3.26761">
        <ele>757.81</ele>
        <time>2026-03-29T11:43:21.636Z</time>
      </trkpt>
      <trkpt lat="43.84176" lon="3.26763">
        <ele>762.69</ele>
        <time>2026-03-29T11:43:27.371Z</time>
      </trkpt>
      <trkpt lat="43.84169" lon="3.2676">
        <ele>764.5</ele>
        <time>2026-03-29T11:43:32.555Z</time>
      </trkpt>
      <trkpt lat="43.84162" lon="3.26758">
        <ele>764.59</ele>
        <time>2026-03-29T11:43:37.856Z</time>
      </trkpt>
      <trkpt lat="43.84157" lon="3.26763">
        <ele>768.03</ele>
        <time>2026-03-29T11:43:43.359Z</time>
      </trkpt>
      <trkpt lat="43.84159" lon="3.26764">
        <ele>765.93</ele>
        <time>2026-03-29T11:43:49.279Z</time>
      </trkpt>
      <trkpt lat="43.84158" lon="3.26764">
        <ele>762.94</ele>
        <time>2026-03-29T11:43:58.492Z</time>
      </trkpt>
      <trkpt lat="43.84156" lon="3.26771">
        <ele>763.36</ele>
        <time>2026-03-29T11:44:04.209Z</time>
      </trkpt>
      <trkpt lat="43.84156" lon="3.26777">
        <ele>764.97</ele>
        <time>2026-03-29T11:44:10.213Z</time>
      </trkpt>
      <trkpt lat="43.84154" lon="3.26787">
        <ele>763.66</ele>
        <time>2026-03-29T11:44:16.035Z</time>
      </trkpt>
      <trkpt lat="43.84152" lon="3.26795">
        <ele>762.59</ele>
        <time>2026-03-29T11:44:21.356Z</time>
      </trkpt>
      <trkpt lat="43.8415" lon="3.26805">
        <ele>762.39</ele>
        <time>2026-03-29T11:44:27.280Z</time>
      </trkpt>
      <trkpt lat="43.84147" lon="3.26813">
        <ele>763.1</ele>
        <time>2026-03-29T11:44:32.345Z</time>
      </trkpt>
      <trkpt lat="43.84144" lon="3.26818">
        <ele>763.79</ele>
        <time>2026-03-29T11:44:37.613Z</time>
      </trkpt>
      <trkpt lat="43.84139" lon="3.26823">
        <ele>763.32</ele>
        <time>2026-03-29T11:44:43.359Z</time>
      </trkpt>
      <trkpt lat="43.84134" lon="3.26826">
        <ele>761.35</ele>
        <time>2026-03-29T11:44:49.310Z</time>
      </trkpt>
      <trkpt lat="43.84135" lon="3.26824">
        <ele>760.84</ele>
        <time>2026-03-29T11:44:54.325Z</time>
      </trkpt>
      <trkpt lat="43.84134" lon="3.26827">
        <ele>760.78</ele>
        <time>2026-03-29T11:44:59.339Z</time>
      </trkpt>
      <trkpt lat="43.84128" lon="3.26838">
        <ele>761.72</ele>
        <time>2026-03-29T11:45:05.112Z</time>
      </trkpt>
      <trkpt lat="43.84124" lon="3.26845">
        <ele>761.78</ele>
        <time>2026-03-29T11:45:10.328Z</time>
      </trkpt>
      <trkpt lat="43.8412" lon="3.26854">
        <ele>760.73</ele>
        <time>2026-03-29T11:45:16.377Z</time>
      </trkpt>
      <trkpt lat="43.84117" lon="3.26863">
        <ele>759.55</ele>
        <time>2026-03-29T11:45:22.051Z</time>
      </trkpt>
      <trkpt lat="43.84114" lon="3.26871">
        <ele>758.05</ele>
        <time>2026-03-29T11:45:27.292Z</time>
      </trkpt>
      <trkpt lat="43.84113" lon="3.26879">
        <ele>758.32</ele>
        <time>2026-03-29T11:45:32.307Z</time>
      </trkpt>
      <trkpt lat="43.84113" lon="3.26887">
        <ele>758.61</ele>
        <time>2026-03-29T11:45:37.321Z</time>
      </trkpt>
      <trkpt lat="43.84115" lon="3.26892">
        <ele>757.51</ele>
        <time>2026-03-29T11:45:43.296Z</time>
      </trkpt>
      <trkpt lat="43.84116" lon="3.26899">
        <ele>755.93</ele>
        <time>2026-03-29T11:45:49.113Z</time>
      </trkpt>
      <trkpt lat="43.84117" lon="3.26907">
        <ele>754.37</ele>
        <time>2026-03-29T11:45:54.284Z</time>
      </trkpt>
      <trkpt lat="43.84119" lon="3.26915">
        <ele>762.05</ele>
        <time>2026-03-29T11:45:59.291Z</time>
      </trkpt>
      <trkpt lat="43.84119" lon="3.26922">
        <ele>762.89</ele>
        <time>2026-03-29T11:46:05.280Z</time>
      </trkpt>
      <trkpt lat="43.84118" lon="3.26926">
        <ele>753.99</ele>
        <time>2026-03-29T11:46:10.288Z</time>
      </trkpt>
      <trkpt lat="43.84118" lon="3.26932">
        <ele>753.1</ele>
        <time>2026-03-29T11:46:15.304Z</time>
      </trkpt>
      <trkpt lat="43.84121" lon="3.26937">
        <ele>752.07</ele>
        <time>2026-03-29T11:46:20.319Z</time>
      </trkpt>
      <trkpt lat="43.84128" lon="3.26944">
        <ele>751.41</ele>
        <time>2026-03-29T11:46:26.153Z</time>
      </trkpt>
      <trkpt lat="43.84135" lon="3.26951">
        <ele>756.01</ele>
        <time>2026-03-29T11:46:31.596Z</time>
      </trkpt>
      <trkpt lat="43.84132" lon="3.26962">
        <ele>754.75</ele>
        <time>2026-03-29T11:46:37.283Z</time>
      </trkpt>
      <trkpt lat="43.84126" lon="3.26971">
        <ele>752.72</ele>
        <time>2026-03-29T11:46:43.295Z</time>
      </trkpt>
      <trkpt lat="43.84124" lon="3.26976">
        <ele>753.15</ele>
        <time>2026-03-29T11:46:48.872Z</time>
      </trkpt>
      <trkpt lat="43.84123" lon="3.26976">
        <ele>752.51</ele>
        <time>2026-03-29T11:46:54.216Z</time>
      </trkpt>
      <trkpt lat="43.8412" lon="3.26979">
        <ele>752.96</ele>
        <time>2026-03-29T11:46:59.280Z</time>
      </trkpt>
      <trkpt lat="43.84117" lon="3.26982">
        <ele>754.13</ele>
        <time>2026-03-29T11:47:04.350Z</time>
      </trkpt>
      <trkpt lat="43.84111" lon="3.26991">
        <ele>752.87</ele>
        <time>2026-03-29T11:47:10.193Z</time>
      </trkpt>
      <trkpt lat="43.84107" lon="3.26998">
        <ele>751.87</ele>
        <time>2026-03-29T11:47:15.330Z</time>
      </trkpt>
      <trkpt lat="43.84104" lon="3.27006">
        <ele>751.58</ele>
        <time>2026-03-29T11:47:20.387Z</time>
      </trkpt>
      <trkpt lat="43.84102" lon="3.27019">
        <ele>752.69</ele>
        <time>2026-03-29T11:47:26.171Z</time>
      </trkpt>
      <trkpt lat="43.84102" lon="3.27031">
        <ele>752.51</ele>
        <time>2026-03-29T11:47:31.256Z</time>
      </trkpt>
      <trkpt lat="43.84101" lon="3.27038">
        <ele>750.23</ele>
        <time>2026-03-29T11:47:36.571Z</time>
      </trkpt>
      <trkpt lat="43.84097" lon="3.27044">
        <ele>751.39</ele>
        <time>2026-03-29T11:47:42.270Z</time>
      </trkpt>
      <trkpt lat="43.84089" lon="3.27047">
        <ele>749.98</ele>
        <time>2026-03-29T11:47:48.211Z</time>
      </trkpt>
      <trkpt lat="43.84081" lon="3.27045">
        <ele>752.06</ele>
        <time>2026-03-29T11:47:53.353Z</time>
      </trkpt>
      <trkpt lat="43.84074" lon="3.27047">
        <ele>751.55</ele>
        <time>2026-03-29T11:47:58.595Z</time>
      </trkpt>
      <trkpt lat="43.84068" lon="3.27052">
        <ele>751.12</ele>
        <time>2026-03-29T11:48:04.293Z</time>
      </trkpt>
      <trkpt lat="43.84065" lon="3.27059">
        <ele>750.22</ele>
        <time>2026-03-29T11:48:09.592Z</time>
      </trkpt>
      <trkpt lat="43.8406" lon="3.27065">
        <ele>751.43</ele>
        <time>2026-03-29T11:48:14.917Z</time>
      </trkpt>
      <trkpt lat="43.84053" lon="3.27068">
        <ele>752.32</ele>
        <time>2026-03-29T11:48:20.346Z</time>
      </trkpt>
      <trkpt lat="43.84048" lon="3.27076">
        <ele>752.1</ele>
        <time>2026-03-29T11:48:25.818Z</time>
      </trkpt>
      <trkpt lat="43.84044" lon="3.27084">
        <ele>752.93</ele>
        <time>2026-03-29T11:48:30.850Z</time>
      </trkpt>
      <trkpt lat="43.84042" lon="3.27093">
        <ele>754.74</ele>
        <time>2026-03-29T11:48:36.349Z</time>
      </trkpt>
      <trkpt lat="43.84041" lon="3.27099">
        <ele>754.52</ele>
        <time>2026-03-29T11:48:41.362Z</time>
      </trkpt>
      <trkpt lat="43.84037" lon="3.27103">
        <ele>752.07</ele>
        <time>2026-03-29T11:48:46.771Z</time>
      </trkpt>
      <trkpt lat="43.84034" lon="3.27107">
        <ele>753.92</ele>
        <time>2026-03-29T11:48:52.116Z</time>
      </trkpt>
      <trkpt lat="43.8403" lon="3.27112">
        <ele>756.29</ele>
        <time>2026-03-29T11:48:57.237Z</time>
      </trkpt>
      <trkpt lat="43.84027" lon="3.27118">
        <ele>755.71</ele>
        <time>2026-03-29T11:49:02.336Z</time>
      </trkpt>
      <trkpt lat="43.84023" lon="3.27123">
        <ele>757.24</ele>
        <time>2026-03-29T11:49:07.450Z</time>
      </trkpt>
      <trkpt lat="43.84017" lon="3.27125">
        <ele>756.14</ele>
        <time>2026-03-29T11:49:13.035Z</time>
      </trkpt>
      <trkpt lat="43.8401" lon="3.27125">
        <ele>755.29</ele>
        <time>2026-03-29T11:49:18.132Z</time>
      </trkpt>
      <trkpt lat="43.84005" lon="3.27129">
        <ele>758.05</ele>
        <time>2026-03-29T11:49:23.169Z</time>
      </trkpt>
      <trkpt lat="43.84" lon="3.27131">
        <ele>758.16</ele>
        <time>2026-03-29T11:49:28.513Z</time>
      </trkpt>
      <trkpt lat="43.83993" lon="3.27134">
        <ele>759.33</ele>
        <time>2026-03-29T11:49:34.070Z</time>
      </trkpt>
      <trkpt lat="43.83987" lon="3.27136">
        <ele>759.56</ele>
        <time>2026-03-29T11:49:39.141Z</time>
      </trkpt>
      <trkpt lat="43.83982" lon="3.27137">
        <ele>758.51</ele>
        <time>2026-03-29T11:49:44.308Z</time>
      </trkpt>
      <trkpt lat="43.83977" lon="3.27139">
        <ele>759.73</ele>
        <time>2026-03-29T11:49:49.577Z</time>
      </trkpt>
      <trkpt lat="43.83972" lon="3.27147">
        <ele>759.9</ele>
        <time>2026-03-29T11:49:54.733Z</time>
      </trkpt>
      <trkpt lat="43.83967" lon="3.27151">
        <ele>761.39</ele>
        <time>2026-03-29T11:49:59.755Z</time>
      </trkpt>
      <trkpt lat="43.83961" lon="3.27153">
        <ele>759.72</ele>
        <time>2026-03-29T11:50:04.815Z</time>
      </trkpt>
      <trkpt lat="43.83955" lon="3.27157">
        <ele>760.33</ele>
        <time>2026-03-29T11:50:10.340Z</time>
      </trkpt>
      <trkpt lat="43.8395" lon="3.27165">
        <ele>757.85</ele>
        <time>2026-03-29T11:50:15.354Z</time>
      </trkpt>
      <trkpt lat="43.83943" lon="3.27169">
        <ele>757.67</ele>
        <time>2026-03-29T11:50:20.657Z</time>
      </trkpt>
      <trkpt lat="43.83938" lon="3.27173">
        <ele>757.45</ele>
        <time>2026-03-29T11:50:25.715Z</time>
      </trkpt>
      <trkpt lat="43.83931" lon="3.27177">
        <ele>758.6</ele>
        <time>2026-03-29T11:50:31.280Z</time>
      </trkpt>
      <trkpt lat="43.83932" lon="3.2718">
        <ele>756.21</ele>
        <time>2026-03-29T11:50:36.535Z</time>
      </trkpt>
      <trkpt lat="43.83925" lon="3.27181">
        <ele>754.71</ele>
        <time>2026-03-29T11:50:41.772Z</time>
      </trkpt>
      <trkpt lat="43.8392" lon="3.27187">
        <ele>754.27</ele>
        <time>2026-03-29T11:50:47.279Z</time>
      </trkpt>
      <trkpt lat="43.83912" lon="3.27185">
        <ele>752.81</ele>
        <time>2026-03-29T11:50:52.374Z</time>
      </trkpt>
      <trkpt lat="43.83906" lon="3.27173">
        <ele>750.79</ele>
        <time>2026-03-29T11:50:57.388Z</time>
      </trkpt>
      <trkpt lat="43.839" lon="3.27166">
        <ele>750.59</ele>
        <time>2026-03-29T11:51:03.280Z</time>
      </trkpt>
      <trkpt lat="43.83895" lon="3.27166">
        <ele>748.81</ele>
        <time>2026-03-29T11:51:08.916Z</time>
      </trkpt>
      <trkpt lat="43.83889" lon="3.27166">
        <ele>747.44</ele>
        <time>2026-03-29T11:51:14.352Z</time>
      </trkpt>
      <trkpt lat="43.83882" lon="3.27168">
        <ele>745.88</ele>
        <time>2026-03-29T11:51:20.293Z</time>
      </trkpt>
      <trkpt lat="43.83878" lon="3.27177">
        <ele>745.19</ele>
        <time>2026-03-29T11:51:26.297Z</time>
      </trkpt>
      <trkpt lat="43.83873" lon="3.27186">
        <ele>743.72</ele>
        <time>2026-03-29T11:51:31.629Z</time>
      </trkpt>
      <trkpt lat="43.83866" lon="3.27188">
        <ele>742.97</ele>
        <time>2026-03-29T11:51:37.311Z</time>
      </trkpt>
      <trkpt lat="43.83859" lon="3.27185">
        <ele>741.11</ele>
        <time>2026-03-29T11:51:42.653Z</time>
      </trkpt>
      <trkpt lat="43.83852" lon="3.27184">
        <ele>740.54</ele>
        <time>2026-03-29T11:51:48.034Z</time>
      </trkpt>
      <trkpt lat="43.83844" lon="3.27185">
        <ele>740.23</ele>
        <time>2026-03-29T11:51:53.374Z</time>
      </trkpt>
      <trkpt lat="43.83838" lon="3.27186">
        <ele>739.65</ele>
        <time>2026-03-29T11:51:58.693Z</time>
      </trkpt>
      <trkpt lat="43.83831" lon="3.27187">
        <ele>740.1</ele>
        <time>2026-03-29T11:52:04.151Z</time>
      </trkpt>
      <trkpt lat="43.83826" lon="3.27187">
        <ele>738.17</ele>
        <time>2026-03-29T11:52:09.295Z</time>
      </trkpt>
      <trkpt lat="43.83819" lon="3.27185">
        <ele>737.99</ele>
        <time>2026-03-29T11:52:14.973Z</time>
      </trkpt>
      <trkpt lat="43.83812" lon="3.27184">
        <ele>736.98</ele>
        <time>2026-03-29T11:52:20.538Z</time>
      </trkpt>
      <trkpt lat="43.83807" lon="3.27182">
        <ele>736.88</ele>
        <time>2026-03-29T11:52:25.915Z</time>
      </trkpt>
      <trkpt lat="43.83802" lon="3.27181">
        <ele>738.94</ele>
        <time>2026-03-29T11:52:31.280Z</time>
      </trkpt>
      <trkpt lat="43.83795" lon="3.27178">
        <ele>738.84</ele>
        <time>2026-03-29T11:52:36.957Z</time>
      </trkpt>
      <trkpt lat="43.83788" lon="3.27177">
        <ele>738.64</ele>
        <time>2026-03-29T11:52:42.280Z</time>
      </trkpt>
      <trkpt lat="43.8378" lon="3.27178">
        <ele>738.22</ele>
        <time>2026-03-29T11:52:48.177Z</time>
      </trkpt>
      <trkpt lat="43.83773" lon="3.27179">
        <ele>736.77</ele>
        <time>2026-03-29T11:52:53.696Z</time>
      </trkpt>
      <trkpt lat="43.83766" lon="3.27179">
        <ele>737.67</ele>
        <time>2026-03-29T11:52:58.839Z</time>
      </trkpt>
      <trkpt lat="43.83761" lon="3.27178">
        <ele>737.1</ele>
        <time>2026-03-29T11:53:04.031Z</time>
      </trkpt>
      <trkpt lat="43.83757" lon="3.27185">
        <ele>735.26</ele>
        <time>2026-03-29T11:53:09.595Z</time>
      </trkpt>
      <trkpt lat="43.83753" lon="3.27193">
        <ele>734.68</ele>
        <time>2026-03-29T11:53:15.215Z</time>
      </trkpt>
      <trkpt lat="43.83746" lon="3.27195">
        <ele>733.01</ele>
        <time>2026-03-29T11:53:20.693Z</time>
      </trkpt>
      <trkpt lat="43.83738" lon="3.27194">
        <ele>732.96</ele>
        <time>2026-03-29T11:53:26.069Z</time>
      </trkpt>
      <trkpt lat="43.83731" lon="3.27191">
        <ele>732.95</ele>
        <time>2026-03-29T11:53:31.553Z</time>
      </trkpt>
      <trkpt lat="43.83724" lon="3.27191">
        <ele>732.29</ele>
        <time>2026-03-29T11:53:36.933Z</time>
      </trkpt>
      <trkpt lat="43.83719" lon="3.2719">
        <ele>732.02</ele>
        <time>2026-03-29T11:53:42.214Z</time>
      </trkpt>
      <trkpt lat="43.8371" lon="3.27189">
        <ele>730.9</ele>
        <time>2026-03-29T11:53:47.773Z</time>
      </trkpt>
      <trkpt lat="43.83704" lon="3.27191">
        <ele>730.79</ele>
        <time>2026-03-29T11:53:53.316Z</time>
      </trkpt>
      <trkpt lat="43.83696" lon="3.27194">
        <ele>730.6</ele>
        <time>2026-03-29T11:53:58.814Z</time>
      </trkpt>
      <trkpt lat="43.8369" lon="3.27197">
        <ele>730.23</ele>
        <time>2026-03-29T11:54:03.953Z</time>
      </trkpt>
      <trkpt lat="43.83682" lon="3.27198">
        <ele>728.27</ele>
        <time>2026-03-29T11:54:09.319Z</time>
      </trkpt>
      <trkpt lat="43.83675" lon="3.27197">
        <ele>727.35</ele>
        <time>2026-03-29T11:54:14.333Z</time>
      </trkpt>
      <trkpt lat="43.83669" lon="3.27197">
        <ele>726.64</ele>
        <time>2026-03-29T11:54:19.973Z</time>
      </trkpt>
      <trkpt lat="43.83663" lon="3.27202">
        <ele>727.21</ele>
        <time>2026-03-29T11:54:25.271Z</time>
      </trkpt>
      <trkpt lat="43.83658" lon="3.2721">
        <ele>726.73</ele>
        <time>2026-03-29T11:54:30.336Z</time>
      </trkpt>
      <trkpt lat="43.83653" lon="3.27213">
        <ele>727.03</ele>
        <time>2026-03-29T11:54:36.310Z</time>
      </trkpt>
      <trkpt lat="43.83654" lon="3.27211">
        <ele>725.02</ele>
        <time>2026-03-29T11:54:42.285Z</time>
      </trkpt>
      <trkpt lat="43.83654" lon="3.2721">
        <ele>728.4</ele>
        <time>2026-03-29T11:54:50.286Z</time>
      </trkpt>
      <trkpt lat="43.83654" lon="3.27209">
        <ele>724.71</ele>
        <time>2026-03-29T11:54:57.279Z</time>
      </trkpt>
      <trkpt lat="43.83652" lon="3.27205">
        <ele>725.9</ele>
        <time>2026-03-29T11:55:02.342Z</time>
      </trkpt>
      <trkpt lat="43.83646" lon="3.27195">
        <ele>725.09</ele>
        <time>2026-03-29T11:55:08.280Z</time>
      </trkpt>
      <trkpt lat="43.83643" lon="3.27188">
        <ele>724.41</ele>
        <time>2026-03-29T11:55:13.332Z</time>
      </trkpt>
      <trkpt lat="43.83642" lon="3.2719">
        <ele>724.35</ele>
        <time>2026-03-29T11:55:18.859Z</time>
      </trkpt>
      <trkpt lat="43.83641" lon="3.2719">
        <ele>725.33</ele>
        <time>2026-03-29T11:55:26.348Z</time>
      </trkpt>
      <trkpt lat="43.83636" lon="3.27185">
        <ele>724.3</ele>
        <time>2026-03-29T11:55:31.363Z</time>
      </trkpt>
      <trkpt lat="43.83628" lon="3.2718">
        <ele>725.05</ele>
        <time>2026-03-29T11:55:37.337Z</time>
      </trkpt>
      <trkpt lat="43.83622" lon="3.27178">
        <ele>725.41</ele>
        <time>2026-03-29T11:55:42.353Z</time>
      </trkpt>
      <trkpt lat="43.83615" lon="3.27175">
        <ele>723.68</ele>
        <time>2026-03-29T11:55:47.930Z</time>
      </trkpt>
      <trkpt lat="43.8361" lon="3.27173">
        <ele>725.35</ele>
        <time>2026-03-29T11:55:53.342Z</time>
      </trkpt>
      <trkpt lat="43.83608" lon="3.27171">
        <ele>726.6</ele>
        <time>2026-03-29T11:55:59.035Z</time>
      </trkpt>
      <trkpt lat="43.83603" lon="3.27168">
        <ele>725.67</ele>
        <time>2026-03-29T11:56:04.332Z</time>
      </trkpt>
      <trkpt lat="43.83599" lon="3.27167">
        <ele>725.47</ele>
        <time>2026-03-29T11:56:09.776Z</time>
      </trkpt>
      <trkpt lat="43.83591" lon="3.27162">
        <ele>725.76</ele>
        <time>2026-03-29T11:56:15.096Z</time>
      </trkpt>
      <trkpt lat="43.83585" lon="3.27162">
        <ele>725.74</ele>
        <time>2026-03-29T11:56:20.695Z</time>
      </trkpt>
      <trkpt lat="43.8358" lon="3.27163">
        <ele>723.47</ele>
        <time>2026-03-29T11:56:26.311Z</time>
      </trkpt>
      <trkpt lat="43.83574" lon="3.27167">
        <ele>722.68</ele>
        <time>2026-03-29T11:56:32.339Z</time>
      </trkpt>
      <trkpt lat="43.83569" lon="3.27173">
        <ele>721.93</ele>
        <time>2026-03-29T11:56:37.793Z</time>
      </trkpt>
      <trkpt lat="43.83562" lon="3.2718">
        <ele>721.9</ele>
        <time>2026-03-29T11:56:43.235Z</time>
      </trkpt>
      <trkpt lat="43.83558" lon="3.27184">
        <ele>721.21</ele>
        <time>2026-03-29T11:56:48.294Z</time>
      </trkpt>
      <trkpt lat="43.83554" lon="3.27185">
        <ele>719.73</ele>
        <time>2026-03-29T11:56:53.658Z</time>
      </trkpt>
      <trkpt lat="43.83549" lon="3.27181">
        <ele>719.18</ele>
        <time>2026-03-29T11:56:58.775Z</time>
      </trkpt>
      <trkpt lat="43.83545" lon="3.27178">
        <ele>718.94</ele>
        <time>2026-03-29T11:57:03.915Z</time>
      </trkpt>
      <trkpt lat="43.83541" lon="3.27175">
        <ele>718.17</ele>
        <time>2026-03-29T11:57:09.308Z</time>
      </trkpt>
      <trkpt lat="43.83537" lon="3.27171">
        <ele>718.55</ele>
        <time>2026-03-29T11:57:14.396Z</time>
      </trkpt>
      <trkpt lat="43.83532" lon="3.27166">
        <ele>718.35</ele>
        <time>2026-03-29T11:57:19.635Z</time>
      </trkpt>
      <trkpt lat="43.83525" lon="3.27161">
        <ele>717.78</ele>
        <time>2026-03-29T11:57:24.820Z</time>
      </trkpt>
      <trkpt lat="43.8352" lon="3.27158">
        <ele>718.08</ele>
        <time>2026-03-29T11:57:30.356Z</time>
      </trkpt>
      <trkpt lat="43.83514" lon="3.27155">
        <ele>717.24</ele>
        <time>2026-03-29T11:57:35.815Z</time>
      </trkpt>
      <trkpt lat="43.83508" lon="3.27153">
        <ele>716.82</ele>
        <time>2026-03-29T11:57:41.316Z</time>
      </trkpt>
      <trkpt lat="43.83504" lon="3.27149">
        <ele>716.52</ele>
        <time>2026-03-29T11:57:46.608Z</time>
      </trkpt>
      <trkpt lat="43.83497" lon="3.27146">
        <ele>715.08</ele>
        <time>2026-03-29T11:57:51.997Z</time>
      </trkpt>
      <trkpt lat="43.83492" lon="3.27141">
        <ele>714.07</ele>
        <time>2026-03-29T11:57:57.297Z</time>
      </trkpt>
      <trkpt lat="43.83486" lon="3.27136">
        <ele>713.61</ele>
        <time>2026-03-29T11:58:03.058Z</time>
      </trkpt>
      <trkpt lat="43.83481" lon="3.27131">
        <ele>712.56</ele>
        <time>2026-03-29T11:58:08.678Z</time>
      </trkpt>
      <trkpt lat="43.83477" lon="3.27126">
        <ele>711.31</ele>
        <time>2026-03-29T11:58:14.377Z</time>
      </trkpt>
      <trkpt lat="43.83471" lon="3.27123">
        <ele>709.45</ele>
        <time>2026-03-29T11:58:20.079Z</time>
      </trkpt>
      <trkpt lat="43.83465" lon="3.27126">
        <ele>708.25</ele>
        <time>2026-03-29T11:58:25.380Z</time>
      </trkpt>
      <trkpt lat="43.8346" lon="3.27131">
        <ele>707.14</ele>
        <time>2026-03-29T11:58:31.154Z</time>
      </trkpt>
      <trkpt lat="43.83457" lon="3.2713">
        <ele>706.94</ele>
        <time>2026-03-29T11:58:36.255Z</time>
      </trkpt>
      <trkpt lat="43.83453" lon="3.27132">
        <ele>706.65</ele>
        <time>2026-03-29T11:58:41.280Z</time>
      </trkpt>
      <trkpt lat="43.83447" lon="3.27135">
        <ele>701.95</ele>
        <time>2026-03-29T11:58:46.872Z</time>
      </trkpt>
      <trkpt lat="43.83439" lon="3.27133">
        <ele>699.96</ele>
        <time>2026-03-29T11:58:52.280Z</time>
      </trkpt>
      <trkpt lat="43.83433" lon="3.27137">
        <ele>705.58</ele>
        <time>2026-03-29T11:58:57.298Z</time>
      </trkpt>
      <trkpt lat="43.83425" lon="3.27142">
        <ele>704.83</ele>
        <time>2026-03-29T11:59:03.297Z</time>
      </trkpt>
      <trkpt lat="43.83418" lon="3.27147">
        <ele>700.8</ele>
        <time>2026-03-29T11:59:08.932Z</time>
      </trkpt>
      <trkpt lat="43.83413" lon="3.27151">
        <ele>700.82</ele>
        <time>2026-03-29T11:59:14.134Z</time>
      </trkpt>
      <trkpt lat="43.83408" lon="3.27156">
        <ele>699.59</ele>
        <time>2026-03-29T11:59:19.383Z</time>
      </trkpt>
      <trkpt lat="43.83404" lon="3.27158">
        <ele>699.65</ele>
        <time>2026-03-29T11:59:24.536Z</time>
      </trkpt>
      <trkpt lat="43.83398" lon="3.2716">
        <ele>699.08</ele>
        <time>2026-03-29T11:59:29.692Z</time>
      </trkpt>
      <trkpt lat="43.83392" lon="3.27163">
        <ele>698.47</ele>
        <time>2026-03-29T11:59:35.338Z</time>
      </trkpt>
      <trkpt lat="43.83386" lon="3.27168">
        <ele>698.19</ele>
        <time>2026-03-29T11:59:40.817Z</time>
      </trkpt>
      <trkpt lat="43.83382" lon="3.2717">
        <ele>697.47</ele>
        <time>2026-03-29T11:59:45.953Z</time>
      </trkpt>
      <trkpt lat="43.83378" lon="3.27172">
        <ele>695.58</ele>
        <time>2026-03-29T11:59:51.286Z</time>
      </trkpt>
      <trkpt lat="43.83373" lon="3.27174">
        <ele>694.99</ele>
        <time>2026-03-29T11:59:57.354Z</time>
      </trkpt>
      <trkpt lat="43.83367" lon="3.27176">
        <ele>694.37</ele>
        <time>2026-03-29T12:00:03.015Z</time>
      </trkpt>
      <trkpt lat="43.83361" lon="3.27179">
        <ele>694</ele>
        <time>2026-03-29T12:00:08.733Z</time>
      </trkpt>
      <trkpt lat="43.83357" lon="3.27183">
        <ele>693.02</ele>
        <time>2026-03-29T12:00:14.331Z</time>
      </trkpt>
      <trkpt lat="43.8335" lon="3.27182">
        <ele>692.33</ele>
        <time>2026-03-29T12:00:19.794Z</time>
      </trkpt>
      <trkpt lat="43.83341" lon="3.27179">
        <ele>691.84</ele>
        <time>2026-03-29T12:00:25.321Z</time>
      </trkpt>
      <trkpt lat="43.83334" lon="3.27181">
        <ele>691.37</ele>
        <time>2026-03-29T12:00:30.926Z</time>
      </trkpt>
      <trkpt lat="43.8333" lon="3.27188">
        <ele>690.28</ele>
        <time>2026-03-29T12:00:36.386Z</time>
      </trkpt>
      <trkpt lat="43.83327" lon="3.27198">
        <ele>689.74</ele>
        <time>2026-03-29T12:00:41.862Z</time>
      </trkpt>
      <trkpt lat="43.83323" lon="3.27204">
        <ele>689.25</ele>
        <time>2026-03-29T12:00:47.302Z</time>
      </trkpt>
      <trkpt lat="43.8332" lon="3.27213">
        <ele>688.88</ele>
        <time>2026-03-29T12:00:52.340Z</time>
      </trkpt>
      <trkpt lat="43.83317" lon="3.27218">
        <ele>687.77</ele>
        <time>2026-03-29T12:00:57.865Z</time>
      </trkpt>
      <trkpt lat="43.8331" lon="3.27221">
        <ele>686.97</ele>
        <time>2026-03-29T12:01:03.330Z</time>
      </trkpt>
      <trkpt lat="43.83305" lon="3.27228">
        <ele>687.76</ele>
        <time>2026-03-29T12:01:08.344Z</time>
      </trkpt>
      <trkpt lat="43.83302" lon="3.27235">
        <ele>687.81</ele>
        <time>2026-03-29T12:01:13.567Z</time>
      </trkpt>
      <trkpt lat="43.83297" lon="3.27244">
        <ele>686.41</ele>
        <time>2026-03-29T12:01:19.008Z</time>
      </trkpt>
      <trkpt lat="43.83294" lon="3.27249">
        <ele>686.31</ele>
        <time>2026-03-29T12:01:24.040Z</time>
      </trkpt>
      <trkpt lat="43.83288" lon="3.27256">
        <ele>686.61</ele>
        <time>2026-03-29T12:01:29.363Z</time>
      </trkpt>
      <trkpt lat="43.83283" lon="3.27261">
        <ele>686.15</ele>
        <time>2026-03-29T12:01:34.377Z</time>
      </trkpt>
      <trkpt lat="43.83278" lon="3.27267">
        <ele>686.16</ele>
        <time>2026-03-29T12:01:40.351Z</time>
      </trkpt>
      <trkpt lat="43.83272" lon="3.27272">
        <ele>685.59</ele>
        <time>2026-03-29T12:01:45.367Z</time>
      </trkpt>
      <trkpt lat="43.83266" lon="3.27273">
        <ele>685.58</ele>
        <time>2026-03-29T12:01:50.373Z</time>
      </trkpt>
      <trkpt lat="43.8326" lon="3.27276">
        <ele>684.25</ele>
        <time>2026-03-29T12:01:55.940Z</time>
      </trkpt>
      <trkpt lat="43.83256" lon="3.27279">
        <ele>685.37</ele>
        <time>2026-03-29T12:02:01.279Z</time>
      </trkpt>
      <trkpt lat="43.83253" lon="3.27281">
        <ele>685.31</ele>
        <time>2026-03-29T12:02:06.279Z</time>
      </trkpt>
      <trkpt lat="43.83249" lon="3.27285">
        <ele>683.14</ele>
        <time>2026-03-29T12:02:11.606Z</time>
      </trkpt>
      <trkpt lat="43.83244" lon="3.27291">
        <ele>681.76</ele>
        <time>2026-03-29T12:02:17.199Z</time>
      </trkpt>
      <trkpt lat="43.83239" lon="3.27296">
        <ele>685.88</ele>
        <time>2026-03-29T12:02:22.283Z</time>
      </trkpt>
      <trkpt lat="43.83232" lon="3.27296">
        <ele>686.8</ele>
        <time>2026-03-29T12:02:27.298Z</time>
      </trkpt>
      <trkpt lat="43.83224" lon="3.27299">
        <ele>684.25</ele>
        <time>2026-03-29T12:02:33.302Z</time>
      </trkpt>
      <trkpt lat="43.83219" lon="3.27302">
        <ele>685.12</ele>
        <time>2026-03-29T12:02:38.388Z</time>
      </trkpt>
      <trkpt lat="43.83214" lon="3.27306">
        <ele>684.46</ele>
        <time>2026-03-29T12:02:44.026Z</time>
      </trkpt>
      <trkpt lat="43.83209" lon="3.2731">
        <ele>684.65</ele>
        <time>2026-03-29T12:02:49.229Z</time>
      </trkpt>
      <trkpt lat="43.83203" lon="3.27313">
        <ele>684.92</ele>
        <time>2026-03-29T12:02:54.847Z</time>
      </trkpt>
      <trkpt lat="43.83197" lon="3.27316">
        <ele>685.11</ele>
        <time>2026-03-29T12:03:00.374Z</time>
      </trkpt>
      <trkpt lat="43.83192" lon="3.27318">
        <ele>685.02</ele>
        <time>2026-03-29T12:03:05.389Z</time>
      </trkpt>
      <trkpt lat="43.83186" lon="3.27322">
        <ele>684.24</ele>
        <time>2026-03-29T12:03:11.280Z</time>
      </trkpt>
      <trkpt lat="43.83179" lon="3.27323">
        <ele>684.27</ele>
        <time>2026-03-29T12:03:17.210Z</time>
      </trkpt>
      <trkpt lat="43.83173" lon="3.27326">
        <ele>684.57</ele>
        <time>2026-03-29T12:03:22.909Z</time>
      </trkpt>
      <trkpt lat="43.83166" lon="3.27328">
        <ele>684.09</ele>
        <time>2026-03-29T12:03:27.923Z</time>
      </trkpt>
      <trkpt lat="43.83161" lon="3.27332">
        <ele>683.8</ele>
        <time>2026-03-29T12:03:32.929Z</time>
      </trkpt>
      <trkpt lat="43.83154" lon="3.27337">
        <ele>683.07</ele>
        <time>2026-03-29T12:03:38.629Z</time>
      </trkpt>
      <trkpt lat="43.83146" lon="3.27339">
        <ele>682.44</ele>
        <time>2026-03-29T12:03:44.124Z</time>
      </trkpt>
      <trkpt lat="43.83139" lon="3.27341">
        <ele>682.99</ele>
        <time>2026-03-29T12:03:49.726Z</time>
      </trkpt>
      <trkpt lat="43.83133" lon="3.27342">
        <ele>682.81</ele>
        <time>2026-03-29T12:03:55.351Z</time>
      </trkpt>
      <trkpt lat="43.83127" lon="3.27345">
        <ele>682.33</ele>
        <time>2026-03-29T12:04:00.963Z</time>
      </trkpt>
      <trkpt lat="43.83121" lon="3.27348">
        <ele>682.4</ele>
        <time>2026-03-29T12:04:06.022Z</time>
      </trkpt>
      <trkpt lat="43.83115" lon="3.27351">
        <ele>681.61</ele>
        <time>2026-03-29T12:04:11.304Z</time>
      </trkpt>
      <trkpt lat="43.8311" lon="3.27355">
        <ele>681.81</ele>
        <time>2026-03-29T12:04:16.342Z</time>
      </trkpt>
      <trkpt lat="43.83109" lon="3.2736">
        <ele>682.58</ele>
        <time>2026-03-29T12:04:21.838Z</time>
      </trkpt>
      <trkpt lat="43.83105" lon="3.27364">
        <ele>680.66</ele>
        <time>2026-03-29T12:04:27.069Z</time>
      </trkpt>
      <trkpt lat="43.831" lon="3.2737">
        <ele>680.6</ele>
        <time>2026-03-29T12:04:32.244Z</time>
      </trkpt>
      <trkpt lat="43.83094" lon="3.27368">
        <ele>680.59</ele>
        <time>2026-03-29T12:04:37.279Z</time>
      </trkpt>
      <trkpt lat="43.83094" lon="3.27365">
        <ele>681.82</ele>
        <time>2026-03-29T12:04:42.376Z</time>
      </trkpt>
      <trkpt lat="43.83093" lon="3.27364">
        <ele>679.64</ele>
        <time>2026-03-29T12:04:48.280Z</time>
      </trkpt>
      <trkpt lat="43.83093" lon="3.27363">
        <ele>682.04</ele>
        <time>2026-03-29T12:04:58.381Z</time>
      </trkpt>
      <trkpt lat="43.83092" lon="3.27362">
        <ele>683.67</ele>
        <time>2026-03-29T12:05:09.371Z</time>
      </trkpt>
      <trkpt lat="43.83091" lon="3.27362">
        <ele>680.62</ele>
        <time>2026-03-29T12:05:18.334Z</time>
      </trkpt>
      <trkpt lat="43.83091" lon="3.27363">
        <ele>681.94</ele>
        <time>2026-03-29T12:05:30.284Z</time>
      </trkpt>
      <trkpt lat="43.83091" lon="3.27364">
        <ele>681.27</ele>
        <time>2026-03-29T12:05:42.340Z</time>
      </trkpt>
      <trkpt lat="43.8309" lon="3.27363">
        <ele>682.21</ele>
        <time>2026-03-29T12:06:11.360Z</time>
      </trkpt>
      <trkpt lat="43.83084" lon="3.27363">
        <ele>681.9</ele>
        <time>2026-03-29T12:06:16.825Z</time>
      </trkpt>
      <trkpt lat="43.83078" lon="3.27362">
        <ele>682.65</ele>
        <time>2026-03-29T12:06:21.847Z</time>
      </trkpt>
      <trkpt lat="43.83078" lon="3.2736">
        <ele>682.82</ele>
        <time>2026-03-29T12:06:27.365Z</time>
      </trkpt>
      <trkpt lat="43.83076" lon="3.27362">
        <ele>682.84</ele>
        <time>2026-03-29T12:06:32.380Z</time>
      </trkpt>
      <trkpt lat="43.8307" lon="3.27369">
        <ele>684.29</ele>
        <time>2026-03-29T12:06:38.224Z</time>
      </trkpt>
      <trkpt lat="43.83066" lon="3.27374">
        <ele>682.28</ele>
        <time>2026-03-29T12:06:43.369Z</time>
      </trkpt>
      <trkpt lat="43.83067" lon="3.27381">
        <ele>683.64</ele>
        <time>2026-03-29T12:06:49.344Z</time>
      </trkpt>
      <trkpt lat="43.83062" lon="3.27385">
        <ele>683.48</ele>
        <time>2026-03-29T12:06:54.785Z</time>
      </trkpt>
      <trkpt lat="43.83056" lon="3.27387">
        <ele>683.17</ele>
        <time>2026-03-29T12:07:00.280Z</time>
      </trkpt>
      <trkpt lat="43.83049" lon="3.27387">
        <ele>683.75</ele>
        <time>2026-03-29T12:07:05.280Z</time>
      </trkpt>
      <trkpt lat="43.83042" lon="3.27388">
        <ele>683.77</ele>
        <time>2026-03-29T12:07:11.280Z</time>
      </trkpt>
      <trkpt lat="43.83038" lon="3.27394">
        <ele>683.24</ele>
        <time>2026-03-29T12:07:16.597Z</time>
      </trkpt>
      <trkpt lat="43.83033" lon="3.274">
        <ele>684.7</ele>
        <time>2026-03-29T12:07:22.342Z</time>
      </trkpt>
      <trkpt lat="43.8303" lon="3.27404">
        <ele>685.63</ele>
        <time>2026-03-29T12:07:28.218Z</time>
      </trkpt>
      <trkpt lat="43.83025" lon="3.27403">
        <ele>684.88</ele>
        <time>2026-03-29T12:07:33.280Z</time>
      </trkpt>
      <trkpt lat="43.8302" lon="3.27406">
        <ele>686.14</ele>
        <time>2026-03-29T12:07:38.337Z</time>
      </trkpt>
      <trkpt lat="43.83015" lon="3.27408">
        <ele>685.05</ele>
        <time>2026-03-29T12:07:43.818Z</time>
      </trkpt>
      <trkpt lat="43.8301" lon="3.27411">
        <ele>685.06</ele>
        <time>2026-03-29T12:07:49.345Z</time>
      </trkpt>
      <trkpt lat="43.83005" lon="3.27412">
        <ele>689.52</ele>
        <time>2026-03-29T12:07:54.360Z</time>
      </trkpt>
      <trkpt lat="43.82999" lon="3.2741">
        <ele>688.12</ele>
        <time>2026-03-29T12:08:00.096Z</time>
      </trkpt>
      <trkpt lat="43.82993" lon="3.27408">
        <ele>685.99</ele>
        <time>2026-03-29T12:08:05.575Z</time>
      </trkpt>
      <trkpt lat="43.82987" lon="3.27409">
        <ele>685.48</ele>
        <time>2026-03-29T12:08:10.901Z</time>
      </trkpt>
      <trkpt lat="43.82983" lon="3.27412">
        <ele>686.45</ele>
        <time>2026-03-29T12:08:16.342Z</time>
      </trkpt>
      <trkpt lat="43.82978" lon="3.27414">
        <ele>686.94</ele>
        <time>2026-03-29T12:08:21.714Z</time>
      </trkpt>
      <trkpt lat="43.82973" lon="3.27416">
        <ele>687.52</ele>
        <time>2026-03-29T12:08:27.254Z</time>
      </trkpt>
      <trkpt lat="43.82968" lon="3.27419">
        <ele>686.89</ele>
        <time>2026-03-29T12:08:32.280Z</time>
      </trkpt>
      <trkpt lat="43.82964" lon="3.2742">
        <ele>686.4</ele>
        <time>2026-03-29T12:08:37.337Z</time>
      </trkpt>
      <trkpt lat="43.82957" lon="3.27419">
        <ele>687.86</ele>
        <time>2026-03-29T12:08:43.134Z</time>
      </trkpt>
      <trkpt lat="43.82951" lon="3.27419">
        <ele>687.27</ele>
        <time>2026-03-29T12:08:49.217Z</time>
      </trkpt>
      <trkpt lat="43.82946" lon="3.27421">
        <ele>690.22</ele>
        <time>2026-03-29T12:08:55.289Z</time>
      </trkpt>
      <trkpt lat="43.8294" lon="3.2742">
        <ele>688.44</ele>
        <time>2026-03-29T12:09:00.297Z</time>
      </trkpt>
      <trkpt lat="43.82935" lon="3.2742">
        <ele>690.71</ele>
        <time>2026-03-29T12:09:05.320Z</time>
      </trkpt>
      <trkpt lat="43.82931" lon="3.2742">
        <ele>690.54</ele>
        <time>2026-03-29T12:09:10.335Z</time>
      </trkpt>
      <trkpt lat="43.82926" lon="3.27421">
        <ele>690.51</ele>
        <time>2026-03-29T12:09:15.350Z</time>
      </trkpt>
      <trkpt lat="43.8292" lon="3.27425">
        <ele>691.76</ele>
        <time>2026-03-29T12:09:20.366Z</time>
      </trkpt>
      <trkpt lat="43.82914" lon="3.2743">
        <ele>691.46</ele>
        <time>2026-03-29T12:09:25.757Z</time>
      </trkpt>
      <trkpt lat="43.82909" lon="3.27435">
        <ele>691.27</ele>
        <time>2026-03-29T12:09:31.142Z</time>
      </trkpt>
      <trkpt lat="43.82903" lon="3.27439">
        <ele>692.47</ele>
        <time>2026-03-29T12:09:36.319Z</time>
      </trkpt>
      <trkpt lat="43.82899" lon="3.27436">
        <ele>691.61</ele>
        <time>2026-03-29T12:09:41.433Z</time>
      </trkpt>
      <trkpt lat="43.82892" lon="3.27434">
        <ele>692.21</ele>
        <time>2026-03-29T12:09:47.257Z</time>
      </trkpt>
      <trkpt lat="43.82887" lon="3.27435">
        <ele>696.05</ele>
        <time>2026-03-29T12:09:52.379Z</time>
      </trkpt>
      <trkpt lat="43.82879" lon="3.27435">
        <ele>693.97</ele>
        <time>2026-03-29T12:09:58.260Z</time>
      </trkpt>
      <trkpt lat="43.82874" lon="3.27437">
        <ele>693.75</ele>
        <time>2026-03-29T12:10:03.412Z</time>
      </trkpt>
      <trkpt lat="43.82868" lon="3.27443">
        <ele>693.92</ele>
        <time>2026-03-29T12:10:08.414Z</time>
      </trkpt>
      <trkpt lat="43.82863" lon="3.27449">
        <ele>694.9</ele>
        <time>2026-03-29T12:10:14.202Z</time>
      </trkpt>
      <trkpt lat="43.8286" lon="3.27457">
        <ele>696.42</ele>
        <time>2026-03-29T12:10:19.636Z</time>
      </trkpt>
      <trkpt lat="43.82854" lon="3.2746">
        <ele>694.82</ele>
        <time>2026-03-29T12:10:24.838Z</time>
      </trkpt>
      <trkpt lat="43.82848" lon="3.27463">
        <ele>693.15</ele>
        <time>2026-03-29T12:10:30.111Z</time>
      </trkpt>
      <trkpt lat="43.82841" lon="3.27462">
        <ele>695.62</ele>
        <time>2026-03-29T12:10:35.369Z</time>
      </trkpt>
      <trkpt lat="43.82835" lon="3.27464">
        <ele>695.97</ele>
        <time>2026-03-29T12:10:40.613Z</time>
      </trkpt>
      <trkpt lat="43.82829" lon="3.27468">
        <ele>695.09</ele>
        <time>2026-03-29T12:10:46.154Z</time>
      </trkpt>
      <trkpt lat="43.82823" lon="3.2747">
        <ele>696.45</ele>
        <time>2026-03-29T12:10:51.370Z</time>
      </trkpt>
      <trkpt lat="43.82816" lon="3.27471">
        <ele>696.21</ele>
        <time>2026-03-29T12:10:56.495Z</time>
      </trkpt>
      <trkpt lat="43.8281" lon="3.27471">
        <ele>694.43</ele>
        <time>2026-03-29T12:11:01.654Z</time>
      </trkpt>
      <trkpt lat="43.82802" lon="3.27474">
        <ele>695.62</ele>
        <time>2026-03-29T12:11:07.035Z</time>
      </trkpt>
      <trkpt lat="43.82796" lon="3.27474">
        <ele>695.8</ele>
        <time>2026-03-29T12:11:12.396Z</time>
      </trkpt>
      <trkpt lat="43.82791" lon="3.27474">
        <ele>696.58</ele>
        <time>2026-03-29T12:11:17.697Z</time>
      </trkpt>
      <trkpt lat="43.82786" lon="3.27476">
        <ele>695.69</ele>
        <time>2026-03-29T12:11:22.917Z</time>
      </trkpt>
      <trkpt lat="43.8278" lon="3.27478">
        <ele>695.94</ele>
        <time>2026-03-29T12:11:28.232Z</time>
      </trkpt>
      <trkpt lat="43.82774" lon="3.2748">
        <ele>697.12</ele>
        <time>2026-03-29T12:11:33.380Z</time>
      </trkpt>
      <trkpt lat="43.82768" lon="3.27483">
        <ele>698.36</ele>
        <time>2026-03-29T12:11:39.415Z</time>
      </trkpt>
      <trkpt lat="43.82765" lon="3.27482">
        <ele>698.09</ele>
        <time>2026-03-29T12:11:44.745Z</time>
      </trkpt>
      <trkpt lat="43.82763" lon="3.27476">
        <ele>698.09</ele>
        <time>2026-03-29T12:11:50.400Z</time>
      </trkpt>
      <trkpt lat="43.82765" lon="3.27477">
        <ele>696.46</ele>
        <time>2026-03-29T12:11:56.411Z</time>
      </trkpt>
      <trkpt lat="43.82764" lon="3.27475">
        <ele>695.75</ele>
        <time>2026-03-29T12:12:05.385Z</time>
      </trkpt>
      <trkpt lat="43.82763" lon="3.27476">
        <ele>697.74</ele>
        <time>2026-03-29T12:12:13.372Z</time>
      </trkpt>
      <trkpt lat="43.82757" lon="3.27473">
        <ele>697.07</ele>
        <time>2026-03-29T12:12:18.724Z</time>
      </trkpt>
      <trkpt lat="43.82753" lon="3.27465">
        <ele>699.02</ele>
        <time>2026-03-29T12:12:23.900Z</time>
      </trkpt>
      <trkpt lat="43.82748" lon="3.27459">
        <ele>698.09</ele>
        <time>2026-03-29T12:12:29.404Z</time>
      </trkpt>
      <trkpt lat="43.82742" lon="3.27455">
        <ele>697.9</ele>
        <time>2026-03-29T12:12:35.049Z</time>
      </trkpt>
      <trkpt lat="43.82735" lon="3.27458">
        <ele>699.88</ele>
        <time>2026-03-29T12:12:40.229Z</time>
      </trkpt>
      <trkpt lat="43.82732" lon="3.27465">
        <ele>701.76</ele>
        <time>2026-03-29T12:12:45.964Z</time>
      </trkpt>
      <trkpt lat="43.82729" lon="3.27471">
        <ele>701.47</ele>
        <time>2026-03-29T12:12:51.384Z</time>
      </trkpt>
      <trkpt lat="43.82723" lon="3.27477">
        <ele>701.4</ele>
        <time>2026-03-29T12:12:57.027Z</time>
      </trkpt>
      <trkpt lat="43.82719" lon="3.27481">
        <ele>701.19</ele>
        <time>2026-03-29T12:13:02.418Z</time>
      </trkpt>
      <trkpt lat="43.82715" lon="3.27485">
        <ele>702.13</ele>
        <time>2026-03-29T12:13:07.424Z</time>
      </trkpt>
      <trkpt lat="43.8271" lon="3.27492">
        <ele>702.54</ele>
        <time>2026-03-29T12:13:12.875Z</time>
      </trkpt>
      <trkpt lat="43.82706" lon="3.27497">
        <ele>702.89</ele>
        <time>2026-03-29T12:13:18.291Z</time>
      </trkpt>
      <trkpt lat="43.82701" lon="3.27502">
        <ele>702.21</ele>
        <time>2026-03-29T12:13:23.896Z</time>
      </trkpt>
      <trkpt lat="43.82697" lon="3.27508">
        <ele>702.06</ele>
        <time>2026-03-29T12:13:29.033Z</time>
      </trkpt>
      <trkpt lat="43.82692" lon="3.27509">
        <ele>703.09</ele>
        <time>2026-03-29T12:13:34.360Z</time>
      </trkpt>
      <trkpt lat="43.82687" lon="3.27512">
        <ele>703.28</ele>
        <time>2026-03-29T12:13:40.369Z</time>
      </trkpt>
      <trkpt lat="43.82681" lon="3.27512">
        <ele>704.27</ele>
        <time>2026-03-29T12:13:45.669Z</time>
      </trkpt>
      <trkpt lat="43.82674" lon="3.27507">
        <ele>703.33</ele>
        <time>2026-03-29T12:13:50.970Z</time>
      </trkpt>
      <trkpt lat="43.82668" lon="3.27503">
        <ele>702.22</ele>
        <time>2026-03-29T12:13:56.435Z</time>
      </trkpt>
      <trkpt lat="43.82662" lon="3.27501">
        <ele>702.3</ele>
        <time>2026-03-29T12:14:01.809Z</time>
      </trkpt>
      <trkpt lat="43.82656" lon="3.275">
        <ele>701.85</ele>
        <time>2026-03-29T12:14:07.073Z</time>
      </trkpt>
      <trkpt lat="43.8265" lon="3.27499">
        <ele>700.89</ele>
        <time>2026-03-29T12:14:12.404Z</time>
      </trkpt>
      <trkpt lat="43.82643" lon="3.27501">
        <ele>699.97</ele>
        <time>2026-03-29T12:14:17.832Z</time>
      </trkpt>
      <trkpt lat="43.82639" lon="3.27507">
        <ele>698.4</ele>
        <time>2026-03-29T12:14:23.010Z</time>
      </trkpt>
      <trkpt lat="43.82638" lon="3.27516">
        <ele>696.71</ele>
        <time>2026-03-29T12:14:28.427Z</time>
      </trkpt>
      <trkpt lat="43.8264" lon="3.27526">
        <ele>696.89</ele>
        <time>2026-03-29T12:14:34.196Z</time>
      </trkpt>
      <trkpt lat="43.82643" lon="3.27534">
        <ele>697.54</ele>
        <time>2026-03-29T12:14:39.772Z</time>
      </trkpt>
      <trkpt lat="43.82648" lon="3.27539">
        <ele>694.95</ele>
        <time>2026-03-29T12:14:45.417Z</time>
      </trkpt>
      <trkpt lat="43.82651" lon="3.27548">
        <ele>693.72</ele>
        <time>2026-03-29T12:14:50.592Z</time>
      </trkpt>
      <trkpt lat="43.82649" lon="3.27552">
        <ele>691.88</ele>
        <time>2026-03-29T12:14:56.008Z</time>
      </trkpt>
      <trkpt lat="43.82645" lon="3.27557">
        <ele>691.84</ele>
        <time>2026-03-29T12:15:01.416Z</time>
      </trkpt>
      <trkpt lat="43.82645" lon="3.27569">
        <ele>691.65</ele>
        <time>2026-03-29T12:15:06.431Z</time>
      </trkpt>
      <trkpt lat="43.82649" lon="3.27579">
        <ele>691.38</ele>
        <time>2026-03-29T12:15:11.814Z</time>
      </trkpt>
      <trkpt lat="43.8265" lon="3.27588">
        <ele>689.06</ele>
        <time>2026-03-29T12:15:17.409Z</time>
      </trkpt>
      <trkpt lat="43.82651" lon="3.27595">
        <ele>689.75</ele>
        <time>2026-03-29T12:15:22.950Z</time>
      </trkpt>
      <trkpt lat="43.82652" lon="3.27604">
        <ele>689.81</ele>
        <time>2026-03-29T12:15:28.408Z</time>
      </trkpt>
      <trkpt lat="43.82653" lon="3.27613">
        <ele>688.52</ele>
        <time>2026-03-29T12:15:33.632Z</time>
      </trkpt>
      <trkpt lat="43.82655" lon="3.27621">
        <ele>687.53</ele>
        <time>2026-03-29T12:15:39.116Z</time>
      </trkpt>
      <trkpt lat="43.82656" lon="3.27625">
        <ele>685.51</ele>
        <time>2026-03-29T12:15:44.706Z</time>
      </trkpt>
      <trkpt lat="43.82655" lon="3.27626">
        <ele>687.93</ele>
        <time>2026-03-29T12:15:50.414Z</time>
      </trkpt>
      <trkpt lat="43.82657" lon="3.27624">
        <ele>685.9</ele>
        <time>2026-03-29T12:15:55.416Z</time>
      </trkpt>
      <trkpt lat="43.82658" lon="3.27627">
        <ele>684.13</ele>
        <time>2026-03-29T12:16:00.952Z</time>
      </trkpt>
      <trkpt lat="43.82656" lon="3.27636">
        <ele>683.42</ele>
        <time>2026-03-29T12:16:06.369Z</time>
      </trkpt>
      <trkpt lat="43.82657" lon="3.27648">
        <ele>683.42</ele>
        <time>2026-03-29T12:16:11.383Z</time>
      </trkpt>
      <trkpt lat="43.8266" lon="3.27657">
        <ele>685.26</ele>
        <time>2026-03-29T12:16:16.807Z</time>
      </trkpt>
      <trkpt lat="43.82659" lon="3.27667">
        <ele>684.54</ele>
        <time>2026-03-29T12:16:22.428Z</time>
      </trkpt>
      <trkpt lat="43.82664" lon="3.27679">
        <ele>683.09</ele>
        <time>2026-03-29T12:16:28.086Z</time>
      </trkpt>
      <trkpt lat="43.82668" lon="3.27688">
        <ele>684.21</ele>
        <time>2026-03-29T12:16:33.164Z</time>
      </trkpt>
      <trkpt lat="43.82675" lon="3.27693">
        <ele>683.19</ele>
        <time>2026-03-29T12:16:39.103Z</time>
      </trkpt>
      <trkpt lat="43.82678" lon="3.27701">
        <ele>682.45</ele>
        <time>2026-03-29T12:16:44.387Z</time>
      </trkpt>
      <trkpt lat="43.82683" lon="3.27707">
        <ele>681.2</ele>
        <time>2026-03-29T12:16:49.767Z</time>
      </trkpt>
      <trkpt lat="43.82685" lon="3.27716">
        <ele>679.47</ele>
        <time>2026-03-29T12:16:54.792Z</time>
      </trkpt>
      <trkpt lat="43.82689" lon="3.27725">
        <ele>678.54</ele>
        <time>2026-03-29T12:17:00.187Z</time>
      </trkpt>
      <trkpt lat="43.82691" lon="3.27733">
        <ele>678.11</ele>
        <time>2026-03-29T12:17:05.391Z</time>
      </trkpt>
      <trkpt lat="43.82696" lon="3.27737">
        <ele>676.62</ele>
        <time>2026-03-29T12:17:11.189Z</time>
      </trkpt>
      <trkpt lat="43.82701" lon="3.27741">
        <ele>676.7</ele>
        <time>2026-03-29T12:17:16.397Z</time>
      </trkpt>
      <trkpt lat="43.82696" lon="3.27742">
        <ele>674.95</ele>
        <time>2026-03-29T12:17:21.404Z</time>
      </trkpt>
      <trkpt lat="43.82688" lon="3.27736">
        <ele>674.27</ele>
        <time>2026-03-29T12:17:26.573Z</time>
      </trkpt>
      <trkpt lat="43.8268" lon="3.27732">
        <ele>673.64</ele>
        <time>2026-03-29T12:17:32.351Z</time>
      </trkpt>
      <trkpt lat="43.82677" lon="3.27725">
        <ele>671.95</ele>
        <time>2026-03-29T12:17:37.372Z</time>
      </trkpt>
      <trkpt lat="43.82673" lon="3.2772">
        <ele>670.96</ele>
        <time>2026-03-29T12:17:42.757Z</time>
      </trkpt>
      <trkpt lat="43.8267" lon="3.27719">
        <ele>673.83</ele>
        <time>2026-03-29T12:17:48.421Z</time>
      </trkpt>
      <trkpt lat="43.82666" lon="3.27714">
        <ele>673.55</ele>
        <time>2026-03-29T12:17:54.373Z</time>
      </trkpt>
      <trkpt lat="43.82665" lon="3.27715">
        <ele>670.93</ele>
        <time>2026-03-29T12:18:03.392Z</time>
      </trkpt>
      <trkpt lat="43.82666" lon="3.27713">
        <ele>670.51</ele>
        <time>2026-03-29T12:18:14.392Z</time>
      </trkpt>
      <trkpt lat="43.82669" lon="3.27707">
        <ele>669.35</ele>
        <time>2026-03-29T12:18:19.399Z</time>
      </trkpt>
      <trkpt lat="43.82671" lon="3.27714">
        <ele>669.46</ele>
        <time>2026-03-29T12:18:25.396Z</time>
      </trkpt>
      <trkpt lat="43.82673" lon="3.27715">
        <ele>671.67</ele>
        <time>2026-03-29T12:18:31.378Z</time>
      </trkpt>
      <trkpt lat="43.82674" lon="3.27715">
        <ele>670.33</ele>
        <time>2026-03-29T12:18:36.429Z</time>
      </trkpt>
      <trkpt lat="43.82669" lon="3.27719">
        <ele>670.22</ele>
        <time>2026-03-29T12:18:42.356Z</time>
      </trkpt>
      <trkpt lat="43.82667" lon="3.27715">
        <ele>670.3</ele>
        <time>2026-03-29T12:18:47.367Z</time>
      </trkpt>
      <trkpt lat="43.82665" lon="3.2771">
        <ele>669.64</ele>
        <time>2026-03-29T12:18:53.385Z</time>
      </trkpt>
      <trkpt lat="43.8267" lon="3.27709">
        <ele>670.47</ele>
        <time>2026-03-29T12:18:58.386Z</time>
      </trkpt>
      <trkpt lat="43.82671" lon="3.2771">
        <ele>670.57</ele>
        <time>2026-03-29T12:19:07.414Z</time>
      </trkpt>
      <trkpt lat="43.82669" lon="3.27712">
        <ele>670.11</ele>
        <time>2026-03-29T12:19:12.433Z</time>
      </trkpt>
      <trkpt lat="43.82667" lon="3.27718">
        <ele>669.33</ele>
        <time>2026-03-29T12:19:18.393Z</time>
      </trkpt>
      <trkpt lat="43.82671" lon="3.27718">
        <ele>670.06</ele>
        <time>2026-03-29T12:19:23.403Z</time>
      </trkpt>
      <trkpt lat="43.82669" lon="3.27721">
        <ele>670.18</ele>
        <time>2026-03-29T12:19:29.393Z</time>
      </trkpt>
      <trkpt lat="43.8267" lon="3.27722">
        <ele>670.49</ele>
        <time>2026-03-29T12:19:34.404Z</time>
      </trkpt>
      <trkpt lat="43.82674" lon="3.27719">
        <ele>669.43</ele>
        <time>2026-03-29T12:19:40.386Z</time>
      </trkpt>
      <trkpt lat="43.8267" lon="3.2772">
        <ele>670.47</ele>
        <time>2026-03-29T12:19:46.382Z</time>
      </trkpt>
      <trkpt lat="43.82666" lon="3.27718">
        <ele>670.99</ele>
        <time>2026-03-29T12:19:51.406Z</time>
      </trkpt>
      <trkpt lat="43.82667" lon="3.27717">
        <ele>670.21</ele>
        <time>2026-03-29T12:19:56.454Z</time>
      </trkpt>
      <trkpt lat="43.82665" lon="3.27712">
        <ele>669.31</ele>
        <time>2026-03-29T12:20:02.113Z</time>
      </trkpt>
      <trkpt lat="43.82659" lon="3.27705">
        <ele>669.73</ele>
        <time>2026-03-29T12:20:07.423Z</time>
      </trkpt>
      <trkpt lat="43.82654" lon="3.27698">
        <ele>669.36</ele>
        <time>2026-03-29T12:20:12.755Z</time>
      </trkpt>
      <trkpt lat="43.82648" lon="3.27694">
        <ele>668.49</ele>
        <time>2026-03-29T12:20:18.135Z</time>
      </trkpt>
      <trkpt lat="43.82642" lon="3.27691">
        <ele>668.65</ele>
        <time>2026-03-29T12:20:23.212Z</time>
      </trkpt>
      <trkpt lat="43.82635" lon="3.27694">
        <ele>668.03</ele>
        <time>2026-03-29T12:20:28.593Z</time>
      </trkpt>
      <trkpt lat="43.8263" lon="3.27693">
        <ele>668.3</ele>
        <time>2026-03-29T12:20:33.688Z</time>
      </trkpt>
      <trkpt lat="43.82624" lon="3.27698">
        <ele>667.28</ele>
        <time>2026-03-29T12:20:39.368Z</time>
      </trkpt>
      <trkpt lat="43.82625" lon="3.27705">
        <ele>665.62</ele>
        <time>2026-03-29T12:20:44.401Z</time>
      </trkpt>
      <trkpt lat="43.82629" lon="3.27707">
        <ele>664.62</ele>
        <time>2026-03-29T12:20:50.359Z</time>
      </trkpt>
      <trkpt lat="43.8263" lon="3.27708">
        <ele>663.98</ele>
        <time>2026-03-29T12:20:56.367Z</time>
      </trkpt>
      <trkpt lat="43.82634" lon="3.27712">
        <ele>659.87</ele>
        <time>2026-03-29T12:21:02.387Z</time>
      </trkpt>
      <trkpt lat="43.82641" lon="3.27717">
        <ele>665.57</ele>
        <time>2026-03-29T12:21:07.631Z</time>
      </trkpt>
      <trkpt lat="43.82645" lon="3.27719">
        <ele>664.7</ele>
        <time>2026-03-29T12:21:13.419Z</time>
      </trkpt>
      <trkpt lat="43.82647" lon="3.2773">
        <ele>663.03</ele>
        <time>2026-03-29T12:21:19.415Z</time>
      </trkpt>
      <trkpt lat="43.82652" lon="3.27737">
        <ele>663.84</ele>
        <time>2026-03-29T12:21:24.751Z</time>
      </trkpt>
      <trkpt lat="43.82658" lon="3.2774">
        <ele>661.85</ele>
        <time>2026-03-29T12:21:30.149Z</time>
      </trkpt>
      <trkpt lat="43.82663" lon="3.2774">
        <ele>661.4</ele>
        <time>2026-03-29T12:21:35.393Z</time>
      </trkpt>
      <trkpt lat="43.82662" lon="3.27739">
        <ele>661.59</ele>
        <time>2026-03-29T12:21:47.378Z</time>
      </trkpt>
      <trkpt lat="43.82661" lon="3.27738">
        <ele>662.07</ele>
        <time>2026-03-29T12:21:57.390Z</time>
      </trkpt>
      <trkpt lat="43.82661" lon="3.27737">
        <ele>663.22</ele>
        <time>2026-03-29T12:22:06.389Z</time>
      </trkpt>
      <trkpt lat="43.82662" lon="3.27737">
        <ele>662.89</ele>
        <time>2026-03-29T12:22:12.400Z</time>
      </trkpt>
      <trkpt lat="43.82664" lon="3.27737">
        <ele>663.76</ele>
        <time>2026-03-29T12:22:18.402Z</time>
      </trkpt>
      <trkpt lat="43.82663" lon="3.27736">
        <ele>663.47</ele>
        <time>2026-03-29T12:22:24.395Z</time>
      </trkpt>
      <trkpt lat="43.82664" lon="3.27735">
        <ele>662.81</ele>
        <time>2026-03-29T12:22:39.864Z</time>
      </trkpt>
      <trkpt lat="43.82666" lon="3.27734">
        <ele>664.36</ele>
        <time>2026-03-29T12:22:45.311Z</time>
      </trkpt>
      <trkpt lat="43.82666" lon="3.27733">
        <ele>663.85</ele>
        <time>2026-03-29T12:22:52.463Z</time>
      </trkpt>
      <trkpt lat="43.82668" lon="3.27732">
        <ele>663.09</ele>
        <time>2026-03-29T12:22:58.368Z</time>
      </trkpt>
      <trkpt lat="43.82669" lon="3.27729">
        <ele>664.25</ele>
        <time>2026-03-29T12:23:04.349Z</time>
      </trkpt>
      <trkpt lat="43.8267" lon="3.2773">
        <ele>665.33</ele>
        <time>2026-03-29T12:23:09.398Z</time>
      </trkpt>
      <trkpt lat="43.8267" lon="3.27737">
        <ele>664.49</ele>
        <time>2026-03-29T12:23:14.403Z</time>
      </trkpt>
      <trkpt lat="43.82671" lon="3.2774">
        <ele>664.73</ele>
        <time>2026-03-29T12:23:19.406Z</time>
      </trkpt>
      <trkpt lat="43.82671" lon="3.27737">
        <ele>663.48</ele>
        <time>2026-03-29T12:23:25.154Z</time>
      </trkpt>
      <trkpt lat="43.82669" lon="3.27739">
        <ele>663.3</ele>
        <time>2026-03-29T12:23:30.407Z</time>
      </trkpt>
      <trkpt lat="43.82666" lon="3.2774">
        <ele>664.75</ele>
        <time>2026-03-29T12:23:35.417Z</time>
      </trkpt>
      <trkpt lat="43.82664" lon="3.27741">
        <ele>665.09</ele>
        <time>2026-03-29T12:23:41.413Z</time>
      </trkpt>
      <trkpt lat="43.82666" lon="3.27742">
        <ele>665.26</ele>
        <time>2026-03-29T12:23:46.421Z</time>
      </trkpt>
      <trkpt lat="43.82666" lon="3.27744">
        <ele>664.04</ele>
        <time>2026-03-29T12:23:52.211Z</time>
      </trkpt>
      <trkpt lat="43.82663" lon="3.27743">
        <ele>664.99</ele>
        <time>2026-03-29T12:23:57.417Z</time>
      </trkpt>
      <trkpt lat="43.82661" lon="3.27743">
        <ele>663.45</ele>
        <time>2026-03-29T12:24:06.364Z</time>
      </trkpt>
      <trkpt lat="43.82661" lon="3.27745">
        <ele>665.83</ele>
        <time>2026-03-29T12:24:12.213Z</time>
      </trkpt>
      <trkpt lat="43.82663" lon="3.27744">
        <ele>667.26</ele>
        <time>2026-03-29T12:24:17.369Z</time>
      </trkpt>
      <trkpt lat="43.82665" lon="3.27746">
        <ele>665.78</ele>
        <time>2026-03-29T12:24:22.418Z</time>
      </trkpt>
      <trkpt lat="43.82671" lon="3.2775">
        <ele>665.53</ele>
        <time>2026-03-29T12:24:27.955Z</time>
      </trkpt>
      <trkpt lat="43.82678" lon="3.27757">
        <ele>661.89</ele>
        <time>2026-03-29T12:24:33.018Z</time>
      </trkpt>
      <trkpt lat="43.82683" lon="3.2776">
        <ele>664.16</ele>
        <time>2026-03-29T12:24:38.382Z</time>
      </trkpt>
      <trkpt lat="43.82688" lon="3.27766">
        <ele>664.62</ele>
        <time>2026-03-29T12:24:43.938Z</time>
      </trkpt>
      <trkpt lat="43.82694" lon="3.27772">
        <ele>663.09</ele>
        <time>2026-03-29T12:24:48.955Z</time>
      </trkpt>
      <trkpt lat="43.82697" lon="3.2778">
        <ele>663.29</ele>
        <time>2026-03-29T12:24:54.061Z</time>
      </trkpt>
      <trkpt lat="43.82696" lon="3.2778">
        <ele>663.06</ele>
        <time>2026-03-29T12:24:59.387Z</time>
      </trkpt>
      <trkpt lat="43.82695" lon="3.27781">
        <ele>663.17</ele>
        <time>2026-03-29T12:25:05.387Z</time>
      </trkpt>
      <trkpt lat="43.82694" lon="3.27782">
        <ele>663.68</ele>
        <time>2026-03-29T12:25:10.896Z</time>
      </trkpt>
      <trkpt lat="43.82691" lon="3.27793">
        <ele>663.9</ele>
        <time>2026-03-29T12:25:16.520Z</time>
      </trkpt>
      <trkpt lat="43.82691" lon="3.27805">
        <ele>661.88</ele>
        <time>2026-03-29T12:25:21.525Z</time>
      </trkpt>
      <trkpt lat="43.82698" lon="3.27816">
        <ele>660.92</ele>
        <time>2026-03-29T12:25:27.195Z</time>
      </trkpt>
      <trkpt lat="43.82705" lon="3.27823">
        <ele>661.77</ele>
        <time>2026-03-29T12:25:32.412Z</time>
      </trkpt>
      <trkpt lat="43.8271" lon="3.27832">
        <ele>662.87</ele>
        <time>2026-03-29T12:25:37.504Z</time>
      </trkpt>
      <trkpt lat="43.82712" lon="3.27841">
        <ele>665.71</ele>
        <time>2026-03-29T12:25:42.854Z</time>
      </trkpt>
      <trkpt lat="43.82714" lon="3.27848">
        <ele>663.82</ele>
        <time>2026-03-29T12:25:48.159Z</time>
      </trkpt>
      <trkpt lat="43.82715" lon="3.27856">
        <ele>664.62</ele>
        <time>2026-03-29T12:25:53.388Z</time>
      </trkpt>
      <trkpt lat="43.82717" lon="3.27864">
        <ele>664.11</ele>
        <time>2026-03-29T12:25:59.224Z</time>
      </trkpt>
      <trkpt lat="43.82717" lon="3.27874">
        <ele>663.88</ele>
        <time>2026-03-29T12:26:04.923Z</time>
      </trkpt>
      <trkpt lat="43.82717" lon="3.27884">
        <ele>663.94</ele>
        <time>2026-03-29T12:26:10.427Z</time>
      </trkpt>
      <trkpt lat="43.82719" lon="3.27891">
        <ele>663.25</ele>
        <time>2026-03-29T12:26:16.102Z</time>
      </trkpt>
      <trkpt lat="43.82721" lon="3.27882">
        <ele>663.54</ele>
        <time>2026-03-29T12:26:21.397Z</time>
      </trkpt>
      <trkpt lat="43.82724" lon="3.27877">
        <ele>664.28</ele>
        <time>2026-03-29T12:26:26.832Z</time>
      </trkpt>
      <trkpt lat="43.82723" lon="3.27875">
        <ele>661.29</ele>
        <time>2026-03-29T12:26:35.390Z</time>
      </trkpt>
      <trkpt lat="43.82722" lon="3.27881">
        <ele>659.85</ele>
        <time>2026-03-29T12:26:40.801Z</time>
      </trkpt>
      <trkpt lat="43.82725" lon="3.27887">
        <ele>661.81</ele>
        <time>2026-03-29T12:26:46.180Z</time>
      </trkpt>
      <trkpt lat="43.82724" lon="3.27887">
        <ele>661.34</ele>
        <time>2026-03-29T12:26:52.217Z</time>
      </trkpt>
      <trkpt lat="43.82722" lon="3.2789">
        <ele>660.36</ele>
        <time>2026-03-29T12:26:57.407Z</time>
      </trkpt>
      <trkpt lat="43.82721" lon="3.27892">
        <ele>661.1</ele>
        <time>2026-03-29T12:27:03.399Z</time>
      </trkpt>
      <trkpt lat="43.82719" lon="3.27893">
        <ele>661.35</ele>
        <time>2026-03-29T12:27:09.101Z</time>
      </trkpt>
      <trkpt lat="43.82713" lon="3.27903">
        <ele>659.49</ele>
        <time>2026-03-29T12:27:14.700Z</time>
      </trkpt>
      <trkpt lat="43.82718" lon="3.2791">
        <ele>659.34</ele>
        <time>2026-03-29T12:27:19.939Z</time>
      </trkpt>
      <trkpt lat="43.82722" lon="3.27915">
        <ele>659.88</ele>
        <time>2026-03-29T12:27:25.060Z</time>
      </trkpt>
      <trkpt lat="43.82725" lon="3.27923">
        <ele>660.07</ele>
        <time>2026-03-29T12:27:30.173Z</time>
      </trkpt>
      <trkpt lat="43.82731" lon="3.27929">
        <ele>658.38</ele>
        <time>2026-03-29T12:27:35.820Z</time>
      </trkpt>
      <trkpt lat="43.82735" lon="3.27936">
        <ele>659.03</ele>
        <time>2026-03-29T12:27:41.396Z</time>
      </trkpt>
      <trkpt lat="43.82738" lon="3.27945">
        <ele>658.34</ele>
        <time>2026-03-29T12:27:47.034Z</time>
      </trkpt>
      <trkpt lat="43.8274" lon="3.27953">
        <ele>660.82</ele>
        <time>2026-03-29T12:27:52.281Z</time>
      </trkpt>
      <trkpt lat="43.82746" lon="3.27958">
        <ele>660.69</ele>
        <time>2026-03-29T12:27:57.360Z</time>
      </trkpt>
      <trkpt lat="43.82752" lon="3.27962">
        <ele>661.51</ele>
        <time>2026-03-29T12:28:03.077Z</time>
      </trkpt>
      <trkpt lat="43.82758" lon="3.27965">
        <ele>660.83</ele>
        <time>2026-03-29T12:28:08.413Z</time>
      </trkpt>
      <trkpt lat="43.82763" lon="3.27969">
        <ele>661.63</ele>
        <time>2026-03-29T12:28:13.918Z</time>
      </trkpt>
      <trkpt lat="43.82768" lon="3.2797">
        <ele>661.8</ele>
        <time>2026-03-29T12:28:19.376Z</time>
      </trkpt>
      <trkpt lat="43.8277" lon="3.27969">
        <ele>662.47</ele>
        <time>2026-03-29T12:28:24.380Z</time>
      </trkpt>
      <trkpt lat="43.82771" lon="3.27971">
        <ele>662.53</ele>
        <time>2026-03-29T12:28:31.278Z</time>
      </trkpt>
      <trkpt lat="43.82781" lon="3.27976">
        <ele>662.7</ele>
        <time>2026-03-29T12:28:36.397Z</time>
      </trkpt>
      <trkpt lat="43.82782" lon="3.27975">
        <ele>662.18</ele>
        <time>2026-03-29T12:28:41.422Z</time>
      </trkpt>
      <trkpt lat="43.82783" lon="3.27976">
        <ele>661.3</ele>
        <time>2026-03-29T12:28:51.408Z</time>
      </trkpt>
      <trkpt lat="43.82785" lon="3.27978">
        <ele>661.9</ele>
        <time>2026-03-29T12:28:56.917Z</time>
      </trkpt>
      <trkpt lat="43.82789" lon="3.27986">
        <ele>661.1</ele>
        <time>2026-03-29T12:29:02.363Z</time>
      </trkpt>
      <trkpt lat="43.82793" lon="3.27993">
        <ele>660.92</ele>
        <time>2026-03-29T12:29:07.387Z</time>
      </trkpt>
      <trkpt lat="43.82799" lon="3.28">
        <ele>661.8</ele>
        <time>2026-03-29T12:29:13.174Z</time>
      </trkpt>
      <trkpt lat="43.82805" lon="3.28009">
        <ele>662.38</ele>
        <time>2026-03-29T12:29:18.572Z</time>
      </trkpt>
      <trkpt lat="43.82811" lon="3.28018">
        <ele>662.68</ele>
        <time>2026-03-29T12:29:24.390Z</time>
      </trkpt>
      <trkpt lat="43.82818" lon="3.28022">
        <ele>662.68</ele>
        <time>2026-03-29T12:29:30.054Z</time>
      </trkpt>
      <trkpt lat="43.82822" lon="3.2803">
        <ele>664.13</ele>
        <time>2026-03-29T12:29:35.429Z</time>
      </trkpt>
      <trkpt lat="43.82822" lon="3.28041">
        <ele>663.05</ele>
        <time>2026-03-29T12:29:41.071Z</time>
      </trkpt>
      <trkpt lat="43.82822" lon="3.28053">
        <ele>661.75</ele>
        <time>2026-03-29T12:29:46.346Z</time>
      </trkpt>
      <trkpt lat="43.82824" lon="3.28066">
        <ele>661.7</ele>
        <time>2026-03-29T12:29:51.644Z</time>
      </trkpt>
      <trkpt lat="43.82827" lon="3.28076">
        <ele>661.04</ele>
        <time>2026-03-29T12:29:56.947Z</time>
      </trkpt>
      <trkpt lat="43.82832" lon="3.28084">
        <ele>661.32</ele>
        <time>2026-03-29T12:30:02.357Z</time>
      </trkpt>
      <trkpt lat="43.82837" lon="3.28092">
        <ele>659.89</ele>
        <time>2026-03-29T12:30:07.404Z</time>
      </trkpt>
      <trkpt lat="43.82841" lon="3.28099">
        <ele>659.82</ele>
        <time>2026-03-29T12:30:12.425Z</time>
      </trkpt>
      <trkpt lat="43.82847" lon="3.28108">
        <ele>660.27</ele>
        <time>2026-03-29T12:30:18.402Z</time>
      </trkpt>
      <trkpt lat="43.82848" lon="3.28121">
        <ele>659.52</ele>
        <time>2026-03-29T12:30:24.718Z</time>
      </trkpt>
      <trkpt lat="43.82849" lon="3.28122">
        <ele>659.7</ele>
        <time>2026-03-29T12:30:29.967Z</time>
      </trkpt>
      <trkpt lat="43.82848" lon="3.28124">
        <ele>658.71</ele>
        <time>2026-03-29T12:30:35.391Z</time>
      </trkpt>
      <trkpt lat="43.82848" lon="3.28129">
        <ele>658.4</ele>
        <time>2026-03-29T12:30:40.927Z</time>
      </trkpt>
      <trkpt lat="43.82848" lon="3.28135">
        <ele>658.36</ele>
        <time>2026-03-29T12:30:46.007Z</time>
      </trkpt>
      <trkpt lat="43.82847" lon="3.28149">
        <ele>657</ele>
        <time>2026-03-29T12:30:51.387Z</time>
      </trkpt>
      <trkpt lat="43.82843" lon="3.28159">
        <ele>658.95</ele>
        <time>2026-03-29T12:30:57.088Z</time>
      </trkpt>
      <trkpt lat="43.82843" lon="3.28169">
        <ele>658.71</ele>
        <time>2026-03-29T12:31:02.196Z</time>
      </trkpt>
      <trkpt lat="43.82841" lon="3.28179">
        <ele>659.5</ele>
        <time>2026-03-29T12:31:07.392Z</time>
      </trkpt>
      <trkpt lat="43.8284" lon="3.28184">
        <ele>659.78</ele>
        <time>2026-03-29T12:31:13.391Z</time>
      </trkpt>
      <trkpt lat="43.82838" lon="3.28188">
        <ele>658.86</ele>
        <time>2026-03-29T12:31:18.405Z</time>
      </trkpt>
      <trkpt lat="43.82839" lon="3.28196">
        <ele>658.41</ele>
        <time>2026-03-29T12:31:24.044Z</time>
      </trkpt>
      <trkpt lat="43.82836" lon="3.28207">
        <ele>657.52</ele>
        <time>2026-03-29T12:31:29.105Z</time>
      </trkpt>
      <trkpt lat="43.82833" lon="3.28218">
        <ele>657.83</ele>
        <time>2026-03-29T12:31:34.401Z</time>
      </trkpt>
      <trkpt lat="43.82833" lon="3.28228">
        <ele>656.75</ele>
        <time>2026-03-29T12:31:39.407Z</time>
      </trkpt>
      <trkpt lat="43.82835" lon="3.2824">
        <ele>655.64</ele>
        <time>2026-03-29T12:31:45.389Z</time>
      </trkpt>
      <trkpt lat="43.82842" lon="3.28251">
        <ele>654.75</ele>
        <time>2026-03-29T12:31:50.401Z</time>
      </trkpt>
      <trkpt lat="43.82849" lon="3.28261">
        <ele>653.76</ele>
        <time>2026-03-29T12:31:56.064Z</time>
      </trkpt>
      <trkpt lat="43.82854" lon="3.28269">
        <ele>653.77</ele>
        <time>2026-03-29T12:32:01.448Z</time>
      </trkpt>
      <trkpt lat="43.8286" lon="3.28275">
        <ele>653.93</ele>
        <time>2026-03-29T12:32:07.046Z</time>
      </trkpt>
      <trkpt lat="43.82862" lon="3.28282">
        <ele>654.44</ele>
        <time>2026-03-29T12:32:12.396Z</time>
      </trkpt>
      <trkpt lat="43.82861" lon="3.28285">
        <ele>654.34</ele>
        <time>2026-03-29T12:32:18.409Z</time>
      </trkpt>
      <trkpt lat="43.82861" lon="3.28285">
        <ele>656.19</ele>
        <time>2026-03-29T12:32:30.164Z</time>
      </trkpt>
      <trkpt lat="43.8286" lon="3.28285">
        <ele>654.05</ele>
        <time>2026-03-29T12:32:38.214Z</time>
      </trkpt>
      <trkpt lat="43.82854" lon="3.28276">
        <ele>654.23</ele>
        <time>2026-03-29T12:32:43.396Z</time>
      </trkpt>
      <trkpt lat="43.82853" lon="3.28279">
        <ele>655.53</ele>
        <time>2026-03-29T12:32:49.398Z</time>
      </trkpt>
      <trkpt lat="43.82854" lon="3.28276">
        <ele>656.14</ele>
        <time>2026-03-29T12:32:55.351Z</time>
      </trkpt>
      <trkpt lat="43.82854" lon="3.28275">
        <ele>655.35</ele>
        <time>2026-03-29T12:33:12.423Z</time>
      </trkpt>
      <trkpt lat="43.82855" lon="3.28276">
        <ele>656.58</ele>
        <time>2026-03-29T12:33:23.455Z</time>
      </trkpt>
      <trkpt lat="43.82856" lon="3.28277">
        <ele>656.07</ele>
        <time>2026-03-29T12:33:29.398Z</time>
      </trkpt>
      <trkpt lat="43.82857" lon="3.28276">
        <ele>655.15</ele>
        <time>2026-03-29T12:33:35.105Z</time>
      </trkpt>
      <trkpt lat="43.82858" lon="3.28276">
        <ele>656.49</ele>
        <time>2026-03-29T12:33:40.343Z</time>
      </trkpt>
      <trkpt lat="43.82861" lon="3.28276">
        <ele>656.6</ele>
        <time>2026-03-29T12:33:46.392Z</time>
      </trkpt>
      <trkpt lat="43.82863" lon="3.28278">
        <ele>655.96</ele>
        <time>2026-03-29T12:33:51.455Z</time>
      </trkpt>
      <trkpt lat="43.82865" lon="3.28279">
        <ele>657.02</ele>
        <time>2026-03-29T12:33:57.384Z</time>
      </trkpt>
      <trkpt lat="43.82866" lon="3.28278">
        <ele>657.43</ele>
        <time>2026-03-29T12:34:06.702Z</time>
      </trkpt>
      <trkpt lat="43.82869" lon="3.28277">
        <ele>656.44</ele>
        <time>2026-03-29T12:34:12.478Z</time>
      </trkpt>
      <trkpt lat="43.82878" lon="3.28289">
        <ele>655.64</ele>
        <time>2026-03-29T12:34:18.198Z</time>
      </trkpt>
      <trkpt lat="43.82883" lon="3.28299">
        <ele>656.77</ele>
        <time>2026-03-29T12:34:23.243Z</time>
      </trkpt>
      <trkpt lat="43.82887" lon="3.28302">
        <ele>656.73</ele>
        <time>2026-03-29T12:34:28.326Z</time>
      </trkpt>
      <trkpt lat="43.82887" lon="3.28303">
        <ele>656.36</ele>
        <time>2026-03-29T12:34:33.413Z</time>
      </trkpt>
      <trkpt lat="43.82887" lon="3.28301">
        <ele>656.87</ele>
        <time>2026-03-29T12:34:40.393Z</time>
      </trkpt>
      <trkpt lat="43.82888" lon="3.28301">
        <ele>654.45</ele>
        <time>2026-03-29T12:34:48.876Z</time>
      </trkpt>
      <trkpt lat="43.82894" lon="3.28309">
        <ele>653.65</ele>
        <time>2026-03-29T12:34:53.900Z</time>
      </trkpt>
      <trkpt lat="43.82897" lon="3.28318">
        <ele>654.74</ele>
        <time>2026-03-29T12:34:59.201Z</time>
      </trkpt>
      <trkpt lat="43.82903" lon="3.28325">
        <ele>654.96</ele>
        <time>2026-03-29T12:35:04.601Z</time>
      </trkpt>
      <trkpt lat="43.82906" lon="3.28334">
        <ele>655.06</ele>
        <time>2026-03-29T12:35:10.078Z</time>
      </trkpt>
      <trkpt lat="43.8291" lon="3.28342">
        <ele>655.09</ele>
        <time>2026-03-29T12:35:15.219Z</time>
      </trkpt>
      <trkpt lat="43.82914" lon="3.28351">
        <ele>655.2</ele>
        <time>2026-03-29T12:35:20.411Z</time>
      </trkpt>
      <trkpt lat="43.82919" lon="3.28361">
        <ele>655.87</ele>
        <time>2026-03-29T12:35:26.176Z</time>
      </trkpt>
      <trkpt lat="43.82922" lon="3.28369">
        <ele>655.55</ele>
        <time>2026-03-29T12:35:31.298Z</time>
      </trkpt>
      <trkpt lat="43.82923" lon="3.2838">
        <ele>656.68</ele>
        <time>2026-03-29T12:35:36.587Z</time>
      </trkpt>
      <trkpt lat="43.82925" lon="3.28395">
        <ele>656.95</ele>
        <time>2026-03-29T12:35:42.290Z</time>
      </trkpt>
      <trkpt lat="43.82929" lon="3.28406">
        <ele>655.16</ele>
        <time>2026-03-29T12:35:47.457Z</time>
      </trkpt>
      <trkpt lat="43.82935" lon="3.28417">
        <ele>655.32</ele>
        <time>2026-03-29T12:35:52.794Z</time>
      </trkpt>
      <trkpt lat="43.82941" lon="3.28424">
        <ele>655.74</ele>
        <time>2026-03-29T12:35:58.030Z</time>
      </trkpt>
      <trkpt lat="43.82946" lon="3.28433">
        <ele>654.54</ele>
        <time>2026-03-29T12:36:03.853Z</time>
      </trkpt>
      <trkpt lat="43.82951" lon="3.28433">
        <ele>652.44</ele>
        <time>2026-03-29T12:36:09.028Z</time>
      </trkpt>
      <trkpt lat="43.82953" lon="3.28439">
        <ele>652.42</ele>
        <time>2026-03-29T12:36:14.384Z</time>
      </trkpt>
      <trkpt lat="43.82954" lon="3.28447">
        <ele>654.93</ele>
        <time>2026-03-29T12:36:20.073Z</time>
      </trkpt>
      <trkpt lat="43.82957" lon="3.28455">
        <ele>652.84</ele>
        <time>2026-03-29T12:36:25.410Z</time>
      </trkpt>
      <trkpt lat="43.8296" lon="3.28461">
        <ele>652.77</ele>
        <time>2026-03-29T12:36:30.677Z</time>
      </trkpt>
      <trkpt lat="43.82962" lon="3.28468">
        <ele>652.95</ele>
        <time>2026-03-29T12:36:36.237Z</time>
      </trkpt>
      <trkpt lat="43.8296" lon="3.28475">
        <ele>651.25</ele>
        <time>2026-03-29T12:36:41.410Z</time>
      </trkpt>
      <trkpt lat="43.82957" lon="3.28477">
        <ele>652.35</ele>
        <time>2026-03-29T12:36:46.430Z</time>
      </trkpt>
      <trkpt lat="43.82958" lon="3.28479">
        <ele>651.79</ele>
        <time>2026-03-29T12:36:55.935Z</time>
      </trkpt>
      <trkpt lat="43.82962" lon="3.28489">
        <ele>649.91</ele>
        <time>2026-03-29T12:37:01.098Z</time>
      </trkpt>
      <trkpt lat="43.82964" lon="3.28499">
        <ele>650.58</ele>
        <time>2026-03-29T12:37:06.421Z</time>
      </trkpt>
      <trkpt lat="43.8297" lon="3.28507">
        <ele>651.37</ele>
        <time>2026-03-29T12:37:11.815Z</time>
      </trkpt>
      <trkpt lat="43.82974" lon="3.28515">
        <ele>651.61</ele>
        <time>2026-03-29T12:37:17.115Z</time>
      </trkpt>
      <trkpt lat="43.82978" lon="3.28525">
        <ele>650.95</ele>
        <time>2026-03-29T12:37:22.380Z</time>
      </trkpt>
      <trkpt lat="43.82982" lon="3.28532">
        <ele>650.88</ele>
        <time>2026-03-29T12:37:27.412Z</time>
      </trkpt>
      <trkpt lat="43.82985" lon="3.28542">
        <ele>651.01</ele>
        <time>2026-03-29T12:37:32.838Z</time>
      </trkpt>
      <trkpt lat="43.82986" lon="3.28551">
        <ele>650.79</ele>
        <time>2026-03-29T12:37:38.411Z</time>
      </trkpt>
      <trkpt lat="43.82983" lon="3.28552">
        <ele>651.56</ele>
        <time>2026-03-29T12:37:44.398Z</time>
      </trkpt>
      <trkpt lat="43.82984" lon="3.28553">
        <ele>651.56</ele>
        <time>2026-03-29T12:38:01.678Z</time>
      </trkpt>
      <trkpt lat="43.82992" lon="3.28555">
        <ele>651.34</ele>
        <time>2026-03-29T12:38:06.817Z</time>
      </trkpt>
      <trkpt lat="43.82997" lon="3.28562">
        <ele>651.01</ele>
        <time>2026-03-29T12:38:11.860Z</time>
      </trkpt>
      <trkpt lat="43.82999" lon="3.28576">
        <ele>650.29</ele>
        <time>2026-03-29T12:38:17.426Z</time>
      </trkpt>
      <trkpt lat="43.83" lon="3.28589">
        <ele>650.24</ele>
        <time>2026-03-29T12:38:22.941Z</time>
      </trkpt>
      <trkpt lat="43.83001" lon="3.28598">
        <ele>649.79</ele>
        <time>2026-03-29T12:38:28.019Z</time>
      </trkpt>
      <trkpt lat="43.83002" lon="3.28607">
        <ele>649.18</ele>
        <time>2026-03-29T12:38:33.035Z</time>
      </trkpt>
      <trkpt lat="43.83001" lon="3.28616">
        <ele>649.04</ele>
        <time>2026-03-29T12:38:38.040Z</time>
      </trkpt>
      <trkpt lat="43.82998" lon="3.28629">
        <ele>648.48</ele>
        <time>2026-03-29T12:38:43.616Z</time>
      </trkpt>
      <trkpt lat="43.82994" lon="3.28632">
        <ele>649</ele>
        <time>2026-03-29T12:38:49.059Z</time>
      </trkpt>
      <trkpt lat="43.82991" lon="3.28634">
        <ele>648.84</ele>
        <time>2026-03-29T12:38:54.341Z</time>
      </trkpt>
      <trkpt lat="43.8299" lon="3.28633">
        <ele>648.88</ele>
        <time>2026-03-29T12:39:00.403Z</time>
      </trkpt>
      <trkpt lat="43.82989" lon="3.28633">
        <ele>649.33</ele>
        <time>2026-03-29T12:39:06.421Z</time>
      </trkpt>
      <trkpt lat="43.82988" lon="3.28632">
        <ele>649.37</ele>
        <time>2026-03-29T12:39:13.451Z</time>
      </trkpt>
      <trkpt lat="43.82986" lon="3.28631">
        <ele>649.02</ele>
        <time>2026-03-29T12:39:19.427Z</time>
      </trkpt>
      <trkpt lat="43.82985" lon="3.28634">
        <ele>648.77</ele>
        <time>2026-03-29T12:39:24.968Z</time>
      </trkpt>
      <trkpt lat="43.82985" lon="3.28644">
        <ele>648.86</ele>
        <time>2026-03-29T12:39:30.338Z</time>
      </trkpt>
      <trkpt lat="43.82985" lon="3.28654">
        <ele>649.05</ele>
        <time>2026-03-29T12:39:36.095Z</time>
      </trkpt>
      <trkpt lat="43.82987" lon="3.28663">
        <ele>648.92</ele>
        <time>2026-03-29T12:39:41.519Z</time>
      </trkpt>
      <trkpt lat="43.82989" lon="3.28672">
        <ele>649.07</ele>
        <time>2026-03-29T12:39:46.844Z</time>
      </trkpt>
      <trkpt lat="43.82993" lon="3.28681">
        <ele>649.24</ele>
        <time>2026-03-29T12:39:52.120Z</time>
      </trkpt>
      <trkpt lat="43.82996" lon="3.28691">
        <ele>649.9</ele>
        <time>2026-03-29T12:39:57.411Z</time>
      </trkpt>
      <trkpt lat="43.83" lon="3.28698">
        <ele>648.44</ele>
        <time>2026-03-29T12:40:02.774Z</time>
      </trkpt>
      <trkpt lat="43.83004" lon="3.28704">
        <ele>646.34</ele>
        <time>2026-03-29T12:40:08.400Z</time>
      </trkpt>
      <trkpt lat="43.83009" lon="3.2871">
        <ele>647.2</ele>
        <time>2026-03-29T12:40:13.402Z</time>
      </trkpt>
      <trkpt lat="43.83011" lon="3.28718">
        <ele>647.68</ele>
        <time>2026-03-29T12:40:18.577Z</time>
      </trkpt>
      <trkpt lat="43.83015" lon="3.28726">
        <ele>645.59</ele>
        <time>2026-03-29T12:40:24.162Z</time>
      </trkpt>
      <trkpt lat="43.8302" lon="3.28734">
        <ele>645.92</ele>
        <time>2026-03-29T12:40:29.694Z</time>
      </trkpt>
      <trkpt lat="43.83024" lon="3.28743">
        <ele>647.25</ele>
        <time>2026-03-29T12:40:35.061Z</time>
      </trkpt>
      <trkpt lat="43.8303" lon="3.28748">
        <ele>647.98</ele>
        <time>2026-03-29T12:40:40.339Z</time>
      </trkpt>
      <trkpt lat="43.83035" lon="3.2875">
        <ele>646.5</ele>
        <time>2026-03-29T12:40:45.400Z</time>
      </trkpt>
      <trkpt lat="43.83036" lon="3.28754">
        <ele>645.98</ele>
        <time>2026-03-29T12:40:50.418Z</time>
      </trkpt>
      <trkpt lat="43.83036" lon="3.28756">
        <ele>646</ele>
        <time>2026-03-29T12:41:03.400Z</time>
      </trkpt>
      <trkpt lat="43.83036" lon="3.28759">
        <ele>643.02</ele>
        <time>2026-03-29T12:41:09.032Z</time>
      </trkpt>
      <trkpt lat="43.83036" lon="3.2876">
        <ele>644.06</ele>
        <time>2026-03-29T12:41:16.448Z</time>
      </trkpt>
      <trkpt lat="43.83037" lon="3.2876">
        <ele>644.25</ele>
        <time>2026-03-29T12:41:25.388Z</time>
      </trkpt>
      <trkpt lat="43.8304" lon="3.28764">
        <ele>643.85</ele>
        <time>2026-03-29T12:41:31.405Z</time>
      </trkpt>
      <trkpt lat="43.83044" lon="3.28772">
        <ele>643.47</ele>
        <time>2026-03-29T12:41:36.874Z</time>
      </trkpt>
      <trkpt lat="43.83051" lon="3.28776">
        <ele>643.76</ele>
        <time>2026-03-29T12:41:42.397Z</time>
      </trkpt>
      <trkpt lat="43.83055" lon="3.28775">
        <ele>644.26</ele>
        <time>2026-03-29T12:41:48.383Z</time>
      </trkpt>
      <trkpt lat="43.83055" lon="3.28773">
        <ele>643.23</ele>
        <time>2026-03-29T12:41:53.413Z</time>
      </trkpt>
      <trkpt lat="43.83056" lon="3.28773">
        <ele>644.01</ele>
        <time>2026-03-29T12:42:07.537Z</time>
      </trkpt>
      <trkpt lat="43.83058" lon="3.28772">
        <ele>644.36</ele>
        <time>2026-03-29T12:42:13.403Z</time>
      </trkpt>
      <trkpt lat="43.83059" lon="3.28772">
        <ele>644.19</ele>
        <time>2026-03-29T12:42:18.955Z</time>
      </trkpt>
      <trkpt lat="43.83062" lon="3.28772">
        <ele>642.16</ele>
        <time>2026-03-29T12:42:24.374Z</time>
      </trkpt>
      <trkpt lat="43.83063" lon="3.28772">
        <ele>643.24</ele>
        <time>2026-03-29T12:42:29.423Z</time>
      </trkpt>
      <trkpt lat="43.8307" lon="3.28772">
        <ele>643.51</ele>
        <time>2026-03-29T12:42:35.016Z</time>
      </trkpt>
      <trkpt lat="43.8308" lon="3.28774">
        <ele>643.96</ele>
        <time>2026-03-29T12:42:40.351Z</time>
      </trkpt>
      <trkpt lat="43.83085" lon="3.28777">
        <ele>643.95</ele>
        <time>2026-03-29T12:42:45.406Z</time>
      </trkpt>
      <trkpt lat="43.8309" lon="3.2878">
        <ele>642.6</ele>
        <time>2026-03-29T12:42:50.641Z</time>
      </trkpt>
      <trkpt lat="43.83097" lon="3.28783">
        <ele>643.39</ele>
        <time>2026-03-29T12:42:56.297Z</time>
      </trkpt>
      <trkpt lat="43.83102" lon="3.28784">
        <ele>643.77</ele>
        <time>2026-03-29T12:43:01.579Z</time>
      </trkpt>
      <trkpt lat="43.83108" lon="3.28787">
        <ele>643.48</ele>
        <time>2026-03-29T12:43:06.693Z</time>
      </trkpt>
      <trkpt lat="43.83115" lon="3.28789">
        <ele>644.43</ele>
        <time>2026-03-29T12:43:12.297Z</time>
      </trkpt>
      <trkpt lat="43.83119" lon="3.28789">
        <ele>642.9</ele>
        <time>2026-03-29T12:43:17.400Z</time>
      </trkpt>
      <trkpt lat="43.83126" lon="3.28792">
        <ele>642.29</ele>
        <time>2026-03-29T12:43:22.833Z</time>
      </trkpt>
      <trkpt lat="43.83132" lon="3.2879">
        <ele>642.45</ele>
        <time>2026-03-29T12:43:28.080Z</time>
      </trkpt>
      <trkpt lat="43.83136" lon="3.28785">
        <ele>642.3</ele>
        <time>2026-03-29T12:43:33.397Z</time>
      </trkpt>
      <trkpt lat="43.83141" lon="3.28784">
        <ele>641.06</ele>
        <time>2026-03-29T12:43:38.429Z</time>
      </trkpt>
      <trkpt lat="43.83146" lon="3.28785">
        <ele>642.24</ele>
        <time>2026-03-29T12:43:43.776Z</time>
      </trkpt>
      <trkpt lat="43.83151" lon="3.28787">
        <ele>642.51</ele>
        <time>2026-03-29T12:43:49.281Z</time>
      </trkpt>
      <trkpt lat="43.83157" lon="3.28789">
        <ele>642.36</ele>
        <time>2026-03-29T12:43:55.114Z</time>
      </trkpt>
      <trkpt lat="43.83163" lon="3.28793">
        <ele>642.66</ele>
        <time>2026-03-29T12:44:00.236Z</time>
      </trkpt>
      <trkpt lat="43.83169" lon="3.28795">
        <ele>642.22</ele>
        <time>2026-03-29T12:44:05.555Z</time>
      </trkpt>
      <trkpt lat="43.83175" lon="3.28799">
        <ele>641.68</ele>
        <time>2026-03-29T12:44:11.414Z</time>
      </trkpt>
      <trkpt lat="43.8318" lon="3.28806">
        <ele>642.77</ele>
        <time>2026-03-29T12:44:17.132Z</time>
      </trkpt>
      <trkpt lat="43.83184" lon="3.2881">
        <ele>643.62</ele>
        <time>2026-03-29T12:44:22.415Z</time>
      </trkpt>
      <trkpt lat="43.83186" lon="3.28819">
        <ele>642.59</ele>
        <time>2026-03-29T12:44:27.475Z</time>
      </trkpt>
      <trkpt lat="43.83192" lon="3.28829">
        <ele>642.06</ele>
        <time>2026-03-29T12:44:32.590Z</time>
      </trkpt>
      <trkpt lat="43.83198" lon="3.28837">
        <ele>643.73</ele>
        <time>2026-03-29T12:44:37.829Z</time>
      </trkpt>
      <trkpt lat="43.83202" lon="3.28844">
        <ele>643.01</ele>
        <time>2026-03-29T12:44:43.431Z</time>
      </trkpt>
      <trkpt lat="43.83208" lon="3.28851">
        <ele>642.33</ele>
        <time>2026-03-29T12:44:49.265Z</time>
      </trkpt>
      <trkpt lat="43.8321" lon="3.28858">
        <ele>642.08</ele>
        <time>2026-03-29T12:44:54.374Z</time>
      </trkpt>
      <trkpt lat="43.83211" lon="3.28864">
        <ele>642.51</ele>
        <time>2026-03-29T12:44:59.404Z</time>
      </trkpt>
      <trkpt lat="43.83214" lon="3.28871">
        <ele>642.98</ele>
        <time>2026-03-29T12:45:05.372Z</time>
      </trkpt>
      <trkpt lat="43.83215" lon="3.28882">
        <ele>642.44</ele>
        <time>2026-03-29T12:45:10.909Z</time>
      </trkpt>
      <trkpt lat="43.83215" lon="3.28892">
        <ele>642.44</ele>
        <time>2026-03-29T12:45:16.447Z</time>
      </trkpt>
      <trkpt lat="43.83215" lon="3.28901">
        <ele>641.97</ele>
        <time>2026-03-29T12:45:22.068Z</time>
      </trkpt>
      <trkpt lat="43.83217" lon="3.28908">
        <ele>641.47</ele>
        <time>2026-03-29T12:45:27.491Z</time>
      </trkpt>
      <trkpt lat="43.83217" lon="3.28917">
        <ele>641.17</ele>
        <time>2026-03-29T12:45:32.588Z</time>
      </trkpt>
      <trkpt lat="43.83217" lon="3.28927">
        <ele>642.52</ele>
        <time>2026-03-29T12:45:38.415Z</time>
      </trkpt>
      <trkpt lat="43.83215" lon="3.28935">
        <ele>643.2</ele>
        <time>2026-03-29T12:45:43.436Z</time>
      </trkpt>
      <trkpt lat="43.83212" lon="3.28943">
        <ele>642.66</ele>
        <time>2026-03-29T12:45:48.448Z</time>
      </trkpt>
      <trkpt lat="43.8321" lon="3.28952">
        <ele>642.06</ele>
        <time>2026-03-29T12:45:54.186Z</time>
      </trkpt>
      <trkpt lat="43.83209" lon="3.28962">
        <ele>641.99</ele>
        <time>2026-03-29T12:45:59.457Z</time>
      </trkpt>
      <trkpt lat="43.83206" lon="3.28971">
        <ele>641.6</ele>
        <time>2026-03-29T12:46:05.129Z</time>
      </trkpt>
      <trkpt lat="43.83203" lon="3.28981">
        <ele>641.07</ele>
        <time>2026-03-29T12:46:10.244Z</time>
      </trkpt>
      <trkpt lat="43.83202" lon="3.28988">
        <ele>640.25</ele>
        <time>2026-03-29T12:46:15.365Z</time>
      </trkpt>
      <trkpt lat="43.83202" lon="3.28997">
        <ele>639.74</ele>
        <time>2026-03-29T12:46:20.763Z</time>
      </trkpt>
      <trkpt lat="43.832" lon="3.29005">
        <ele>639.58</ele>
        <time>2026-03-29T12:46:26.251Z</time>
      </trkpt>
      <trkpt lat="43.83198" lon="3.29014">
        <ele>638.74</ele>
        <time>2026-03-29T12:46:31.807Z</time>
      </trkpt>
      <trkpt lat="43.83196" lon="3.29023">
        <ele>638.91</ele>
        <time>2026-03-29T12:46:37.435Z</time>
      </trkpt>
      <trkpt lat="43.83195" lon="3.29033">
        <ele>638.71</ele>
        <time>2026-03-29T12:46:42.949Z</time>
      </trkpt>
      <trkpt lat="43.83194" lon="3.29043">
        <ele>638.06</ele>
        <time>2026-03-29T12:46:48.428Z</time>
      </trkpt>
      <trkpt lat="43.83195" lon="3.29053">
        <ele>638.27</ele>
        <time>2026-03-29T12:46:53.911Z</time>
      </trkpt>
      <trkpt lat="43.83196" lon="3.29062">
        <ele>638.11</ele>
        <time>2026-03-29T12:46:59.406Z</time>
      </trkpt>
      <trkpt lat="43.83198" lon="3.29072">
        <ele>638.06</ele>
        <time>2026-03-29T12:47:05.009Z</time>
      </trkpt>
      <trkpt lat="43.83199" lon="3.29082">
        <ele>638.29</ele>
        <time>2026-03-29T12:47:10.461Z</time>
      </trkpt>
      <trkpt lat="43.83202" lon="3.29089">
        <ele>637.71</ele>
        <time>2026-03-29T12:47:15.768Z</time>
      </trkpt>
      <trkpt lat="43.83207" lon="3.29095">
        <ele>636.72</ele>
        <time>2026-03-29T12:47:21.377Z</time>
      </trkpt>
      <trkpt lat="43.83212" lon="3.29101">
        <ele>636.5</ele>
        <time>2026-03-29T12:47:26.469Z</time>
      </trkpt>
      <trkpt lat="43.83216" lon="3.29109">
        <ele>637.58</ele>
        <time>2026-03-29T12:47:31.932Z</time>
      </trkpt>
      <trkpt lat="43.83219" lon="3.29117">
        <ele>638.24</ele>
        <time>2026-03-29T12:47:37.071Z</time>
      </trkpt>
      <trkpt lat="43.83222" lon="3.29125">
        <ele>637.45</ele>
        <time>2026-03-29T12:47:42.265Z</time>
      </trkpt>
      <trkpt lat="43.83227" lon="3.29133">
        <ele>637.12</ele>
        <time>2026-03-29T12:47:47.286Z</time>
      </trkpt>
      <trkpt lat="43.83233" lon="3.29137">
        <ele>637.19</ele>
        <time>2026-03-29T12:47:52.471Z</time>
      </trkpt>
      <trkpt lat="43.83239" lon="3.29137">
        <ele>637.47</ele>
        <time>2026-03-29T12:47:57.508Z</time>
      </trkpt>
      <trkpt lat="43.83246" lon="3.29133">
        <ele>637.35</ele>
        <time>2026-03-29T12:48:02.831Z</time>
      </trkpt>
      <trkpt lat="43.83251" lon="3.29129">
        <ele>637.03</ele>
        <time>2026-03-29T12:48:07.987Z</time>
      </trkpt>
      <trkpt lat="43.83257" lon="3.29126">
        <ele>636.87</ele>
        <time>2026-03-29T12:48:13.223Z</time>
      </trkpt>
      <trkpt lat="43.83264" lon="3.29121">
        <ele>637.08</ele>
        <time>2026-03-29T12:48:18.825Z</time>
      </trkpt>
      <trkpt lat="43.83269" lon="3.29116">
        <ele>637.82</ele>
        <time>2026-03-29T12:48:23.851Z</time>
      </trkpt>
      <trkpt lat="43.83274" lon="3.29109">
        <ele>637.77</ele>
        <time>2026-03-29T12:48:29.105Z</time>
      </trkpt>
      <trkpt lat="43.83278" lon="3.29101">
        <ele>637.65</ele>
        <time>2026-03-29T12:48:34.226Z</time>
      </trkpt>
      <trkpt lat="43.83282" lon="3.29095">
        <ele>638.13</ele>
        <time>2026-03-29T12:48:39.426Z</time>
      </trkpt>
      <trkpt lat="43.83289" lon="3.29091">
        <ele>638.14</ele>
        <time>2026-03-29T12:48:45.012Z</time>
      </trkpt>
      <trkpt lat="43.83295" lon="3.29093">
        <ele>637.64</ele>
        <time>2026-03-29T12:48:50.167Z</time>
      </trkpt>
      <trkpt lat="43.83296" lon="3.29098">
        <ele>637.29</ele>
        <time>2026-03-29T12:48:55.431Z</time>
      </trkpt>
      <trkpt lat="43.83296" lon="3.29099">
        <ele>636.19</ele>
        <time>2026-03-29T12:49:06.312Z</time>
      </trkpt>
      <trkpt lat="43.83297" lon="3.29102">
        <ele>636.18</ele>
        <time>2026-03-29T12:49:11.326Z</time>
      </trkpt>
      <trkpt lat="43.83298" lon="3.29104">
        <ele>635.64</ele>
        <time>2026-03-29T12:49:16.448Z</time>
      </trkpt>
      <trkpt lat="43.83297" lon="3.29109">
        <ele>637.75</ele>
        <time>2026-03-29T12:49:21.929Z</time>
      </trkpt>
      <trkpt lat="43.83298" lon="3.29108">
        <ele>637.19</ele>
        <time>2026-03-29T12:49:27.437Z</time>
      </trkpt>
      <trkpt lat="43.83299" lon="3.29107">
        <ele>636.25</ele>
        <time>2026-03-29T12:49:38.480Z</time>
      </trkpt>
      <trkpt lat="43.833" lon="3.29105">
        <ele>636.13</ele>
        <time>2026-03-29T12:49:43.908Z</time>
      </trkpt>
      <trkpt lat="43.83299" lon="3.29101">
        <ele>636.99</ele>
        <time>2026-03-29T12:49:49.532Z</time>
      </trkpt>
      <trkpt lat="43.83299" lon="3.29102">
        <ele>636.99</ele>
        <time>2026-03-29T12:49:55.408Z</time>
      </trkpt>
      <trkpt lat="43.83299" lon="3.29106">
        <ele>636.71</ele>
        <time>2026-03-29T12:50:00.438Z</time>
      </trkpt>
      <trkpt lat="43.83299" lon="3.29108">
        <ele>637.18</ele>
        <time>2026-03-29T12:50:06.045Z</time>
      </trkpt>
      <trkpt lat="43.83295" lon="3.29114">
        <ele>638.77</ele>
        <time>2026-03-29T12:50:11.283Z</time>
      </trkpt>
      <trkpt lat="43.83284" lon="3.29121">
        <ele>639.93</ele>
        <time>2026-03-29T12:50:17.384Z</time>
      </trkpt>
      <trkpt lat="43.83277" lon="3.29124">
        <ele>640.34</ele>
        <time>2026-03-29T12:50:22.909Z</time>
      </trkpt>
      <trkpt lat="43.83272" lon="3.29136">
        <ele>640.54</ele>
        <time>2026-03-29T12:50:28.422Z</time>
      </trkpt>
      <trkpt lat="43.83273" lon="3.29149">
        <ele>640.96</ele>
        <time>2026-03-29T12:50:34.351Z</time>
      </trkpt>
      <trkpt lat="43.83271" lon="3.29158">
        <ele>639.49</ele>
        <time>2026-03-29T12:50:39.607Z</time>
      </trkpt>
      <trkpt lat="43.8327" lon="3.29166">
        <ele>637.74</ele>
        <time>2026-03-29T12:50:44.942Z</time>
      </trkpt>
      <trkpt lat="43.83268" lon="3.29175">
        <ele>637.46</ele>
        <time>2026-03-29T12:50:50.415Z</time>
      </trkpt>
      <trkpt lat="43.83267" lon="3.29184">
        <ele>637.82</ele>
        <time>2026-03-29T12:50:55.424Z</time>
      </trkpt>
      <trkpt lat="43.83264" lon="3.29193">
        <ele>637.4</ele>
        <time>2026-03-29T12:51:01.066Z</time>
      </trkpt>
      <trkpt lat="43.83261" lon="3.29199">
        <ele>636.76</ele>
        <time>2026-03-29T12:51:06.343Z</time>
      </trkpt>
      <trkpt lat="43.8326" lon="3.29205">
        <ele>637.41</ele>
        <time>2026-03-29T12:51:11.850Z</time>
      </trkpt>
      <trkpt lat="43.83259" lon="3.29212">
        <ele>639.17</ele>
        <time>2026-03-29T12:51:17.445Z</time>
      </trkpt>
      <trkpt lat="43.83259" lon="3.29214">
        <ele>638.5</ele>
        <time>2026-03-29T12:51:22.980Z</time>
      </trkpt>
      <trkpt lat="43.83263" lon="3.29218">
        <ele>638.29</ele>
        <time>2026-03-29T12:51:28.406Z</time>
      </trkpt>
      <trkpt lat="43.83267" lon="3.29221">
        <ele>639.29</ele>
        <time>2026-03-29T12:51:33.564Z</time>
      </trkpt>
      <trkpt lat="43.83271" lon="3.29217">
        <ele>641.23</ele>
        <time>2026-03-29T12:51:38.624Z</time>
      </trkpt>
      <trkpt lat="43.8327" lon="3.29211">
        <ele>641.92</ele>
        <time>2026-03-29T12:51:44.207Z</time>
      </trkpt>
      <trkpt lat="43.83272" lon="3.29205">
        <ele>643</ele>
        <time>2026-03-29T12:51:49.409Z</time>
      </trkpt>
      <trkpt lat="43.83273" lon="3.29199">
        <ele>643.75</ele>
        <time>2026-03-29T12:51:54.424Z</time>
      </trkpt>
      <trkpt lat="43.83275" lon="3.29193">
        <ele>645.42</ele>
        <time>2026-03-29T12:51:59.824Z</time>
      </trkpt>
      <trkpt lat="43.83277" lon="3.29188">
        <ele>644.98</ele>
        <time>2026-03-29T12:52:05.421Z</time>
      </trkpt>
      <trkpt lat="43.83281" lon="3.29181">
        <ele>644.1</ele>
        <time>2026-03-29T12:52:10.963Z</time>
      </trkpt>
      <trkpt lat="43.83284" lon="3.29174">
        <ele>644.63</ele>
        <time>2026-03-29T12:52:16.086Z</time>
      </trkpt>
      <trkpt lat="43.83289" lon="3.29169">
        <ele>645.76</ele>
        <time>2026-03-29T12:52:21.451Z</time>
      </trkpt>
      <trkpt lat="43.83294" lon="3.29165">
        <ele>647.03</ele>
        <time>2026-03-29T12:52:26.960Z</time>
      </trkpt>
      <trkpt lat="43.83298" lon="3.29162">
        <ele>649.32</ele>
        <time>2026-03-29T12:52:32.426Z</time>
      </trkpt>
      <trkpt lat="43.83302" lon="3.29159">
        <ele>650.35</ele>
        <time>2026-03-29T12:52:37.683Z</time>
      </trkpt>
      <trkpt lat="43.83307" lon="3.29158">
        <ele>650.67</ele>
        <time>2026-03-29T12:52:43.225Z</time>
      </trkpt>
      <trkpt lat="43.83313" lon="3.29156">
        <ele>652.29</ele>
        <time>2026-03-29T12:52:48.351Z</time>
      </trkpt>
      <trkpt lat="43.83318" lon="3.29153">
        <ele>652.64</ele>
        <time>2026-03-29T12:52:53.433Z</time>
      </trkpt>
      <trkpt lat="43.83323" lon="3.2915">
        <ele>652.98</ele>
        <time>2026-03-29T12:52:58.578Z</time>
      </trkpt>
      <trkpt lat="43.8333" lon="3.29147">
        <ele>652.22</ele>
        <time>2026-03-29T12:53:04.197Z</time>
      </trkpt>
      <trkpt lat="43.83334" lon="3.29142">
        <ele>652.05</ele>
        <time>2026-03-29T12:53:10.122Z</time>
      </trkpt>
      <trkpt lat="43.83338" lon="3.29138">
        <ele>654.02</ele>
        <time>2026-03-29T12:53:15.262Z</time>
      </trkpt>
      <trkpt lat="43.83342" lon="3.29132">
        <ele>653.98</ele>
        <time>2026-03-29T12:53:20.424Z</time>
      </trkpt>
      <trkpt lat="43.83348" lon="3.29131">
        <ele>655.55</ele>
        <time>2026-03-29T12:53:25.705Z</time>
      </trkpt>
      <trkpt lat="43.83353" lon="3.2913">
        <ele>655.48</ele>
        <time>2026-03-29T12:53:31.267Z</time>
      </trkpt>
      <trkpt lat="43.83357" lon="3.29131">
        <ele>655.39</ele>
        <time>2026-03-29T12:53:36.441Z</time>
      </trkpt>
      <trkpt lat="43.83359" lon="3.29132">
        <ele>656.86</ele>
        <time>2026-03-29T12:53:42.140Z</time>
      </trkpt>
      <trkpt lat="43.83359" lon="3.29134">
        <ele>657.43</ele>
        <time>2026-03-29T12:53:47.380Z</time>
      </trkpt>
      <trkpt lat="43.83364" lon="3.29136">
        <ele>659</ele>
        <time>2026-03-29T12:53:53.514Z</time>
      </trkpt>
      <trkpt lat="43.83369" lon="3.29138">
        <ele>659.23</ele>
        <time>2026-03-29T12:53:58.705Z</time>
      </trkpt>
      <trkpt lat="43.83372" lon="3.29139">
        <ele>659.18</ele>
        <time>2026-03-29T12:54:04.103Z</time>
      </trkpt>
      <trkpt lat="43.83376" lon="3.29141">
        <ele>659.82</ele>
        <time>2026-03-29T12:54:09.439Z</time>
      </trkpt>
      <trkpt lat="43.83381" lon="3.29147">
        <ele>660.27</ele>
        <time>2026-03-29T12:54:15.084Z</time>
      </trkpt>
      <trkpt lat="43.83386" lon="3.29152">
        <ele>660.92</ele>
        <time>2026-03-29T12:54:20.408Z</time>
      </trkpt>
      <trkpt lat="43.83391" lon="3.29155">
        <ele>661.01</ele>
        <time>2026-03-29T12:54:25.551Z</time>
      </trkpt>
      <trkpt lat="43.83398" lon="3.29157">
        <ele>659.89</ele>
        <time>2026-03-29T12:54:30.884Z</time>
      </trkpt>
      <trkpt lat="43.83404" lon="3.2916">
        <ele>659.85</ele>
        <time>2026-03-29T12:54:36.006Z</time>
      </trkpt>
      <trkpt lat="43.83405" lon="3.29167">
        <ele>661.26</ele>
        <time>2026-03-29T12:54:41.244Z</time>
      </trkpt>
      <trkpt lat="43.83409" lon="3.29172">
        <ele>662.01</ele>
        <time>2026-03-29T12:54:46.488Z</time>
      </trkpt>
      <trkpt lat="43.83414" lon="3.29178">
        <ele>662.86</ele>
        <time>2026-03-29T12:54:52.426Z</time>
      </trkpt>
      <trkpt lat="43.83418" lon="3.29184">
        <ele>662.91</ele>
        <time>2026-03-29T12:54:57.439Z</time>
      </trkpt>
      <trkpt lat="43.83417" lon="3.29191">
        <ele>662.64</ele>
        <time>2026-03-29T12:55:03.188Z</time>
      </trkpt>
      <trkpt lat="43.83423" lon="3.29195">
        <ele>662.48</ele>
        <time>2026-03-29T12:55:08.310Z</time>
      </trkpt>
      <trkpt lat="43.83429" lon="3.29198">
        <ele>662.68</ele>
        <time>2026-03-29T12:55:13.422Z</time>
      </trkpt>
      <trkpt lat="43.83432" lon="3.29196">
        <ele>663.41</ele>
        <time>2026-03-29T12:55:18.463Z</time>
      </trkpt>
      <trkpt lat="43.83434" lon="3.29194">
        <ele>663.93</ele>
        <time>2026-03-29T12:55:23.521Z</time>
      </trkpt>
      <trkpt lat="43.83443" lon="3.292">
        <ele>663.7</ele>
        <time>2026-03-29T12:55:29.392Z</time>
      </trkpt>
      <trkpt lat="43.83447" lon="3.29217">
        <ele>663.73</ele>
        <time>2026-03-29T12:55:34.821Z</time>
      </trkpt>
      <trkpt lat="43.83448" lon="3.29226">
        <ele>664.56</ele>
        <time>2026-03-29T12:55:39.944Z</time>
      </trkpt>
      <trkpt lat="43.83447" lon="3.29224">
        <ele>664.72</ele>
        <time>2026-03-29T12:55:45.080Z</time>
      </trkpt>
      <trkpt lat="43.83447" lon="3.29225">
        <ele>663.17</ele>
        <time>2026-03-29T12:55:57.415Z</time>
      </trkpt>
      <trkpt lat="43.83448" lon="3.29225">
        <ele>662.91</ele>
        <time>2026-03-29T12:56:03.166Z</time>
      </trkpt>
      <trkpt lat="43.8345" lon="3.29226">
        <ele>662.91</ele>
        <time>2026-03-29T12:56:09.441Z</time>
      </trkpt>
      <trkpt lat="43.83451" lon="3.29227">
        <ele>664.07</ele>
        <time>2026-03-29T12:56:15.452Z</time>
      </trkpt>
      <trkpt lat="43.83453" lon="3.29225">
        <ele>664.85</ele>
        <time>2026-03-29T12:56:21.437Z</time>
      </trkpt>
      <trkpt lat="43.83459" lon="3.29221">
        <ele>664.93</ele>
        <time>2026-03-29T12:56:27.103Z</time>
      </trkpt>
      <trkpt lat="43.83465" lon="3.29216">
        <ele>664.54</ele>
        <time>2026-03-29T12:56:32.132Z</time>
      </trkpt>
      <trkpt lat="43.83471" lon="3.29213">
        <ele>664.97</ele>
        <time>2026-03-29T12:56:37.428Z</time>
      </trkpt>
      <trkpt lat="43.83474" lon="3.29209">
        <ele>664.73</ele>
        <time>2026-03-29T12:56:42.780Z</time>
      </trkpt>
      <trkpt lat="43.83477" lon="3.29205">
        <ele>664.31</ele>
        <time>2026-03-29T12:56:47.922Z</time>
      </trkpt>
      <trkpt lat="43.83482" lon="3.29204">
        <ele>665.64</ele>
        <time>2026-03-29T12:56:53.106Z</time>
      </trkpt>
      <trkpt lat="43.83487" lon="3.29207">
        <ele>666.88</ele>
        <time>2026-03-29T12:56:58.165Z</time>
      </trkpt>
      <trkpt lat="43.83491" lon="3.29209">
        <ele>666.9</ele>
        <time>2026-03-29T12:57:03.188Z</time>
      </trkpt>
      <trkpt lat="43.83493" lon="3.29215">
        <ele>667.67</ele>
        <time>2026-03-29T12:57:08.464Z</time>
      </trkpt>
      <trkpt lat="43.83497" lon="3.2922">
        <ele>669.99</ele>
        <time>2026-03-29T12:57:14.125Z</time>
      </trkpt>
      <trkpt lat="43.83501" lon="3.29224">
        <ele>670.07</ele>
        <time>2026-03-29T12:57:19.415Z</time>
      </trkpt>
      <trkpt lat="43.83504" lon="3.29226">
        <ele>669.55</ele>
        <time>2026-03-29T12:57:24.921Z</time>
      </trkpt>
      <trkpt lat="43.83507" lon="3.29227">
        <ele>670.44</ele>
        <time>2026-03-29T12:57:30.185Z</time>
      </trkpt>
      <trkpt lat="43.83513" lon="3.29231">
        <ele>671.2</ele>
        <time>2026-03-29T12:57:35.730Z</time>
      </trkpt>
      <trkpt lat="43.83517" lon="3.29235">
        <ele>670.23</ele>
        <time>2026-03-29T12:57:40.903Z</time>
      </trkpt>
      <trkpt lat="43.83517" lon="3.29236">
        <ele>673.84</ele>
        <time>2026-03-29T12:57:47.412Z</time>
      </trkpt>
      <trkpt lat="43.83519" lon="3.29238">
        <ele>673.8</ele>
        <time>2026-03-29T12:57:53.083Z</time>
      </trkpt>
      <trkpt lat="43.83524" lon="3.2924">
        <ele>674.28</ele>
        <time>2026-03-29T12:57:58.367Z</time>
      </trkpt>
      <trkpt lat="43.83526" lon="3.29248">
        <ele>675.89</ele>
        <time>2026-03-29T12:58:03.421Z</time>
      </trkpt>
      <trkpt lat="43.8353" lon="3.29252">
        <ele>676.73</ele>
        <time>2026-03-29T12:58:09.421Z</time>
      </trkpt>
      <trkpt lat="43.83531" lon="3.29254">
        <ele>676.65</ele>
        <time>2026-03-29T12:58:14.493Z</time>
      </trkpt>
      <trkpt lat="43.83532" lon="3.2926">
        <ele>676.14</ele>
        <time>2026-03-29T12:58:20.468Z</time>
      </trkpt>
      <trkpt lat="43.83534" lon="3.29265">
        <ele>678.45</ele>
        <time>2026-03-29T12:58:25.945Z</time>
      </trkpt>
      <trkpt lat="43.83538" lon="3.29272">
        <ele>679.61</ele>
        <time>2026-03-29T12:58:31.130Z</time>
      </trkpt>
      <trkpt lat="43.83542" lon="3.29276">
        <ele>680.19</ele>
        <time>2026-03-29T12:58:36.926Z</time>
      </trkpt>
      <trkpt lat="43.83545" lon="3.29279">
        <ele>680.06</ele>
        <time>2026-03-29T12:58:42.343Z</time>
      </trkpt>
      <trkpt lat="43.83552" lon="3.29281">
        <ele>681.12</ele>
        <time>2026-03-29T12:58:47.460Z</time>
      </trkpt>
      <trkpt lat="43.83557" lon="3.29284">
        <ele>682.08</ele>
        <time>2026-03-29T12:58:52.969Z</time>
      </trkpt>
      <trkpt lat="43.83561" lon="3.29288">
        <ele>681.95</ele>
        <time>2026-03-29T12:58:58.044Z</time>
      </trkpt>
      <trkpt lat="43.83564" lon="3.29296">
        <ele>681.99</ele>
        <time>2026-03-29T12:59:03.071Z</time>
      </trkpt>
      <trkpt lat="43.83568" lon="3.293">
        <ele>681.79</ele>
        <time>2026-03-29T12:59:08.333Z</time>
      </trkpt>
      <trkpt lat="43.83572" lon="3.29304">
        <ele>682.86</ele>
        <time>2026-03-29T12:59:13.458Z</time>
      </trkpt>
      <trkpt lat="43.83576" lon="3.29307">
        <ele>683.21</ele>
        <time>2026-03-29T12:59:18.459Z</time>
      </trkpt>
      <trkpt lat="43.83579" lon="3.29313">
        <ele>683.14</ele>
        <time>2026-03-29T12:59:23.474Z</time>
      </trkpt>
      <trkpt lat="43.83584" lon="3.29318">
        <ele>683.76</ele>
        <time>2026-03-29T12:59:29.185Z</time>
      </trkpt>
      <trkpt lat="43.83588" lon="3.2932">
        <ele>684.01</ele>
        <time>2026-03-29T12:59:34.210Z</time>
      </trkpt>
      <trkpt lat="43.83591" lon="3.29325">
        <ele>684.4</ele>
        <time>2026-03-29T12:59:39.445Z</time>
      </trkpt>
      <trkpt lat="43.83594" lon="3.29331">
        <ele>685.24</ele>
        <time>2026-03-29T12:59:44.808Z</time>
      </trkpt>
      <trkpt lat="43.83598" lon="3.29335">
        <ele>685.38</ele>
        <time>2026-03-29T12:59:49.885Z</time>
      </trkpt>
      <trkpt lat="43.83603" lon="3.29339">
        <ele>685.89</ele>
        <time>2026-03-29T12:59:55.007Z</time>
      </trkpt>
      <trkpt lat="43.83607" lon="3.29341">
        <ele>685.55</ele>
        <time>2026-03-29T13:00:00.338Z</time>
      </trkpt>
      <trkpt lat="43.83611" lon="3.29342">
        <ele>684.82</ele>
        <time>2026-03-29T13:00:05.381Z</time>
      </trkpt>
      <trkpt lat="43.83613" lon="3.29346">
        <ele>686.88</ele>
        <time>2026-03-29T13:00:11.420Z</time>
      </trkpt>
      <trkpt lat="43.83612" lon="3.29347">
        <ele>688.1</ele>
        <time>2026-03-29T13:00:17.409Z</time>
      </trkpt>
      <trkpt lat="43.83611" lon="3.29351">
        <ele>688.01</ele>
        <time>2026-03-29T13:00:22.452Z</time>
      </trkpt>
      <trkpt lat="43.83611" lon="3.29353">
        <ele>687.07</ele>
        <time>2026-03-29T13:00:28.056Z</time>
      </trkpt>
      <trkpt lat="43.83614" lon="3.29352">
        <ele>686.36</ele>
        <time>2026-03-29T13:00:33.275Z</time>
      </trkpt>
      <trkpt lat="43.83618" lon="3.2935">
        <ele>687.02</ele>
        <time>2026-03-29T13:00:38.458Z</time>
      </trkpt>
      <trkpt lat="43.83625" lon="3.29349">
        <ele>687.71</ele>
        <time>2026-03-29T13:00:43.831Z</time>
      </trkpt>
      <trkpt lat="43.83629" lon="3.29346">
        <ele>688.11</ele>
        <time>2026-03-29T13:00:48.926Z</time>
      </trkpt>
      <trkpt lat="43.83632" lon="3.29341">
        <ele>687.92</ele>
        <time>2026-03-29T13:00:54.412Z</time>
      </trkpt>
      <trkpt lat="43.83637" lon="3.29341">
        <ele>687.03</ele>
        <time>2026-03-29T13:00:59.447Z</time>
      </trkpt>
      <trkpt lat="43.83642" lon="3.29343">
        <ele>690.57</ele>
        <time>2026-03-29T13:01:05.142Z</time>
      </trkpt>
      <trkpt lat="43.83647" lon="3.29342">
        <ele>689.38</ele>
        <time>2026-03-29T13:01:10.438Z</time>
      </trkpt>
      <trkpt lat="43.83653" lon="3.29342">
        <ele>689.04</ele>
        <time>2026-03-29T13:01:15.467Z</time>
      </trkpt>
      <trkpt lat="43.8366" lon="3.29341">
        <ele>690.77</ele>
        <time>2026-03-29T13:01:20.981Z</time>
      </trkpt>
      <trkpt lat="43.83664" lon="3.29338">
        <ele>693.43</ele>
        <time>2026-03-29T13:01:26.123Z</time>
      </trkpt>
      <trkpt lat="43.83669" lon="3.29337">
        <ele>692.12</ele>
        <time>2026-03-29T13:01:31.340Z</time>
      </trkpt>
      <trkpt lat="43.83674" lon="3.29336">
        <ele>692.53</ele>
        <time>2026-03-29T13:01:36.454Z</time>
      </trkpt>
      <trkpt lat="43.83679" lon="3.29339">
        <ele>692.75</ele>
        <time>2026-03-29T13:01:41.806Z</time>
      </trkpt>
      <trkpt lat="43.83685" lon="3.29341">
        <ele>694.41</ele>
        <time>2026-03-29T13:01:47.330Z</time>
      </trkpt>
      <trkpt lat="43.83691" lon="3.29347">
        <ele>693.42</ele>
        <time>2026-03-29T13:01:53.490Z</time>
      </trkpt>
      <trkpt lat="43.837" lon="3.29344">
        <ele>692.4</ele>
        <time>2026-03-29T13:01:58.748Z</time>
      </trkpt>
      <trkpt lat="43.83708" lon="3.29341">
        <ele>693.47</ele>
        <time>2026-03-29T13:02:04.411Z</time>
      </trkpt>
      <trkpt lat="43.83716" lon="3.29339">
        <ele>692.8</ele>
        <time>2026-03-29T13:02:09.954Z</time>
      </trkpt>
      <trkpt lat="43.83722" lon="3.29339">
        <ele>692.41</ele>
        <time>2026-03-29T13:02:15.150Z</time>
      </trkpt>
      <trkpt lat="43.83728" lon="3.29342">
        <ele>692.78</ele>
        <time>2026-03-29T13:02:20.357Z</time>
      </trkpt>
      <trkpt lat="43.83734" lon="3.29347">
        <ele>693.43</ele>
        <time>2026-03-29T13:02:25.468Z</time>
      </trkpt>
      <trkpt lat="43.8374" lon="3.29351">
        <ele>693.5</ele>
        <time>2026-03-29T13:02:31.407Z</time>
      </trkpt>
      <trkpt lat="43.83747" lon="3.29355">
        <ele>691.88</ele>
        <time>2026-03-29T13:02:36.974Z</time>
      </trkpt>
      <trkpt lat="43.83753" lon="3.29361">
        <ele>690.1</ele>
        <time>2026-03-29T13:02:42.413Z</time>
      </trkpt>
      <trkpt lat="43.83759" lon="3.29365">
        <ele>687.7</ele>
        <time>2026-03-29T13:02:47.443Z</time>
      </trkpt>
      <trkpt lat="43.83765" lon="3.29372">
        <ele>687.09</ele>
        <time>2026-03-29T13:02:53.372Z</time>
      </trkpt>
      <trkpt lat="43.8377" lon="3.29378">
        <ele>685.21</ele>
        <time>2026-03-29T13:02:58.794Z</time>
      </trkpt>
      <trkpt lat="43.83776" lon="3.29382">
        <ele>686.35</ele>
        <time>2026-03-29T13:03:04.253Z</time>
      </trkpt>
      <trkpt lat="43.83783" lon="3.29385">
        <ele>684.99</ele>
        <time>2026-03-29T13:03:09.696Z</time>
      </trkpt>
      <trkpt lat="43.83791" lon="3.29384">
        <ele>684.45</ele>
        <time>2026-03-29T13:03:15.153Z</time>
      </trkpt>
      <trkpt lat="43.83796" lon="3.29381">
        <ele>683.85</ele>
        <time>2026-03-29T13:03:20.449Z</time>
      </trkpt>
      <trkpt lat="43.83802" lon="3.29377">
        <ele>683.13</ele>
        <time>2026-03-29T13:03:26.013Z</time>
      </trkpt>
      <trkpt lat="43.83809" lon="3.29374">
        <ele>683.22</ele>
        <time>2026-03-29T13:03:31.228Z</time>
      </trkpt>
      <trkpt lat="43.83816" lon="3.2937">
        <ele>683.2</ele>
        <time>2026-03-29T13:03:36.452Z</time>
      </trkpt>
      <trkpt lat="43.83821" lon="3.29366">
        <ele>683.28</ele>
        <time>2026-03-29T13:03:41.968Z</time>
      </trkpt>
      <trkpt lat="43.83828" lon="3.29366">
        <ele>683.49</ele>
        <time>2026-03-29T13:03:47.391Z</time>
      </trkpt>
      <trkpt lat="43.83835" lon="3.29365">
        <ele>683.3</ele>
        <time>2026-03-29T13:03:52.468Z</time>
      </trkpt>
      <trkpt lat="43.8384" lon="3.29366">
        <ele>682.78</ele>
        <time>2026-03-29T13:03:57.470Z</time>
      </trkpt>
      <trkpt lat="43.83847" lon="3.29369">
        <ele>682.02</ele>
        <time>2026-03-29T13:04:02.971Z</time>
      </trkpt>
      <trkpt lat="43.83854" lon="3.2937">
        <ele>682.35</ele>
        <time>2026-03-29T13:04:08.364Z</time>
      </trkpt>
      <trkpt lat="43.8386" lon="3.29372">
        <ele>683.81</ele>
        <time>2026-03-29T13:04:14.487Z</time>
      </trkpt>
      <trkpt lat="43.83867" lon="3.29372">
        <ele>683.86</ele>
        <time>2026-03-29T13:04:19.987Z</time>
      </trkpt>
      <trkpt lat="43.83874" lon="3.29371">
        <ele>683.65</ele>
        <time>2026-03-29T13:04:25.425Z</time>
      </trkpt>
      <trkpt lat="43.83881" lon="3.29371">
        <ele>683.29</ele>
        <time>2026-03-29T13:04:30.932Z</time>
      </trkpt>
      <trkpt lat="43.83888" lon="3.29372">
        <ele>682.87</ele>
        <time>2026-03-29T13:04:36.429Z</time>
      </trkpt>
      <trkpt lat="43.83894" lon="3.29373">
        <ele>682.94</ele>
        <time>2026-03-29T13:04:42.379Z</time>
      </trkpt>
      <trkpt lat="43.83901" lon="3.29373">
        <ele>682.94</ele>
        <time>2026-03-29T13:04:47.931Z</time>
      </trkpt>
      <trkpt lat="43.83907" lon="3.29372">
        <ele>683.07</ele>
        <time>2026-03-29T13:04:53.451Z</time>
      </trkpt>
      <trkpt lat="43.83913" lon="3.29368">
        <ele>684.24</ele>
        <time>2026-03-29T13:04:58.947Z</time>
      </trkpt>
      <trkpt lat="43.83919" lon="3.29365">
        <ele>683.89</ele>
        <time>2026-03-29T13:05:04.431Z</time>
      </trkpt>
      <trkpt lat="43.83926" lon="3.29362">
        <ele>683.89</ele>
        <time>2026-03-29T13:05:09.927Z</time>
      </trkpt>
      <trkpt lat="43.83933" lon="3.29361">
        <ele>683.87</ele>
        <time>2026-03-29T13:05:15.366Z</time>
      </trkpt>
      <trkpt lat="43.8394" lon="3.29364">
        <ele>683.44</ele>
        <time>2026-03-29T13:05:21.014Z</time>
      </trkpt>
      <trkpt lat="43.83947" lon="3.29366">
        <ele>683.84</ele>
        <time>2026-03-29T13:05:26.465Z</time>
      </trkpt>
      <trkpt lat="43.83954" lon="3.29367">
        <ele>684.9</ele>
        <time>2026-03-29T13:05:32.127Z</time>
      </trkpt>
      <trkpt lat="43.83961" lon="3.29364">
        <ele>685.08</ele>
        <time>2026-03-29T13:05:37.418Z</time>
      </trkpt>
      <trkpt lat="43.83961" lon="3.29365">
        <ele>684.62</ele>
        <time>2026-03-29T13:05:43.212Z</time>
      </trkpt>
      <trkpt lat="43.8396" lon="3.29377">
        <ele>680.54</ele>
        <time>2026-03-29T13:05:48.432Z</time>
      </trkpt>
      <trkpt lat="43.83961" lon="3.29387">
        <ele>682.83</ele>
        <time>2026-03-29T13:05:53.890Z</time>
      </trkpt>
      <trkpt lat="43.83964" lon="3.29395">
        <ele>685.52</ele>
        <time>2026-03-29T13:05:59.419Z</time>
      </trkpt>
      <trkpt lat="43.83965" lon="3.29402">
        <ele>685.04</ele>
        <time>2026-03-29T13:06:04.442Z</time>
      </trkpt>
      <trkpt lat="43.83967" lon="3.2941">
        <ele>683.92</ele>
        <time>2026-03-29T13:06:09.590Z</time>
      </trkpt>
      <trkpt lat="43.83969" lon="3.29418">
        <ele>684.85</ele>
        <time>2026-03-29T13:06:14.874Z</time>
      </trkpt>
      <trkpt lat="43.83971" lon="3.29426">
        <ele>685.11</ele>
        <time>2026-03-29T13:06:20.424Z</time>
      </trkpt>
      <trkpt lat="43.83973" lon="3.29434">
        <ele>684.9</ele>
        <time>2026-03-29T13:06:25.442Z</time>
      </trkpt>
      <trkpt lat="43.83975" lon="3.29441">
        <ele>684.41</ele>
        <time>2026-03-29T13:06:31.392Z</time>
      </trkpt>
      <trkpt lat="43.83976" lon="3.29451">
        <ele>683.78</ele>
        <time>2026-03-29T13:06:36.467Z</time>
      </trkpt>
      <trkpt lat="43.83978" lon="3.29462">
        <ele>683.72</ele>
        <time>2026-03-29T13:06:42.251Z</time>
      </trkpt>
      <trkpt lat="43.83984" lon="3.29468">
        <ele>683.77</ele>
        <time>2026-03-29T13:06:47.468Z</time>
      </trkpt>
      <trkpt lat="43.83992" lon="3.2947">
        <ele>683.38</ele>
        <time>2026-03-29T13:06:53.389Z</time>
      </trkpt>
      <trkpt lat="43.83998" lon="3.29472">
        <ele>682.99</ele>
        <time>2026-03-29T13:06:58.443Z</time>
      </trkpt>
      <trkpt lat="43.84004" lon="3.29474">
        <ele>683.06</ele>
        <time>2026-03-29T13:07:03.891Z</time>
      </trkpt>
      <trkpt lat="43.84011" lon="3.29475">
        <ele>683.2</ele>
        <time>2026-03-29T13:07:08.914Z</time>
      </trkpt>
      <trkpt lat="43.84017" lon="3.29476">
        <ele>683.68</ele>
        <time>2026-03-29T13:07:14.194Z</time>
      </trkpt>
      <trkpt lat="43.84024" lon="3.29475">
        <ele>683.73</ele>
        <time>2026-03-29T13:07:19.654Z</time>
      </trkpt>
      <trkpt lat="43.84031" lon="3.29474">
        <ele>684.05</ele>
        <time>2026-03-29T13:07:25.195Z</time>
      </trkpt>
      <trkpt lat="43.84038" lon="3.29471">
        <ele>683.78</ele>
        <time>2026-03-29T13:07:30.672Z</time>
      </trkpt>
      <trkpt lat="43.84045" lon="3.29468">
        <ele>683.78</ele>
        <time>2026-03-29T13:07:36.155Z</time>
      </trkpt>
      <trkpt lat="43.84052" lon="3.29468">
        <ele>683.98</ele>
        <time>2026-03-29T13:07:41.474Z</time>
      </trkpt>
      <trkpt lat="43.84058" lon="3.29471">
        <ele>683.84</ele>
        <time>2026-03-29T13:07:47.118Z</time>
      </trkpt>
      <trkpt lat="43.84064" lon="3.29474">
        <ele>682.94</ele>
        <time>2026-03-29T13:07:52.230Z</time>
      </trkpt>
      <trkpt lat="43.84069" lon="3.29472">
        <ele>681.66</ele>
        <time>2026-03-29T13:07:58.336Z</time>
      </trkpt>
      <trkpt lat="43.84077" lon="3.29478">
        <ele>679.18</ele>
        <time>2026-03-29T13:08:04.372Z</time>
      </trkpt>
      <trkpt lat="43.84083" lon="3.29486">
        <ele>681.82</ele>
        <time>2026-03-29T13:08:09.770Z</time>
      </trkpt>
      <trkpt lat="43.84088" lon="3.29494">
        <ele>683.33</ele>
        <time>2026-03-29T13:08:15.335Z</time>
      </trkpt>
      <trkpt lat="43.84094" lon="3.29501">
        <ele>682.52</ele>
        <time>2026-03-29T13:08:21.248Z</time>
      </trkpt>
      <trkpt lat="43.84097" lon="3.29509">
        <ele>681.4</ele>
        <time>2026-03-29T13:08:26.488Z</time>
      </trkpt>
      <trkpt lat="43.84094" lon="3.29514">
        <ele>680.98</ele>
        <time>2026-03-29T13:08:31.492Z</time>
      </trkpt>
      <trkpt lat="43.84097" lon="3.29522">
        <ele>684.02</ele>
        <time>2026-03-29T13:08:37.057Z</time>
      </trkpt>
      <trkpt lat="43.84096" lon="3.2953">
        <ele>683.15</ele>
        <time>2026-03-29T13:08:42.490Z</time>
      </trkpt>
      <trkpt lat="43.84094" lon="3.29542">
        <ele>683.56</ele>
        <time>2026-03-29T13:08:48.297Z</time>
      </trkpt>
      <trkpt lat="43.84096" lon="3.29554">
        <ele>684.06</ele>
        <time>2026-03-29T13:08:53.489Z</time>
      </trkpt>
      <trkpt lat="43.84103" lon="3.29563">
        <ele>683.71</ele>
        <time>2026-03-29T13:08:58.698Z</time>
      </trkpt>
      <trkpt lat="43.84113" lon="3.29571">
        <ele>683.9</ele>
        <time>2026-03-29T13:09:03.775Z</time>
      </trkpt>
      <trkpt lat="43.84122" lon="3.29577">
        <ele>683.41</ele>
        <time>2026-03-29T13:09:09.393Z</time>
      </trkpt>
      <trkpt lat="43.8413" lon="3.29583">
        <ele>682.63</ele>
        <time>2026-03-29T13:09:14.446Z</time>
      </trkpt>
      <trkpt lat="43.84138" lon="3.29587">
        <ele>682.52</ele>
        <time>2026-03-29T13:09:19.813Z</time>
      </trkpt>
      <trkpt lat="43.84147" lon="3.2959">
        <ele>682.53</ele>
        <time>2026-03-29T13:09:25.254Z</time>
      </trkpt>
      <trkpt lat="43.84155" lon="3.29592">
        <ele>682.29</ele>
        <time>2026-03-29T13:09:30.365Z</time>
      </trkpt>
      <trkpt lat="43.84159" lon="3.29585">
        <ele>682.5</ele>
        <time>2026-03-29T13:09:36.445Z</time>
      </trkpt>
      <trkpt lat="43.8416" lon="3.29582">
        <ele>678.1</ele>
        <time>2026-03-29T13:09:41.458Z</time>
      </trkpt>
      <trkpt lat="43.84166" lon="3.29571">
        <ele>676.12</ele>
        <time>2026-03-29T13:09:47.449Z</time>
      </trkpt>
      <trkpt lat="43.84167" lon="3.29569">
        <ele>683.68</ele>
        <time>2026-03-29T13:09:53.410Z</time>
      </trkpt>
      <trkpt lat="43.84169" lon="3.29564">
        <ele>683</ele>
        <time>2026-03-29T13:09:58.449Z</time>
      </trkpt>
      <trkpt lat="43.84171" lon="3.29564">
        <ele>682.17</ele>
        <time>2026-03-29T13:10:03.472Z</time>
      </trkpt>
      <trkpt lat="43.84173" lon="3.29563">
        <ele>681.61</ele>
        <time>2026-03-29T13:10:09.433Z</time>
      </trkpt>
      <trkpt lat="43.84174" lon="3.29563">
        <ele>679.53</ele>
        <time>2026-03-29T13:10:15.483Z</time>
      </trkpt>
      <trkpt lat="43.84173" lon="3.29562">
        <ele>681.19</ele>
        <time>2026-03-29T13:10:36.449Z</time>
      </trkpt>
      <trkpt lat="43.84171" lon="3.2956">
        <ele>681.57</ele>
        <time>2026-03-29T13:10:41.960Z</time>
      </trkpt>
      <trkpt lat="43.84173" lon="3.29562">
        <ele>681.11</ele>
        <time>2026-03-29T13:10:47.489Z</time>
      </trkpt>
      <trkpt lat="43.84174" lon="3.29562">
        <ele>679.94</ele>
        <time>2026-03-29T13:10:52.962Z</time>
      </trkpt>
      <trkpt lat="43.84175" lon="3.29562">
        <ele>680.02</ele>
        <time>2026-03-29T13:10:59.160Z</time>
      </trkpt>
      <trkpt lat="43.84177" lon="3.29563">
        <ele>680.93</ele>
        <time>2026-03-29T13:11:04.421Z</time>
      </trkpt>
      <trkpt lat="43.84178" lon="3.29563">
        <ele>681.65</ele>
        <time>2026-03-29T13:11:09.446Z</time>
      </trkpt>
      <trkpt lat="43.84179" lon="3.29563">
        <ele>681.73</ele>
        <time>2026-03-29T13:11:29.345Z</time>
      </trkpt>
      <trkpt lat="43.84185" lon="3.29566">
        <ele>681.84</ele>
        <time>2026-03-29T13:11:34.427Z</time>
      </trkpt>
      <trkpt lat="43.84191" lon="3.29571">
        <ele>682.66</ele>
        <time>2026-03-29T13:11:40.367Z</time>
      </trkpt>
      <trkpt lat="43.84199" lon="3.29575">
        <ele>681.73</ele>
        <time>2026-03-29T13:11:46.209Z</time>
      </trkpt>
      <trkpt lat="43.84206" lon="3.29576">
        <ele>681.65</ele>
        <time>2026-03-29T13:11:52.428Z</time>
      </trkpt>
      <trkpt lat="43.84211" lon="3.2958">
        <ele>680.95</ele>
        <time>2026-03-29T13:11:57.761Z</time>
      </trkpt>
      <trkpt lat="43.84216" lon="3.29583">
        <ele>680.64</ele>
        <time>2026-03-29T13:12:03.459Z</time>
      </trkpt>
      <trkpt lat="43.84224" lon="3.29586">
        <ele>682.81</ele>
        <time>2026-03-29T13:12:09.451Z</time>
      </trkpt>
      <trkpt lat="43.8423" lon="3.2959">
        <ele>682.31</ele>
        <time>2026-03-29T13:12:14.702Z</time>
      </trkpt>
      <trkpt lat="43.84234" lon="3.29594">
        <ele>681.07</ele>
        <time>2026-03-29T13:12:19.746Z</time>
      </trkpt>
      <trkpt lat="43.8424" lon="3.29597">
        <ele>680.34</ele>
        <time>2026-03-29T13:12:25.283Z</time>
      </trkpt>
      <trkpt lat="43.84246" lon="3.29599">
        <ele>679.71</ele>
        <time>2026-03-29T13:12:30.807Z</time>
      </trkpt>
      <trkpt lat="43.84249" lon="3.296">
        <ele>681.26</ele>
        <time>2026-03-29T13:12:36.614Z</time>
      </trkpt>
      <trkpt lat="43.84249" lon="3.29602">
        <ele>681.3</ele>
        <time>2026-03-29T13:12:42.444Z</time>
      </trkpt>
      <trkpt lat="43.8425" lon="3.29603">
        <ele>680.06</ele>
        <time>2026-03-29T13:12:50.981Z</time>
      </trkpt>
      <trkpt lat="43.84256" lon="3.2961">
        <ele>679.39</ele>
        <time>2026-03-29T13:12:56.302Z</time>
      </trkpt>
      <trkpt lat="43.84265" lon="3.29615">
        <ele>680.91</ele>
        <time>2026-03-29T13:13:01.445Z</time>
      </trkpt>
      <trkpt lat="43.84272" lon="3.29619">
        <ele>681.09</ele>
        <time>2026-03-29T13:13:07.342Z</time>
      </trkpt>
      <trkpt lat="43.8428" lon="3.29622">
        <ele>681.85</ele>
        <time>2026-03-29T13:13:12.462Z</time>
      </trkpt>
      <trkpt lat="43.84287" lon="3.29624">
        <ele>682.05</ele>
        <time>2026-03-29T13:13:17.891Z</time>
      </trkpt>
      <trkpt lat="43.84294" lon="3.29628">
        <ele>681.88</ele>
        <time>2026-03-29T13:13:23.082Z</time>
      </trkpt>
      <trkpt lat="43.843" lon="3.29631">
        <ele>681.49</ele>
        <time>2026-03-29T13:13:28.160Z</time>
      </trkpt>
      <trkpt lat="43.84306" lon="3.29635">
        <ele>681.32</ele>
        <time>2026-03-29T13:13:33.481Z</time>
      </trkpt>
      <trkpt lat="43.84313" lon="3.29639">
        <ele>680.13</ele>
        <time>2026-03-29T13:13:39.424Z</time>
      </trkpt>
      <trkpt lat="43.84319" lon="3.29641">
        <ele>680.17</ele>
        <time>2026-03-29T13:13:44.435Z</time>
      </trkpt>
      <trkpt lat="43.84325" lon="3.29643">
        <ele>681.02</ele>
        <time>2026-03-29T13:13:49.436Z</time>
      </trkpt>
      <trkpt lat="43.8433" lon="3.29645">
        <ele>681.64</ele>
        <time>2026-03-29T13:13:54.450Z</time>
      </trkpt>
      <trkpt lat="43.84335" lon="3.29648">
        <ele>681.1</ele>
        <time>2026-03-29T13:14:00.173Z</time>
      </trkpt>
      <trkpt lat="43.8434" lon="3.29651">
        <ele>682</ele>
        <time>2026-03-29T13:14:05.455Z</time>
      </trkpt>
      <trkpt lat="43.84345" lon="3.29655">
        <ele>682.25</ele>
        <time>2026-03-29T13:14:11.395Z</time>
      </trkpt>
      <trkpt lat="43.84349" lon="3.29659">
        <ele>681.44</ele>
        <time>2026-03-29T13:14:16.450Z</time>
      </trkpt>
      <trkpt lat="43.84354" lon="3.29661">
        <ele>682.22</ele>
        <time>2026-03-29T13:14:21.454Z</time>
      </trkpt>
      <trkpt lat="43.84358" lon="3.29664">
        <ele>681.71</ele>
        <time>2026-03-29T13:14:27.036Z</time>
      </trkpt>
      <trkpt lat="43.84363" lon="3.29666">
        <ele>682.41</ele>
        <time>2026-03-29T13:14:32.113Z</time>
      </trkpt>
      <trkpt lat="43.84367" lon="3.29669">
        <ele>682.17</ele>
        <time>2026-03-29T13:14:37.439Z</time>
      </trkpt>
      <trkpt lat="43.84371" lon="3.29673">
        <ele>681.64</ele>
        <time>2026-03-29T13:14:42.444Z</time>
      </trkpt>
      <trkpt lat="43.84377" lon="3.29675">
        <ele>681.25</ele>
        <time>2026-03-29T13:14:48.340Z</time>
      </trkpt>
      <trkpt lat="43.84383" lon="3.29678">
        <ele>680.47</ele>
        <time>2026-03-29T13:14:53.800Z</time>
      </trkpt>
      <trkpt lat="43.84389" lon="3.29679">
        <ele>683.36</ele>
        <time>2026-03-29T13:14:59.423Z</time>
      </trkpt>
      <trkpt lat="43.84393" lon="3.29678">
        <ele>681.98</ele>
        <time>2026-03-29T13:15:04.492Z</time>
      </trkpt>
      <trkpt lat="43.84397" lon="3.29678">
        <ele>681.65</ele>
        <time>2026-03-29T13:15:09.760Z</time>
      </trkpt>
      <trkpt lat="43.84402" lon="3.29681">
        <ele>682.41</ele>
        <time>2026-03-29T13:15:14.855Z</time>
      </trkpt>
      <trkpt lat="43.84407" lon="3.29688">
        <ele>679.6</ele>
        <time>2026-03-29T13:15:20.439Z</time>
      </trkpt>
      <trkpt lat="43.84411" lon="3.29692">
        <ele>681.31</ele>
        <time>2026-03-29T13:15:25.676Z</time>
      </trkpt>
      <trkpt lat="43.84417" lon="3.29696">
        <ele>684.01</ele>
        <time>2026-03-29T13:15:30.877Z</time>
      </trkpt>
      <trkpt lat="43.84421" lon="3.29698">
        <ele>683.52</ele>
        <time>2026-03-29T13:15:36.434Z</time>
      </trkpt>
      <trkpt lat="43.84424" lon="3.297">
        <ele>683.5</ele>
        <time>2026-03-29T13:15:41.442Z</time>
      </trkpt>
      <trkpt lat="43.84428" lon="3.29703">
        <ele>683.67</ele>
        <time>2026-03-29T13:15:46.445Z</time>
      </trkpt>
      <trkpt lat="43.84434" lon="3.29707">
        <ele>683.11</ele>
        <time>2026-03-29T13:15:52.379Z</time>
      </trkpt>
      <trkpt lat="43.84439" lon="3.2971">
        <ele>684.08</ele>
        <time>2026-03-29T13:15:58.416Z</time>
      </trkpt>
      <trkpt lat="43.84444" lon="3.29714">
        <ele>684.58</ele>
        <time>2026-03-29T13:16:03.980Z</time>
      </trkpt>
      <trkpt lat="43.8445" lon="3.29715">
        <ele>683.87</ele>
        <time>2026-03-29T13:16:09.236Z</time>
      </trkpt>
      <trkpt lat="43.84457" lon="3.29713">
        <ele>687.43</ele>
        <time>2026-03-29T13:16:14.818Z</time>
      </trkpt>
      <trkpt lat="43.84461" lon="3.29713">
        <ele>685.86</ele>
        <time>2026-03-29T13:16:20.136Z</time>
      </trkpt>
      <trkpt lat="43.84464" lon="3.2972">
        <ele>684.89</ele>
        <time>2026-03-29T13:16:25.658Z</time>
      </trkpt>
      <trkpt lat="43.84471" lon="3.29723">
        <ele>684.84</ele>
        <time>2026-03-29T13:16:31.224Z</time>
      </trkpt>
      <trkpt lat="43.84476" lon="3.29724">
        <ele>686.05</ele>
        <time>2026-03-29T13:16:36.265Z</time>
      </trkpt>
      <trkpt lat="43.84482" lon="3.29725">
        <ele>686.77</ele>
        <time>2026-03-29T13:16:42.009Z</time>
      </trkpt>
      <trkpt lat="43.84487" lon="3.29723">
        <ele>688.12</ele>
        <time>2026-03-29T13:16:47.123Z</time>
      </trkpt>
      <trkpt lat="43.84492" lon="3.29723">
        <ele>686.8</ele>
        <time>2026-03-29T13:16:52.304Z</time>
      </trkpt>
      <trkpt lat="43.84496" lon="3.29725">
        <ele>687.36</ele>
        <time>2026-03-29T13:16:57.424Z</time>
      </trkpt>
      <trkpt lat="43.84501" lon="3.29724">
        <ele>687.9</ele>
        <time>2026-03-29T13:17:02.903Z</time>
      </trkpt>
      <trkpt lat="43.84506" lon="3.29724">
        <ele>687.12</ele>
        <time>2026-03-29T13:17:08.024Z</time>
      </trkpt>
      <trkpt lat="43.84511" lon="3.29724">
        <ele>687.58</ele>
        <time>2026-03-29T13:17:13.433Z</time>
      </trkpt>
      <trkpt lat="43.84515" lon="3.29724">
        <ele>690.21</ele>
        <time>2026-03-29T13:17:18.458Z</time>
      </trkpt>
      <trkpt lat="43.84519" lon="3.29725">
        <ele>689.77</ele>
        <time>2026-03-29T13:17:24.163Z</time>
      </trkpt>
      <trkpt lat="43.84524" lon="3.29728">
        <ele>692.08</ele>
        <time>2026-03-29T13:17:29.455Z</time>
      </trkpt>
      <trkpt lat="43.84523" lon="3.29733">
        <ele>691.63</ele>
        <time>2026-03-29T13:17:34.475Z</time>
      </trkpt>
      <trkpt lat="43.84519" lon="3.29733">
        <ele>691.49</ele>
        <time>2026-03-29T13:17:40.180Z</time>
      </trkpt>
      <trkpt lat="43.84525" lon="3.29738">
        <ele>693.29</ele>
        <time>2026-03-29T13:17:45.449Z</time>
      </trkpt>
      <trkpt lat="43.84532" lon="3.2973">
        <ele>692.18</ele>
        <time>2026-03-29T13:17:50.469Z</time>
      </trkpt>
      <trkpt lat="43.84538" lon="3.29727">
        <ele>693.28</ele>
        <time>2026-03-29T13:17:55.657Z</time>
      </trkpt>
      <trkpt lat="43.84543" lon="3.29721">
        <ele>694.17</ele>
        <time>2026-03-29T13:18:00.956Z</time>
      </trkpt>
      <trkpt lat="43.84547" lon="3.29717">
        <ele>694.15</ele>
        <time>2026-03-29T13:18:06.095Z</time>
      </trkpt>
      <trkpt lat="43.8455" lon="3.29712">
        <ele>696.47</ele>
        <time>2026-03-29T13:18:11.441Z</time>
      </trkpt>
      <trkpt lat="43.84555" lon="3.29708">
        <ele>697.32</ele>
        <time>2026-03-29T13:18:16.993Z</time>
      </trkpt>
      <trkpt lat="43.84556" lon="3.29709">
        <ele>699.27</ele>
        <time>2026-03-29T13:18:22.348Z</time>
      </trkpt>
      <trkpt lat="43.84555" lon="3.29715">
        <ele>698.46</ele>
        <time>2026-03-29T13:18:27.456Z</time>
      </trkpt>
      <trkpt lat="43.84556" lon="3.29716">
        <ele>697.51</ele>
        <time>2026-03-29T13:18:32.491Z</time>
      </trkpt>
      <trkpt lat="43.84563" lon="3.29715">
        <ele>696.56</ele>
        <time>2026-03-29T13:18:38.130Z</time>
      </trkpt>
      <trkpt lat="43.84573" lon="3.29715">
        <ele>698.53</ele>
        <time>2026-03-29T13:18:43.494Z</time>
      </trkpt>
      <trkpt lat="43.84578" lon="3.29715">
        <ele>705.43</ele>
        <time>2026-03-29T13:18:48.520Z</time>
      </trkpt>
      <trkpt lat="43.84583" lon="3.29712">
        <ele>705.24</ele>
        <time>2026-03-29T13:18:53.832Z</time>
      </trkpt>
      <trkpt lat="43.84588" lon="3.29709">
        <ele>705.14</ele>
        <time>2026-03-29T13:18:58.892Z</time>
      </trkpt>
      <trkpt lat="43.84594" lon="3.29706">
        <ele>705.45</ele>
        <time>2026-03-29T13:19:04.435Z</time>
      </trkpt>
      <trkpt lat="43.84599" lon="3.29708">
        <ele>707.14</ele>
        <time>2026-03-29T13:19:10.130Z</time>
      </trkpt>
      <trkpt lat="43.84604" lon="3.2971">
        <ele>707.78</ele>
        <time>2026-03-29T13:19:15.623Z</time>
      </trkpt>
      <trkpt lat="43.8461" lon="3.29713">
        <ele>708.88</ele>
        <time>2026-03-29T13:19:21.429Z</time>
      </trkpt>
      <trkpt lat="43.84614" lon="3.29716">
        <ele>708.82</ele>
        <time>2026-03-29T13:19:26.476Z</time>
      </trkpt>
      <trkpt lat="43.84618" lon="3.29722">
        <ele>710.77</ele>
        <time>2026-03-29T13:19:32.484Z</time>
      </trkpt>
      <trkpt lat="43.84623" lon="3.29725">
        <ele>712.12</ele>
        <time>2026-03-29T13:19:37.985Z</time>
      </trkpt>
      <trkpt lat="43.84625" lon="3.29723">
        <ele>712.01</ele>
        <time>2026-03-29T13:19:43.361Z</time>
      </trkpt>
      <trkpt lat="43.84627" lon="3.29722">
        <ele>711.81</ele>
        <time>2026-03-29T13:19:48.444Z</time>
      </trkpt>
      <trkpt lat="43.8463" lon="3.2972">
        <ele>711.95</ele>
        <time>2026-03-29T13:19:53.474Z</time>
      </trkpt>
      <trkpt lat="43.84633" lon="3.29718">
        <ele>713.41</ele>
        <time>2026-03-29T13:19:58.593Z</time>
      </trkpt>
      <trkpt lat="43.84639" lon="3.29715">
        <ele>713.95</ele>
        <time>2026-03-29T13:20:04.179Z</time>
      </trkpt>
      <trkpt lat="43.84646" lon="3.29715">
        <ele>714.78</ele>
        <time>2026-03-29T13:20:09.483Z</time>
      </trkpt>
      <trkpt lat="43.84649" lon="3.29707">
        <ele>715.99</ele>
        <time>2026-03-29T13:20:15.435Z</time>
      </trkpt>
      <trkpt lat="43.84653" lon="3.29701">
        <ele>717.14</ele>
        <time>2026-03-29T13:20:20.717Z</time>
      </trkpt>
      <trkpt lat="43.84657" lon="3.29696">
        <ele>717.75</ele>
        <time>2026-03-29T13:20:25.982Z</time>
      </trkpt>
      <trkpt lat="43.84659" lon="3.2969">
        <ele>718.15</ele>
        <time>2026-03-29T13:20:31.472Z</time>
      </trkpt>
      <trkpt lat="43.84663" lon="3.29685">
        <ele>719.27</ele>
        <time>2026-03-29T13:20:37.203Z</time>
      </trkpt>
      <trkpt lat="43.84666" lon="3.29682">
        <ele>720.13</ele>
        <time>2026-03-29T13:20:42.495Z</time>
      </trkpt>
      <trkpt lat="43.84672" lon="3.29679">
        <ele>720.73</ele>
        <time>2026-03-29T13:20:48.261Z</time>
      </trkpt>
      <trkpt lat="43.84678" lon="3.29675">
        <ele>720.81</ele>
        <time>2026-03-29T13:20:53.486Z</time>
      </trkpt>
      <trkpt lat="43.84683" lon="3.29674">
        <ele>721.48</ele>
        <time>2026-03-29T13:20:59.119Z</time>
      </trkpt>
      <trkpt lat="43.84689" lon="3.29674">
        <ele>722.43</ele>
        <time>2026-03-29T13:21:04.462Z</time>
      </trkpt>
      <trkpt lat="43.84695" lon="3.29672">
        <ele>721</ele>
        <time>2026-03-29T13:21:09.481Z</time>
      </trkpt>
      <trkpt lat="43.847" lon="3.29669">
        <ele>722.7</ele>
        <time>2026-03-29T13:21:14.645Z</time>
      </trkpt>
      <trkpt lat="43.84704" lon="3.29668">
        <ele>724.13</ele>
        <time>2026-03-29T13:21:20.057Z</time>
      </trkpt>
      <trkpt lat="43.84709" lon="3.29669">
        <ele>724.47</ele>
        <time>2026-03-29T13:21:25.407Z</time>
      </trkpt>
      <trkpt lat="43.84709" lon="3.29676">
        <ele>724.13</ele>
        <time>2026-03-29T13:21:31.006Z</time>
      </trkpt>
      <trkpt lat="43.84711" lon="3.29685">
        <ele>725.33</ele>
        <time>2026-03-29T13:21:36.507Z</time>
      </trkpt>
      <trkpt lat="43.84716" lon="3.29692">
        <ele>726.47</ele>
        <time>2026-03-29T13:21:42.001Z</time>
      </trkpt>
      <trkpt lat="43.84718" lon="3.29699">
        <ele>727.08</ele>
        <time>2026-03-29T13:21:47.374Z</time>
      </trkpt>
      <trkpt lat="43.84719" lon="3.29707">
        <ele>726.66</ele>
        <time>2026-03-29T13:21:52.481Z</time>
      </trkpt>
      <trkpt lat="43.8472" lon="3.29716">
        <ele>726.37</ele>
        <time>2026-03-29T13:21:58.057Z</time>
      </trkpt>
      <trkpt lat="43.84722" lon="3.29725">
        <ele>727.68</ele>
        <time>2026-03-29T13:22:03.062Z</time>
      </trkpt>
      <trkpt lat="43.84721" lon="3.2973">
        <ele>727.08</ele>
        <time>2026-03-29T13:22:08.486Z</time>
      </trkpt>
      <trkpt lat="43.84721" lon="3.29738">
        <ele>725.7</ele>
        <time>2026-03-29T13:22:13.643Z</time>
      </trkpt>
      <trkpt lat="43.84723" lon="3.29744">
        <ele>726.84</ele>
        <time>2026-03-29T13:22:18.862Z</time>
      </trkpt>
      <trkpt lat="43.84724" lon="3.29751">
        <ele>727.64</ele>
        <time>2026-03-29T13:22:24.455Z</time>
      </trkpt>
      <trkpt lat="43.84723" lon="3.29758">
        <ele>727.84</ele>
        <time>2026-03-29T13:22:29.473Z</time>
      </trkpt>
      <trkpt lat="43.84726" lon="3.29765">
        <ele>727.74</ele>
        <time>2026-03-29T13:22:34.481Z</time>
      </trkpt>
      <trkpt lat="43.84728" lon="3.29773">
        <ele>728.46</ele>
        <time>2026-03-29T13:22:39.943Z</time>
      </trkpt>
      <trkpt lat="43.8473" lon="3.2978">
        <ele>729.92</ele>
        <time>2026-03-29T13:22:45.471Z</time>
      </trkpt>
      <trkpt lat="43.84729" lon="3.29776">
        <ele>728.68</ele>
        <time>2026-03-29T13:22:51.484Z</time>
      </trkpt>
      <trkpt lat="43.84732" lon="3.29787">
        <ele>728.17</ele>
        <time>2026-03-29T13:22:57.184Z</time>
      </trkpt>
      <trkpt lat="43.84734" lon="3.29795">
        <ele>729.32</ele>
        <time>2026-03-29T13:23:02.185Z</time>
      </trkpt>
      <trkpt lat="43.84734" lon="3.29807">
        <ele>729.67</ele>
        <time>2026-03-29T13:23:07.976Z</time>
      </trkpt>
      <trkpt lat="43.84733" lon="3.29815">
        <ele>730.65</ele>
        <time>2026-03-29T13:23:13.142Z</time>
      </trkpt>
      <trkpt lat="43.84731" lon="3.29822">
        <ele>730.28</ele>
        <time>2026-03-29T13:23:18.502Z</time>
      </trkpt>
      <trkpt lat="43.84731" lon="3.29831">
        <ele>729.83</ele>
        <time>2026-03-29T13:23:24.502Z</time>
      </trkpt>
      <trkpt lat="43.8473" lon="3.29841">
        <ele>730.2</ele>
        <time>2026-03-29T13:23:30.015Z</time>
      </trkpt>
      <trkpt lat="43.84731" lon="3.29845">
        <ele>729.9</ele>
        <time>2026-03-29T13:23:35.497Z</time>
      </trkpt>
      <trkpt lat="43.84732" lon="3.29848">
        <ele>730.61</ele>
        <time>2026-03-29T13:23:40.914Z</time>
      </trkpt>
      <trkpt lat="43.84735" lon="3.29856">
        <ele>730.55</ele>
        <time>2026-03-29T13:23:46.419Z</time>
      </trkpt>
      <trkpt lat="43.84739" lon="3.29858">
        <ele>730.17</ele>
        <time>2026-03-29T13:23:52.122Z</time>
      </trkpt>
      <trkpt lat="43.84741" lon="3.29861">
        <ele>732.43</ele>
        <time>2026-03-29T13:23:57.472Z</time>
      </trkpt>
      <trkpt lat="43.84742" lon="3.29868">
        <ele>731.18</ele>
        <time>2026-03-29T13:24:02.742Z</time>
      </trkpt>
      <trkpt lat="43.84741" lon="3.29876">
        <ele>730.62</ele>
        <time>2026-03-29T13:24:07.961Z</time>
      </trkpt>
      <trkpt lat="43.8474" lon="3.29883">
        <ele>731.62</ele>
        <time>2026-03-29T13:24:13.279Z</time>
      </trkpt>
      <trkpt lat="43.8474" lon="3.2989">
        <ele>731.41</ele>
        <time>2026-03-29T13:24:18.542Z</time>
      </trkpt>
      <trkpt lat="43.8474" lon="3.29898">
        <ele>731.16</ele>
        <time>2026-03-29T13:24:23.861Z</time>
      </trkpt>
      <trkpt lat="43.84739" lon="3.29905">
        <ele>731.14</ele>
        <time>2026-03-29T13:24:29.158Z</time>
      </trkpt>
      <trkpt lat="43.84739" lon="3.29911">
        <ele>729.65</ele>
        <time>2026-03-29T13:24:34.463Z</time>
      </trkpt>
      <trkpt lat="43.84737" lon="3.29919">
        <ele>729.82</ele>
        <time>2026-03-29T13:24:39.741Z</time>
      </trkpt>
      <trkpt lat="43.84738" lon="3.29927">
        <ele>729.27</ele>
        <time>2026-03-29T13:24:45.380Z</time>
      </trkpt>
      <trkpt lat="43.84741" lon="3.29934">
        <ele>729.72</ele>
        <time>2026-03-29T13:24:50.461Z</time>
      </trkpt>
      <trkpt lat="43.84745" lon="3.29941">
        <ele>730.35</ele>
        <time>2026-03-29T13:24:56.295Z</time>
      </trkpt>
      <trkpt lat="43.84747" lon="3.29943">
        <ele>730.68</ele>
        <time>2026-03-29T13:25:01.514Z</time>
      </trkpt>
      <trkpt lat="43.8475" lon="3.29943">
        <ele>731.3</ele>
        <time>2026-03-29T13:25:07.501Z</time>
      </trkpt>
      <trkpt lat="43.84748" lon="3.29944">
        <ele>731.62</ele>
        <time>2026-03-29T13:25:12.522Z</time>
      </trkpt>
      <trkpt lat="43.84748" lon="3.29943">
        <ele>730.66</ele>
        <time>2026-03-29T13:25:29.481Z</time>
      </trkpt>
      <trkpt lat="43.84747" lon="3.29942">
        <ele>731.42</ele>
        <time>2026-03-29T13:25:37.494Z</time>
      </trkpt>
      <trkpt lat="43.84747" lon="3.2994">
        <ele>731.2</ele>
        <time>2026-03-29T13:25:57.447Z</time>
      </trkpt>
      <trkpt lat="43.84748" lon="3.2994">
        <ele>730.17</ele>
        <time>2026-03-29T13:26:02.486Z</time>
      </trkpt>
      <trkpt lat="43.84749" lon="3.29941">
        <ele>730.31</ele>
        <time>2026-03-29T13:26:07.488Z</time>
      </trkpt>
      <trkpt lat="43.84751" lon="3.29943">
        <ele>729.05</ele>
        <time>2026-03-29T13:26:12.500Z</time>
      </trkpt>
      <trkpt lat="43.84752" lon="3.29944">
        <ele>730.56</ele>
        <time>2026-03-29T13:26:17.501Z</time>
      </trkpt>
      <trkpt lat="43.84747" lon="3.29943">
        <ele>731.01</ele>
        <time>2026-03-29T13:26:23.493Z</time>
      </trkpt>
      <trkpt lat="43.84743" lon="3.29943">
        <ele>730.26</ele>
        <time>2026-03-29T13:26:29.484Z</time>
      </trkpt>
      <trkpt lat="43.84744" lon="3.29943">
        <ele>731.2</ele>
        <time>2026-03-29T13:26:35.160Z</time>
      </trkpt>
      <trkpt lat="43.84749" lon="3.29945">
        <ele>730.3</ele>
        <time>2026-03-29T13:26:40.506Z</time>
      </trkpt>
      <trkpt lat="43.8475" lon="3.29944">
        <ele>729.23</ele>
        <time>2026-03-29T13:26:45.510Z</time>
      </trkpt>
      <trkpt lat="43.8475" lon="3.29942">
        <ele>729.89</ele>
        <time>2026-03-29T13:26:51.520Z</time>
      </trkpt>
      <trkpt lat="43.84751" lon="3.29939">
        <ele>729.91</ele>
        <time>2026-03-29T13:26:57.492Z</time>
      </trkpt>
      <trkpt lat="43.84752" lon="3.29939">
        <ele>730.41</ele>
        <time>2026-03-29T13:27:02.531Z</time>
      </trkpt>
      <trkpt lat="43.84752" lon="3.29941">
        <ele>729.45</ele>
        <time>2026-03-29T13:27:11.512Z</time>
      </trkpt>
      <trkpt lat="43.84751" lon="3.29943">
        <ele>729.4</ele>
        <time>2026-03-29T13:27:17.514Z</time>
      </trkpt>
      <trkpt lat="43.84748" lon="3.29945">
        <ele>729.6</ele>
        <time>2026-03-29T13:27:23.520Z</time>
      </trkpt>
      <trkpt lat="43.84748" lon="3.29944">
        <ele>730.05</ele>
        <time>2026-03-29T13:27:30.500Z</time>
      </trkpt>
      <trkpt lat="43.84747" lon="3.29944">
        <ele>730.07</ele>
        <time>2026-03-29T13:27:50.492Z</time>
      </trkpt>
      <trkpt lat="43.84747" lon="3.29943">
        <ele>729.73</ele>
        <time>2026-03-29T13:27:58.522Z</time>
      </trkpt>
      <trkpt lat="43.84747" lon="3.29941">
        <ele>729.7</ele>
        <time>2026-03-29T13:28:04.481Z</time>
      </trkpt>
      <trkpt lat="43.84747" lon="3.29939">
        <ele>728.69</ele>
        <time>2026-03-29T13:28:09.500Z</time>
      </trkpt>
      <trkpt lat="43.84747" lon="3.29937">
        <ele>729.06</ele>
        <time>2026-03-29T13:28:14.515Z</time>
      </trkpt>
      <trkpt lat="43.84746" lon="3.29937">
        <ele>730.4</ele>
        <time>2026-03-29T13:28:30.460Z</time>
      </trkpt>
      <trkpt lat="43.84746" lon="3.29939">
        <ele>729.62</ele>
        <time>2026-03-29T13:28:36.519Z</time>
      </trkpt>
      <trkpt lat="43.84746" lon="3.2994">
        <ele>729.02</ele>
        <time>2026-03-29T13:28:46.473Z</time>
      </trkpt>
      <trkpt lat="43.84747" lon="3.29941">
        <ele>728.97</ele>
        <time>2026-03-29T13:28:51.556Z</time>
      </trkpt>
      <trkpt lat="43.84747" lon="3.29943">
        <ele>729.26</ele>
        <time>2026-03-29T13:28:56.558Z</time>
      </trkpt>
      <trkpt lat="43.84748" lon="3.29944">
        <ele>729.28</ele>
        <time>2026-03-29T13:29:02.490Z</time>
      </trkpt>
      <trkpt lat="43.84749" lon="3.29945">
        <ele>728.24</ele>
        <time>2026-03-29T13:29:07.527Z</time>
      </trkpt>
      <trkpt lat="43.8475" lon="3.29944">
        <ele>728.13</ele>
        <time>2026-03-29T13:29:13.486Z</time>
      </trkpt>
      <trkpt lat="43.84751" lon="3.29943">
        <ele>724.53</ele>
        <time>2026-03-29T13:29:34.554Z</time>
      </trkpt>
      <trkpt lat="43.84753" lon="3.29944">
        <ele>722.95</ele>
        <time>2026-03-29T13:29:40.504Z</time>
      </trkpt>
      <trkpt lat="43.84754" lon="3.29943">
        <ele>724.02</ele>
        <time>2026-03-29T13:29:45.509Z</time>
      </trkpt>
      <trkpt lat="43.84751" lon="3.29944">
        <ele>723.55</ele>
        <time>2026-03-29T13:29:50.521Z</time>
      </trkpt>
      <trkpt lat="43.84748" lon="3.29942">
        <ele>722.14</ele>
        <time>2026-03-29T13:29:56.531Z</time>
      </trkpt>
      <trkpt lat="43.84747" lon="3.29943">
        <ele>722.19</ele>
        <time>2026-03-29T13:30:02.510Z</time>
      </trkpt>
      <trkpt lat="43.84746" lon="3.29942">
        <ele>722.09</ele>
        <time>2026-03-29T13:30:09.508Z</time>
      </trkpt>
      <trkpt lat="43.84745" lon="3.29941">
        <ele>722.11</ele>
        <time>2026-03-29T13:30:15.488Z</time>
      </trkpt>
      <trkpt lat="43.84745" lon="3.2994">
        <ele>722.02</ele>
        <time>2026-03-29T13:30:24.516Z</time>
      </trkpt>
      <trkpt lat="43.84746" lon="3.29939">
        <ele>722.06</ele>
        <time>2026-03-29T13:30:29.526Z</time>
      </trkpt>
      <trkpt lat="43.84747" lon="3.29937">
        <ele>721.72</ele>
        <time>2026-03-29T13:30:35.534Z</time>
      </trkpt>
      <trkpt lat="43.8475" lon="3.29937">
        <ele>721.34</ele>
        <time>2026-03-29T13:30:41.505Z</time>
      </trkpt>
      <trkpt lat="43.84751" lon="3.29936">
        <ele>721.33</ele>
        <time>2026-03-29T13:30:47.191Z</time>
      </trkpt>
      <trkpt lat="43.84752" lon="3.29937">
        <ele>722.02</ele>
        <time>2026-03-29T13:30:55.500Z</time>
      </trkpt>
      <trkpt lat="43.84752" lon="3.29939">
        <ele>721.85</ele>
        <time>2026-03-29T13:31:01.489Z</time>
      </trkpt>
      <trkpt lat="43.84752" lon="3.29941">
        <ele>722.06</ele>
        <time>2026-03-29T13:31:06.514Z</time>
      </trkpt>
      <trkpt lat="43.84749" lon="3.29941">
        <ele>721.5</ele>
        <time>2026-03-29T13:31:12.513Z</time>
      </trkpt>
      <trkpt lat="43.84746" lon="3.2994">
        <ele>721.58</ele>
        <time>2026-03-29T13:31:18.510Z</time>
      </trkpt>
      <trkpt lat="43.84745" lon="3.2994">
        <ele>721.33</ele>
        <time>2026-03-29T13:31:26.518Z</time>
      </trkpt>
      <trkpt lat="43.84746" lon="3.2994">
        <ele>721.41</ele>
        <time>2026-03-29T13:31:36.510Z</time>
      </trkpt>
      <trkpt lat="43.84747" lon="3.29941">
        <ele>721.28</ele>
        <time>2026-03-29T13:31:42.507Z</time>
      </trkpt>
      <trkpt lat="43.84747" lon="3.29943">
        <ele>720.72</ele>
        <time>2026-03-29T13:31:47.512Z</time>
      </trkpt>
      <trkpt lat="43.84746" lon="3.29943">
        <ele>720.76</ele>
        <time>2026-03-29T13:31:53.490Z</time>
      </trkpt>
      <trkpt lat="43.84744" lon="3.29944">
        <ele>721.16</ele>
        <time>2026-03-29T13:31:59.534Z</time>
      </trkpt>
      <trkpt lat="43.84741" lon="3.29943">
        <ele>720.87</ele>
        <time>2026-03-29T13:32:05.564Z</time>
      </trkpt>
      <trkpt lat="43.84742" lon="3.29941">
        <ele>720.96</ele>
        <time>2026-03-29T13:32:11.280Z</time>
      </trkpt>
      <trkpt lat="43.84745" lon="3.29935">
        <ele>722.21</ele>
        <time>2026-03-29T13:32:16.493Z</time>
      </trkpt>
      <trkpt lat="43.84748" lon="3.29936">
        <ele>722.11</ele>
        <time>2026-03-29T13:32:21.502Z</time>
      </trkpt>
      <trkpt lat="43.84747" lon="3.29936">
        <ele>721.23</ele>
        <time>2026-03-29T13:32:30.499Z</time>
      </trkpt>
      <trkpt lat="43.84746" lon="3.29938">
        <ele>721.33</ele>
        <time>2026-03-29T13:32:35.526Z</time>
      </trkpt>
      <trkpt lat="43.84745" lon="3.2994">
        <ele>721.02</ele>
        <time>2026-03-29T13:32:41.527Z</time>
      </trkpt>
      <trkpt lat="43.84744" lon="3.29941">
        <ele>721.17</ele>
        <time>2026-03-29T13:32:47.499Z</time>
      </trkpt>
      <trkpt lat="43.84745" lon="3.2994">
        <ele>722.48</ele>
        <time>2026-03-29T13:32:59.478Z</time>
      </trkpt>
      <trkpt lat="43.84748" lon="3.29941">
        <ele>722.12</ele>
        <time>2026-03-29T13:33:04.514Z</time>
      </trkpt>
      <trkpt lat="43.84749" lon="3.29941">
        <ele>721.65</ele>
        <time>2026-03-29T13:33:10.499Z</time>
      </trkpt>
      <trkpt lat="43.8475" lon="3.29942">
        <ele>721.54</ele>
        <time>2026-03-29T13:33:17.510Z</time>
      </trkpt>
      <trkpt lat="43.84751" lon="3.29942">
        <ele>721.35</ele>
        <time>2026-03-29T13:33:23.526Z</time>
      </trkpt>
      <trkpt lat="43.84751" lon="3.29944">
        <ele>721.95</ele>
        <time>2026-03-29T13:33:34.511Z</time>
      </trkpt>
      <trkpt lat="43.8475" lon="3.29947">
        <ele>721.46</ele>
        <time>2026-03-29T13:33:39.547Z</time>
      </trkpt>
      <trkpt lat="43.84749" lon="3.29945">
        <ele>722.19</ele>
        <time>2026-03-29T13:33:45.517Z</time>
      </trkpt>
      <trkpt lat="43.84748" lon="3.29945">
        <ele>722.35</ele>
        <time>2026-03-29T13:33:50.532Z</time>
      </trkpt>
      <trkpt lat="43.84748" lon="3.29944">
        <ele>721.78</ele>
        <time>2026-03-29T13:34:10.524Z</time>
      </trkpt>
      <trkpt lat="43.84748" lon="3.29943">
        <ele>721.61</ele>
        <time>2026-03-29T13:34:17.466Z</time>
      </trkpt>
      <trkpt lat="43.84748" lon="3.29941">
        <ele>721.5</ele>
        <time>2026-03-29T13:34:22.514Z</time>
      </trkpt>
      <trkpt lat="43.84752" lon="3.29939">
        <ele>720.18</ele>
        <time>2026-03-29T13:34:28.511Z</time>
      </trkpt>
      <trkpt lat="43.84752" lon="3.29942">
        <ele>723.3</ele>
        <time>2026-03-29T13:34:33.525Z</time>
      </trkpt>
      <trkpt lat="43.8475" lon="3.29947">
        <ele>724.45</ele>
        <time>2026-03-29T13:34:38.528Z</time>
      </trkpt>
      <trkpt lat="43.84747" lon="3.29948">
        <ele>722.16</ele>
        <time>2026-03-29T13:34:44.524Z</time>
      </trkpt>
      <trkpt lat="43.84745" lon="3.29945">
        <ele>723.6</ele>
        <time>2026-03-29T13:34:50.543Z</time>
      </trkpt>
      <trkpt lat="43.84747" lon="3.29944">
        <ele>722.01</ele>
        <time>2026-03-29T13:34:56.442Z</time>
      </trkpt>
      <trkpt lat="43.84748" lon="3.29944">
        <ele>719.48</ele>
        <time>2026-03-29T13:35:03.527Z</time>
      </trkpt>
      <trkpt lat="43.84749" lon="3.29944">
        <ele>722.55</ele>
        <time>2026-03-29T13:35:13.535Z</time>
      </trkpt>
      <trkpt lat="43.84749" lon="3.29943">
        <ele>721.1</ele>
        <time>2026-03-29T13:35:26.508Z</time>
      </trkpt>
      <trkpt lat="43.84749" lon="3.29941">
        <ele>720.19</ele>
        <time>2026-03-29T13:35:36.527Z</time>
      </trkpt>
      <trkpt lat="43.8475" lon="3.29942">
        <ele>722.91</ele>
        <time>2026-03-29T13:35:44.530Z</time>
      </trkpt>
      <trkpt lat="43.8475" lon="3.29943">
        <ele>723.96</ele>
        <time>2026-03-29T13:35:56.549Z</time>
      </trkpt>
      <trkpt lat="43.8475" lon="3.29945">
        <ele>722.16</ele>
        <time>2026-03-29T13:36:11.525Z</time>
      </trkpt>
      <trkpt lat="43.8475" lon="3.29944">
        <ele>722.72</ele>
        <time>2026-03-29T13:36:48.479Z</time>
      </trkpt>
      <trkpt lat="43.84751" lon="3.29942">
        <ele>722.83</ele>
        <time>2026-03-29T13:36:58.509Z</time>
      </trkpt>
      <trkpt lat="43.8475" lon="3.29942">
        <ele>721.79</ele>
        <time>2026-03-29T13:37:21.481Z</time>
      </trkpt>
      <trkpt lat="43.8475" lon="3.29943">
        <ele>722.42</ele>
        <time>2026-03-29T13:37:35.551Z</time>
      </trkpt>
      <trkpt lat="43.8475" lon="3.29944">
        <ele>721.92</ele>
        <time>2026-03-29T13:37:57.534Z</time>
      </trkpt>
      <trkpt lat="43.8475" lon="3.29942">
        <ele>722.8</ele>
        <time>2026-03-29T13:38:03.481Z</time>
      </trkpt>
      <trkpt lat="43.84749" lon="3.29941">
        <ele>723.16</ele>
        <time>2026-03-29T13:38:10.529Z</time>
      </trkpt>
      <trkpt lat="43.84749" lon="3.2994">
        <ele>722.06</ele>
        <time>2026-03-29T13:38:19.522Z</time>
      </trkpt>
      <trkpt lat="43.8475" lon="3.29941">
        <ele>722.43</ele>
        <time>2026-03-29T13:38:54.537Z</time>
      </trkpt>
      <trkpt lat="43.8475" lon="3.29942">
        <ele>723.04</ele>
        <time>2026-03-29T13:39:08.535Z</time>
      </trkpt>
      <trkpt lat="43.84751" lon="3.29943">
        <ele>723.26</ele>
        <time>2026-03-29T13:39:15.528Z</time>
      </trkpt>
      <trkpt lat="43.84752" lon="3.29945">
        <ele>722.65</ele>
        <time>2026-03-29T13:39:21.524Z</time>
      </trkpt>
      <trkpt lat="43.84751" lon="3.29945">
        <ele>719.72</ele>
        <time>2026-03-29T13:39:26.547Z</time>
      </trkpt>
      <trkpt lat="43.8475" lon="3.29945">
        <ele>723.21</ele>
        <time>2026-03-29T13:39:35.502Z</time>
      </trkpt>
      <trkpt lat="43.84749" lon="3.29944">
        <ele>722.03</ele>
        <time>2026-03-29T13:39:40.810Z</time>
      </trkpt>
      <trkpt lat="43.84748" lon="3.29945">
        <ele>721.4</ele>
        <time>2026-03-29T13:39:58.569Z</time>
      </trkpt>
      <trkpt lat="43.84749" lon="3.29944">
        <ele>720.21</ele>
        <time>2026-03-29T13:40:31.564Z</time>
      </trkpt>
      <trkpt lat="43.84748" lon="3.29943">
        <ele>720.28</ele>
        <time>2026-03-29T13:40:39.572Z</time>
      </trkpt>
      <trkpt lat="43.84749" lon="3.29944">
        <ele>721.98</ele>
        <time>2026-03-29T13:41:07.568Z</time>
      </trkpt>
      <trkpt lat="43.84748" lon="3.29943">
        <ele>721.27</ele>
        <time>2026-03-29T13:41:20.558Z</time>
      </trkpt>
      <trkpt lat="43.84747" lon="3.29942">
        <ele>721.34</ele>
        <time>2026-03-29T13:41:27.554Z</time>
      </trkpt>
      <trkpt lat="43.84748" lon="3.29943">
        <ele>722.69</ele>
        <time>2026-03-29T13:42:22.485Z</time>
      </trkpt>
      <trkpt lat="43.84747" lon="3.29945">
        <ele>723.24</ele>
        <time>2026-03-29T13:42:27.492Z</time>
      </trkpt>
      <trkpt lat="43.84747" lon="3.29946">
        <ele>722.84</ele>
        <time>2026-03-29T13:42:34.511Z</time>
      </trkpt>
      <trkpt lat="43.84748" lon="3.29945">
        <ele>722.84</ele>
        <time>2026-03-29T13:42:52.495Z</time>
      </trkpt>
      <trkpt lat="43.84747" lon="3.29944">
        <ele>722.97</ele>
        <time>2026-03-29T13:42:57.521Z</time>
      </trkpt>
      <trkpt lat="43.84746" lon="3.29943">
        <ele>723.95</ele>
        <time>2026-03-29T13:43:02.554Z</time>
      </trkpt>
      <trkpt lat="43.84747" lon="3.29942">
        <ele>723.12</ele>
        <time>2026-03-29T13:43:23.481Z</time>
      </trkpt>
      <trkpt lat="43.84748" lon="3.29942">
        <ele>722.92</ele>
        <time>2026-03-29T13:43:28.506Z</time>
      </trkpt>
      <trkpt lat="43.84749" lon="3.29943">
        <ele>722.57</ele>
        <time>2026-03-29T13:43:36.522Z</time>
      </trkpt>
      <trkpt lat="43.84748" lon="3.29944">
        <ele>724.6</ele>
        <time>2026-03-29T13:43:45.222Z</time>
      </trkpt>
      <trkpt lat="43.84748" lon="3.29945">
        <ele>721.53</ele>
        <time>2026-03-29T13:43:54.511Z</time>
      </trkpt>
      <trkpt lat="43.84748" lon="3.29946">
        <ele>722.84</ele>
        <time>2026-03-29T13:44:03.519Z</time>
      </trkpt>
      <trkpt lat="43.84749" lon="3.29945">
        <ele>723.28</ele>
        <time>2026-03-29T13:44:16.508Z</time>
      </trkpt>
      <trkpt lat="43.8475" lon="3.29945">
        <ele>723.2</ele>
        <time>2026-03-29T13:44:22.526Z</time>
      </trkpt>
      <trkpt lat="43.8475" lon="3.29946">
        <ele>722.28</ele>
        <time>2026-03-29T13:44:43.507Z</time>
      </trkpt>
      <trkpt lat="43.84749" lon="3.29947">
        <ele>722.25</ele>
        <time>2026-03-29T13:44:49.510Z</time>
      </trkpt>
      <trkpt lat="43.84748" lon="3.29947">
        <ele>721.97</ele>
        <time>2026-03-29T13:45:04.517Z</time>
      </trkpt>
      <trkpt lat="43.84748" lon="3.29945">
        <ele>722.45</ele>
        <time>2026-03-29T13:45:10.521Z</time>
      </trkpt>
      <trkpt lat="43.84748" lon="3.29943">
        <ele>722.41</ele>
        <time>2026-03-29T13:45:16.523Z</time>
      </trkpt>
      <trkpt lat="43.84748" lon="3.29942">
        <ele>722.38</ele>
        <time>2026-03-29T13:45:26.532Z</time>
      </trkpt>
      <trkpt lat="43.84749" lon="3.29943">
        <ele>723.38</ele>
        <time>2026-03-29T13:45:32.529Z</time>
      </trkpt>
      <trkpt lat="43.8475" lon="3.29942">
        <ele>722.35</ele>
        <time>2026-03-29T13:45:38.516Z</time>
      </trkpt>
      <trkpt lat="43.84749" lon="3.29942">
        <ele>723.7</ele>
        <time>2026-03-29T13:45:45.080Z</time>
      </trkpt>
      <trkpt lat="43.84748" lon="3.29942">
        <ele>723.96</ele>
        <time>2026-03-29T13:45:52.521Z</time>
      </trkpt>
      <trkpt lat="43.84747" lon="3.29942">
        <ele>723.01</ele>
        <time>2026-03-29T13:46:02.524Z</time>
      </trkpt>
      <trkpt lat="43.84747" lon="3.29943">
        <ele>722.05</ele>
        <time>2026-03-29T13:46:12.514Z</time>
      </trkpt>
      <trkpt lat="43.84747" lon="3.29944">
        <ele>724.65</ele>
        <time>2026-03-29T13:46:20.553Z</time>
      </trkpt>
      <trkpt lat="43.84747" lon="3.29943">
        <ele>724.36</ele>
        <time>2026-03-29T13:46:30.488Z</time>
      </trkpt>
      <trkpt lat="43.84747" lon="3.29942">
        <ele>723.53</ele>
        <time>2026-03-29T13:46:41.481Z</time>
      </trkpt>
      <trkpt lat="43.84748" lon="3.29942">
        <ele>723.72</ele>
        <time>2026-03-29T13:47:08.482Z</time>
      </trkpt>
      <trkpt lat="43.84748" lon="3.29944">
        <ele>723.68</ele>
        <time>2026-03-29T13:47:13.498Z</time>
      </trkpt>
      <trkpt lat="43.84749" lon="3.29948">
        <ele>724.22</ele>
        <time>2026-03-29T13:47:19.474Z</time>
      </trkpt>
      <trkpt lat="43.84749" lon="3.29955">
        <ele>724.44</ele>
        <time>2026-03-29T13:47:24.965Z</time>
      </trkpt>
      <trkpt lat="43.8475" lon="3.29964">
        <ele>724.05</ele>
        <time>2026-03-29T13:47:30.460Z</time>
      </trkpt>
      <trkpt lat="43.84753" lon="3.29972">
        <ele>726.64</ele>
        <time>2026-03-29T13:47:36.542Z</time>
      </trkpt>
      <trkpt lat="43.84755" lon="3.29979">
        <ele>725.58</ele>
        <time>2026-03-29T13:47:42.419Z</time>
      </trkpt>
      <trkpt lat="43.84759" lon="3.29986">
        <ele>724.04</ele>
        <time>2026-03-29T13:47:47.483Z</time>
      </trkpt>
      <trkpt lat="43.84763" lon="3.29992">
        <ele>726.15</ele>
        <time>2026-03-29T13:47:53.411Z</time>
      </trkpt>
      <trkpt lat="43.84766" lon="3.30001">
        <ele>726.75</ele>
        <time>2026-03-29T13:47:59.065Z</time>
      </trkpt>
      <trkpt lat="43.84769" lon="3.30009">
        <ele>727.21</ele>
        <time>2026-03-29T13:48:04.511Z</time>
      </trkpt>
      <trkpt lat="43.8477" lon="3.30015">
        <ele>726.97</ele>
        <time>2026-03-29T13:48:09.904Z</time>
      </trkpt>
      <trkpt lat="43.84769" lon="3.30018">
        <ele>726.67</ele>
        <time>2026-03-29T13:48:14.999Z</time>
      </trkpt>
      <trkpt lat="43.84773" lon="3.30026">
        <ele>727.35</ele>
        <time>2026-03-29T13:48:20.424Z</time>
      </trkpt>
      <trkpt lat="43.84775" lon="3.30034">
        <ele>727.5</ele>
        <time>2026-03-29T13:48:25.534Z</time>
      </trkpt>
      <trkpt lat="43.84777" lon="3.3004">
        <ele>727.22</ele>
        <time>2026-03-29T13:48:31.510Z</time>
      </trkpt>
      <trkpt lat="43.84781" lon="3.30045">
        <ele>727.02</ele>
        <time>2026-03-29T13:48:37.161Z</time>
      </trkpt>
      <trkpt lat="43.84785" lon="3.3005">
        <ele>729.79</ele>
        <time>2026-03-29T13:48:42.382Z</time>
      </trkpt>
      <trkpt lat="43.84787" lon="3.30057">
        <ele>730.5</ele>
        <time>2026-03-29T13:48:48.081Z</time>
      </trkpt>
      <trkpt lat="43.8479" lon="3.30064">
        <ele>728.07</ele>
        <time>2026-03-29T13:48:53.494Z</time>
      </trkpt>
      <trkpt lat="43.84791" lon="3.30071">
        <ele>729.18</ele>
        <time>2026-03-29T13:48:58.510Z</time>
      </trkpt>
      <trkpt lat="43.84793" lon="3.30079">
        <ele>728.64</ele>
        <time>2026-03-29T13:49:03.939Z</time>
      </trkpt>
      <trkpt lat="43.84797" lon="3.30086">
        <ele>728.41</ele>
        <time>2026-03-29T13:49:09.443Z</time>
      </trkpt>
      <trkpt lat="43.848" lon="3.30093">
        <ele>729.45</ele>
        <time>2026-03-29T13:49:15.419Z</time>
      </trkpt>
      <trkpt lat="43.84803" lon="3.30102">
        <ele>730</ele>
        <time>2026-03-29T13:49:21.004Z</time>
      </trkpt>
      <trkpt lat="43.84805" lon="3.30108">
        <ele>730.22</ele>
        <time>2026-03-29T13:49:26.470Z</time>
      </trkpt>
      <trkpt lat="43.8481" lon="3.30114">
        <ele>730.58</ele>
        <time>2026-03-29T13:49:32.379Z</time>
      </trkpt>
      <trkpt lat="43.84815" lon="3.3012">
        <ele>732.62</ele>
        <time>2026-03-29T13:49:37.720Z</time>
      </trkpt>
      <trkpt lat="43.84818" lon="3.30127">
        <ele>730.97</ele>
        <time>2026-03-29T13:49:43.437Z</time>
      </trkpt>
      <trkpt lat="43.84822" lon="3.30134">
        <ele>729.14</ele>
        <time>2026-03-29T13:49:49.042Z</time>
      </trkpt>
      <trkpt lat="43.84824" lon="3.30139">
        <ele>728.77</ele>
        <time>2026-03-29T13:49:54.429Z</time>
      </trkpt>
      <trkpt lat="43.84828" lon="3.30145">
        <ele>731.24</ele>
        <time>2026-03-29T13:49:59.445Z</time>
      </trkpt>
      <trkpt lat="43.8483" lon="3.30155">
        <ele>731.4</ele>
        <time>2026-03-29T13:50:05.318Z</time>
      </trkpt>
      <trkpt lat="43.84833" lon="3.30161">
        <ele>731.45</ele>
        <time>2026-03-29T13:50:10.680Z</time>
      </trkpt>
      <trkpt lat="43.84838" lon="3.30164">
        <ele>731.25</ele>
        <time>2026-03-29T13:50:15.742Z</time>
      </trkpt>
      <trkpt lat="43.84844" lon="3.30165">
        <ele>730.88</ele>
        <time>2026-03-29T13:50:21.056Z</time>
      </trkpt>
      <trkpt lat="43.84847" lon="3.30169">
        <ele>731.53</ele>
        <time>2026-03-29T13:50:26.443Z</time>
      </trkpt>
      <trkpt lat="43.8485" lon="3.30173">
        <ele>732.11</ele>
        <time>2026-03-29T13:50:32.163Z</time>
      </trkpt>
      <trkpt lat="43.84854" lon="3.30177">
        <ele>732.87</ele>
        <time>2026-03-29T13:50:37.434Z</time>
      </trkpt>
      <trkpt lat="43.84857" lon="3.30176">
        <ele>732.83</ele>
        <time>2026-03-29T13:50:42.450Z</time>
      </trkpt>
      <trkpt lat="43.84858" lon="3.30178">
        <ele>732.59</ele>
        <time>2026-03-29T13:50:47.465Z</time>
      </trkpt>
      <trkpt lat="43.84863" lon="3.30179">
        <ele>732.87</ele>
        <time>2026-03-29T13:50:52.500Z</time>
      </trkpt>
      <trkpt lat="43.84864" lon="3.30195">
        <ele>736.33</ele>
        <time>2026-03-29T13:50:58.503Z</time>
      </trkpt>
      <trkpt lat="43.84872" lon="3.302">
        <ele>735.73</ele>
        <time>2026-03-29T13:51:03.858Z</time>
      </trkpt>
      <trkpt lat="43.84877" lon="3.30204">
        <ele>734.36</ele>
        <time>2026-03-29T13:51:09.158Z</time>
      </trkpt>
      <trkpt lat="43.84883" lon="3.3021">
        <ele>735.19</ele>
        <time>2026-03-29T13:51:14.535Z</time>
      </trkpt>
      <trkpt lat="43.84889" lon="3.30216">
        <ele>736.61</ele>
        <time>2026-03-29T13:51:19.961Z</time>
      </trkpt>
      <trkpt lat="43.84893" lon="3.30222">
        <ele>736.05</ele>
        <time>2026-03-29T13:51:25.464Z</time>
      </trkpt>
      <trkpt lat="43.84898" lon="3.30226">
        <ele>734.69</ele>
        <time>2026-03-29T13:51:30.577Z</time>
      </trkpt>
      <trkpt lat="43.849" lon="3.30231">
        <ele>733.95</ele>
        <time>2026-03-29T13:51:35.642Z</time>
      </trkpt>
      <trkpt lat="43.84904" lon="3.30237">
        <ele>733.95</ele>
        <time>2026-03-29T13:51:41.225Z</time>
      </trkpt>
      <trkpt lat="43.84909" lon="3.30241">
        <ele>733.92</ele>
        <time>2026-03-29T13:51:46.474Z</time>
      </trkpt>
      <trkpt lat="43.84914" lon="3.30246">
        <ele>734.8</ele>
        <time>2026-03-29T13:51:51.490Z</time>
      </trkpt>
      <trkpt lat="43.84919" lon="3.30252">
        <ele>733.61</ele>
        <time>2026-03-29T13:51:57.521Z</time>
      </trkpt>
      <trkpt lat="43.84924" lon="3.30257">
        <ele>733.55</ele>
        <time>2026-03-29T13:52:02.664Z</time>
      </trkpt>
      <trkpt lat="43.84928" lon="3.30261">
        <ele>734.02</ele>
        <time>2026-03-29T13:52:08.183Z</time>
      </trkpt>
      <trkpt lat="43.84933" lon="3.30264">
        <ele>734.34</ele>
        <time>2026-03-29T13:52:13.499Z</time>
      </trkpt>
      <trkpt lat="43.84937" lon="3.30269">
        <ele>733.71</ele>
        <time>2026-03-29T13:52:19.009Z</time>
      </trkpt>
      <trkpt lat="43.84943" lon="3.30275">
        <ele>733.24</ele>
        <time>2026-03-29T13:52:24.460Z</time>
      </trkpt>
      <trkpt lat="43.84948" lon="3.30279">
        <ele>733.45</ele>
        <time>2026-03-29T13:52:29.641Z</time>
      </trkpt>
      <trkpt lat="43.84953" lon="3.30283">
        <ele>732.82</ele>
        <time>2026-03-29T13:52:34.841Z</time>
      </trkpt>
      <trkpt lat="43.84958" lon="3.30288">
        <ele>731.74</ele>
        <time>2026-03-29T13:52:40.441Z</time>
      </trkpt>
      <trkpt lat="43.84963" lon="3.30296">
        <ele>731.55</ele>
        <time>2026-03-29T13:52:45.482Z</time>
      </trkpt>
      <trkpt lat="43.84967" lon="3.30299">
        <ele>730.29</ele>
        <time>2026-03-29T13:52:50.837Z</time>
      </trkpt>
      <trkpt lat="43.84972" lon="3.30303">
        <ele>729.17</ele>
        <time>2026-03-29T13:52:56.518Z</time>
      </trkpt>
      <trkpt lat="43.84976" lon="3.30309">
        <ele>728.87</ele>
        <time>2026-03-29T13:53:01.599Z</time>
      </trkpt>
      <trkpt lat="43.84981" lon="3.30317">
        <ele>728.4</ele>
        <time>2026-03-29T13:53:06.878Z</time>
      </trkpt>
      <trkpt lat="43.84985" lon="3.30322">
        <ele>728.95</ele>
        <time>2026-03-29T13:53:11.901Z</time>
      </trkpt>
      <trkpt lat="43.84989" lon="3.30326">
        <ele>728.86</ele>
        <time>2026-03-29T13:53:17.282Z</time>
      </trkpt>
      <trkpt lat="43.84993" lon="3.30329">
        <ele>727.49</ele>
        <time>2026-03-29T13:53:22.507Z</time>
      </trkpt>
      <trkpt lat="43.84999" lon="3.30332">
        <ele>728.47</ele>
        <time>2026-03-29T13:53:28.440Z</time>
      </trkpt>
      <trkpt lat="43.85004" lon="3.30337">
        <ele>728.58</ele>
        <time>2026-03-29T13:53:34.457Z</time>
      </trkpt>
      <trkpt lat="43.85009" lon="3.30343">
        <ele>728.15</ele>
        <time>2026-03-29T13:53:40.125Z</time>
      </trkpt>
      <trkpt lat="43.85013" lon="3.3035">
        <ele>727.87</ele>
        <time>2026-03-29T13:53:45.381Z</time>
      </trkpt>
      <trkpt lat="43.85017" lon="3.30351">
        <ele>726.64</ele>
        <time>2026-03-29T13:53:50.462Z</time>
      </trkpt>
      <trkpt lat="43.8502" lon="3.30351">
        <ele>725.99</ele>
        <time>2026-03-29T13:53:55.477Z</time>
      </trkpt>
      <trkpt lat="43.85025" lon="3.30355">
        <ele>726.55</ele>
        <time>2026-03-29T13:54:00.519Z</time>
      </trkpt>
      <trkpt lat="43.85032" lon="3.30354">
        <ele>728.09</ele>
        <time>2026-03-29T13:54:06.467Z</time>
      </trkpt>
      <trkpt lat="43.8504" lon="3.30358">
        <ele>728.11</ele>
        <time>2026-03-29T13:54:12.442Z</time>
      </trkpt>
      <trkpt lat="43.85045" lon="3.3036">
        <ele>724.41</ele>
        <time>2026-03-29T13:54:17.493Z</time>
      </trkpt>
      <trkpt lat="43.85052" lon="3.30364">
        <ele>724.23</ele>
        <time>2026-03-29T13:54:23.432Z</time>
      </trkpt>
      <trkpt lat="43.85057" lon="3.30366">
        <ele>733.73</ele>
        <time>2026-03-29T13:54:28.556Z</time>
      </trkpt>
      <trkpt lat="43.85056" lon="3.30374">
        <ele>732.58</ele>
        <time>2026-03-29T13:54:33.805Z</time>
      </trkpt>
      <trkpt lat="43.85059" lon="3.30381">
        <ele>728.62</ele>
        <time>2026-03-29T13:54:39.021Z</time>
      </trkpt>
      <trkpt lat="43.8506" lon="3.30388">
        <ele>730.13</ele>
        <time>2026-03-29T13:54:44.099Z</time>
      </trkpt>
      <trkpt lat="43.85067" lon="3.30393">
        <ele>730.91</ele>
        <time>2026-03-29T13:54:49.160Z</time>
      </trkpt>
      <trkpt lat="43.85082" lon="3.3039">
        <ele>731.11</ele>
        <time>2026-03-29T13:54:54.344Z</time>
      </trkpt>
      <trkpt lat="43.85087" lon="3.30397">
        <ele>730.63</ele>
        <time>2026-03-29T13:54:59.382Z</time>
      </trkpt>
      <trkpt lat="43.85091" lon="3.30401">
        <ele>731.48</ele>
        <time>2026-03-29T13:55:04.404Z</time>
      </trkpt>
      <trkpt lat="43.85097" lon="3.30406">
        <ele>731.49</ele>
        <time>2026-03-29T13:55:09.644Z</time>
      </trkpt>
      <trkpt lat="43.85103" lon="3.30409">
        <ele>730.89</ele>
        <time>2026-03-29T13:55:14.784Z</time>
      </trkpt>
      <trkpt lat="43.85108" lon="3.30413">
        <ele>731.14</ele>
        <time>2026-03-29T13:55:20.421Z</time>
      </trkpt>
      <trkpt lat="43.85113" lon="3.3042">
        <ele>731.31</ele>
        <time>2026-03-29T13:55:25.987Z</time>
      </trkpt>
      <trkpt lat="43.85117" lon="3.30426">
        <ele>731.15</ele>
        <time>2026-03-29T13:55:31.066Z</time>
      </trkpt>
      <trkpt lat="43.85121" lon="3.30434">
        <ele>731.2</ele>
        <time>2026-03-29T13:55:36.480Z</time>
      </trkpt>
      <trkpt lat="43.85127" lon="3.30442">
        <ele>731.23</ele>
        <time>2026-03-29T13:55:42.099Z</time>
      </trkpt>
      <trkpt lat="43.8513" lon="3.30449">
        <ele>730.68</ele>
        <time>2026-03-29T13:55:47.162Z</time>
      </trkpt>
      <trkpt lat="43.85135" lon="3.30455">
        <ele>730.17</ele>
        <time>2026-03-29T13:55:52.404Z</time>
      </trkpt>
      <trkpt lat="43.85141" lon="3.30456">
        <ele>730.27</ele>
        <time>2026-03-29T13:55:58.042Z</time>
      </trkpt>
      <trkpt lat="43.85145" lon="3.30462">
        <ele>730.09</ele>
        <time>2026-03-29T13:56:03.418Z</time>
      </trkpt>
      <trkpt lat="43.85148" lon="3.30469">
        <ele>730.54</ele>
        <time>2026-03-29T13:56:08.925Z</time>
      </trkpt>
      <trkpt lat="43.85151" lon="3.30477">
        <ele>730.75</ele>
        <time>2026-03-29T13:56:14.504Z</time>
      </trkpt>
      <trkpt lat="43.85155" lon="3.30484">
        <ele>730.93</ele>
        <time>2026-03-29T13:56:20.378Z</time>
      </trkpt>
      <trkpt lat="43.85157" lon="3.3049">
        <ele>730.79</ele>
        <time>2026-03-29T13:56:25.461Z</time>
      </trkpt>
      <trkpt lat="43.85161" lon="3.30496">
        <ele>731.58</ele>
        <time>2026-03-29T13:56:30.663Z</time>
      </trkpt>
      <trkpt lat="43.85165" lon="3.30502">
        <ele>732.26</ele>
        <time>2026-03-29T13:56:35.785Z</time>
      </trkpt>
      <trkpt lat="43.85169" lon="3.30507">
        <ele>732.86</ele>
        <time>2026-03-29T13:56:40.798Z</time>
      </trkpt>
      <trkpt lat="43.85172" lon="3.30511">
        <ele>733.66</ele>
        <time>2026-03-29T13:56:46.178Z</time>
      </trkpt>
      <trkpt lat="43.85176" lon="3.30514">
        <ele>735.3</ele>
        <time>2026-03-29T13:56:51.458Z</time>
      </trkpt>
      <trkpt lat="43.8518" lon="3.3052">
        <ele>735.09</ele>
        <time>2026-03-29T13:56:56.545Z</time>
      </trkpt>
      <trkpt lat="43.85185" lon="3.30522">
        <ele>735.59</ele>
        <time>2026-03-29T13:57:01.862Z</time>
      </trkpt>
      <trkpt lat="43.85191" lon="3.30521">
        <ele>735.55</ele>
        <time>2026-03-29T13:57:07.145Z</time>
      </trkpt>
      <trkpt lat="43.85197" lon="3.30517">
        <ele>735.89</ele>
        <time>2026-03-29T13:57:12.378Z</time>
      </trkpt>
      <trkpt lat="43.85202" lon="3.30516">
        <ele>736.56</ele>
        <time>2026-03-29T13:57:17.723Z</time>
      </trkpt>
      <trkpt lat="43.85207" lon="3.30518">
        <ele>737.11</ele>
        <time>2026-03-29T13:57:22.818Z</time>
      </trkpt>
      <trkpt lat="43.85212" lon="3.30522">
        <ele>737.34</ele>
        <time>2026-03-29T13:57:27.843Z</time>
      </trkpt>
      <trkpt lat="43.85216" lon="3.30525">
        <ele>736.67</ele>
        <time>2026-03-29T13:57:33.143Z</time>
      </trkpt>
      <trkpt lat="43.85221" lon="3.30528">
        <ele>737.46</ele>
        <time>2026-03-29T13:57:38.461Z</time>
      </trkpt>
      <trkpt lat="43.85225" lon="3.30532">
        <ele>737.23</ele>
        <time>2026-03-29T13:57:43.544Z</time>
      </trkpt>
      <trkpt lat="43.8523" lon="3.30535">
        <ele>739.45</ele>
        <time>2026-03-29T13:57:49.379Z</time>
      </trkpt>
      <trkpt lat="43.85236" lon="3.30533">
        <ele>740.6</ele>
        <time>2026-03-29T13:57:54.878Z</time>
      </trkpt>
      <trkpt lat="43.85241" lon="3.30531">
        <ele>736.91</ele>
        <time>2026-03-29T13:58:00.123Z</time>
      </trkpt>
      <trkpt lat="43.85246" lon="3.30535">
        <ele>737.63</ele>
        <time>2026-03-29T13:58:05.280Z</time>
      </trkpt>
      <trkpt lat="43.85252" lon="3.30537">
        <ele>738.64</ele>
        <time>2026-03-29T13:58:10.480Z</time>
      </trkpt>
      <trkpt lat="43.85256" lon="3.30539">
        <ele>738.7</ele>
        <time>2026-03-29T13:58:15.623Z</time>
      </trkpt>
      <trkpt lat="43.8526" lon="3.30537">
        <ele>741.65</ele>
        <time>2026-03-29T13:58:21.469Z</time>
      </trkpt>
      <trkpt lat="43.85259" lon="3.30538">
        <ele>740.26</ele>
        <time>2026-03-29T13:58:28.241Z</time>
      </trkpt>
      <trkpt lat="43.85259" lon="3.30539">
        <ele>739.94</ele>
        <time>2026-03-29T13:58:37.282Z</time>
      </trkpt>
      <trkpt lat="43.85262" lon="3.30545">
        <ele>739.32</ele>
        <time>2026-03-29T13:58:42.418Z</time>
      </trkpt>
      <trkpt lat="43.85262" lon="3.30547">
        <ele>739.53</ele>
        <time>2026-03-29T13:58:47.782Z</time>
      </trkpt>
      <trkpt lat="43.85269" lon="3.30548">
        <ele>739.3</ele>
        <time>2026-03-29T13:58:53.257Z</time>
      </trkpt>
      <trkpt lat="43.85275" lon="3.30548">
        <ele>738.83</ele>
        <time>2026-03-29T13:58:58.491Z</time>
      </trkpt>
      <trkpt lat="43.85282" lon="3.30546">
        <ele>739</ele>
        <time>2026-03-29T13:59:04.184Z</time>
      </trkpt>
      <trkpt lat="43.85289" lon="3.30545">
        <ele>739.22</ele>
        <time>2026-03-29T13:59:09.481Z</time>
      </trkpt>
      <trkpt lat="43.85295" lon="3.30541">
        <ele>739.45</ele>
        <time>2026-03-29T13:59:14.495Z</time>
      </trkpt>
      <trkpt lat="43.85301" lon="3.30542">
        <ele>739.23</ele>
        <time>2026-03-29T13:59:20.018Z</time>
      </trkpt>
      <trkpt lat="43.85305" lon="3.30542">
        <ele>739.55</ele>
        <time>2026-03-29T13:59:25.366Z</time>
      </trkpt>
      <trkpt lat="43.85312" lon="3.3054">
        <ele>738.92</ele>
        <time>2026-03-29T13:59:30.392Z</time>
      </trkpt>
      <trkpt lat="43.85318" lon="3.30536">
        <ele>738.89</ele>
        <time>2026-03-29T13:59:35.465Z</time>
      </trkpt>
      <trkpt lat="43.85325" lon="3.30537">
        <ele>737.87</ele>
        <time>2026-03-29T13:59:41.119Z</time>
      </trkpt>
      <trkpt lat="43.85329" lon="3.30537">
        <ele>736.96</ele>
        <time>2026-03-29T13:59:46.502Z</time>
      </trkpt>
      <trkpt lat="43.85329" lon="3.30537">
        <ele>738.9</ele>
        <time>2026-03-29T13:59:51.937Z</time>
      </trkpt>
      <trkpt lat="43.8533" lon="3.3053">
        <ele>740.19</ele>
        <time>2026-03-29T13:59:57.459Z</time>
      </trkpt>
      <trkpt lat="43.85335" lon="3.30522">
        <ele>739.03</ele>
        <time>2026-03-29T14:00:03.466Z</time>
      </trkpt>
      <trkpt lat="43.8534" lon="3.30519">
        <ele>738.65</ele>
        <time>2026-03-29T14:00:08.481Z</time>
      </trkpt>
      <trkpt lat="43.85344" lon="3.30518">
        <ele>739.34</ele>
        <time>2026-03-29T14:00:13.495Z</time>
      </trkpt>
      <trkpt lat="43.85347" lon="3.30517">
        <ele>739.93</ele>
        <time>2026-03-29T14:00:19.062Z</time>
      </trkpt>
      <trkpt lat="43.85353" lon="3.30518">
        <ele>739.31</ele>
        <time>2026-03-29T14:00:24.396Z</time>
      </trkpt>
      <trkpt lat="43.85359" lon="3.30517">
        <ele>738.71</ele>
        <time>2026-03-29T14:00:29.516Z</time>
      </trkpt>
      <trkpt lat="43.85365" lon="3.30517">
        <ele>740.07</ele>
        <time>2026-03-29T14:00:34.560Z</time>
      </trkpt>
      <trkpt lat="43.85369" lon="3.30514">
        <ele>737.26</ele>
        <time>2026-03-29T14:00:39.762Z</time>
      </trkpt>
      <trkpt lat="43.85374" lon="3.30512">
        <ele>736.98</ele>
        <time>2026-03-29T14:00:45.042Z</time>
      </trkpt>
      <trkpt lat="43.85379" lon="3.3051">
        <ele>737.46</ele>
        <time>2026-03-29T14:00:50.137Z</time>
      </trkpt>
      <trkpt lat="43.85386" lon="3.30509">
        <ele>737.44</ele>
        <time>2026-03-29T14:00:55.402Z</time>
      </trkpt>
      <trkpt lat="43.85391" lon="3.30507">
        <ele>737.97</ele>
        <time>2026-03-29T14:01:00.456Z</time>
      </trkpt>
      <trkpt lat="43.85397" lon="3.30509">
        <ele>739.64</ele>
        <time>2026-03-29T14:01:06.221Z</time>
      </trkpt>
      <trkpt lat="43.85402" lon="3.30507">
        <ele>738.13</ele>
        <time>2026-03-29T14:01:11.551Z</time>
      </trkpt>
      <trkpt lat="43.85409" lon="3.30506">
        <ele>737.27</ele>
        <time>2026-03-29T14:01:16.944Z</time>
      </trkpt>
      <trkpt lat="43.85416" lon="3.30504">
        <ele>737.02</ele>
        <time>2026-03-29T14:01:22.242Z</time>
      </trkpt>
      <trkpt lat="43.85423" lon="3.30501">
        <ele>737.55</ele>
        <time>2026-03-29T14:01:27.448Z</time>
      </trkpt>
      <trkpt lat="43.85429" lon="3.305">
        <ele>737.3</ele>
        <time>2026-03-29T14:01:32.462Z</time>
      </trkpt>
      <trkpt lat="43.85436" lon="3.30499">
        <ele>737.64</ele>
        <time>2026-03-29T14:01:38.455Z</time>
      </trkpt>
      <trkpt lat="43.85444" lon="3.30499">
        <ele>738.1</ele>
        <time>2026-03-29T14:01:44.183Z</time>
      </trkpt>
      <trkpt lat="43.85448" lon="3.30502">
        <ele>737.39</ele>
        <time>2026-03-29T14:01:49.196Z</time>
      </trkpt>
      <trkpt lat="43.85452" lon="3.30505">
        <ele>737.36</ele>
        <time>2026-03-29T14:01:54.204Z</time>
      </trkpt>
      <trkpt lat="43.85459" lon="3.30503">
        <ele>737.11</ele>
        <time>2026-03-29T14:01:59.803Z</time>
      </trkpt>
      <trkpt lat="43.85465" lon="3.305">
        <ele>737.22</ele>
        <time>2026-03-29T14:02:05.427Z</time>
      </trkpt>
      <trkpt lat="43.85473" lon="3.30502">
        <ele>737.53</ele>
        <time>2026-03-29T14:02:11.502Z</time>
      </trkpt>
      <trkpt lat="43.8548" lon="3.30502">
        <ele>737.52</ele>
        <time>2026-03-29T14:02:16.523Z</time>
      </trkpt>
      <trkpt lat="43.85486" lon="3.30506">
        <ele>736.67</ele>
        <time>2026-03-29T14:02:22.084Z</time>
      </trkpt>
      <trkpt lat="43.85493" lon="3.30509">
        <ele>736.34</ele>
        <time>2026-03-29T14:02:27.238Z</time>
      </trkpt>
      <trkpt lat="43.85499" lon="3.30512">
        <ele>736.08</ele>
        <time>2026-03-29T14:02:32.262Z</time>
      </trkpt>
      <trkpt lat="43.85503" lon="3.30515">
        <ele>735.97</ele>
        <time>2026-03-29T14:02:37.400Z</time>
      </trkpt>
      <trkpt lat="43.8551" lon="3.30518">
        <ele>736.59</ele>
        <time>2026-03-29T14:02:43.082Z</time>
      </trkpt>
      <trkpt lat="43.85515" lon="3.30521">
        <ele>735.97</ele>
        <time>2026-03-29T14:02:48.184Z</time>
      </trkpt>
      <trkpt lat="43.85521" lon="3.30525">
        <ele>735.78</ele>
        <time>2026-03-29T14:02:53.341Z</time>
      </trkpt>
      <trkpt lat="43.85528" lon="3.30525">
        <ele>735.02</ele>
        <time>2026-03-29T14:02:59.389Z</time>
      </trkpt>
      <trkpt lat="43.85534" lon="3.30524">
        <ele>735.29</ele>
        <time>2026-03-29T14:03:05.057Z</time>
      </trkpt>
      <trkpt lat="43.85542" lon="3.30524">
        <ele>736.39</ele>
        <time>2026-03-29T14:03:10.082Z</time>
      </trkpt>
      <trkpt lat="43.85547" lon="3.30524">
        <ele>736.61</ele>
        <time>2026-03-29T14:03:15.239Z</time>
      </trkpt>
      <trkpt lat="43.85554" lon="3.30525">
        <ele>735.69</ele>
        <time>2026-03-29T14:03:20.444Z</time>
      </trkpt>
      <trkpt lat="43.85561" lon="3.30527">
        <ele>735.93</ele>
        <time>2026-03-29T14:03:26.387Z</time>
      </trkpt>
      <trkpt lat="43.85567" lon="3.30525">
        <ele>737.15</ele>
        <time>2026-03-29T14:03:32.041Z</time>
      </trkpt>
      <trkpt lat="43.85572" lon="3.30525">
        <ele>737.68</ele>
        <time>2026-03-29T14:03:37.145Z</time>
      </trkpt>
      <trkpt lat="43.85579" lon="3.30529">
        <ele>737.58</ele>
        <time>2026-03-29T14:03:42.526Z</time>
      </trkpt>
      <trkpt lat="43.85584" lon="3.30533">
        <ele>736.13</ele>
        <time>2026-03-29T14:03:47.597Z</time>
      </trkpt>
      <trkpt lat="43.8559" lon="3.30535">
        <ele>735.69</ele>
        <time>2026-03-29T14:03:52.819Z</time>
      </trkpt>
      <trkpt lat="43.85597" lon="3.30534">
        <ele>735.83</ele>
        <time>2026-03-29T14:03:58.423Z</time>
      </trkpt>
      <trkpt lat="43.85604" lon="3.30531">
        <ele>736.19</ele>
        <time>2026-03-29T14:04:04.036Z</time>
      </trkpt>
      <trkpt lat="43.8561" lon="3.30527">
        <ele>736.33</ele>
        <time>2026-03-29T14:04:09.518Z</time>
      </trkpt>
      <trkpt lat="43.85617" lon="3.30525">
        <ele>736.04</ele>
        <time>2026-03-29T14:04:15.060Z</time>
      </trkpt>
      <trkpt lat="43.85623" lon="3.30527">
        <ele>735.8</ele>
        <time>2026-03-29T14:04:20.535Z</time>
      </trkpt>
      <trkpt lat="43.85631" lon="3.30524">
        <ele>735.72</ele>
        <time>2026-03-29T14:04:26.484Z</time>
      </trkpt>
      <trkpt lat="43.85637" lon="3.30523">
        <ele>735.61</ele>
        <time>2026-03-29T14:04:31.493Z</time>
      </trkpt>
      <trkpt lat="43.85643" lon="3.30521">
        <ele>734.48</ele>
        <time>2026-03-29T14:04:36.507Z</time>
      </trkpt>
      <trkpt lat="43.85648" lon="3.30517">
        <ele>734.08</ele>
        <time>2026-03-29T14:04:41.863Z</time>
      </trkpt>
      <trkpt lat="43.8565" lon="3.30509">
        <ele>733.66</ele>
        <time>2026-03-29T14:04:47.390Z</time>
      </trkpt>
      <trkpt lat="43.85649" lon="3.30502">
        <ele>733.06</ele>
        <time>2026-03-29T14:04:52.618Z</time>
      </trkpt>
      <trkpt lat="43.85653" lon="3.30493">
        <ele>730.3</ele>
        <time>2026-03-29T14:04:57.758Z</time>
      </trkpt>
      <trkpt lat="43.85654" lon="3.30484">
        <ele>728.82</ele>
        <time>2026-03-29T14:05:03.277Z</time>
      </trkpt>
      <trkpt lat="43.85653" lon="3.30474">
        <ele>734.69</ele>
        <time>2026-03-29T14:05:08.621Z</time>
      </trkpt>
      <trkpt lat="43.85651" lon="3.30466">
        <ele>732.87</ele>
        <time>2026-03-29T14:05:13.637Z</time>
      </trkpt>
      <trkpt lat="43.85649" lon="3.30457">
        <ele>732.34</ele>
        <time>2026-03-29T14:05:19.394Z</time>
      </trkpt>
      <trkpt lat="43.85652" lon="3.3045">
        <ele>730.31</ele>
        <time>2026-03-29T14:05:24.515Z</time>
      </trkpt>
      <trkpt lat="43.85651" lon="3.3044">
        <ele>728.89</ele>
        <time>2026-03-29T14:05:29.960Z</time>
      </trkpt>
      <trkpt lat="43.85652" lon="3.30433">
        <ele>729.59</ele>
        <time>2026-03-29T14:05:35.337Z</time>
      </trkpt>
      <trkpt lat="43.85654" lon="3.30425">
        <ele>729.45</ele>
        <time>2026-03-29T14:05:40.458Z</time>
      </trkpt>
      <trkpt lat="43.85656" lon="3.30419">
        <ele>728.67</ele>
        <time>2026-03-29T14:05:45.884Z</time>
      </trkpt>
      <trkpt lat="43.85658" lon="3.30411">
        <ele>729.02</ele>
        <time>2026-03-29T14:05:51.506Z</time>
      </trkpt>
      <trkpt lat="43.85658" lon="3.30403">
        <ele>728.46</ele>
        <time>2026-03-29T14:05:56.543Z</time>
      </trkpt>
      <trkpt lat="43.85663" lon="3.30395">
        <ele>729.05</ele>
        <time>2026-03-29T14:06:01.919Z</time>
      </trkpt>
      <trkpt lat="43.85665" lon="3.30387">
        <ele>729.33</ele>
        <time>2026-03-29T14:06:06.960Z</time>
      </trkpt>
      <trkpt lat="43.85669" lon="3.30384">
        <ele>729.3</ele>
        <time>2026-03-29T14:06:12.522Z</time>
      </trkpt>
      <trkpt lat="43.85667" lon="3.30384">
        <ele>728.75</ele>
        <time>2026-03-29T14:06:17.536Z</time>
      </trkpt>
      <trkpt lat="43.85667" lon="3.30383">
        <ele>727.86</ele>
        <time>2026-03-29T14:06:22.900Z</time>
      </trkpt>
      <trkpt lat="43.85669" lon="3.30375">
        <ele>728.34</ele>
        <time>2026-03-29T14:06:27.977Z</time>
      </trkpt>
      <trkpt lat="43.85672" lon="3.30367">
        <ele>729.57</ele>
        <time>2026-03-29T14:06:33.044Z</time>
      </trkpt>
      <trkpt lat="43.85677" lon="3.30359">
        <ele>729.98</ele>
        <time>2026-03-29T14:06:38.439Z</time>
      </trkpt>
      <trkpt lat="43.85681" lon="3.3035">
        <ele>729.73</ele>
        <time>2026-03-29T14:06:43.863Z</time>
      </trkpt>
      <trkpt lat="43.85685" lon="3.30343">
        <ele>729.6</ele>
        <time>2026-03-29T14:06:49.340Z</time>
      </trkpt>
      <trkpt lat="43.85689" lon="3.30337">
        <ele>728.62</ele>
        <time>2026-03-29T14:06:54.424Z</time>
      </trkpt>
      <trkpt lat="43.85692" lon="3.30331">
        <ele>730.88</ele>
        <time>2026-03-29T14:06:59.567Z</time>
      </trkpt>
      <trkpt lat="43.85698" lon="3.30324">
        <ele>731.55</ele>
        <time>2026-03-29T14:07:05.277Z</time>
      </trkpt>
      <trkpt lat="43.85702" lon="3.30318">
        <ele>732.32</ele>
        <time>2026-03-29T14:07:10.448Z</time>
      </trkpt>
      <trkpt lat="43.85708" lon="3.30317">
        <ele>730.8</ele>
        <time>2026-03-29T14:07:16.530Z</time>
      </trkpt>
      <trkpt lat="43.85707" lon="3.30319">
        <ele>731.34</ele>
        <time>2026-03-29T14:07:22.504Z</time>
      </trkpt>
      <trkpt lat="43.85708" lon="3.3032">
        <ele>731.85</ele>
        <time>2026-03-29T14:07:32.595Z</time>
      </trkpt>
      <trkpt lat="43.85714" lon="3.30326">
        <ele>732.33</ele>
        <time>2026-03-29T14:07:37.701Z</time>
      </trkpt>
      <trkpt lat="43.85722" lon="3.30328">
        <ele>734.72</ele>
        <time>2026-03-29T14:07:42.917Z</time>
      </trkpt>
      <trkpt lat="43.85733" lon="3.30326">
        <ele>733.85</ele>
        <time>2026-03-29T14:07:48.534Z</time>
      </trkpt>
      <trkpt lat="43.85741" lon="3.30322">
        <ele>732.82</ele>
        <time>2026-03-29T14:07:54.299Z</time>
      </trkpt>
      <trkpt lat="43.85747" lon="3.30322">
        <ele>732.64</ele>
        <time>2026-03-29T14:07:59.522Z</time>
      </trkpt>
      <trkpt lat="43.85752" lon="3.30327">
        <ele>733.12</ele>
        <time>2026-03-29T14:08:04.558Z</time>
      </trkpt>
      <trkpt lat="43.85755" lon="3.30335">
        <ele>732.54</ele>
        <time>2026-03-29T14:08:10.122Z</time>
      </trkpt>
      <trkpt lat="43.85756" lon="3.30345">
        <ele>732.09</ele>
        <time>2026-03-29T14:08:15.524Z</time>
      </trkpt>
      <trkpt lat="43.85758" lon="3.30353">
        <ele>731.77</ele>
        <time>2026-03-29T14:08:21.243Z</time>
      </trkpt>
      <trkpt lat="43.85762" lon="3.30359">
        <ele>731.03</ele>
        <time>2026-03-29T14:08:26.511Z</time>
      </trkpt>
      <trkpt lat="43.85766" lon="3.30362">
        <ele>732.2</ele>
        <time>2026-03-29T14:08:32.486Z</time>
      </trkpt>
      <trkpt lat="43.85769" lon="3.30372">
        <ele>731.9</ele>
        <time>2026-03-29T14:08:37.517Z</time>
      </trkpt>
      <trkpt lat="43.8577" lon="3.30382">
        <ele>731.95</ele>
        <time>2026-03-29T14:08:42.530Z</time>
      </trkpt>
      <trkpt lat="43.85773" lon="3.30393">
        <ele>731.15</ele>
        <time>2026-03-29T14:08:47.905Z</time>
      </trkpt>
      <trkpt lat="43.85775" lon="3.30403">
        <ele>730.93</ele>
        <time>2026-03-29T14:08:52.962Z</time>
      </trkpt>
      <trkpt lat="43.85775" lon="3.30413">
        <ele>731.03</ele>
        <time>2026-03-29T14:08:58.436Z</time>
      </trkpt>
      <trkpt lat="43.85777" lon="3.30422">
        <ele>730.91</ele>
        <time>2026-03-29T14:09:03.440Z</time>
      </trkpt>
      <trkpt lat="43.85778" lon="3.30433">
        <ele>730.86</ele>
        <time>2026-03-29T14:09:09.365Z</time>
      </trkpt>
      <trkpt lat="43.85781" lon="3.30442">
        <ele>731.3</ele>
        <time>2026-03-29T14:09:14.428Z</time>
      </trkpt>
      <trkpt lat="43.85784" lon="3.3045">
        <ele>731.53</ele>
        <time>2026-03-29T14:09:20.199Z</time>
      </trkpt>
      <trkpt lat="43.85786" lon="3.30459">
        <ele>731.17</ele>
        <time>2026-03-29T14:09:25.416Z</time>
      </trkpt>
      <trkpt lat="43.85786" lon="3.30469">
        <ele>730.61</ele>
        <time>2026-03-29T14:09:31.372Z</time>
      </trkpt>
      <trkpt lat="43.85786" lon="3.30478">
        <ele>731.39</ele>
        <time>2026-03-29T14:09:36.404Z</time>
      </trkpt>
      <trkpt lat="43.85787" lon="3.30486">
        <ele>731.33</ele>
        <time>2026-03-29T14:09:41.465Z</time>
      </trkpt>
      <trkpt lat="43.8579" lon="3.30496">
        <ele>731.72</ele>
        <time>2026-03-29T14:09:47.226Z</time>
      </trkpt>
      <trkpt lat="43.85795" lon="3.30501">
        <ele>731.67</ele>
        <time>2026-03-29T14:09:52.540Z</time>
      </trkpt>
      <trkpt lat="43.85801" lon="3.30503">
        <ele>732.12</ele>
        <time>2026-03-29T14:09:58.100Z</time>
      </trkpt>
      <trkpt lat="43.85808" lon="3.30504">
        <ele>733.01</ele>
        <time>2026-03-29T14:10:03.406Z</time>
      </trkpt>
      <trkpt lat="43.85814" lon="3.30506">
        <ele>733.69</ele>
        <time>2026-03-29T14:10:08.623Z</time>
      </trkpt>
      <trkpt lat="43.8582" lon="3.30511">
        <ele>733.72</ele>
        <time>2026-03-29T14:10:14.389Z</time>
      </trkpt>
      <trkpt lat="43.85825" lon="3.30516">
        <ele>734</ele>
        <time>2026-03-29T14:10:19.502Z</time>
      </trkpt>
      <trkpt lat="43.8583" lon="3.30522">
        <ele>734.7</ele>
        <time>2026-03-29T14:10:24.519Z</time>
      </trkpt>
      <trkpt lat="43.85835" lon="3.30528">
        <ele>735.02</ele>
        <time>2026-03-29T14:10:30.103Z</time>
      </trkpt>
      <trkpt lat="43.85841" lon="3.30534">
        <ele>735.43</ele>
        <time>2026-03-29T14:10:35.504Z</time>
      </trkpt>
      <trkpt lat="43.85846" lon="3.3054">
        <ele>735.52</ele>
        <time>2026-03-29T14:10:41.417Z</time>
      </trkpt>
      <trkpt lat="43.8585" lon="3.30548">
        <ele>735.35</ele>
        <time>2026-03-29T14:10:46.491Z</time>
      </trkpt>
      <trkpt lat="43.85854" lon="3.30554">
        <ele>735.73</ele>
        <time>2026-03-29T14:10:51.944Z</time>
      </trkpt>
      <trkpt lat="43.85858" lon="3.3056">
        <ele>735.81</ele>
        <time>2026-03-29T14:10:57.479Z</time>
      </trkpt>
      <trkpt lat="43.85864" lon="3.30566">
        <ele>735.84</ele>
        <time>2026-03-29T14:11:03.227Z</time>
      </trkpt>
      <trkpt lat="43.85869" lon="3.30572">
        <ele>735.66</ele>
        <time>2026-03-29T14:11:08.467Z</time>
      </trkpt>
      <trkpt lat="43.85874" lon="3.3058">
        <ele>734.5</ele>
        <time>2026-03-29T14:11:14.160Z</time>
      </trkpt>
      <trkpt lat="43.85878" lon="3.30586">
        <ele>734.83</ele>
        <time>2026-03-29T14:11:19.455Z</time>
      </trkpt>
      <trkpt lat="43.85881" lon="3.30595">
        <ele>735.13</ele>
        <time>2026-03-29T14:11:24.960Z</time>
      </trkpt>
      <trkpt lat="43.85885" lon="3.30603">
        <ele>735.18</ele>
        <time>2026-03-29T14:11:30.381Z</time>
      </trkpt>
      <trkpt lat="43.85889" lon="3.30611">
        <ele>734.79</ele>
        <time>2026-03-29T14:11:35.456Z</time>
      </trkpt>
      <trkpt lat="43.85894" lon="3.30619">
        <ele>734.99</ele>
        <time>2026-03-29T14:11:41.201Z</time>
      </trkpt>
      <trkpt lat="43.85899" lon="3.30626">
        <ele>734.43</ele>
        <time>2026-03-29T14:11:46.444Z</time>
      </trkpt>
      <trkpt lat="43.85902" lon="3.30633">
        <ele>734.89</ele>
        <time>2026-03-29T14:11:52.103Z</time>
      </trkpt>
      <trkpt lat="43.85907" lon="3.3064">
        <ele>736.54</ele>
        <time>2026-03-29T14:11:57.540Z</time>
      </trkpt>
      <trkpt lat="43.85913" lon="3.30647">
        <ele>737.21</ele>
        <time>2026-03-29T14:12:02.967Z</time>
      </trkpt>
      <trkpt lat="43.85918" lon="3.30652">
        <ele>735.87</ele>
        <time>2026-03-29T14:12:08.525Z</time>
      </trkpt>
      <trkpt lat="43.85924" lon="3.30654">
        <ele>736.07</ele>
        <time>2026-03-29T14:12:13.720Z</time>
      </trkpt>
      <trkpt lat="43.8593" lon="3.30657">
        <ele>737.55</ele>
        <time>2026-03-29T14:12:19.085Z</time>
      </trkpt>
      <trkpt lat="43.85936" lon="3.30661">
        <ele>737.19</ele>
        <time>2026-03-29T14:12:24.167Z</time>
      </trkpt>
      <trkpt lat="43.85941" lon="3.30665">
        <ele>737.95</ele>
        <time>2026-03-29T14:12:29.227Z</time>
      </trkpt>
      <trkpt lat="43.85947" lon="3.30666">
        <ele>737.83</ele>
        <time>2026-03-29T14:12:34.460Z</time>
      </trkpt>
      <trkpt lat="43.85952" lon="3.30668">
        <ele>737.11</ele>
        <time>2026-03-29T14:12:39.562Z</time>
      </trkpt>
      <trkpt lat="43.85959" lon="3.30668">
        <ele>737.45</ele>
        <time>2026-03-29T14:12:45.067Z</time>
      </trkpt>
      <trkpt lat="43.85967" lon="3.30673">
        <ele>737.45</ele>
        <time>2026-03-29T14:12:51.122Z</time>
      </trkpt>
      <trkpt lat="43.85973" lon="3.30678">
        <ele>738.39</ele>
        <time>2026-03-29T14:12:56.685Z</time>
      </trkpt>
      <trkpt lat="43.85978" lon="3.30681">
        <ele>739.25</ele>
        <time>2026-03-29T14:13:01.761Z</time>
      </trkpt>
      <trkpt lat="43.85984" lon="3.30685">
        <ele>739.49</ele>
        <time>2026-03-29T14:13:07.387Z</time>
      </trkpt>
      <trkpt lat="43.85988" lon="3.30692">
        <ele>739.49</ele>
        <time>2026-03-29T14:13:12.425Z</time>
      </trkpt>
      <trkpt lat="43.85993" lon="3.30698">
        <ele>739.24</ele>
        <time>2026-03-29T14:13:18.117Z</time>
      </trkpt>
      <trkpt lat="43.85998" lon="3.30706">
        <ele>737.6</ele>
        <time>2026-03-29T14:13:23.543Z</time>
      </trkpt>
      <trkpt lat="43.86004" lon="3.30711">
        <ele>739.93</ele>
        <time>2026-03-29T14:13:29.043Z</time>
      </trkpt>
      <trkpt lat="43.8601" lon="3.30717">
        <ele>739.46</ele>
        <time>2026-03-29T14:13:34.483Z</time>
      </trkpt>
      <trkpt lat="43.86016" lon="3.30722">
        <ele>739.2</ele>
        <time>2026-03-29T14:13:39.742Z</time>
      </trkpt>
      <trkpt lat="43.86022" lon="3.30728">
        <ele>739.35</ele>
        <time>2026-03-29T14:13:45.181Z</time>
      </trkpt>
      <trkpt lat="43.86027" lon="3.30734">
        <ele>738.96</ele>
        <time>2026-03-29T14:13:50.509Z</time>
      </trkpt>
      <trkpt lat="43.86033" lon="3.30741">
        <ele>738.54</ele>
        <time>2026-03-29T14:13:55.881Z</time>
      </trkpt>
      <trkpt lat="43.86037" lon="3.30748">
        <ele>738.84</ele>
        <time>2026-03-29T14:14:01.343Z</time>
      </trkpt>
      <trkpt lat="43.8604" lon="3.30757">
        <ele>737.72</ele>
        <time>2026-03-29T14:14:06.511Z</time>
      </trkpt>
      <trkpt lat="43.86043" lon="3.30766">
        <ele>737.93</ele>
        <time>2026-03-29T14:14:11.524Z</time>
      </trkpt>
      <trkpt lat="43.86046" lon="3.30776">
        <ele>738.63</ele>
        <time>2026-03-29T14:14:16.564Z</time>
      </trkpt>
      <trkpt lat="43.86049" lon="3.30783">
        <ele>738.85</ele>
        <time>2026-03-29T14:14:21.983Z</time>
      </trkpt>
      <trkpt lat="43.8605" lon="3.30792">
        <ele>738.36</ele>
        <time>2026-03-29T14:14:27.558Z</time>
      </trkpt>
      <trkpt lat="43.86053" lon="3.30802">
        <ele>738.74</ele>
        <time>2026-03-29T14:14:33.102Z</time>
      </trkpt>
      <trkpt lat="43.86056" lon="3.30809">
        <ele>738.79</ele>
        <time>2026-03-29T14:14:38.513Z</time>
      </trkpt>
      <trkpt lat="43.86059" lon="3.3082">
        <ele>738.16</ele>
        <time>2026-03-29T14:14:43.940Z</time>
      </trkpt>
      <trkpt lat="43.86061" lon="3.3083">
        <ele>738.07</ele>
        <time>2026-03-29T14:14:49.344Z</time>
      </trkpt>
      <trkpt lat="43.86063" lon="3.30839">
        <ele>737.81</ele>
        <time>2026-03-29T14:14:54.514Z</time>
      </trkpt>
      <trkpt lat="43.86065" lon="3.30847">
        <ele>737.62</ele>
        <time>2026-03-29T14:15:00.162Z</time>
      </trkpt>
      <trkpt lat="43.86068" lon="3.30856">
        <ele>736.41</ele>
        <time>2026-03-29T14:15:05.763Z</time>
      </trkpt>
      <trkpt lat="43.86069" lon="3.30865">
        <ele>736.28</ele>
        <time>2026-03-29T14:15:11.160Z</time>
      </trkpt>
      <trkpt lat="43.86072" lon="3.30874">
        <ele>736.1</ele>
        <time>2026-03-29T14:15:16.489Z</time>
      </trkpt>
      <trkpt lat="43.86072" lon="3.30882">
        <ele>736.23</ele>
        <time>2026-03-29T14:15:21.503Z</time>
      </trkpt>
      <trkpt lat="43.86072" lon="3.30891">
        <ele>736.01</ele>
        <time>2026-03-29T14:15:26.885Z</time>
      </trkpt>
      <trkpt lat="43.86074" lon="3.309">
        <ele>735.47</ele>
        <time>2026-03-29T14:15:32.041Z</time>
      </trkpt>
      <trkpt lat="43.86075" lon="3.30909">
        <ele>735.91</ele>
        <time>2026-03-29T14:15:37.526Z</time>
      </trkpt>
      <trkpt lat="43.86074" lon="3.30917">
        <ele>735.95</ele>
        <time>2026-03-29T14:15:43.021Z</time>
      </trkpt>
      <trkpt lat="43.86074" lon="3.30926">
        <ele>736.02</ele>
        <time>2026-03-29T14:15:48.379Z</time>
      </trkpt>
      <trkpt lat="43.86075" lon="3.30936">
        <ele>735.96</ele>
        <time>2026-03-29T14:15:53.506Z</time>
      </trkpt>
      <trkpt lat="43.86077" lon="3.30944">
        <ele>735.22</ele>
        <time>2026-03-29T14:15:58.519Z</time>
      </trkpt>
      <trkpt lat="43.86079" lon="3.30954">
        <ele>734.81</ele>
        <time>2026-03-29T14:16:04.313Z</time>
      </trkpt>
      <trkpt lat="43.86081" lon="3.30964">
        <ele>734.75</ele>
        <time>2026-03-29T14:16:09.725Z</time>
      </trkpt>
      <trkpt lat="43.86079" lon="3.30973">
        <ele>734.85</ele>
        <time>2026-03-29T14:16:15.226Z</time>
      </trkpt>
      <trkpt lat="43.86075" lon="3.30981">
        <ele>735.02</ele>
        <time>2026-03-29T14:16:20.747Z</time>
      </trkpt>
      <trkpt lat="43.86068" lon="3.30981">
        <ele>734.88</ele>
        <time>2026-03-29T14:16:26.302Z</time>
      </trkpt>
      <trkpt lat="43.86062" lon="3.30978">
        <ele>734.38</ele>
        <time>2026-03-29T14:16:31.481Z</time>
      </trkpt>
      <trkpt lat="43.86056" lon="3.30975">
        <ele>734.25</ele>
        <time>2026-03-29T14:16:37.120Z</time>
      </trkpt>
      <trkpt lat="43.8605" lon="3.30973">
        <ele>733.31</ele>
        <time>2026-03-29T14:16:42.470Z</time>
      </trkpt>
      <trkpt lat="43.86043" lon="3.3097">
        <ele>732.83</ele>
        <time>2026-03-29T14:16:48.099Z</time>
      </trkpt>
      <trkpt lat="43.86035" lon="3.30968">
        <ele>732.64</ele>
        <time>2026-03-29T14:16:53.525Z</time>
      </trkpt>
      <trkpt lat="43.86029" lon="3.30966">
        <ele>731.19</ele>
        <time>2026-03-29T14:16:58.983Z</time>
      </trkpt>
      <trkpt lat="43.86023" lon="3.30963">
        <ele>730.77</ele>
        <time>2026-03-29T14:17:04.341Z</time>
      </trkpt>
      <trkpt lat="43.86016" lon="3.3096">
        <ele>729.76</ele>
        <time>2026-03-29T14:17:09.720Z</time>
      </trkpt>
      <trkpt lat="43.86009" lon="3.30959">
        <ele>729.98</ele>
        <time>2026-03-29T14:17:15.146Z</time>
      </trkpt>
      <trkpt lat="43.86002" lon="3.30959">
        <ele>729.66</ele>
        <time>2026-03-29T14:17:20.553Z</time>
      </trkpt>
      <trkpt lat="43.85995" lon="3.30957">
        <ele>728.69</ele>
        <time>2026-03-29T14:17:26.104Z</time>
      </trkpt>
      <trkpt lat="43.85989" lon="3.30955">
        <ele>728.49</ele>
        <time>2026-03-29T14:17:31.543Z</time>
      </trkpt>
      <trkpt lat="43.85981" lon="3.30953">
        <ele>726.98</ele>
        <time>2026-03-29T14:17:36.905Z</time>
      </trkpt>
      <trkpt lat="43.85976" lon="3.30955">
        <ele>727.68</ele>
        <time>2026-03-29T14:17:42.284Z</time>
      </trkpt>
      <trkpt lat="43.85968" lon="3.30959">
        <ele>728.01</ele>
        <time>2026-03-29T14:17:47.542Z</time>
      </trkpt>
      <trkpt lat="43.85962" lon="3.30964">
        <ele>727.49</ele>
        <time>2026-03-29T14:17:52.958Z</time>
      </trkpt>
      <trkpt lat="43.85956" lon="3.30969">
        <ele>727.26</ele>
        <time>2026-03-29T14:17:58.389Z</time>
      </trkpt>
      <trkpt lat="43.85952" lon="3.30978">
        <ele>726.53</ele>
        <time>2026-03-29T14:18:03.543Z</time>
      </trkpt>
      <trkpt lat="43.8595" lon="3.30988">
        <ele>726.97</ele>
        <time>2026-03-29T14:18:09.246Z</time>
      </trkpt>
      <trkpt lat="43.85949" lon="3.30999">
        <ele>727.31</ele>
        <time>2026-03-29T14:18:14.531Z</time>
      </trkpt>
      <trkpt lat="43.8595" lon="3.31009">
        <ele>727.56</ele>
        <time>2026-03-29T14:18:19.984Z</time>
      </trkpt>
      <trkpt lat="43.85953" lon="3.31019">
        <ele>727.36</ele>
        <time>2026-03-29T14:18:25.426Z</time>
      </trkpt>
      <trkpt lat="43.85952" lon="3.31028">
        <ele>727.01</ele>
        <time>2026-03-29T14:18:30.865Z</time>
      </trkpt>
      <trkpt lat="43.85949" lon="3.31037">
        <ele>727.04</ele>
        <time>2026-03-29T14:18:36.305Z</time>
      </trkpt>
      <trkpt lat="43.85949" lon="3.31047">
        <ele>727.48</ele>
        <time>2026-03-29T14:18:41.520Z</time>
      </trkpt>
      <trkpt lat="43.85955" lon="3.31054">
        <ele>727.89</ele>
        <time>2026-03-29T14:18:46.760Z</time>
      </trkpt>
      <trkpt lat="43.8596" lon="3.31059">
        <ele>729.15</ele>
        <time>2026-03-29T14:18:52.200Z</time>
      </trkpt>
      <trkpt lat="43.85966" lon="3.31063">
        <ele>730.76</ele>
        <time>2026-03-29T14:18:57.419Z</time>
      </trkpt>
      <trkpt lat="43.85971" lon="3.31064">
        <ele>730.93</ele>
        <time>2026-03-29T14:19:02.535Z</time>
      </trkpt>
      <trkpt lat="43.85977" lon="3.31062">
        <ele>730.98</ele>
        <time>2026-03-29T14:19:07.785Z</time>
      </trkpt>
      <trkpt lat="43.85982" lon="3.31062">
        <ele>732.11</ele>
        <time>2026-03-29T14:19:13.198Z</time>
      </trkpt>
      <trkpt lat="43.85987" lon="3.31062">
        <ele>732.82</ele>
        <time>2026-03-29T14:19:18.799Z</time>
      </trkpt>
      <trkpt lat="43.85992" lon="3.31063">
        <ele>732.97</ele>
        <time>2026-03-29T14:19:24.065Z</time>
      </trkpt>
      <trkpt lat="43.85998" lon="3.31062">
        <ele>733.69</ele>
        <time>2026-03-29T14:19:29.525Z</time>
      </trkpt>
      <trkpt lat="43.86004" lon="3.31063">
        <ele>734.11</ele>
        <time>2026-03-29T14:19:34.540Z</time>
      </trkpt>
      <trkpt lat="43.86009" lon="3.31061">
        <ele>734.67</ele>
        <time>2026-03-29T14:19:39.807Z</time>
      </trkpt>
      <trkpt lat="43.86015" lon="3.31061">
        <ele>734.84</ele>
        <time>2026-03-29T14:19:45.339Z</time>
      </trkpt>
      <trkpt lat="43.86019" lon="3.3106">
        <ele>735.56</ele>
        <time>2026-03-29T14:19:50.385Z</time>
      </trkpt>
      <trkpt lat="43.86026" lon="3.3106">
        <ele>735.81</ele>
        <time>2026-03-29T14:19:55.666Z</time>
      </trkpt>
      <trkpt lat="43.86033" lon="3.31062">
        <ele>736.83</ele>
        <time>2026-03-29T14:20:01.528Z</time>
      </trkpt>
      <trkpt lat="43.86039" lon="3.31065">
        <ele>737.56</ele>
        <time>2026-03-29T14:20:06.822Z</time>
      </trkpt>
      <trkpt lat="43.86043" lon="3.3107">
        <ele>737.46</ele>
        <time>2026-03-29T14:20:11.846Z</time>
      </trkpt>
      <trkpt lat="43.86048" lon="3.31077">
        <ele>736.54</ele>
        <time>2026-03-29T14:20:17.045Z</time>
      </trkpt>
      <trkpt lat="43.86052" lon="3.31084">
        <ele>735.96</ele>
        <time>2026-03-29T14:20:22.438Z</time>
      </trkpt>
      <trkpt lat="43.86057" lon="3.31092">
        <ele>735.67</ele>
        <time>2026-03-29T14:20:28.282Z</time>
      </trkpt>
      <trkpt lat="43.86061" lon="3.31101">
        <ele>734.5</ele>
        <time>2026-03-29T14:20:34.423Z</time>
      </trkpt>
      <trkpt lat="43.86063" lon="3.31106">
        <ele>734.31</ele>
        <time>2026-03-29T14:20:39.446Z</time>
      </trkpt>
      <trkpt lat="43.86067" lon="3.31114">
        <ele>735.08</ele>
        <time>2026-03-29T14:20:45.502Z</time>
      </trkpt>
      <trkpt lat="43.86073" lon="3.31122">
        <ele>734.4</ele>
        <time>2026-03-29T14:20:51.453Z</time>
      </trkpt>
      <trkpt lat="43.86077" lon="3.31131">
        <ele>733.36</ele>
        <time>2026-03-29T14:20:57.308Z</time>
      </trkpt>
      <trkpt lat="43.86081" lon="3.31139">
        <ele>732.57</ele>
        <time>2026-03-29T14:21:02.684Z</time>
      </trkpt>
      <trkpt lat="43.86084" lon="3.31148">
        <ele>733.4</ele>
        <time>2026-03-29T14:21:08.416Z</time>
      </trkpt>
      <trkpt lat="43.86085" lon="3.31157">
        <ele>733.62</ele>
        <time>2026-03-29T14:21:13.724Z</time>
      </trkpt>
      <trkpt lat="43.86088" lon="3.31165">
        <ele>732.5</ele>
        <time>2026-03-29T14:21:19.085Z</time>
      </trkpt>
      <trkpt lat="43.86092" lon="3.31172">
        <ele>732.25</ele>
        <time>2026-03-29T14:21:24.418Z</time>
      </trkpt>
      <trkpt lat="43.86094" lon="3.3118">
        <ele>732.63</ele>
        <time>2026-03-29T14:21:29.462Z</time>
      </trkpt>
      <trkpt lat="43.86097" lon="3.31191">
        <ele>733.26</ele>
        <time>2026-03-29T14:21:35.512Z</time>
      </trkpt>
      <trkpt lat="43.86099" lon="3.31202">
        <ele>732.05</ele>
        <time>2026-03-29T14:21:41.486Z</time>
      </trkpt>
      <trkpt lat="43.86103" lon="3.31209">
        <ele>731.06</ele>
        <time>2026-03-29T14:21:47.004Z</time>
      </trkpt>
      <trkpt lat="43.86107" lon="3.31217">
        <ele>731.62</ele>
        <time>2026-03-29T14:21:52.286Z</time>
      </trkpt>
      <trkpt lat="43.86112" lon="3.31225">
        <ele>733.01</ele>
        <time>2026-03-29T14:21:58.122Z</time>
      </trkpt>
      <trkpt lat="43.86117" lon="3.31233">
        <ele>733.04</ele>
        <time>2026-03-29T14:22:03.419Z</time>
      </trkpt>
      <trkpt lat="43.86122" lon="3.31241">
        <ele>732.06</ele>
        <time>2026-03-29T14:22:08.906Z</time>
      </trkpt>
      <trkpt lat="43.86126" lon="3.31248">
        <ele>732.49</ele>
        <time>2026-03-29T14:22:14.106Z</time>
      </trkpt>
      <trkpt lat="43.8613" lon="3.31256">
        <ele>732.25</ele>
        <time>2026-03-29T14:22:19.501Z</time>
      </trkpt>
      <trkpt lat="43.86131" lon="3.31267">
        <ele>731.97</ele>
        <time>2026-03-29T14:22:25.201Z</time>
      </trkpt>
      <trkpt lat="43.86139" lon="3.31274">
        <ele>731.65</ele>
        <time>2026-03-29T14:22:30.366Z</time>
      </trkpt>
      <trkpt lat="43.86147" lon="3.31276">
        <ele>730.54</ele>
        <time>2026-03-29T14:22:35.465Z</time>
      </trkpt>
      <trkpt lat="43.86153" lon="3.31277">
        <ele>729.93</ele>
        <time>2026-03-29T14:22:40.805Z</time>
      </trkpt>
      <trkpt lat="43.86159" lon="3.31282">
        <ele>730.34</ele>
        <time>2026-03-29T14:22:46.020Z</time>
      </trkpt>
      <trkpt lat="43.86167" lon="3.31285">
        <ele>730.18</ele>
        <time>2026-03-29T14:22:51.347Z</time>
      </trkpt>
      <trkpt lat="43.86174" lon="3.31291">
        <ele>730.14</ele>
        <time>2026-03-29T14:22:56.707Z</time>
      </trkpt>
      <trkpt lat="43.86179" lon="3.31297">
        <ele>730.1</ele>
        <time>2026-03-29T14:23:02.059Z</time>
      </trkpt>
      <trkpt lat="43.86184" lon="3.31302">
        <ele>730.27</ele>
        <time>2026-03-29T14:23:07.525Z</time>
      </trkpt>
      <trkpt lat="43.86188" lon="3.3131">
        <ele>729.68</ele>
        <time>2026-03-29T14:23:13.082Z</time>
      </trkpt>
      <trkpt lat="43.86193" lon="3.31316">
        <ele>729.1</ele>
        <time>2026-03-29T14:23:18.456Z</time>
      </trkpt>
      <trkpt lat="43.86197" lon="3.31323">
        <ele>728.66</ele>
        <time>2026-03-29T14:23:23.500Z</time>
      </trkpt>
      <trkpt lat="43.86203" lon="3.31326">
        <ele>729.37</ele>
        <time>2026-03-29T14:23:29.551Z</time>
      </trkpt>
      <trkpt lat="43.86209" lon="3.31333">
        <ele>729.36</ele>
        <time>2026-03-29T14:23:34.684Z</time>
      </trkpt>
      <trkpt lat="43.86214" lon="3.31342">
        <ele>729.35</ele>
        <time>2026-03-29T14:23:40.186Z</time>
      </trkpt>
      <trkpt lat="43.86217" lon="3.31349">
        <ele>729.76</ele>
        <time>2026-03-29T14:23:45.599Z</time>
      </trkpt>
      <trkpt lat="43.86221" lon="3.31355">
        <ele>729.31</ele>
        <time>2026-03-29T14:23:50.785Z</time>
      </trkpt>
      <trkpt lat="43.86221" lon="3.31363">
        <ele>729.14</ele>
        <time>2026-03-29T14:23:56.383Z</time>
      </trkpt>
      <trkpt lat="43.86222" lon="3.31374">
        <ele>730.04</ele>
        <time>2026-03-29T14:24:01.859Z</time>
      </trkpt>
      <trkpt lat="43.8622" lon="3.31384">
        <ele>730.34</ele>
        <time>2026-03-29T14:24:07.361Z</time>
      </trkpt>
      <trkpt lat="43.86218" lon="3.31392">
        <ele>730.18</ele>
        <time>2026-03-29T14:24:12.849Z</time>
      </trkpt>
      <trkpt lat="43.86214" lon="3.314">
        <ele>729.81</ele>
        <time>2026-03-29T14:24:18.551Z</time>
      </trkpt>
      <trkpt lat="43.86211" lon="3.31409">
        <ele>730.2</ele>
        <time>2026-03-29T14:24:24.182Z</time>
      </trkpt>
      <trkpt lat="43.86211" lon="3.31418">
        <ele>730.63</ele>
        <time>2026-03-29T14:24:29.601Z</time>
      </trkpt>
      <trkpt lat="43.86211" lon="3.31427">
        <ele>732.07</ele>
        <time>2026-03-29T14:24:35.266Z</time>
      </trkpt>
      <trkpt lat="43.86211" lon="3.31438">
        <ele>731.55</ele>
        <time>2026-03-29T14:24:40.726Z</time>
      </trkpt>
      <trkpt lat="43.8621" lon="3.31449">
        <ele>731.38</ele>
        <time>2026-03-29T14:24:46.378Z</time>
      </trkpt>
      <trkpt lat="43.86209" lon="3.31458">
        <ele>731.97</ele>
        <time>2026-03-29T14:24:51.801Z</time>
      </trkpt>
      <trkpt lat="43.86211" lon="3.31467">
        <ele>732.66</ele>
        <time>2026-03-29T14:24:57.481Z</time>
      </trkpt>
      <trkpt lat="43.86212" lon="3.31475">
        <ele>732.94</ele>
        <time>2026-03-29T14:25:02.921Z</time>
      </trkpt>
      <trkpt lat="43.86212" lon="3.31484">
        <ele>734.01</ele>
        <time>2026-03-29T14:25:08.426Z</time>
      </trkpt>
      <trkpt lat="43.86216" lon="3.31493">
        <ele>733.14</ele>
        <time>2026-03-29T14:25:13.945Z</time>
      </trkpt>
      <trkpt lat="43.86221" lon="3.31502">
        <ele>732.97</ele>
        <time>2026-03-29T14:25:19.391Z</time>
      </trkpt>
      <trkpt lat="43.86227" lon="3.31504">
        <ele>733.37</ele>
        <time>2026-03-29T14:25:24.441Z</time>
      </trkpt>
      <trkpt lat="43.86233" lon="3.3151">
        <ele>733.32</ele>
        <time>2026-03-29T14:25:30.079Z</time>
      </trkpt>
      <trkpt lat="43.86239" lon="3.31515">
        <ele>733.08</ele>
        <time>2026-03-29T14:25:35.149Z</time>
      </trkpt>
      <trkpt lat="43.86246" lon="3.31522">
        <ele>732.97</ele>
        <time>2026-03-29T14:25:40.548Z</time>
      </trkpt>
      <trkpt lat="43.86251" lon="3.31529">
        <ele>733.44</ele>
        <time>2026-03-29T14:25:45.562Z</time>
      </trkpt>
      <trkpt lat="43.86252" lon="3.3154">
        <ele>734.13</ele>
        <time>2026-03-29T14:25:51.103Z</time>
      </trkpt>
      <trkpt lat="43.86252" lon="3.31549">
        <ele>734.9</ele>
        <time>2026-03-29T14:25:56.287Z</time>
      </trkpt>
      <trkpt lat="43.86251" lon="3.3156">
        <ele>736.04</ele>
        <time>2026-03-29T14:26:01.806Z</time>
      </trkpt>
      <trkpt lat="43.86249" lon="3.31569">
        <ele>734.88</ele>
        <time>2026-03-29T14:26:07.449Z</time>
      </trkpt>
      <trkpt lat="43.86249" lon="3.31577">
        <ele>734.25</ele>
        <time>2026-03-29T14:26:12.739Z</time>
      </trkpt>
      <trkpt lat="43.86249" lon="3.31587">
        <ele>735.96</ele>
        <time>2026-03-29T14:26:18.197Z</time>
      </trkpt>
      <trkpt lat="43.86246" lon="3.31597">
        <ele>736.79</ele>
        <time>2026-03-29T14:26:23.719Z</time>
      </trkpt>
      <trkpt lat="43.86245" lon="3.31605">
        <ele>736.79</ele>
        <time>2026-03-29T14:26:29.204Z</time>
      </trkpt>
      <trkpt lat="43.86245" lon="3.31613">
        <ele>736.7</ele>
        <time>2026-03-29T14:26:34.282Z</time>
      </trkpt>
      <trkpt lat="43.86244" lon="3.31622">
        <ele>736.26</ele>
        <time>2026-03-29T14:26:39.845Z</time>
      </trkpt>
      <trkpt lat="43.86243" lon="3.31631">
        <ele>735.64</ele>
        <time>2026-03-29T14:26:45.374Z</time>
      </trkpt>
      <trkpt lat="43.86243" lon="3.31639">
        <ele>735.83</ele>
        <time>2026-03-29T14:26:50.546Z</time>
      </trkpt>
      <trkpt lat="43.86247" lon="3.31647">
        <ele>737.17</ele>
        <time>2026-03-29T14:26:55.946Z</time>
      </trkpt>
      <trkpt lat="43.86254" lon="3.31649">
        <ele>737.74</ele>
        <time>2026-03-29T14:27:01.440Z</time>
      </trkpt>
      <trkpt lat="43.86262" lon="3.31653">
        <ele>737.44</ele>
        <time>2026-03-29T14:27:07.465Z</time>
      </trkpt>
      <trkpt lat="43.86271" lon="3.31657">
        <ele>738.27</ele>
        <time>2026-03-29T14:27:13.382Z</time>
      </trkpt>
      <trkpt lat="43.86278" lon="3.31662">
        <ele>738.23</ele>
        <time>2026-03-29T14:27:18.818Z</time>
      </trkpt>
      <trkpt lat="43.86284" lon="3.31665">
        <ele>738.53</ele>
        <time>2026-03-29T14:27:24.244Z</time>
      </trkpt>
      <trkpt lat="43.86289" lon="3.31671">
        <ele>738.44</ele>
        <time>2026-03-29T14:27:29.557Z</time>
      </trkpt>
      <trkpt lat="43.86296" lon="3.31675">
        <ele>737.23</ele>
        <time>2026-03-29T14:27:35.346Z</time>
      </trkpt>
      <trkpt lat="43.86301" lon="3.31681">
        <ele>737.45</ele>
        <time>2026-03-29T14:27:40.393Z</time>
      </trkpt>
      <trkpt lat="43.86306" lon="3.31685">
        <ele>736.65</ele>
        <time>2026-03-29T14:27:45.701Z</time>
      </trkpt>
      <trkpt lat="43.86313" lon="3.31688">
        <ele>736.68</ele>
        <time>2026-03-29T14:27:51.083Z</time>
      </trkpt>
      <trkpt lat="43.8632" lon="3.31691">
        <ele>738.05</ele>
        <time>2026-03-29T14:27:56.473Z</time>
      </trkpt>
      <trkpt lat="43.86325" lon="3.31694">
        <ele>737.72</ele>
        <time>2026-03-29T14:28:01.488Z</time>
      </trkpt>
      <trkpt lat="43.86331" lon="3.317">
        <ele>737.94</ele>
        <time>2026-03-29T14:28:07.341Z</time>
      </trkpt>
      <trkpt lat="43.86338" lon="3.31705">
        <ele>738.13</ele>
        <time>2026-03-29T14:28:12.475Z</time>
      </trkpt>
      <trkpt lat="43.86344" lon="3.31711">
        <ele>738.79</ele>
        <time>2026-03-29T14:28:18.081Z</time>
      </trkpt>
      <trkpt lat="43.8635" lon="3.31717">
        <ele>738.11</ele>
        <time>2026-03-29T14:28:23.463Z</time>
      </trkpt>
      <trkpt lat="43.86356" lon="3.31722">
        <ele>737.95</ele>
        <time>2026-03-29T14:28:28.477Z</time>
      </trkpt>
      <trkpt lat="43.86357" lon="3.31732">
        <ele>738.01</ele>
        <time>2026-03-29T14:28:34.099Z</time>
      </trkpt>
      <trkpt lat="43.86362" lon="3.31738">
        <ele>738.08</ele>
        <time>2026-03-29T14:28:39.465Z</time>
      </trkpt>
      <trkpt lat="43.86367" lon="3.31745">
        <ele>739.21</ele>
        <time>2026-03-29T14:28:44.478Z</time>
      </trkpt>
      <trkpt lat="43.86372" lon="3.31753">
        <ele>739.29</ele>
        <time>2026-03-29T14:28:49.493Z</time>
      </trkpt>
      <trkpt lat="43.86378" lon="3.31758">
        <ele>739.63</ele>
        <time>2026-03-29T14:28:55.467Z</time>
      </trkpt>
      <trkpt lat="43.86377" lon="3.31763">
        <ele>739.09</ele>
        <time>2026-03-29T14:29:00.707Z</time>
      </trkpt>
      <trkpt lat="43.86382" lon="3.31771">
        <ele>738.75</ele>
        <time>2026-03-29T14:29:06.060Z</time>
      </trkpt>
      <trkpt lat="43.86384" lon="3.31776">
        <ele>739.65</ele>
        <time>2026-03-29T14:29:11.260Z</time>
      </trkpt>
      <trkpt lat="43.86387" lon="3.31783">
        <ele>740.78</ele>
        <time>2026-03-29T14:29:16.487Z</time>
      </trkpt>
      <trkpt lat="43.8639" lon="3.31786">
        <ele>742.12</ele>
        <time>2026-03-29T14:29:22.456Z</time>
      </trkpt>
      <trkpt lat="43.8639" lon="3.31784">
        <ele>742.85</ele>
        <time>2026-03-29T14:29:27.485Z</time>
      </trkpt>
      <trkpt lat="43.86391" lon="3.31783">
        <ele>741.91</ele>
        <time>2026-03-29T14:29:37.406Z</time>
      </trkpt>
      <trkpt lat="43.86391" lon="3.31785">
        <ele>741.66</ele>
        <time>2026-03-29T14:29:43.487Z</time>
      </trkpt>
      <trkpt lat="43.86392" lon="3.31786">
        <ele>741.55</ele>
        <time>2026-03-29T14:29:48.715Z</time>
      </trkpt>
      <trkpt lat="43.86396" lon="3.31783">
        <ele>742.51</ele>
        <time>2026-03-29T14:29:54.464Z</time>
      </trkpt>
      <trkpt lat="43.86401" lon="3.31768">
        <ele>741.21</ele>
        <time>2026-03-29T14:30:00.451Z</time>
      </trkpt>
      <trkpt lat="43.8641" lon="3.31757">
        <ele>741.05</ele>
        <time>2026-03-29T14:30:05.563Z</time>
      </trkpt>
      <trkpt lat="43.86416" lon="3.31746">
        <ele>741.23</ele>
        <time>2026-03-29T14:30:11.546Z</time>
      </trkpt>
      <trkpt lat="43.86419" lon="3.31735">
        <ele>740.9</ele>
        <time>2026-03-29T14:30:16.780Z</time>
      </trkpt>
      <trkpt lat="43.86421" lon="3.31727">
        <ele>740.59</ele>
        <time>2026-03-29T14:30:21.856Z</time>
      </trkpt>
      <trkpt lat="43.86425" lon="3.31718">
        <ele>741.34</ele>
        <time>2026-03-29T14:30:27.484Z</time>
      </trkpt>
      <trkpt lat="43.86427" lon="3.31709">
        <ele>739.35</ele>
        <time>2026-03-29T14:30:32.597Z</time>
      </trkpt>
      <trkpt lat="43.86428" lon="3.31698">
        <ele>738.87</ele>
        <time>2026-03-29T14:30:38.261Z</time>
      </trkpt>
      <trkpt lat="43.86431" lon="3.31684">
        <ele>738.39</ele>
        <time>2026-03-29T14:30:44.101Z</time>
      </trkpt>
      <trkpt lat="43.86436" lon="3.31678">
        <ele>737.91</ele>
        <time>2026-03-29T14:30:49.196Z</time>
      </trkpt>
      <trkpt lat="43.8644" lon="3.31669">
        <ele>736.64</ele>
        <time>2026-03-29T14:30:54.367Z</time>
      </trkpt>
      <trkpt lat="43.86443" lon="3.31662">
        <ele>734.65</ele>
        <time>2026-03-29T14:30:59.964Z</time>
      </trkpt>
      <trkpt lat="43.86446" lon="3.31653">
        <ele>736.3</ele>
        <time>2026-03-29T14:31:05.399Z</time>
      </trkpt>
      <trkpt lat="43.86448" lon="3.31645">
        <ele>736.65</ele>
        <time>2026-03-29T14:31:10.867Z</time>
      </trkpt>
      <trkpt lat="43.86447" lon="3.31637">
        <ele>735.71</ele>
        <time>2026-03-29T14:31:16.516Z</time>
      </trkpt>
      <trkpt lat="43.86443" lon="3.31636">
        <ele>736.78</ele>
        <time>2026-03-29T14:31:22.492Z</time>
      </trkpt>
    </trkseg>
  </trk>
</gpx>